<?xml version="1.0" encoding="UTF-8" standalone="no" ?>
<gpx xmlns="http://www.topografix.com/GPX/1/1" xmlns:xsi="http://www.w3.org/2001/XMLSchema-instance" xsi:schemaLocation="http://www.topografix.com/GPX/1/1 http://www.topografix.com/GPX/1/1/gpx.xsd" version="1.1" creator="VisuGPX - https://www.visugpx.com">
  <metadata>
    <name>14- VTT Ad 2022 52 km</name>
    <desc><![CDATA[VTT 52 km Etalle 26/05/22]]></desc>
  </metadata>
  <trk>
    <name><![CDATA[14- VTT Ad 2022 52 km]]></name>
    <trkseg>
      <trkpt lat="49.6729" lon="5.60407">
        <ele>332.79998779297</ele>
        <time>2022-03-18T07:42:33.000Z</time>
      </trkpt>
      <trkpt lat="49.67281" lon="5.60398">
        <ele>333</ele>
        <time>2022-03-18T07:42:37.000Z</time>
      </trkpt>
      <trkpt lat="49.67269" lon="5.60381">
        <ele>333.39999389648</ele>
        <time>2022-03-18T07:42:42.000Z</time>
      </trkpt>
      <trkpt lat="49.67263" lon="5.60377">
        <ele>333.60000610352</ele>
        <time>2022-03-18T07:42:44.000Z</time>
      </trkpt>
      <trkpt lat="49.67256" lon="5.60378">
        <ele>334</ele>
        <time>2022-03-18T07:42:46.000Z</time>
      </trkpt>
      <trkpt lat="49.67249" lon="5.6037">
        <ele>334.20001220703</ele>
        <time>2022-03-18T07:42:49.000Z</time>
      </trkpt>
      <trkpt lat="49.67241" lon="5.60346">
        <ele>334.39999389648</ele>
        <time>2022-03-18T07:42:54.000Z</time>
      </trkpt>
      <trkpt lat="49.6724" lon="5.60341">
        <ele>334.60000610352</ele>
        <time>2022-03-18T07:42:55.000Z</time>
      </trkpt>
      <trkpt lat="49.67237" lon="5.60332">
        <ele>334.60000610352</ele>
        <time>2022-03-18T07:42:57.000Z</time>
      </trkpt>
      <trkpt lat="49.67231" lon="5.6033">
        <ele>334.79998779297</ele>
        <time>2022-03-18T07:42:59.000Z</time>
      </trkpt>
      <trkpt lat="49.67207" lon="5.60323">
        <ele>335.39999389648</ele>
        <time>2022-03-18T07:43:05.000Z</time>
      </trkpt>
      <trkpt lat="49.67192" lon="5.60329">
        <ele>335</ele>
        <time>2022-03-18T07:43:09.000Z</time>
      </trkpt>
      <trkpt lat="49.67178" lon="5.60352">
        <ele>334.39999389648</ele>
        <time>2022-03-18T07:43:14.000Z</time>
      </trkpt>
      <trkpt lat="49.67171" lon="5.60362">
        <ele>334</ele>
        <time>2022-03-18T07:43:16.000Z</time>
      </trkpt>
      <trkpt lat="49.67157" lon="5.6038">
        <ele>333.39999389648</ele>
        <time>2022-03-18T07:43:20.000Z</time>
      </trkpt>
      <trkpt lat="49.67112" lon="5.60428">
        <ele>334</ele>
        <time>2022-03-18T07:43:31.000Z</time>
      </trkpt>
      <trkpt lat="49.67073" lon="5.60467">
        <ele>332.20001220703</ele>
        <time>2022-03-18T07:43:40.000Z</time>
      </trkpt>
      <trkpt lat="49.67069" lon="5.60472">
        <ele>331.79998779297</ele>
        <time>2022-03-18T07:43:41.000Z</time>
      </trkpt>
      <trkpt lat="49.6704" lon="5.60489">
        <ele>331.39999389648</ele>
        <time>2022-03-18T07:43:47.000Z</time>
      </trkpt>
      <trkpt lat="49.67002" lon="5.60495">
        <ele>334</ele>
        <time>2022-03-18T07:43:55.000Z</time>
      </trkpt>
      <trkpt lat="49.66973" lon="5.60498">
        <ele>338.60000610352</ele>
        <time>2022-03-18T07:44:02.000Z</time>
      </trkpt>
      <trkpt lat="49.66969" lon="5.60499">
        <ele>338.79998779297</ele>
        <time>2022-03-18T07:44:03.000Z</time>
      </trkpt>
      <trkpt lat="49.66953" lon="5.605">
        <ele>340</ele>
        <time>2022-03-18T07:44:07.000Z</time>
      </trkpt>
      <trkpt lat="49.66937" lon="5.60502">
        <ele>341</ele>
        <time>2022-03-18T07:44:11.000Z</time>
      </trkpt>
      <trkpt lat="49.66929" lon="5.60504">
        <ele>341.39999389648</ele>
        <time>2022-03-18T07:44:13.000Z</time>
      </trkpt>
      <trkpt lat="49.66917" lon="5.60508">
        <ele>341.79998779297</ele>
        <time>2022-03-18T07:44:16.000Z</time>
      </trkpt>
      <trkpt lat="49.66898" lon="5.60518">
        <ele>342.20001220703</ele>
        <time>2022-03-18T07:44:21.000Z</time>
      </trkpt>
      <trkpt lat="49.66894" lon="5.6052">
        <ele>342.39999389648</ele>
        <time>2022-03-18T07:44:22.000Z</time>
      </trkpt>
      <trkpt lat="49.66875" lon="5.60532">
        <ele>342</ele>
        <time>2022-03-18T07:44:27.000Z</time>
      </trkpt>
      <trkpt lat="49.66861" lon="5.60542">
        <ele>341.39999389648</ele>
        <time>2022-03-18T07:44:31.000Z</time>
      </trkpt>
      <trkpt lat="49.66857" lon="5.60545">
        <ele>341.20001220703</ele>
        <time>2022-03-18T07:44:32.000Z</time>
      </trkpt>
      <trkpt lat="49.66846" lon="5.60552">
        <ele>341</ele>
        <time>2022-03-18T07:44:35.000Z</time>
      </trkpt>
      <trkpt lat="49.66826" lon="5.60564">
        <ele>341</ele>
        <time>2022-03-18T07:44:40.000Z</time>
      </trkpt>
      <trkpt lat="49.66793" lon="5.60583">
        <ele>340.79998779297</ele>
        <time>2022-03-18T07:44:48.000Z</time>
      </trkpt>
      <trkpt lat="49.66778" lon="5.60602">
        <ele>341.60000610352</ele>
        <time>2022-03-18T07:44:52.000Z</time>
      </trkpt>
      <trkpt lat="49.66771" lon="5.60612">
        <ele>341.60000610352</ele>
        <time>2022-03-18T07:44:54.000Z</time>
      </trkpt>
      <trkpt lat="49.66758" lon="5.60614">
        <ele>341.20001220703</ele>
        <time>2022-03-18T07:44:57.000Z</time>
      </trkpt>
      <trkpt lat="49.66744" lon="5.60601">
        <ele>341</ele>
        <time>2022-03-18T07:45:00.000Z</time>
      </trkpt>
      <trkpt lat="49.66739" lon="5.60596">
        <ele>341</ele>
        <time>2022-03-18T07:45:01.000Z</time>
      </trkpt>
      <trkpt lat="49.66723" lon="5.60579">
        <ele>340.79998779297</ele>
        <time>2022-03-18T07:45:05.000Z</time>
      </trkpt>
      <trkpt lat="49.66706" lon="5.60561">
        <ele>340.20001220703</ele>
        <time>2022-03-18T07:45:09.000Z</time>
      </trkpt>
      <trkpt lat="49.66663" lon="5.60519">
        <ele>340.20001220703</ele>
        <time>2022-03-18T07:45:18.000Z</time>
      </trkpt>
      <trkpt lat="49.66626" lon="5.60486">
        <ele>341.60000610352</ele>
        <time>2022-03-18T07:45:25.000Z</time>
      </trkpt>
      <trkpt lat="49.6662" lon="5.60484">
        <ele>341.79998779297</ele>
        <time>2022-03-18T07:45:26.000Z</time>
      </trkpt>
      <trkpt lat="49.66595" lon="5.60483">
        <ele>341.20001220703</ele>
        <time>2022-03-18T07:45:30.000Z</time>
      </trkpt>
      <trkpt lat="49.66567" lon="5.605">
        <ele>339.60000610352</ele>
        <time>2022-03-18T07:45:35.000Z</time>
      </trkpt>
      <trkpt lat="49.66537" lon="5.60534">
        <ele>339.79998779297</ele>
        <time>2022-03-18T07:45:41.000Z</time>
      </trkpt>
      <trkpt lat="49.66503" lon="5.6057">
        <ele>344</ele>
        <time>2022-03-18T07:45:48.000Z</time>
      </trkpt>
      <trkpt lat="49.66497" lon="5.60572">
        <ele>344.60000610352</ele>
        <time>2022-03-18T07:45:49.000Z</time>
      </trkpt>
      <trkpt lat="49.66468" lon="5.60574">
        <ele>345.60000610352</ele>
        <time>2022-03-18T07:45:54.000Z</time>
      </trkpt>
      <trkpt lat="49.66442" lon="5.60556">
        <ele>343</ele>
        <time>2022-03-18T07:45:59.000Z</time>
      </trkpt>
      <trkpt lat="49.66429" lon="5.60538">
        <ele>342.20001220703</ele>
        <time>2022-03-18T07:46:02.000Z</time>
      </trkpt>
      <trkpt lat="49.66422" lon="5.60524">
        <ele>341.79998779297</ele>
        <time>2022-03-18T07:46:04.000Z</time>
      </trkpt>
      <trkpt lat="49.66389" lon="5.6046">
        <ele>342.20001220703</ele>
        <time>2022-03-18T07:46:13.000Z</time>
      </trkpt>
      <trkpt lat="49.66382" lon="5.60446">
        <ele>342.39999389648</ele>
        <time>2022-03-18T07:46:15.000Z</time>
      </trkpt>
      <trkpt lat="49.66367" lon="5.60419">
        <ele>344</ele>
        <time>2022-03-18T07:46:19.000Z</time>
      </trkpt>
      <trkpt lat="49.66357" lon="5.60411">
        <ele>345.20001220703</ele>
        <time>2022-03-18T07:46:21.000Z</time>
      </trkpt>
      <trkpt lat="49.66351" lon="5.60411">
        <ele>345.79998779297</ele>
        <time>2022-03-18T07:46:22.000Z</time>
      </trkpt>
      <trkpt lat="49.66341" lon="5.60418">
        <ele>346.79998779297</ele>
        <time>2022-03-18T07:46:24.000Z</time>
      </trkpt>
      <trkpt lat="49.66328" lon="5.60436">
        <ele>347.79998779297</ele>
        <time>2022-03-18T07:46:27.000Z</time>
      </trkpt>
      <trkpt lat="49.6632" lon="5.60449">
        <ele>349.20001220703</ele>
        <time>2022-03-18T07:46:29.000Z</time>
      </trkpt>
      <trkpt lat="49.66291" lon="5.60502">
        <ele>352.79998779297</ele>
        <time>2022-03-18T07:46:37.000Z</time>
      </trkpt>
      <trkpt lat="49.66287" lon="5.60509">
        <ele>353</ele>
        <time>2022-03-18T07:46:38.000Z</time>
      </trkpt>
      <trkpt lat="49.66263" lon="5.60559">
        <ele>351.60000610352</ele>
        <time>2022-03-18T07:46:45.000Z</time>
      </trkpt>
      <trkpt lat="49.6623" lon="5.60633">
        <ele>347.39999389648</ele>
        <time>2022-03-18T07:46:55.000Z</time>
      </trkpt>
      <trkpt lat="49.66203" lon="5.60691">
        <ele>344.39999389648</ele>
        <time>2022-03-18T07:47:03.000Z</time>
      </trkpt>
      <trkpt lat="49.66171" lon="5.60765">
        <ele>346</ele>
        <time>2022-03-18T07:47:13.000Z</time>
      </trkpt>
      <trkpt lat="49.66167" lon="5.60773">
        <ele>346</ele>
        <time>2022-03-18T07:47:14.000Z</time>
      </trkpt>
      <trkpt lat="49.66141" lon="5.6083">
        <ele>347</ele>
        <time>2022-03-18T07:47:22.000Z</time>
      </trkpt>
      <trkpt lat="49.66134" lon="5.60844">
        <ele>346.79998779297</ele>
        <time>2022-03-18T07:47:24.000Z</time>
      </trkpt>
      <trkpt lat="49.66105" lon="5.609">
        <ele>348.20001220703</ele>
        <time>2022-03-18T07:47:32.000Z</time>
      </trkpt>
      <trkpt lat="49.66071" lon="5.6097">
        <ele>349.20001220703</ele>
        <time>2022-03-18T07:47:42.000Z</time>
      </trkpt>
      <trkpt lat="49.66055" lon="5.60998">
        <ele>348</ele>
        <time>2022-03-18T07:47:46.000Z</time>
      </trkpt>
      <trkpt lat="49.66042" lon="5.61019">
        <ele>347.20001220703</ele>
        <time>2022-03-18T07:47:49.000Z</time>
      </trkpt>
      <trkpt lat="49.66012" lon="5.61068">
        <ele>343.20001220703</ele>
        <time>2022-03-18T07:47:56.000Z</time>
      </trkpt>
      <trkpt lat="49.66003" lon="5.61083">
        <ele>343</ele>
        <time>2022-03-18T07:47:58.000Z</time>
      </trkpt>
      <trkpt lat="49.65989" lon="5.61105">
        <ele>344.20001220703</ele>
        <time>2022-03-18T07:48:01.000Z</time>
      </trkpt>
      <trkpt lat="49.65962" lon="5.61148">
        <ele>346.39999389648</ele>
        <time>2022-03-18T07:48:07.000Z</time>
      </trkpt>
      <trkpt lat="49.65958" lon="5.61154">
        <ele>346.79998779297</ele>
        <time>2022-03-18T07:48:08.000Z</time>
      </trkpt>
      <trkpt lat="49.65927" lon="5.61202">
        <ele>347.39999389648</ele>
        <time>2022-03-18T07:48:16.000Z</time>
      </trkpt>
      <trkpt lat="49.65907" lon="5.61233">
        <ele>348.20001220703</ele>
        <time>2022-03-18T07:48:22.000Z</time>
      </trkpt>
      <trkpt lat="49.65897" lon="5.61247">
        <ele>349.60000610352</ele>
        <time>2022-03-18T07:48:25.000Z</time>
      </trkpt>
      <trkpt lat="49.65891" lon="5.61264">
        <ele>352</ele>
        <time>2022-03-18T07:48:28.000Z</time>
      </trkpt>
      <trkpt lat="49.65891" lon="5.61269">
        <ele>353</ele>
        <time>2022-03-18T07:48:29.000Z</time>
      </trkpt>
      <trkpt lat="49.65892" lon="5.61286">
        <ele>355.79998779297</ele>
        <time>2022-03-18T07:48:32.000Z</time>
      </trkpt>
      <trkpt lat="49.65894" lon="5.61299">
        <ele>357.60000610352</ele>
        <time>2022-03-18T07:48:34.000Z</time>
      </trkpt>
      <trkpt lat="49.65895" lon="5.61305">
        <ele>358.39999389648</ele>
        <time>2022-03-18T07:48:35.000Z</time>
      </trkpt>
      <trkpt lat="49.65906" lon="5.61329">
        <ele>360</ele>
        <time>2022-03-18T07:48:40.000Z</time>
      </trkpt>
      <trkpt lat="49.65932" lon="5.6136">
        <ele>359.60000610352</ele>
        <time>2022-03-18T07:48:48.000Z</time>
      </trkpt>
      <trkpt lat="49.65938" lon="5.61366">
        <ele>359.39999389648</ele>
        <time>2022-03-18T07:48:50.000Z</time>
      </trkpt>
      <trkpt lat="49.65957" lon="5.61378">
        <ele>359.79998779297</ele>
        <time>2022-03-18T07:48:55.000Z</time>
      </trkpt>
      <trkpt lat="49.65974" lon="5.61386">
        <ele>361.20001220703</ele>
        <time>2022-03-18T07:48:59.000Z</time>
      </trkpt>
      <trkpt lat="49.65985" lon="5.61396">
        <ele>361.20001220703</ele>
        <time>2022-03-18T07:49:02.000Z</time>
      </trkpt>
      <trkpt lat="49.65988" lon="5.614">
        <ele>361</ele>
        <time>2022-03-18T07:49:03.000Z</time>
      </trkpt>
      <trkpt lat="49.66004" lon="5.61415">
        <ele>360.60000610352</ele>
        <time>2022-03-18T07:49:07.000Z</time>
      </trkpt>
      <trkpt lat="49.66031" lon="5.61452">
        <ele>353.60000610352</ele>
        <time>2022-03-18T07:49:15.000Z</time>
      </trkpt>
      <trkpt lat="49.6604" lon="5.6148">
        <ele>349.20001220703</ele>
        <time>2022-03-18T07:49:20.000Z</time>
      </trkpt>
      <trkpt lat="49.66038" lon="5.61508">
        <ele>347.20001220703</ele>
        <time>2022-03-18T07:49:25.000Z</time>
      </trkpt>
      <trkpt lat="49.66038" lon="5.6152">
        <ele>346.79998779297</ele>
        <time>2022-03-18T07:49:27.000Z</time>
      </trkpt>
      <trkpt lat="49.66037" lon="5.61551">
        <ele>346.39999389648</ele>
        <time>2022-03-18T07:49:32.000Z</time>
      </trkpt>
      <trkpt lat="49.66039" lon="5.61599">
        <ele>347</ele>
        <time>2022-03-18T07:49:39.000Z</time>
      </trkpt>
      <trkpt lat="49.66041" lon="5.61613">
        <ele>346.79998779297</ele>
        <time>2022-03-18T07:49:41.000Z</time>
      </trkpt>
      <trkpt lat="49.66047" lon="5.61633">
        <ele>345.79998779297</ele>
        <time>2022-03-18T07:49:44.000Z</time>
      </trkpt>
      <trkpt lat="49.66058" lon="5.61658">
        <ele>344.79998779297</ele>
        <time>2022-03-18T07:49:48.000Z</time>
      </trkpt>
      <trkpt lat="49.66063" lon="5.61668">
        <ele>344.79998779297</ele>
        <time>2022-03-18T07:49:50.000Z</time>
      </trkpt>
      <trkpt lat="49.66062" lon="5.61681">
        <ele>345</ele>
        <time>2022-03-18T07:49:53.000Z</time>
      </trkpt>
      <trkpt lat="49.66061" lon="5.61685">
        <ele>345</ele>
        <time>2022-03-18T07:49:54.000Z</time>
      </trkpt>
      <trkpt lat="49.6605" lon="5.617">
        <ele>346</ele>
        <time>2022-03-18T07:49:59.000Z</time>
      </trkpt>
      <trkpt lat="49.66041" lon="5.61712">
        <ele>347</ele>
        <time>2022-03-18T07:50:03.000Z</time>
      </trkpt>
      <trkpt lat="49.66034" lon="5.61719">
        <ele>347.79998779297</ele>
        <time>2022-03-18T07:50:05.000Z</time>
      </trkpt>
      <trkpt lat="49.66024" lon="5.61733">
        <ele>349</ele>
        <time>2022-03-18T07:50:08.000Z</time>
      </trkpt>
      <trkpt lat="49.66018" lon="5.61743">
        <ele>349.39999389648</ele>
        <time>2022-03-18T07:50:10.000Z</time>
      </trkpt>
      <trkpt lat="49.66008" lon="5.61756">
        <ele>350.60000610352</ele>
        <time>2022-03-18T07:50:13.000Z</time>
      </trkpt>
      <trkpt lat="49.65999" lon="5.61767">
        <ele>351</ele>
        <time>2022-03-18T07:50:16.000Z</time>
      </trkpt>
      <trkpt lat="49.65985" lon="5.61787">
        <ele>352.60000610352</ele>
        <time>2022-03-18T07:50:21.000Z</time>
      </trkpt>
      <trkpt lat="49.65967" lon="5.61811">
        <ele>353.60000610352</ele>
        <time>2022-03-18T07:50:27.000Z</time>
      </trkpt>
      <trkpt lat="49.65955" lon="5.61828">
        <ele>354.39999389648</ele>
        <time>2022-03-18T07:50:31.000Z</time>
      </trkpt>
      <trkpt lat="49.65949" lon="5.61837">
        <ele>355</ele>
        <time>2022-03-18T07:50:33.000Z</time>
      </trkpt>
      <trkpt lat="49.65931" lon="5.61861">
        <ele>353.39999389648</ele>
        <time>2022-03-18T07:50:39.000Z</time>
      </trkpt>
      <trkpt lat="49.65915" lon="5.6188">
        <ele>352.60000610352</ele>
        <time>2022-03-18T07:50:44.000Z</time>
      </trkpt>
      <trkpt lat="49.65912" lon="5.61884">
        <ele>352.39999389648</ele>
        <time>2022-03-18T07:50:45.000Z</time>
      </trkpt>
      <trkpt lat="49.65896" lon="5.61905">
        <ele>352.60000610352</ele>
        <time>2022-03-18T07:50:50.000Z</time>
      </trkpt>
      <trkpt lat="49.65871" lon="5.61938">
        <ele>351.39999389648</ele>
        <time>2022-03-18T07:50:57.000Z</time>
      </trkpt>
      <trkpt lat="49.65864" lon="5.61947">
        <ele>351</ele>
        <time>2022-03-18T07:50:59.000Z</time>
      </trkpt>
      <trkpt lat="49.65852" lon="5.61966">
        <ele>348.60000610352</ele>
        <time>2022-03-18T07:51:03.000Z</time>
      </trkpt>
      <trkpt lat="49.65849" lon="5.61972">
        <ele>347.60000610352</ele>
        <time>2022-03-18T07:51:04.000Z</time>
      </trkpt>
      <trkpt lat="49.65836" lon="5.61993">
        <ele>346</ele>
        <time>2022-03-18T07:51:08.000Z</time>
      </trkpt>
      <trkpt lat="49.65825" lon="5.62017">
        <ele>346</ele>
        <time>2022-03-18T07:51:13.000Z</time>
      </trkpt>
      <trkpt lat="49.65826" lon="5.62019">
        <ele>346</ele>
        <time>2022-03-18T07:51:14.000Z</time>
      </trkpt>
      <trkpt lat="49.6583" lon="5.62022">
        <ele>346</ele>
        <time>2022-03-18T07:51:16.000Z</time>
      </trkpt>
      <trkpt lat="49.65849" lon="5.6203">
        <ele>346</ele>
        <time>2022-03-18T07:51:21.000Z</time>
      </trkpt>
      <trkpt lat="49.65874" lon="5.62045">
        <ele>346.79998779297</ele>
        <time>2022-03-18T07:51:28.000Z</time>
      </trkpt>
      <trkpt lat="49.65874" lon="5.62049">
        <ele>347</ele>
        <time>2022-03-18T07:51:29.000Z</time>
      </trkpt>
      <trkpt lat="49.65869" lon="5.62052">
        <ele>346.79998779297</ele>
        <time>2022-03-18T07:51:31.000Z</time>
      </trkpt>
      <trkpt lat="49.65857" lon="5.62052">
        <ele>346.79998779297</ele>
        <time>2022-03-18T07:51:34.000Z</time>
      </trkpt>
      <trkpt lat="49.65853" lon="5.62052">
        <ele>346.60000610352</ele>
        <time>2022-03-18T07:51:35.000Z</time>
      </trkpt>
      <trkpt lat="49.65843" lon="5.62053">
        <ele>346.20001220703</ele>
        <time>2022-03-18T07:51:37.000Z</time>
      </trkpt>
      <trkpt lat="49.65822" lon="5.62056">
        <ele>346.20001220703</ele>
        <time>2022-03-18T07:51:41.000Z</time>
      </trkpt>
      <trkpt lat="49.65817" lon="5.62056">
        <ele>346</ele>
        <time>2022-03-18T07:51:42.000Z</time>
      </trkpt>
      <trkpt lat="49.65802" lon="5.62058">
        <ele>346</ele>
        <time>2022-03-18T07:51:45.000Z</time>
      </trkpt>
      <trkpt lat="49.65792" lon="5.62059">
        <ele>346</ele>
        <time>2022-03-18T07:51:47.000Z</time>
      </trkpt>
      <trkpt lat="49.65787" lon="5.6206">
        <ele>346</ele>
        <time>2022-03-18T07:51:48.000Z</time>
      </trkpt>
      <trkpt lat="49.65751" lon="5.62063">
        <ele>346.79998779297</ele>
        <time>2022-03-18T07:51:55.000Z</time>
      </trkpt>
      <trkpt lat="49.65736" lon="5.62064">
        <ele>347.20001220703</ele>
        <time>2022-03-18T07:51:58.000Z</time>
      </trkpt>
      <trkpt lat="49.65712" lon="5.62064">
        <ele>348</ele>
        <time>2022-03-18T07:52:02.000Z</time>
      </trkpt>
      <trkpt lat="49.65678" lon="5.62065">
        <ele>350.79998779297</ele>
        <time>2022-03-18T07:52:08.000Z</time>
      </trkpt>
      <trkpt lat="49.65673" lon="5.62066">
        <ele>351.20001220703</ele>
        <time>2022-03-18T07:52:09.000Z</time>
      </trkpt>
      <trkpt lat="49.65668" lon="5.62068">
        <ele>351.20001220703</ele>
        <time>2022-03-18T07:52:10.000Z</time>
      </trkpt>
      <trkpt lat="49.65651" lon="5.62086">
        <ele>349.79998779297</ele>
        <time>2022-03-18T07:52:14.000Z</time>
      </trkpt>
      <trkpt lat="49.65644" lon="5.62098">
        <ele>350</ele>
        <time>2022-03-18T07:52:16.000Z</time>
      </trkpt>
      <trkpt lat="49.65641" lon="5.62104">
        <ele>350</ele>
        <time>2022-03-18T07:52:17.000Z</time>
      </trkpt>
      <trkpt lat="49.65636" lon="5.62117">
        <ele>350</ele>
        <time>2022-03-18T07:52:19.000Z</time>
      </trkpt>
      <trkpt lat="49.65631" lon="5.62128">
        <ele>350.39999389648</ele>
        <time>2022-03-18T07:52:21.000Z</time>
      </trkpt>
      <trkpt lat="49.65627" lon="5.62138">
        <ele>351.39999389648</ele>
        <time>2022-03-18T07:52:23.000Z</time>
      </trkpt>
      <trkpt lat="49.65622" lon="5.62149">
        <ele>352</ele>
        <time>2022-03-18T07:52:25.000Z</time>
      </trkpt>
      <trkpt lat="49.65619" lon="5.6216">
        <ele>353</ele>
        <time>2022-03-18T07:52:27.000Z</time>
      </trkpt>
      <trkpt lat="49.65615" lon="5.6218">
        <ele>354.39999389648</ele>
        <time>2022-03-18T07:52:30.000Z</time>
      </trkpt>
      <trkpt lat="49.65613" lon="5.62201">
        <ele>355.20001220703</ele>
        <time>2022-03-18T07:52:33.000Z</time>
      </trkpt>
      <trkpt lat="49.65612" lon="5.62208">
        <ele>355.39999389648</ele>
        <time>2022-03-18T07:52:34.000Z</time>
      </trkpt>
      <trkpt lat="49.65602" lon="5.62255">
        <ele>357.60000610352</ele>
        <time>2022-03-18T07:52:41.000Z</time>
      </trkpt>
      <trkpt lat="49.65595" lon="5.62285">
        <ele>357.79998779297</ele>
        <time>2022-03-18T07:52:45.000Z</time>
      </trkpt>
      <trkpt lat="49.65592" lon="5.62301">
        <ele>357.79998779297</ele>
        <time>2022-03-18T07:52:47.000Z</time>
      </trkpt>
      <trkpt lat="49.65579" lon="5.62353">
        <ele>353.79998779297</ele>
        <time>2022-03-18T07:52:53.000Z</time>
      </trkpt>
      <trkpt lat="49.65574" lon="5.62371">
        <ele>353</ele>
        <time>2022-03-18T07:52:55.000Z</time>
      </trkpt>
      <trkpt lat="49.65567" lon="5.62388">
        <ele>352.20001220703</ele>
        <time>2022-03-18T07:52:57.000Z</time>
      </trkpt>
      <trkpt lat="49.65561" lon="5.62408">
        <ele>351</ele>
        <time>2022-03-18T07:52:59.000Z</time>
      </trkpt>
      <trkpt lat="49.65559" lon="5.62417">
        <ele>349.79998779297</ele>
        <time>2022-03-18T07:53:00.000Z</time>
      </trkpt>
      <trkpt lat="49.65553" lon="5.62448">
        <ele>349.20001220703</ele>
        <time>2022-03-18T07:53:04.000Z</time>
      </trkpt>
      <trkpt lat="49.65549" lon="5.62466">
        <ele>351.39999389648</ele>
        <time>2022-03-18T07:53:07.000Z</time>
      </trkpt>
      <trkpt lat="49.65546" lon="5.62477">
        <ele>351.60000610352</ele>
        <time>2022-03-18T07:53:09.000Z</time>
      </trkpt>
      <trkpt lat="49.65545" lon="5.62488">
        <ele>352.60000610352</ele>
        <time>2022-03-18T07:53:11.000Z</time>
      </trkpt>
      <trkpt lat="49.65542" lon="5.62507">
        <ele>353.20001220703</ele>
        <time>2022-03-18T07:53:14.000Z</time>
      </trkpt>
      <trkpt lat="49.65537" lon="5.62526">
        <ele>353.79998779297</ele>
        <time>2022-03-18T07:53:17.000Z</time>
      </trkpt>
      <trkpt lat="49.65534" lon="5.62532">
        <ele>354</ele>
        <time>2022-03-18T07:53:18.000Z</time>
      </trkpt>
      <trkpt lat="49.65531" lon="5.62538">
        <ele>354.20001220703</ele>
        <time>2022-03-18T07:53:19.000Z</time>
      </trkpt>
      <trkpt lat="49.65528" lon="5.62544">
        <ele>354.60000610352</ele>
        <time>2022-03-18T07:53:20.000Z</time>
      </trkpt>
      <trkpt lat="49.65518" lon="5.6256">
        <ele>355</ele>
        <time>2022-03-18T07:53:23.000Z</time>
      </trkpt>
      <trkpt lat="49.6551" lon="5.6257">
        <ele>355.39999389648</ele>
        <time>2022-03-18T07:53:25.000Z</time>
      </trkpt>
      <trkpt lat="49.65487" lon="5.62605">
        <ele>355</ele>
        <time>2022-03-18T07:53:31.000Z</time>
      </trkpt>
      <trkpt lat="49.65484" lon="5.62612">
        <ele>355.20001220703</ele>
        <time>2022-03-18T07:53:32.000Z</time>
      </trkpt>
      <trkpt lat="49.65456" lon="5.62678">
        <ele>354.79998779297</ele>
        <time>2022-03-18T07:53:41.000Z</time>
      </trkpt>
      <trkpt lat="49.65426" lon="5.6274">
        <ele>354.20001220703</ele>
        <time>2022-03-18T07:53:50.000Z</time>
      </trkpt>
      <trkpt lat="49.65408" lon="5.62781">
        <ele>357</ele>
        <time>2022-03-18T07:53:56.000Z</time>
      </trkpt>
      <trkpt lat="49.65406" lon="5.62788">
        <ele>357.20001220703</ele>
        <time>2022-03-18T07:53:57.000Z</time>
      </trkpt>
      <trkpt lat="49.65406" lon="5.62811">
        <ele>358.60000610352</ele>
        <time>2022-03-18T07:54:00.000Z</time>
      </trkpt>
      <trkpt lat="49.65413" lon="5.62833">
        <ele>359</ele>
        <time>2022-03-18T07:54:03.000Z</time>
      </trkpt>
      <trkpt lat="49.65415" lon="5.62842">
        <ele>359</ele>
        <time>2022-03-18T07:54:04.000Z</time>
      </trkpt>
      <trkpt lat="49.65428" lon="5.62891">
        <ele>358</ele>
        <time>2022-03-18T07:54:10.000Z</time>
      </trkpt>
      <trkpt lat="49.65438" lon="5.62944">
        <ele>357.20001220703</ele>
        <time>2022-03-18T07:54:16.000Z</time>
      </trkpt>
      <trkpt lat="49.65441" lon="5.62962">
        <ele>357.79998779297</ele>
        <time>2022-03-18T07:54:18.000Z</time>
      </trkpt>
      <trkpt lat="49.65453" lon="5.63015">
        <ele>357.39999389648</ele>
        <time>2022-03-18T07:54:24.000Z</time>
      </trkpt>
      <trkpt lat="49.65455" lon="5.63024">
        <ele>357</ele>
        <time>2022-03-18T07:54:25.000Z</time>
      </trkpt>
      <trkpt lat="49.65468" lon="5.63075">
        <ele>353.79998779297</ele>
        <time>2022-03-18T07:54:31.000Z</time>
      </trkpt>
      <trkpt lat="49.6547" lon="5.63084">
        <ele>353.20001220703</ele>
        <time>2022-03-18T07:54:32.000Z</time>
      </trkpt>
      <trkpt lat="49.6548" lon="5.63142">
        <ele>352.20001220703</ele>
        <time>2022-03-18T07:54:39.000Z</time>
      </trkpt>
      <trkpt lat="49.65489" lon="5.63187">
        <ele>353.39999389648</ele>
        <time>2022-03-18T07:54:44.000Z</time>
      </trkpt>
      <trkpt lat="49.65501" lon="5.63234">
        <ele>353.20001220703</ele>
        <time>2022-03-18T07:54:49.000Z</time>
      </trkpt>
      <trkpt lat="49.65503" lon="5.63244">
        <ele>352.60000610352</ele>
        <time>2022-03-18T07:54:50.000Z</time>
      </trkpt>
      <trkpt lat="49.65508" lon="5.63262">
        <ele>351.79998779297</ele>
        <time>2022-03-18T07:54:52.000Z</time>
      </trkpt>
      <trkpt lat="49.65518" lon="5.63302">
        <ele>351</ele>
        <time>2022-03-18T07:54:56.000Z</time>
      </trkpt>
      <trkpt lat="49.65521" lon="5.63311">
        <ele>351</ele>
        <time>2022-03-18T07:54:57.000Z</time>
      </trkpt>
      <trkpt lat="49.65537" lon="5.63362">
        <ele>349.79998779297</ele>
        <time>2022-03-18T07:55:03.000Z</time>
      </trkpt>
      <trkpt lat="49.65539" lon="5.63371">
        <ele>349.79998779297</ele>
        <time>2022-03-18T07:55:04.000Z</time>
      </trkpt>
      <trkpt lat="49.65551" lon="5.63413">
        <ele>348.20001220703</ele>
        <time>2022-03-18T07:55:09.000Z</time>
      </trkpt>
      <trkpt lat="49.65561" lon="5.63456">
        <ele>344.60000610352</ele>
        <time>2022-03-18T07:55:14.000Z</time>
      </trkpt>
      <trkpt lat="49.65561" lon="5.63464">
        <ele>344.39999389648</ele>
        <time>2022-03-18T07:55:15.000Z</time>
      </trkpt>
      <trkpt lat="49.65554" lon="5.63488">
        <ele>344.79998779297</ele>
        <time>2022-03-18T07:55:18.000Z</time>
      </trkpt>
      <trkpt lat="49.65545" lon="5.635">
        <ele>345.60000610352</ele>
        <time>2022-03-18T07:55:20.000Z</time>
      </trkpt>
      <trkpt lat="49.65539" lon="5.63513">
        <ele>346.39999389648</ele>
        <time>2022-03-18T07:55:22.000Z</time>
      </trkpt>
      <trkpt lat="49.65536" lon="5.63523">
        <ele>346.60000610352</ele>
        <time>2022-03-18T07:55:23.000Z</time>
      </trkpt>
      <trkpt lat="49.65531" lon="5.63542">
        <ele>347</ele>
        <time>2022-03-18T07:55:25.000Z</time>
      </trkpt>
      <trkpt lat="49.6552" lon="5.6359">
        <ele>347.60000610352</ele>
        <time>2022-03-18T07:55:30.000Z</time>
      </trkpt>
      <trkpt lat="49.65502" lon="5.63661">
        <ele>349.79998779297</ele>
        <time>2022-03-18T07:55:38.000Z</time>
      </trkpt>
      <trkpt lat="49.65492" lon="5.63684">
        <ele>348.39999389648</ele>
        <time>2022-03-18T07:55:41.000Z</time>
      </trkpt>
      <trkpt lat="49.65483" lon="5.63697">
        <ele>347.20001220703</ele>
        <time>2022-03-18T07:55:43.000Z</time>
      </trkpt>
      <trkpt lat="49.65459" lon="5.6374">
        <ele>340.60000610352</ele>
        <time>2022-03-18T07:55:49.000Z</time>
      </trkpt>
      <trkpt lat="49.65455" lon="5.63749">
        <ele>339.20001220703</ele>
        <time>2022-03-18T07:55:50.000Z</time>
      </trkpt>
      <trkpt lat="49.65444" lon="5.63773">
        <ele>337.79998779297</ele>
        <time>2022-03-18T07:55:53.000Z</time>
      </trkpt>
      <trkpt lat="49.65431" lon="5.63804">
        <ele>340</ele>
        <time>2022-03-18T07:55:57.000Z</time>
      </trkpt>
      <trkpt lat="49.65428" lon="5.63812">
        <ele>341</ele>
        <time>2022-03-18T07:55:58.000Z</time>
      </trkpt>
      <trkpt lat="49.65421" lon="5.63832">
        <ele>344.20001220703</ele>
        <time>2022-03-18T07:56:02.000Z</time>
      </trkpt>
      <trkpt lat="49.6541" lon="5.63832">
        <ele>344.60000610352</ele>
        <time>2022-03-18T07:56:06.000Z</time>
      </trkpt>
      <trkpt lat="49.65406" lon="5.63831">
        <ele>344.39999389648</ele>
        <time>2022-03-18T07:56:07.000Z</time>
      </trkpt>
      <trkpt lat="49.65392" lon="5.63828">
        <ele>344.39999389648</ele>
        <time>2022-03-18T07:56:11.000Z</time>
      </trkpt>
      <trkpt lat="49.65363" lon="5.63817">
        <ele>344.20001220703</ele>
        <time>2022-03-18T07:56:17.000Z</time>
      </trkpt>
      <trkpt lat="49.65359" lon="5.63816">
        <ele>345</ele>
        <time>2022-03-18T07:56:18.000Z</time>
      </trkpt>
      <trkpt lat="49.65346" lon="5.63811">
        <ele>347.39999389648</ele>
        <time>2022-03-18T07:56:21.000Z</time>
      </trkpt>
      <trkpt lat="49.65333" lon="5.63806">
        <ele>349.39999389648</ele>
        <time>2022-03-18T07:56:24.000Z</time>
      </trkpt>
      <trkpt lat="49.6532" lon="5.63799">
        <ele>350.60000610352</ele>
        <time>2022-03-18T07:56:27.000Z</time>
      </trkpt>
      <trkpt lat="49.65307" lon="5.63791">
        <ele>351.39999389648</ele>
        <time>2022-03-18T07:56:30.000Z</time>
      </trkpt>
      <trkpt lat="49.65289" lon="5.6378">
        <ele>351.60000610352</ele>
        <time>2022-03-18T07:56:33.000Z</time>
      </trkpt>
      <trkpt lat="49.65277" lon="5.63768">
        <ele>351.79998779297</ele>
        <time>2022-03-18T07:56:35.000Z</time>
      </trkpt>
      <trkpt lat="49.65272" lon="5.6376">
        <ele>352</ele>
        <time>2022-03-18T07:56:36.000Z</time>
      </trkpt>
      <trkpt lat="49.65264" lon="5.63744">
        <ele>351.20001220703</ele>
        <time>2022-03-18T07:56:38.000Z</time>
      </trkpt>
      <trkpt lat="49.65259" lon="5.63737">
        <ele>350.79998779297</ele>
        <time>2022-03-18T07:56:39.000Z</time>
      </trkpt>
      <trkpt lat="49.65246" lon="5.6372">
        <ele>350.39999389648</ele>
        <time>2022-03-18T07:56:42.000Z</time>
      </trkpt>
      <trkpt lat="49.65237" lon="5.63709">
        <ele>350</ele>
        <time>2022-03-18T07:56:44.000Z</time>
      </trkpt>
      <trkpt lat="49.65202" lon="5.63662">
        <ele>349.79998779297</ele>
        <time>2022-03-18T07:56:52.000Z</time>
      </trkpt>
      <trkpt lat="49.6519" lon="5.63642">
        <ele>350.20001220703</ele>
        <time>2022-03-18T07:56:55.000Z</time>
      </trkpt>
      <trkpt lat="49.6518" lon="5.63624">
        <ele>351</ele>
        <time>2022-03-18T07:56:58.000Z</time>
      </trkpt>
      <trkpt lat="49.6517" lon="5.63606">
        <ele>351.79998779297</ele>
        <time>2022-03-18T07:57:02.000Z</time>
      </trkpt>
      <trkpt lat="49.65171" lon="5.63601">
        <ele>351.39999389648</ele>
        <time>2022-03-18T07:57:03.000Z</time>
      </trkpt>
      <trkpt lat="49.65176" lon="5.63576">
        <ele>350.60000610352</ele>
        <time>2022-03-18T07:57:06.000Z</time>
      </trkpt>
      <trkpt lat="49.65187" lon="5.63542">
        <ele>349.79998779297</ele>
        <time>2022-03-18T07:57:11.000Z</time>
      </trkpt>
      <trkpt lat="49.65188" lon="5.63534">
        <ele>349.20001220703</ele>
        <time>2022-03-18T07:57:12.000Z</time>
      </trkpt>
      <trkpt lat="49.6519" lon="5.63526">
        <ele>349.20001220703</ele>
        <time>2022-03-18T07:57:13.000Z</time>
      </trkpt>
      <trkpt lat="49.65192" lon="5.63495">
        <ele>349.20001220703</ele>
        <time>2022-03-18T07:57:17.000Z</time>
      </trkpt>
      <trkpt lat="49.65192" lon="5.6349">
        <ele>349.20001220703</ele>
        <time>2022-03-18T07:57:18.000Z</time>
      </trkpt>
      <trkpt lat="49.6519" lon="5.63464">
        <ele>349.60000610352</ele>
        <time>2022-03-18T07:57:22.000Z</time>
      </trkpt>
      <trkpt lat="49.65186" lon="5.63457">
        <ele>350.20001220703</ele>
        <time>2022-03-18T07:57:23.000Z</time>
      </trkpt>
      <trkpt lat="49.65173" lon="5.63438">
        <ele>351.79998779297</ele>
        <time>2022-03-18T07:57:26.000Z</time>
      </trkpt>
      <trkpt lat="49.65155" lon="5.63414">
        <ele>351.60000610352</ele>
        <time>2022-03-18T07:57:30.000Z</time>
      </trkpt>
      <trkpt lat="49.65151" lon="5.63407">
        <ele>351.39999389648</ele>
        <time>2022-03-18T07:57:31.000Z</time>
      </trkpt>
      <trkpt lat="49.65147" lon="5.634">
        <ele>351.20001220703</ele>
        <time>2022-03-18T07:57:32.000Z</time>
      </trkpt>
      <trkpt lat="49.65134" lon="5.63372">
        <ele>349.39999389648</ele>
        <time>2022-03-18T07:57:36.000Z</time>
      </trkpt>
      <trkpt lat="49.65126" lon="5.63359">
        <ele>348.39999389648</ele>
        <time>2022-03-18T07:57:38.000Z</time>
      </trkpt>
      <trkpt lat="49.65104" lon="5.63319">
        <ele>345.60000610352</ele>
        <time>2022-03-18T07:57:45.000Z</time>
      </trkpt>
      <trkpt lat="49.65082" lon="5.63292">
        <ele>347</ele>
        <time>2022-03-18T07:57:51.000Z</time>
      </trkpt>
      <trkpt lat="49.65078" lon="5.63286">
        <ele>347.79998779297</ele>
        <time>2022-03-18T07:57:52.000Z</time>
      </trkpt>
      <trkpt lat="49.65057" lon="5.63262">
        <ele>351</ele>
        <time>2022-03-18T07:57:57.000Z</time>
      </trkpt>
      <trkpt lat="49.65053" lon="5.63257">
        <ele>351.20001220703</ele>
        <time>2022-03-18T07:57:58.000Z</time>
      </trkpt>
      <trkpt lat="49.65037" lon="5.63232">
        <ele>350.20001220703</ele>
        <time>2022-03-18T07:58:03.000Z</time>
      </trkpt>
      <trkpt lat="49.65024" lon="5.63211">
        <ele>349</ele>
        <time>2022-03-18T07:58:07.000Z</time>
      </trkpt>
      <trkpt lat="49.65017" lon="5.63201">
        <ele>348.20001220703</ele>
        <time>2022-03-18T07:58:09.000Z</time>
      </trkpt>
      <trkpt lat="49.64992" lon="5.63178">
        <ele>348.60000610352</ele>
        <time>2022-03-18T07:58:14.000Z</time>
      </trkpt>
      <trkpt lat="49.64968" lon="5.63153">
        <ele>349.39999389648</ele>
        <time>2022-03-18T07:58:20.000Z</time>
      </trkpt>
      <trkpt lat="49.64951" lon="5.63125">
        <ele>349.79998779297</ele>
        <time>2022-03-18T07:58:26.000Z</time>
      </trkpt>
      <trkpt lat="49.64945" lon="5.63107">
        <ele>350.20001220703</ele>
        <time>2022-03-18T07:58:29.000Z</time>
      </trkpt>
      <trkpt lat="49.64937" lon="5.631">
        <ele>350.60000610352</ele>
        <time>2022-03-18T07:58:31.000Z</time>
      </trkpt>
      <trkpt lat="49.64927" lon="5.63104">
        <ele>350.39999389648</ele>
        <time>2022-03-18T07:58:34.000Z</time>
      </trkpt>
      <trkpt lat="49.64923" lon="5.63106">
        <ele>350.39999389648</ele>
        <time>2022-03-18T07:58:35.000Z</time>
      </trkpt>
      <trkpt lat="49.64915" lon="5.63108">
        <ele>350.20001220703</ele>
        <time>2022-03-18T07:58:37.000Z</time>
      </trkpt>
      <trkpt lat="49.64897" lon="5.63108">
        <ele>350.79998779297</ele>
        <time>2022-03-18T07:58:41.000Z</time>
      </trkpt>
      <trkpt lat="49.64873" lon="5.63117">
        <ele>351</ele>
        <time>2022-03-18T07:58:47.000Z</time>
      </trkpt>
      <trkpt lat="49.64862" lon="5.63123">
        <ele>351.79998779297</ele>
        <time>2022-03-18T07:58:50.000Z</time>
      </trkpt>
      <trkpt lat="49.64855" lon="5.63127">
        <ele>352.20001220703</ele>
        <time>2022-03-18T07:58:52.000Z</time>
      </trkpt>
      <trkpt lat="49.64838" lon="5.63132">
        <ele>352.60000610352</ele>
        <time>2022-03-18T07:58:57.000Z</time>
      </trkpt>
      <trkpt lat="49.6481" lon="5.63139">
        <ele>352.79998779297</ele>
        <time>2022-03-18T07:59:04.000Z</time>
      </trkpt>
      <trkpt lat="49.64784" lon="5.63146">
        <ele>353.20001220703</ele>
        <time>2022-03-18T07:59:11.000Z</time>
      </trkpt>
      <trkpt lat="49.64759" lon="5.63148">
        <ele>355.20001220703</ele>
        <time>2022-03-18T07:59:18.000Z</time>
      </trkpt>
      <trkpt lat="49.64742" lon="5.63166">
        <ele>356</ele>
        <time>2022-03-18T07:59:23.000Z</time>
      </trkpt>
      <trkpt lat="49.6473" lon="5.63187">
        <ele>356.20001220703</ele>
        <time>2022-03-18T07:59:28.000Z</time>
      </trkpt>
      <trkpt lat="49.6472" lon="5.63205">
        <ele>356.39999389648</ele>
        <time>2022-03-18T07:59:32.000Z</time>
      </trkpt>
      <trkpt lat="49.64717" lon="5.63209">
        <ele>356.60000610352</ele>
        <time>2022-03-18T07:59:33.000Z</time>
      </trkpt>
      <trkpt lat="49.64703" lon="5.63229">
        <ele>358</ele>
        <time>2022-03-18T07:59:38.000Z</time>
      </trkpt>
      <trkpt lat="49.64693" lon="5.63245">
        <ele>358.39999389648</ele>
        <time>2022-03-18T07:59:42.000Z</time>
      </trkpt>
      <trkpt lat="49.64688" lon="5.63252">
        <ele>358.79998779297</ele>
        <time>2022-03-18T07:59:44.000Z</time>
      </trkpt>
      <trkpt lat="49.6468" lon="5.63262">
        <ele>359.60000610352</ele>
        <time>2022-03-18T07:59:47.000Z</time>
      </trkpt>
      <trkpt lat="49.64667" lon="5.63278">
        <ele>359.20001220703</ele>
        <time>2022-03-18T07:59:51.000Z</time>
      </trkpt>
      <trkpt lat="49.64658" lon="5.6329">
        <ele>359.60000610352</ele>
        <time>2022-03-18T07:59:54.000Z</time>
      </trkpt>
      <trkpt lat="49.64642" lon="5.63318">
        <ele>360.39999389648</ele>
        <time>2022-03-18T08:00:00.000Z</time>
      </trkpt>
      <trkpt lat="49.6464" lon="5.63324">
        <ele>360.79998779297</ele>
        <time>2022-03-18T08:00:01.000Z</time>
      </trkpt>
      <trkpt lat="49.64626" lon="5.6336">
        <ele>362.60000610352</ele>
        <time>2022-03-18T08:00:08.000Z</time>
      </trkpt>
      <trkpt lat="49.64623" lon="5.63369">
        <ele>362.79998779297</ele>
        <time>2022-03-18T08:00:10.000Z</time>
      </trkpt>
      <trkpt lat="49.64612" lon="5.63393">
        <ele>364.20001220703</ele>
        <time>2022-03-18T08:00:15.000Z</time>
      </trkpt>
      <trkpt lat="49.64605" lon="5.63409">
        <ele>364.39999389648</ele>
        <time>2022-03-18T08:00:18.000Z</time>
      </trkpt>
      <trkpt lat="49.64593" lon="5.63427">
        <ele>363.79998779297</ele>
        <time>2022-03-18T08:00:22.000Z</time>
      </trkpt>
      <trkpt lat="49.64589" lon="5.63441">
        <ele>362.60000610352</ele>
        <time>2022-03-18T08:00:25.000Z</time>
      </trkpt>
      <trkpt lat="49.64589" lon="5.63447">
        <ele>362.20001220703</ele>
        <time>2022-03-18T08:00:27.000Z</time>
      </trkpt>
      <trkpt lat="49.64598" lon="5.63458">
        <ele>361.60000610352</ele>
        <time>2022-03-18T08:00:31.000Z</time>
      </trkpt>
      <trkpt lat="49.646" lon="5.63462">
        <ele>361.39999389648</ele>
        <time>2022-03-18T08:00:32.000Z</time>
      </trkpt>
      <trkpt lat="49.64612" lon="5.63488">
        <ele>360.39999389648</ele>
        <time>2022-03-18T08:00:37.000Z</time>
      </trkpt>
      <trkpt lat="49.64616" lon="5.63519">
        <ele>360</ele>
        <time>2022-03-18T08:00:42.000Z</time>
      </trkpt>
      <trkpt lat="49.6461" lon="5.63549">
        <ele>360.20001220703</ele>
        <time>2022-03-18T08:00:47.000Z</time>
      </trkpt>
      <trkpt lat="49.64603" lon="5.63581">
        <ele>360.79998779297</ele>
        <time>2022-03-18T08:00:52.000Z</time>
      </trkpt>
      <trkpt lat="49.646" lon="5.63594">
        <ele>361.20001220703</ele>
        <time>2022-03-18T08:00:54.000Z</time>
      </trkpt>
      <trkpt lat="49.64594" lon="5.63621">
        <ele>361.39999389648</ele>
        <time>2022-03-18T08:00:58.000Z</time>
      </trkpt>
      <trkpt lat="49.64591" lon="5.63627">
        <ele>361.20001220703</ele>
        <time>2022-03-18T08:00:59.000Z</time>
      </trkpt>
      <trkpt lat="49.6458" lon="5.63645">
        <ele>360.60000610352</ele>
        <time>2022-03-18T08:01:02.000Z</time>
      </trkpt>
      <trkpt lat="49.6457" lon="5.63682">
        <ele>360</ele>
        <time>2022-03-18T08:01:07.000Z</time>
      </trkpt>
      <trkpt lat="49.6457" lon="5.6369">
        <ele>360</ele>
        <time>2022-03-18T08:01:08.000Z</time>
      </trkpt>
      <trkpt lat="49.64574" lon="5.63702">
        <ele>360</ele>
        <time>2022-03-18T08:01:10.000Z</time>
      </trkpt>
      <trkpt lat="49.64584" lon="5.63719">
        <ele>360</ele>
        <time>2022-03-18T08:01:13.000Z</time>
      </trkpt>
      <trkpt lat="49.6459" lon="5.63729">
        <ele>360</ele>
        <time>2022-03-18T08:01:15.000Z</time>
      </trkpt>
      <trkpt lat="49.64614" lon="5.63751">
        <ele>360</ele>
        <time>2022-03-18T08:01:21.000Z</time>
      </trkpt>
      <trkpt lat="49.64634" lon="5.63771">
        <ele>360</ele>
        <time>2022-03-18T08:01:26.000Z</time>
      </trkpt>
      <trkpt lat="49.64654" lon="5.63787">
        <ele>360.79998779297</ele>
        <time>2022-03-18T08:01:31.000Z</time>
      </trkpt>
      <trkpt lat="49.64672" lon="5.63802">
        <ele>362</ele>
        <time>2022-03-18T08:01:36.000Z</time>
      </trkpt>
      <trkpt lat="49.64696" lon="5.6383">
        <ele>362.79998779297</ele>
        <time>2022-03-18T08:01:42.000Z</time>
      </trkpt>
      <trkpt lat="49.64713" lon="5.63847">
        <ele>363.60000610352</ele>
        <time>2022-03-18T08:01:46.000Z</time>
      </trkpt>
      <trkpt lat="49.64722" lon="5.63857">
        <ele>363.79998779297</ele>
        <time>2022-03-18T08:01:48.000Z</time>
      </trkpt>
      <trkpt lat="49.64726" lon="5.63858">
        <ele>364</ele>
        <time>2022-03-18T08:01:49.000Z</time>
      </trkpt>
      <trkpt lat="49.64736" lon="5.63872">
        <ele>363</ele>
        <time>2022-03-18T08:01:52.000Z</time>
      </trkpt>
      <trkpt lat="49.64739" lon="5.63876">
        <ele>362.60000610352</ele>
        <time>2022-03-18T08:01:53.000Z</time>
      </trkpt>
      <trkpt lat="49.64748" lon="5.63901">
        <ele>361.39999389648</ele>
        <time>2022-03-18T08:01:57.000Z</time>
      </trkpt>
      <trkpt lat="49.64751" lon="5.63929">
        <ele>361.20001220703</ele>
        <time>2022-03-18T08:02:02.000Z</time>
      </trkpt>
      <trkpt lat="49.6474" lon="5.63955">
        <ele>362</ele>
        <time>2022-03-18T08:02:07.000Z</time>
      </trkpt>
      <trkpt lat="49.64733" lon="5.63987">
        <ele>361.60000610352</ele>
        <time>2022-03-18T08:02:12.000Z</time>
      </trkpt>
      <trkpt lat="49.64729" lon="5.64016">
        <ele>360.60000610352</ele>
        <time>2022-03-18T08:02:16.000Z</time>
      </trkpt>
      <trkpt lat="49.64729" lon="5.64024">
        <ele>360.20001220703</ele>
        <time>2022-03-18T08:02:17.000Z</time>
      </trkpt>
      <trkpt lat="49.64729" lon="5.64031">
        <ele>360</ele>
        <time>2022-03-18T08:02:18.000Z</time>
      </trkpt>
      <trkpt lat="49.6473" lon="5.64054">
        <ele>360.79998779297</ele>
        <time>2022-03-18T08:02:21.000Z</time>
      </trkpt>
      <trkpt lat="49.64732" lon="5.64084">
        <ele>361.79998779297</ele>
        <time>2022-03-18T08:02:25.000Z</time>
      </trkpt>
      <trkpt lat="49.64738" lon="5.64116">
        <ele>363</ele>
        <time>2022-03-18T08:02:29.000Z</time>
      </trkpt>
      <trkpt lat="49.64741" lon="5.64124">
        <ele>363</ele>
        <time>2022-03-18T08:02:30.000Z</time>
      </trkpt>
      <trkpt lat="49.64749" lon="5.64147">
        <ele>363.20001220703</ele>
        <time>2022-03-18T08:02:33.000Z</time>
      </trkpt>
      <trkpt lat="49.64752" lon="5.64161">
        <ele>363.60000610352</ele>
        <time>2022-03-18T08:02:35.000Z</time>
      </trkpt>
      <trkpt lat="49.64766" lon="5.6421">
        <ele>362.60000610352</ele>
        <time>2022-03-18T08:02:42.000Z</time>
      </trkpt>
      <trkpt lat="49.64768" lon="5.64217">
        <ele>362.60000610352</ele>
        <time>2022-03-18T08:02:43.000Z</time>
      </trkpt>
      <trkpt lat="49.64772" lon="5.6424">
        <ele>362.39999389648</ele>
        <time>2022-03-18T08:02:46.000Z</time>
      </trkpt>
      <trkpt lat="49.64772" lon="5.64247">
        <ele>362.20001220703</ele>
        <time>2022-03-18T08:02:47.000Z</time>
      </trkpt>
      <trkpt lat="49.64774" lon="5.64269">
        <ele>362</ele>
        <time>2022-03-18T08:02:50.000Z</time>
      </trkpt>
      <trkpt lat="49.64776" lon="5.64291">
        <ele>362</ele>
        <time>2022-03-18T08:02:53.000Z</time>
      </trkpt>
      <trkpt lat="49.64778" lon="5.64304">
        <ele>362</ele>
        <time>2022-03-18T08:02:55.000Z</time>
      </trkpt>
      <trkpt lat="49.64782" lon="5.64328">
        <ele>362</ele>
        <time>2022-03-18T08:02:59.000Z</time>
      </trkpt>
      <trkpt lat="49.64796" lon="5.64367">
        <ele>360</ele>
        <time>2022-03-18T08:03:06.000Z</time>
      </trkpt>
      <trkpt lat="49.64807" lon="5.64408">
        <ele>357.60000610352</ele>
        <time>2022-03-18T08:03:13.000Z</time>
      </trkpt>
      <trkpt lat="49.64811" lon="5.64428">
        <ele>357.39999389648</ele>
        <time>2022-03-18T08:03:16.000Z</time>
      </trkpt>
      <trkpt lat="49.64815" lon="5.64449">
        <ele>358.39999389648</ele>
        <time>2022-03-18T08:03:19.000Z</time>
      </trkpt>
      <trkpt lat="49.64827" lon="5.64473">
        <ele>359.20001220703</ele>
        <time>2022-03-18T08:03:23.000Z</time>
      </trkpt>
      <trkpt lat="49.64835" lon="5.64501">
        <ele>359</ele>
        <time>2022-03-18T08:03:28.000Z</time>
      </trkpt>
      <trkpt lat="49.64832" lon="5.64505">
        <ele>359</ele>
        <time>2022-03-18T08:03:30.000Z</time>
      </trkpt>
      <trkpt lat="49.6483" lon="5.64506">
        <ele>359</ele>
        <time>2022-03-18T08:03:31.000Z</time>
      </trkpt>
      <trkpt lat="49.64817" lon="5.64502">
        <ele>359</ele>
        <time>2022-03-18T08:03:35.000Z</time>
      </trkpt>
      <trkpt lat="49.64813" lon="5.64501">
        <ele>359</ele>
        <time>2022-03-18T08:03:36.000Z</time>
      </trkpt>
      <trkpt lat="49.64786" lon="5.64501">
        <ele>359</ele>
        <time>2022-03-18T08:03:42.000Z</time>
      </trkpt>
      <trkpt lat="49.64756" lon="5.64503">
        <ele>359</ele>
        <time>2022-03-18T08:03:49.000Z</time>
      </trkpt>
      <trkpt lat="49.64741" lon="5.64515">
        <ele>359</ele>
        <time>2022-03-18T08:03:52.000Z</time>
      </trkpt>
      <trkpt lat="49.64733" lon="5.64524">
        <ele>359</ele>
        <time>2022-03-18T08:03:54.000Z</time>
      </trkpt>
      <trkpt lat="49.64729" lon="5.64533">
        <ele>359</ele>
        <time>2022-03-18T08:03:56.000Z</time>
      </trkpt>
      <trkpt lat="49.64729" lon="5.64545">
        <ele>359.39999389648</ele>
        <time>2022-03-18T08:03:58.000Z</time>
      </trkpt>
      <trkpt lat="49.64731" lon="5.64556">
        <ele>359.79998779297</ele>
        <time>2022-03-18T08:04:00.000Z</time>
      </trkpt>
      <trkpt lat="49.64736" lon="5.64575">
        <ele>360.20001220703</ele>
        <time>2022-03-18T08:04:03.000Z</time>
      </trkpt>
      <trkpt lat="49.64743" lon="5.64605">
        <ele>361</ele>
        <time>2022-03-18T08:04:08.000Z</time>
      </trkpt>
      <trkpt lat="49.64738" lon="5.64639">
        <ele>361.79998779297</ele>
        <time>2022-03-18T08:04:13.000Z</time>
      </trkpt>
      <trkpt lat="49.64728" lon="5.6467">
        <ele>363</ele>
        <time>2022-03-18T08:04:18.000Z</time>
      </trkpt>
      <trkpt lat="49.64715" lon="5.64698">
        <ele>362.60000610352</ele>
        <time>2022-03-18T08:04:23.000Z</time>
      </trkpt>
      <trkpt lat="49.64699" lon="5.64713">
        <ele>362</ele>
        <time>2022-03-18T08:04:27.000Z</time>
      </trkpt>
      <trkpt lat="49.64695" lon="5.6472">
        <ele>362</ele>
        <time>2022-03-18T08:04:28.000Z</time>
      </trkpt>
      <trkpt lat="49.6469" lon="5.64734">
        <ele>361.39999389648</ele>
        <time>2022-03-18T08:04:30.000Z</time>
      </trkpt>
      <trkpt lat="49.6469" lon="5.64762">
        <ele>360.60000610352</ele>
        <time>2022-03-18T08:04:34.000Z</time>
      </trkpt>
      <trkpt lat="49.6469" lon="5.64768">
        <ele>360.60000610352</ele>
        <time>2022-03-18T08:04:35.000Z</time>
      </trkpt>
      <trkpt lat="49.64687" lon="5.64792">
        <ele>359.79998779297</ele>
        <time>2022-03-18T08:04:38.000Z</time>
      </trkpt>
      <trkpt lat="49.64686" lon="5.64801">
        <ele>359.39999389648</ele>
        <time>2022-03-18T08:04:39.000Z</time>
      </trkpt>
      <trkpt lat="49.64684" lon="5.64808">
        <ele>359</ele>
        <time>2022-03-18T08:04:40.000Z</time>
      </trkpt>
      <trkpt lat="49.64675" lon="5.64825">
        <ele>358.20001220703</ele>
        <time>2022-03-18T08:04:43.000Z</time>
      </trkpt>
      <trkpt lat="49.64659" lon="5.6484">
        <ele>357.39999389648</ele>
        <time>2022-03-18T08:04:47.000Z</time>
      </trkpt>
      <trkpt lat="49.64655" lon="5.64846">
        <ele>357.20001220703</ele>
        <time>2022-03-18T08:04:48.000Z</time>
      </trkpt>
      <trkpt lat="49.64639" lon="5.64853">
        <ele>357.39999389648</ele>
        <time>2022-03-18T08:04:52.000Z</time>
      </trkpt>
      <trkpt lat="49.64635" lon="5.64853">
        <ele>357.60000610352</ele>
        <time>2022-03-18T08:04:53.000Z</time>
      </trkpt>
      <trkpt lat="49.64625" lon="5.64856">
        <ele>358.20001220703</ele>
        <time>2022-03-18T08:04:55.000Z</time>
      </trkpt>
      <trkpt lat="49.64621" lon="5.64861">
        <ele>358.60000610352</ele>
        <time>2022-03-18T08:04:56.000Z</time>
      </trkpt>
      <trkpt lat="49.64616" lon="5.64866">
        <ele>359</ele>
        <time>2022-03-18T08:04:57.000Z</time>
      </trkpt>
      <trkpt lat="49.64608" lon="5.64876">
        <ele>359.60000610352</ele>
        <time>2022-03-18T08:04:59.000Z</time>
      </trkpt>
      <trkpt lat="49.64595" lon="5.64883">
        <ele>360</ele>
        <time>2022-03-18T08:05:02.000Z</time>
      </trkpt>
      <trkpt lat="49.64576" lon="5.64897">
        <ele>359.79998779297</ele>
        <time>2022-03-18T08:05:06.000Z</time>
      </trkpt>
      <trkpt lat="49.64571" lon="5.64897">
        <ele>359.60000610352</ele>
        <time>2022-03-18T08:05:07.000Z</time>
      </trkpt>
      <trkpt lat="49.64566" lon="5.64899">
        <ele>359.39999389648</ele>
        <time>2022-03-18T08:05:08.000Z</time>
      </trkpt>
      <trkpt lat="49.64557" lon="5.64904">
        <ele>359.20001220703</ele>
        <time>2022-03-18T08:05:10.000Z</time>
      </trkpt>
      <trkpt lat="49.64545" lon="5.64911">
        <ele>359</ele>
        <time>2022-03-18T08:05:13.000Z</time>
      </trkpt>
      <trkpt lat="49.64538" lon="5.64925">
        <ele>358.39999389648</ele>
        <time>2022-03-18T08:05:16.000Z</time>
      </trkpt>
      <trkpt lat="49.64536" lon="5.64932">
        <ele>358.39999389648</ele>
        <time>2022-03-18T08:05:17.000Z</time>
      </trkpt>
      <trkpt lat="49.64526" lon="5.64965">
        <ele>357.79998779297</ele>
        <time>2022-03-18T08:05:22.000Z</time>
      </trkpt>
      <trkpt lat="49.64509" lon="5.64991">
        <ele>358</ele>
        <time>2022-03-18T08:05:28.000Z</time>
      </trkpt>
      <trkpt lat="49.64506" lon="5.64988">
        <ele>358</ele>
        <time>2022-03-18T08:05:29.000Z</time>
      </trkpt>
      <trkpt lat="49.64505" lon="5.64986">
        <ele>358</ele>
        <time>2022-03-18T08:05:31.000Z</time>
      </trkpt>
      <trkpt lat="49.64501" lon="5.64979">
        <ele>357.79998779297</ele>
        <time>2022-03-18T08:09:11.000Z</time>
      </trkpt>
      <trkpt lat="49.645" lon="5.64975">
        <ele>357.79998779297</ele>
        <time>2022-03-18T08:09:12.000Z</time>
      </trkpt>
      <trkpt lat="49.64496" lon="5.64953">
        <ele>357.39999389648</ele>
        <time>2022-03-18T08:09:16.000Z</time>
      </trkpt>
      <trkpt lat="49.64495" lon="5.64947">
        <ele>357.39999389648</ele>
        <time>2022-03-18T08:09:17.000Z</time>
      </trkpt>
      <trkpt lat="49.64493" lon="5.6494">
        <ele>357.39999389648</ele>
        <time>2022-03-18T08:09:18.000Z</time>
      </trkpt>
      <trkpt lat="49.6449" lon="5.64926">
        <ele>357.60000610352</ele>
        <time>2022-03-18T08:09:20.000Z</time>
      </trkpt>
      <trkpt lat="49.64487" lon="5.64914">
        <ele>357.79998779297</ele>
        <time>2022-03-18T08:09:22.000Z</time>
      </trkpt>
      <trkpt lat="49.64485" lon="5.64907">
        <ele>358.20001220703</ele>
        <time>2022-03-18T08:09:23.000Z</time>
      </trkpt>
      <trkpt lat="49.64474" lon="5.64856">
        <ele>361</ele>
        <time>2022-03-18T08:09:30.000Z</time>
      </trkpt>
      <trkpt lat="49.64469" lon="5.64835">
        <ele>361.39999389648</ele>
        <time>2022-03-18T08:09:33.000Z</time>
      </trkpt>
      <trkpt lat="49.64463" lon="5.64815">
        <ele>362</ele>
        <time>2022-03-18T08:09:36.000Z</time>
      </trkpt>
      <trkpt lat="49.64446" lon="5.64772">
        <ele>363.39999389648</ele>
        <time>2022-03-18T08:09:43.000Z</time>
      </trkpt>
      <trkpt lat="49.64439" lon="5.64751">
        <ele>363.79998779297</ele>
        <time>2022-03-18T08:09:46.000Z</time>
      </trkpt>
      <trkpt lat="49.64438" lon="5.64743">
        <ele>363.60000610352</ele>
        <time>2022-03-18T08:09:47.000Z</time>
      </trkpt>
      <trkpt lat="49.64435" lon="5.64727">
        <ele>363</ele>
        <time>2022-03-18T08:09:49.000Z</time>
      </trkpt>
      <trkpt lat="49.64434" lon="5.64698">
        <ele>363</ele>
        <time>2022-03-18T08:09:53.000Z</time>
      </trkpt>
      <trkpt lat="49.64433" lon="5.64683">
        <ele>362</ele>
        <time>2022-03-18T08:09:55.000Z</time>
      </trkpt>
      <trkpt lat="49.64428" lon="5.64662">
        <ele>361.20001220703</ele>
        <time>2022-03-18T08:09:58.000Z</time>
      </trkpt>
      <trkpt lat="49.64419" lon="5.64623">
        <ele>360.20001220703</ele>
        <time>2022-03-18T08:10:03.000Z</time>
      </trkpt>
      <trkpt lat="49.64414" lon="5.64598">
        <ele>360</ele>
        <time>2022-03-18T08:10:07.000Z</time>
      </trkpt>
      <trkpt lat="49.64414" lon="5.6459">
        <ele>360</ele>
        <time>2022-03-18T08:10:08.000Z</time>
      </trkpt>
      <trkpt lat="49.64413" lon="5.64582">
        <ele>360</ele>
        <time>2022-03-18T08:10:09.000Z</time>
      </trkpt>
      <trkpt lat="49.64415" lon="5.64559">
        <ele>360.79998779297</ele>
        <time>2022-03-18T08:10:12.000Z</time>
      </trkpt>
      <trkpt lat="49.64415" lon="5.64542">
        <ele>361.39999389648</ele>
        <time>2022-03-18T08:10:14.000Z</time>
      </trkpt>
      <trkpt lat="49.64416" lon="5.64526">
        <ele>362</ele>
        <time>2022-03-18T08:10:16.000Z</time>
      </trkpt>
      <trkpt lat="49.64421" lon="5.64504">
        <ele>362</ele>
        <time>2022-03-18T08:10:19.000Z</time>
      </trkpt>
      <trkpt lat="49.64425" lon="5.64481">
        <ele>360.20001220703</ele>
        <time>2022-03-18T08:10:22.000Z</time>
      </trkpt>
      <trkpt lat="49.64426" lon="5.64465">
        <ele>359.79998779297</ele>
        <time>2022-03-18T08:10:24.000Z</time>
      </trkpt>
      <trkpt lat="49.64422" lon="5.64442">
        <ele>358.79998779297</ele>
        <time>2022-03-18T08:10:27.000Z</time>
      </trkpt>
      <trkpt lat="49.64419" lon="5.64434">
        <ele>358.60000610352</ele>
        <time>2022-03-18T08:10:28.000Z</time>
      </trkpt>
      <trkpt lat="49.64417" lon="5.64426">
        <ele>358.39999389648</ele>
        <time>2022-03-18T08:10:29.000Z</time>
      </trkpt>
      <trkpt lat="49.64416" lon="5.64416">
        <ele>357.79998779297</ele>
        <time>2022-03-18T08:10:30.000Z</time>
      </trkpt>
      <trkpt lat="49.64413" lon="5.64391">
        <ele>356.20001220703</ele>
        <time>2022-03-18T08:10:33.000Z</time>
      </trkpt>
      <trkpt lat="49.64412" lon="5.64383">
        <ele>356</ele>
        <time>2022-03-18T08:10:34.000Z</time>
      </trkpt>
      <trkpt lat="49.6441" lon="5.64372">
        <ele>355.60000610352</ele>
        <time>2022-03-18T08:10:35.000Z</time>
      </trkpt>
      <trkpt lat="49.64402" lon="5.64353">
        <ele>355.20001220703</ele>
        <time>2022-03-18T08:10:37.000Z</time>
      </trkpt>
      <trkpt lat="49.64398" lon="5.64343">
        <ele>355</ele>
        <time>2022-03-18T08:10:38.000Z</time>
      </trkpt>
      <trkpt lat="49.64388" lon="5.64324">
        <ele>355</ele>
        <time>2022-03-18T08:10:40.000Z</time>
      </trkpt>
      <trkpt lat="49.64378" lon="5.64306">
        <ele>355</ele>
        <time>2022-03-18T08:10:42.000Z</time>
      </trkpt>
      <trkpt lat="49.64373" lon="5.64298">
        <ele>355</ele>
        <time>2022-03-18T08:10:43.000Z</time>
      </trkpt>
      <trkpt lat="49.64364" lon="5.6428">
        <ele>355</ele>
        <time>2022-03-18T08:10:45.000Z</time>
      </trkpt>
      <trkpt lat="49.64353" lon="5.64264">
        <ele>355.39999389648</ele>
        <time>2022-03-18T08:10:47.000Z</time>
      </trkpt>
      <trkpt lat="49.64346" lon="5.6426">
        <ele>355.60000610352</ele>
        <time>2022-03-18T08:10:48.000Z</time>
      </trkpt>
      <trkpt lat="49.64335" lon="5.64247">
        <ele>356</ele>
        <time>2022-03-18T08:10:50.000Z</time>
      </trkpt>
      <trkpt lat="49.64331" lon="5.64239">
        <ele>356</ele>
        <time>2022-03-18T08:10:51.000Z</time>
      </trkpt>
      <trkpt lat="49.64327" lon="5.64231">
        <ele>356</ele>
        <time>2022-03-18T08:10:52.000Z</time>
      </trkpt>
      <trkpt lat="49.64309" lon="5.64205">
        <ele>355.20001220703</ele>
        <time>2022-03-18T08:10:56.000Z</time>
      </trkpt>
      <trkpt lat="49.64287" lon="5.64164">
        <ele>354.39999389648</ele>
        <time>2022-03-18T08:11:02.000Z</time>
      </trkpt>
      <trkpt lat="49.6427" lon="5.64119">
        <ele>353.39999389648</ele>
        <time>2022-03-18T08:11:07.000Z</time>
      </trkpt>
      <trkpt lat="49.64261" lon="5.64082">
        <ele>352.79998779297</ele>
        <time>2022-03-18T08:11:11.000Z</time>
      </trkpt>
      <trkpt lat="49.64251" lon="5.64055">
        <ele>352</ele>
        <time>2022-03-18T08:11:14.000Z</time>
      </trkpt>
      <trkpt lat="49.6424" lon="5.64031">
        <ele>352.39999389648</ele>
        <time>2022-03-18T08:11:17.000Z</time>
      </trkpt>
      <trkpt lat="49.64224" lon="5.64002">
        <ele>352</ele>
        <time>2022-03-18T08:11:21.000Z</time>
      </trkpt>
      <trkpt lat="49.64201" lon="5.63961">
        <ele>351.20001220703</ele>
        <time>2022-03-18T08:11:27.000Z</time>
      </trkpt>
      <trkpt lat="49.64198" lon="5.63954">
        <ele>351</ele>
        <time>2022-03-18T08:11:28.000Z</time>
      </trkpt>
      <trkpt lat="49.6418" lon="5.63927">
        <ele>349</ele>
        <time>2022-03-18T08:11:32.000Z</time>
      </trkpt>
      <trkpt lat="49.64173" lon="5.63913">
        <ele>348.20001220703</ele>
        <time>2022-03-18T08:11:34.000Z</time>
      </trkpt>
      <trkpt lat="49.6417" lon="5.63907">
        <ele>348</ele>
        <time>2022-03-18T08:11:35.000Z</time>
      </trkpt>
      <trkpt lat="49.64167" lon="5.63902">
        <ele>347.79998779297</ele>
        <time>2022-03-18T08:11:36.000Z</time>
      </trkpt>
      <trkpt lat="49.64161" lon="5.63893">
        <ele>347.60000610352</ele>
        <time>2022-03-18T08:11:38.000Z</time>
      </trkpt>
      <trkpt lat="49.64149" lon="5.63867">
        <ele>347.20001220703</ele>
        <time>2022-03-18T08:11:43.000Z</time>
      </trkpt>
      <trkpt lat="49.64146" lon="5.63864">
        <ele>347.20001220703</ele>
        <time>2022-03-18T08:11:44.000Z</time>
      </trkpt>
      <trkpt lat="49.64144" lon="5.63865">
        <ele>347</ele>
        <time>2022-03-18T08:11:45.000Z</time>
      </trkpt>
      <trkpt lat="49.64139" lon="5.63883">
        <ele>347.39999389648</ele>
        <time>2022-03-18T08:11:49.000Z</time>
      </trkpt>
      <trkpt lat="49.64129" lon="5.63932">
        <ele>347.39999389648</ele>
        <time>2022-03-18T08:11:56.000Z</time>
      </trkpt>
      <trkpt lat="49.64125" lon="5.63949">
        <ele>346.39999389648</ele>
        <time>2022-03-18T08:11:58.000Z</time>
      </trkpt>
      <trkpt lat="49.64114" lon="5.6398">
        <ele>344.79998779297</ele>
        <time>2022-03-18T08:12:02.000Z</time>
      </trkpt>
      <trkpt lat="49.64102" lon="5.64">
        <ele>344.20001220703</ele>
        <time>2022-03-18T08:12:05.000Z</time>
      </trkpt>
      <trkpt lat="49.64088" lon="5.64017">
        <ele>343</ele>
        <time>2022-03-18T08:12:08.000Z</time>
      </trkpt>
      <trkpt lat="49.64074" lon="5.64035">
        <ele>342.79998779297</ele>
        <time>2022-03-18T08:12:11.000Z</time>
      </trkpt>
      <trkpt lat="49.6406" lon="5.64054">
        <ele>342.20001220703</ele>
        <time>2022-03-18T08:12:14.000Z</time>
      </trkpt>
      <trkpt lat="49.64056" lon="5.6406">
        <ele>341.79998779297</ele>
        <time>2022-03-18T08:12:15.000Z</time>
      </trkpt>
      <trkpt lat="49.64035" lon="5.64086">
        <ele>341.20001220703</ele>
        <time>2022-03-18T08:12:19.000Z</time>
      </trkpt>
      <trkpt lat="49.64029" lon="5.64092">
        <ele>341.20001220703</ele>
        <time>2022-03-18T08:12:20.000Z</time>
      </trkpt>
      <trkpt lat="49.64018" lon="5.64101">
        <ele>341.39999389648</ele>
        <time>2022-03-18T08:12:22.000Z</time>
      </trkpt>
      <trkpt lat="49.64002" lon="5.6411">
        <ele>341.79998779297</ele>
        <time>2022-03-18T08:12:25.000Z</time>
      </trkpt>
      <trkpt lat="49.63996" lon="5.64112">
        <ele>342</ele>
        <time>2022-03-18T08:12:26.000Z</time>
      </trkpt>
      <trkpt lat="49.63979" lon="5.6412">
        <ele>342.39999389648</ele>
        <time>2022-03-18T08:12:30.000Z</time>
      </trkpt>
      <trkpt lat="49.63977" lon="5.64124">
        <ele>342.60000610352</ele>
        <time>2022-03-18T08:12:31.000Z</time>
      </trkpt>
      <trkpt lat="49.63975" lon="5.64132">
        <ele>343.20001220703</ele>
        <time>2022-03-18T08:12:33.000Z</time>
      </trkpt>
      <trkpt lat="49.63978" lon="5.6415">
        <ele>345</ele>
        <time>2022-03-18T08:12:38.000Z</time>
      </trkpt>
      <trkpt lat="49.63979" lon="5.64153">
        <ele>345.39999389648</ele>
        <time>2022-03-18T08:12:39.000Z</time>
      </trkpt>
      <trkpt lat="49.63984" lon="5.64166">
        <ele>347.39999389648</ele>
        <time>2022-03-18T08:12:43.000Z</time>
      </trkpt>
      <trkpt lat="49.63987" lon="5.64173">
        <ele>348</ele>
        <time>2022-03-18T08:12:45.000Z</time>
      </trkpt>
      <trkpt lat="49.63988" lon="5.64176">
        <ele>348.20001220703</ele>
        <time>2022-03-18T08:12:46.000Z</time>
      </trkpt>
      <trkpt lat="49.63991" lon="5.64187">
        <ele>348.60000610352</ele>
        <time>2022-03-18T08:12:49.000Z</time>
      </trkpt>
      <trkpt lat="49.63995" lon="5.64201">
        <ele>349</ele>
        <time>2022-03-18T08:12:52.000Z</time>
      </trkpt>
      <trkpt lat="49.64001" lon="5.6422">
        <ele>349.79998779297</ele>
        <time>2022-03-18T08:12:56.000Z</time>
      </trkpt>
      <trkpt lat="49.64002" lon="5.64225">
        <ele>350</ele>
        <time>2022-03-18T08:12:57.000Z</time>
      </trkpt>
      <trkpt lat="49.64007" lon="5.6424">
        <ele>350.60000610352</ele>
        <time>2022-03-18T08:13:00.000Z</time>
      </trkpt>
      <trkpt lat="49.64008" lon="5.64259">
        <ele>351.20001220703</ele>
        <time>2022-03-18T08:13:04.000Z</time>
      </trkpt>
      <trkpt lat="49.64011" lon="5.6428">
        <ele>350.60000610352</ele>
        <time>2022-03-18T08:13:08.000Z</time>
      </trkpt>
      <trkpt lat="49.64012" lon="5.643">
        <ele>350.60000610352</ele>
        <time>2022-03-18T08:13:12.000Z</time>
      </trkpt>
      <trkpt lat="49.64011" lon="5.64317">
        <ele>350.79998779297</ele>
        <time>2022-03-18T08:13:16.000Z</time>
      </trkpt>
      <trkpt lat="49.6401" lon="5.64321">
        <ele>351</ele>
        <time>2022-03-18T08:13:17.000Z</time>
      </trkpt>
      <trkpt lat="49.64009" lon="5.64328">
        <ele>351.60000610352</ele>
        <time>2022-03-18T08:13:19.000Z</time>
      </trkpt>
      <trkpt lat="49.64006" lon="5.64351">
        <ele>353</ele>
        <time>2022-03-18T08:13:24.000Z</time>
      </trkpt>
      <trkpt lat="49.64003" lon="5.64373">
        <ele>354.60000610352</ele>
        <time>2022-03-18T08:13:28.000Z</time>
      </trkpt>
      <trkpt lat="49.64002" lon="5.64378">
        <ele>355</ele>
        <time>2022-03-18T08:13:29.000Z</time>
      </trkpt>
      <trkpt lat="49.63999" lon="5.64394">
        <ele>356.20001220703</ele>
        <time>2022-03-18T08:13:32.000Z</time>
      </trkpt>
      <trkpt lat="49.63996" lon="5.64415">
        <ele>357.79998779297</ele>
        <time>2022-03-18T08:13:36.000Z</time>
      </trkpt>
      <trkpt lat="49.64001" lon="5.64435">
        <ele>358.60000610352</ele>
        <time>2022-03-18T08:13:40.000Z</time>
      </trkpt>
      <trkpt lat="49.64003" lon="5.64446">
        <ele>358.79998779297</ele>
        <time>2022-03-18T08:13:42.000Z</time>
      </trkpt>
      <trkpt lat="49.64007" lon="5.64458">
        <ele>359</ele>
        <time>2022-03-18T08:13:45.000Z</time>
      </trkpt>
      <trkpt lat="49.6401" lon="5.64463">
        <ele>359</ele>
        <time>2022-03-18T08:13:46.000Z</time>
      </trkpt>
      <trkpt lat="49.6402" lon="5.64486">
        <ele>359</ele>
        <time>2022-03-18T08:13:50.000Z</time>
      </trkpt>
      <trkpt lat="49.64042" lon="5.64529">
        <ele>359</ele>
        <time>2022-03-18T08:13:57.000Z</time>
      </trkpt>
      <trkpt lat="49.64052" lon="5.64545">
        <ele>359</ele>
        <time>2022-03-18T08:14:00.000Z</time>
      </trkpt>
      <trkpt lat="49.64062" lon="5.6456">
        <ele>359</ele>
        <time>2022-03-18T08:14:03.000Z</time>
      </trkpt>
      <trkpt lat="49.64065" lon="5.64566">
        <ele>358.79998779297</ele>
        <time>2022-03-18T08:14:04.000Z</time>
      </trkpt>
      <trkpt lat="49.64081" lon="5.64586">
        <ele>358.39999389648</ele>
        <time>2022-03-18T08:14:08.000Z</time>
      </trkpt>
      <trkpt lat="49.64106" lon="5.64621">
        <ele>356.60000610352</ele>
        <time>2022-03-18T08:14:14.000Z</time>
      </trkpt>
      <trkpt lat="49.64127" lon="5.64653">
        <ele>356.79998779297</ele>
        <time>2022-03-18T08:14:20.000Z</time>
      </trkpt>
      <trkpt lat="49.64131" lon="5.64659">
        <ele>357.20001220703</ele>
        <time>2022-03-18T08:14:21.000Z</time>
      </trkpt>
      <trkpt lat="49.64152" lon="5.64687">
        <ele>358.39999389648</ele>
        <time>2022-03-18T08:14:26.000Z</time>
      </trkpt>
      <trkpt lat="49.64156" lon="5.64694">
        <ele>358.39999389648</ele>
        <time>2022-03-18T08:14:27.000Z</time>
      </trkpt>
      <trkpt lat="49.64166" lon="5.64712">
        <ele>358.79998779297</ele>
        <time>2022-03-18T08:14:30.000Z</time>
      </trkpt>
      <trkpt lat="49.64174" lon="5.64732">
        <ele>359.20001220703</ele>
        <time>2022-03-18T08:14:33.000Z</time>
      </trkpt>
      <trkpt lat="49.64195" lon="5.6477">
        <ele>360.60000610352</ele>
        <time>2022-03-18T08:14:39.000Z</time>
      </trkpt>
      <trkpt lat="49.64202" lon="5.64783">
        <ele>361.20001220703</ele>
        <time>2022-03-18T08:14:41.000Z</time>
      </trkpt>
      <trkpt lat="49.64211" lon="5.64806">
        <ele>362.39999389648</ele>
        <time>2022-03-18T08:14:44.000Z</time>
      </trkpt>
      <trkpt lat="49.64222" lon="5.64834">
        <ele>362.79998779297</ele>
        <time>2022-03-18T08:14:48.000Z</time>
      </trkpt>
      <trkpt lat="49.64225" lon="5.64841">
        <ele>363</ele>
        <time>2022-03-18T08:14:49.000Z</time>
      </trkpt>
      <trkpt lat="49.64227" lon="5.64849">
        <ele>363</ele>
        <time>2022-03-18T08:14:50.000Z</time>
      </trkpt>
      <trkpt lat="49.64243" lon="5.64885">
        <ele>363</ele>
        <time>2022-03-18T08:14:55.000Z</time>
      </trkpt>
      <trkpt lat="49.64247" lon="5.64892">
        <ele>362.79998779297</ele>
        <time>2022-03-18T08:14:56.000Z</time>
      </trkpt>
      <trkpt lat="49.64255" lon="5.64911">
        <ele>361.79998779297</ele>
        <time>2022-03-18T08:14:59.000Z</time>
      </trkpt>
      <trkpt lat="49.64252" lon="5.64928">
        <ele>360.79998779297</ele>
        <time>2022-03-18T08:15:02.000Z</time>
      </trkpt>
      <trkpt lat="49.64245" lon="5.64937">
        <ele>360.39999389648</ele>
        <time>2022-03-18T08:15:04.000Z</time>
      </trkpt>
      <trkpt lat="49.64234" lon="5.64952">
        <ele>360</ele>
        <time>2022-03-18T08:15:07.000Z</time>
      </trkpt>
      <trkpt lat="49.64203" lon="5.64994">
        <ele>360.39999389648</ele>
        <time>2022-03-18T08:15:15.000Z</time>
      </trkpt>
      <trkpt lat="49.64175" lon="5.65021">
        <ele>359.79998779297</ele>
        <time>2022-03-18T08:15:21.000Z</time>
      </trkpt>
      <trkpt lat="49.64165" lon="5.65028">
        <ele>359.60000610352</ele>
        <time>2022-03-18T08:15:23.000Z</time>
      </trkpt>
      <trkpt lat="49.64137" lon="5.65052">
        <ele>358</ele>
        <time>2022-03-18T08:15:29.000Z</time>
      </trkpt>
      <trkpt lat="49.64129" lon="5.65061">
        <ele>357</ele>
        <time>2022-03-18T08:15:31.000Z</time>
      </trkpt>
      <trkpt lat="49.64116" lon="5.65084">
        <ele>357</ele>
        <time>2022-03-18T08:15:35.000Z</time>
      </trkpt>
      <trkpt lat="49.64088" lon="5.65122">
        <ele>357.60000610352</ele>
        <time>2022-03-18T08:15:42.000Z</time>
      </trkpt>
      <trkpt lat="49.64083" lon="5.65127">
        <ele>357.60000610352</ele>
        <time>2022-03-18T08:15:43.000Z</time>
      </trkpt>
      <trkpt lat="49.64068" lon="5.65133">
        <ele>357.60000610352</ele>
        <time>2022-03-18T08:15:46.000Z</time>
      </trkpt>
      <trkpt lat="49.64052" lon="5.65139">
        <ele>357.79998779297</ele>
        <time>2022-03-18T08:15:49.000Z</time>
      </trkpt>
      <trkpt lat="49.64047" lon="5.65143">
        <ele>358</ele>
        <time>2022-03-18T08:15:50.000Z</time>
      </trkpt>
      <trkpt lat="49.64041" lon="5.65148">
        <ele>358.20001220703</ele>
        <time>2022-03-18T08:15:51.000Z</time>
      </trkpt>
      <trkpt lat="49.64013" lon="5.65175">
        <ele>359</ele>
        <time>2022-03-18T08:15:56.000Z</time>
      </trkpt>
      <trkpt lat="49.64007" lon="5.65181">
        <ele>359</ele>
        <time>2022-03-18T08:15:57.000Z</time>
      </trkpt>
      <trkpt lat="49.63985" lon="5.65218">
        <ele>356.60000610352</ele>
        <time>2022-03-18T08:16:02.000Z</time>
      </trkpt>
      <trkpt lat="49.63981" lon="5.65226">
        <ele>356.39999389648</ele>
        <time>2022-03-18T08:16:03.000Z</time>
      </trkpt>
      <trkpt lat="49.63957" lon="5.65276">
        <ele>355.79998779297</ele>
        <time>2022-03-18T08:16:10.000Z</time>
      </trkpt>
      <trkpt lat="49.63946" lon="5.65296">
        <ele>356.39999389648</ele>
        <time>2022-03-18T08:16:13.000Z</time>
      </trkpt>
      <trkpt lat="49.63933" lon="5.65311">
        <ele>357</ele>
        <time>2022-03-18T08:16:16.000Z</time>
      </trkpt>
      <trkpt lat="49.63928" lon="5.65314">
        <ele>357.20001220703</ele>
        <time>2022-03-18T08:16:17.000Z</time>
      </trkpt>
      <trkpt lat="49.63922" lon="5.65318">
        <ele>357.39999389648</ele>
        <time>2022-03-18T08:16:18.000Z</time>
      </trkpt>
      <trkpt lat="49.63899" lon="5.65329">
        <ele>356</ele>
        <time>2022-03-18T08:16:22.000Z</time>
      </trkpt>
      <trkpt lat="49.63883" lon="5.6534">
        <ele>354.20001220703</ele>
        <time>2022-03-18T08:16:25.000Z</time>
      </trkpt>
      <trkpt lat="49.63872" lon="5.65346">
        <ele>353.39999389648</ele>
        <time>2022-03-18T08:16:27.000Z</time>
      </trkpt>
      <trkpt lat="49.63834" lon="5.65368">
        <ele>354.20001220703</ele>
        <time>2022-03-18T08:16:34.000Z</time>
      </trkpt>
      <trkpt lat="49.63824" lon="5.65375">
        <ele>354.39999389648</ele>
        <time>2022-03-18T08:16:36.000Z</time>
      </trkpt>
      <trkpt lat="49.63801" lon="5.65388">
        <ele>354.60000610352</ele>
        <time>2022-03-18T08:16:40.000Z</time>
      </trkpt>
      <trkpt lat="49.63767" lon="5.65398">
        <ele>352.39999389648</ele>
        <time>2022-03-18T08:16:46.000Z</time>
      </trkpt>
      <trkpt lat="49.63756" lon="5.65398">
        <ele>352</ele>
        <time>2022-03-18T08:16:48.000Z</time>
      </trkpt>
      <trkpt lat="49.63738" lon="5.65394">
        <ele>352</ele>
        <time>2022-03-18T08:16:51.000Z</time>
      </trkpt>
      <trkpt lat="49.63726" lon="5.6539">
        <ele>352</ele>
        <time>2022-03-18T08:16:53.000Z</time>
      </trkpt>
      <trkpt lat="49.63695" lon="5.6538">
        <ele>352.20001220703</ele>
        <time>2022-03-18T08:16:58.000Z</time>
      </trkpt>
      <trkpt lat="49.63676" lon="5.65376">
        <ele>353</ele>
        <time>2022-03-18T08:17:01.000Z</time>
      </trkpt>
      <trkpt lat="49.63664" lon="5.65378">
        <ele>353.39999389648</ele>
        <time>2022-03-18T08:17:03.000Z</time>
      </trkpt>
      <trkpt lat="49.63653" lon="5.65383">
        <ele>353.60000610352</ele>
        <time>2022-03-18T08:17:05.000Z</time>
      </trkpt>
      <trkpt lat="49.63648" lon="5.65386">
        <ele>353.79998779297</ele>
        <time>2022-03-18T08:17:06.000Z</time>
      </trkpt>
      <trkpt lat="49.63643" lon="5.65389">
        <ele>353.79998779297</ele>
        <time>2022-03-18T08:17:07.000Z</time>
      </trkpt>
      <trkpt lat="49.63639" lon="5.65393">
        <ele>353.79998779297</ele>
        <time>2022-03-18T08:17:08.000Z</time>
      </trkpt>
      <trkpt lat="49.63616" lon="5.65411">
        <ele>351.39999389648</ele>
        <time>2022-03-18T08:17:12.000Z</time>
      </trkpt>
      <trkpt lat="49.63611" lon="5.65415">
        <ele>350.79998779297</ele>
        <time>2022-03-18T08:17:13.000Z</time>
      </trkpt>
      <trkpt lat="49.63595" lon="5.65427">
        <ele>348.60000610352</ele>
        <time>2022-03-18T08:17:16.000Z</time>
      </trkpt>
      <trkpt lat="49.63578" lon="5.65437">
        <ele>347</ele>
        <time>2022-03-18T08:17:19.000Z</time>
      </trkpt>
      <trkpt lat="49.63554" lon="5.65464">
        <ele>344.79998779297</ele>
        <time>2022-03-18T08:17:23.000Z</time>
      </trkpt>
      <trkpt lat="49.63548" lon="5.65471">
        <ele>344.60000610352</ele>
        <time>2022-03-18T08:17:24.000Z</time>
      </trkpt>
      <trkpt lat="49.63531" lon="5.65494">
        <ele>343.39999389648</ele>
        <time>2022-03-18T08:17:27.000Z</time>
      </trkpt>
      <trkpt lat="49.63512" lon="5.65519">
        <ele>342.20001220703</ele>
        <time>2022-03-18T08:17:30.000Z</time>
      </trkpt>
      <trkpt lat="49.63506" lon="5.65527">
        <ele>342</ele>
        <time>2022-03-18T08:17:31.000Z</time>
      </trkpt>
      <trkpt lat="49.63496" lon="5.65543">
        <ele>341</ele>
        <time>2022-03-18T08:17:33.000Z</time>
      </trkpt>
      <trkpt lat="49.63478" lon="5.65567">
        <ele>340</ele>
        <time>2022-03-18T08:17:36.000Z</time>
      </trkpt>
      <trkpt lat="49.63473" lon="5.65573">
        <ele>339.20001220703</ele>
        <time>2022-03-18T08:17:37.000Z</time>
      </trkpt>
      <trkpt lat="49.63468" lon="5.65579">
        <ele>338.39999389648</ele>
        <time>2022-03-18T08:17:38.000Z</time>
      </trkpt>
      <trkpt lat="49.63465" lon="5.65584">
        <ele>338.20001220703</ele>
        <time>2022-03-18T08:17:39.000Z</time>
      </trkpt>
      <trkpt lat="49.63464" lon="5.65589">
        <ele>338.20001220703</ele>
        <time>2022-03-18T08:17:40.000Z</time>
      </trkpt>
      <trkpt lat="49.63468" lon="5.65609">
        <ele>338.39999389648</ele>
        <time>2022-03-18T08:17:43.000Z</time>
      </trkpt>
      <trkpt lat="49.63471" lon="5.65615">
        <ele>338.60000610352</ele>
        <time>2022-03-18T08:17:44.000Z</time>
      </trkpt>
      <trkpt lat="49.63477" lon="5.65635">
        <ele>339.79998779297</ele>
        <time>2022-03-18T08:17:48.000Z</time>
      </trkpt>
      <trkpt lat="49.63478" lon="5.65652">
        <ele>340.20001220703</ele>
        <time>2022-03-18T08:17:51.000Z</time>
      </trkpt>
      <trkpt lat="49.63478" lon="5.65659">
        <ele>340.20001220703</ele>
        <time>2022-03-18T08:17:52.000Z</time>
      </trkpt>
      <trkpt lat="49.6348" lon="5.65683">
        <ele>340.60000610352</ele>
        <time>2022-03-18T08:17:56.000Z</time>
      </trkpt>
      <trkpt lat="49.63482" lon="5.657">
        <ele>341.39999389648</ele>
        <time>2022-03-18T08:17:59.000Z</time>
      </trkpt>
      <trkpt lat="49.63485" lon="5.65711">
        <ele>342</ele>
        <time>2022-03-18T08:18:01.000Z</time>
      </trkpt>
      <trkpt lat="49.63493" lon="5.65729">
        <ele>343</ele>
        <time>2022-03-18T08:18:05.000Z</time>
      </trkpt>
      <trkpt lat="49.63504" lon="5.65747">
        <ele>344.79998779297</ele>
        <time>2022-03-18T08:18:09.000Z</time>
      </trkpt>
      <trkpt lat="49.63509" lon="5.65754">
        <ele>345.39999389648</ele>
        <time>2022-03-18T08:18:11.000Z</time>
      </trkpt>
      <trkpt lat="49.63528" lon="5.65763">
        <ele>346.79998779297</ele>
        <time>2022-03-18T08:18:17.000Z</time>
      </trkpt>
      <trkpt lat="49.63555" lon="5.65768">
        <ele>348.20001220703</ele>
        <time>2022-03-18T08:18:24.000Z</time>
      </trkpt>
      <trkpt lat="49.63561" lon="5.65774">
        <ele>348.39999389648</ele>
        <time>2022-03-18T08:18:26.000Z</time>
      </trkpt>
      <trkpt lat="49.6357" lon="5.65786">
        <ele>348.20001220703</ele>
        <time>2022-03-18T08:18:29.000Z</time>
      </trkpt>
      <trkpt lat="49.63581" lon="5.65804">
        <ele>348</ele>
        <time>2022-03-18T08:18:33.000Z</time>
      </trkpt>
      <trkpt lat="49.63598" lon="5.65832">
        <ele>347.20001220703</ele>
        <time>2022-03-18T08:18:39.000Z</time>
      </trkpt>
      <trkpt lat="49.63618" lon="5.65861">
        <ele>345.39999389648</ele>
        <time>2022-03-18T08:18:44.000Z</time>
      </trkpt>
      <trkpt lat="49.63633" lon="5.65869">
        <ele>344.79998779297</ele>
        <time>2022-03-18T08:18:48.000Z</time>
      </trkpt>
      <trkpt lat="49.63655" lon="5.65866">
        <ele>346.39999389648</ele>
        <time>2022-03-18T08:18:53.000Z</time>
      </trkpt>
      <trkpt lat="49.63676" lon="5.65872">
        <ele>348.60000610352</ele>
        <time>2022-03-18T08:18:58.000Z</time>
      </trkpt>
      <trkpt lat="49.63685" lon="5.65873">
        <ele>349.60000610352</ele>
        <time>2022-03-18T08:19:00.000Z</time>
      </trkpt>
      <trkpt lat="49.63693" lon="5.65874">
        <ele>350.39999389648</ele>
        <time>2022-03-18T08:19:02.000Z</time>
      </trkpt>
      <trkpt lat="49.63712" lon="5.65871">
        <ele>350.39999389648</ele>
        <time>2022-03-18T08:19:07.000Z</time>
      </trkpt>
      <trkpt lat="49.63732" lon="5.65877">
        <ele>349.20001220703</ele>
        <time>2022-03-18T08:19:12.000Z</time>
      </trkpt>
      <trkpt lat="49.63747" lon="5.6589">
        <ele>347.60000610352</ele>
        <time>2022-03-18T08:19:17.000Z</time>
      </trkpt>
      <trkpt lat="49.63757" lon="5.65901">
        <ele>346.79998779297</ele>
        <time>2022-03-18T08:19:22.000Z</time>
      </trkpt>
      <trkpt lat="49.63768" lon="5.65919">
        <ele>346</ele>
        <time>2022-03-18T08:19:28.000Z</time>
      </trkpt>
      <trkpt lat="49.63772" lon="5.65929">
        <ele>345.79998779297</ele>
        <time>2022-03-18T08:19:32.000Z</time>
      </trkpt>
      <trkpt lat="49.63772" lon="5.65936">
        <ele>345.39999389648</ele>
        <time>2022-03-18T08:19:35.000Z</time>
      </trkpt>
      <trkpt lat="49.63778" lon="5.65944">
        <ele>345.20001220703</ele>
        <time>2022-03-18T08:19:39.000Z</time>
      </trkpt>
      <trkpt lat="49.63782" lon="5.65949">
        <ele>345</ele>
        <time>2022-03-18T08:19:42.000Z</time>
      </trkpt>
      <trkpt lat="49.63783" lon="5.65953">
        <ele>345</ele>
        <time>2022-03-18T08:19:44.000Z</time>
      </trkpt>
      <trkpt lat="49.63788" lon="5.65964">
        <ele>345</ele>
        <time>2022-03-18T08:19:48.000Z</time>
      </trkpt>
      <trkpt lat="49.63793" lon="5.65973">
        <ele>345</ele>
        <time>2022-03-18T08:19:51.000Z</time>
      </trkpt>
      <trkpt lat="49.63797" lon="5.65979">
        <ele>345</ele>
        <time>2022-03-18T08:19:54.000Z</time>
      </trkpt>
      <trkpt lat="49.63797" lon="5.65991">
        <ele>345.20001220703</ele>
        <time>2022-03-18T08:20:00.000Z</time>
      </trkpt>
      <trkpt lat="49.63797" lon="5.66">
        <ele>345.20001220703</ele>
        <time>2022-03-18T08:20:03.000Z</time>
      </trkpt>
      <trkpt lat="49.63798" lon="5.66003">
        <ele>345.20001220703</ele>
        <time>2022-03-18T08:20:04.000Z</time>
      </trkpt>
      <trkpt lat="49.63799" lon="5.66006">
        <ele>345.20001220703</ele>
        <time>2022-03-18T08:20:05.000Z</time>
      </trkpt>
      <trkpt lat="49.63803" lon="5.66011">
        <ele>345.60000610352</ele>
        <time>2022-03-18T08:20:25.000Z</time>
      </trkpt>
      <trkpt lat="49.63804" lon="5.66011">
        <ele>345.60000610352</ele>
        <time>2022-03-18T08:20:26.000Z</time>
      </trkpt>
      <trkpt lat="49.63814" lon="5.66007">
        <ele>346.20001220703</ele>
        <time>2022-03-18T08:20:31.000Z</time>
      </trkpt>
      <trkpt lat="49.63831" lon="5.65996">
        <ele>346.79998779297</ele>
        <time>2022-03-18T08:20:38.000Z</time>
      </trkpt>
      <trkpt lat="49.6385" lon="5.65975">
        <ele>346.60000610352</ele>
        <time>2022-03-18T08:20:45.000Z</time>
      </trkpt>
      <trkpt lat="49.63869" lon="5.65954">
        <ele>347</ele>
        <time>2022-03-18T08:20:53.000Z</time>
      </trkpt>
      <trkpt lat="49.6388" lon="5.65944">
        <ele>348.39999389648</ele>
        <time>2022-03-18T08:20:57.000Z</time>
      </trkpt>
      <trkpt lat="49.63885" lon="5.65938">
        <ele>349.39999389648</ele>
        <time>2022-03-18T08:20:59.000Z</time>
      </trkpt>
      <trkpt lat="49.63895" lon="5.65926">
        <ele>351.79998779297</ele>
        <time>2022-03-18T08:21:03.000Z</time>
      </trkpt>
      <trkpt lat="49.639" lon="5.65921">
        <ele>352.79998779297</ele>
        <time>2022-03-18T08:21:05.000Z</time>
      </trkpt>
      <trkpt lat="49.63908" lon="5.65909">
        <ele>354.60000610352</ele>
        <time>2022-03-18T08:21:09.000Z</time>
      </trkpt>
      <trkpt lat="49.63915" lon="5.65901">
        <ele>355.39999389648</ele>
        <time>2022-03-18T08:21:12.000Z</time>
      </trkpt>
      <trkpt lat="49.63933" lon="5.65882">
        <ele>356.79998779297</ele>
        <time>2022-03-18T08:21:18.000Z</time>
      </trkpt>
      <trkpt lat="49.63936" lon="5.65878">
        <ele>357</ele>
        <time>2022-03-18T08:21:19.000Z</time>
      </trkpt>
      <trkpt lat="49.63948" lon="5.6586">
        <ele>356.79998779297</ele>
        <time>2022-03-18T08:21:24.000Z</time>
      </trkpt>
      <trkpt lat="49.63955" lon="5.65853">
        <ele>356.60000610352</ele>
        <time>2022-03-18T08:21:26.000Z</time>
      </trkpt>
      <trkpt lat="49.63962" lon="5.65844">
        <ele>356.39999389648</ele>
        <time>2022-03-18T08:21:28.000Z</time>
      </trkpt>
      <trkpt lat="49.63974" lon="5.65831">
        <ele>356.60000610352</ele>
        <time>2022-03-18T08:21:31.000Z</time>
      </trkpt>
      <trkpt lat="49.63996" lon="5.65806">
        <ele>354.39999389648</ele>
        <time>2022-03-18T08:21:37.000Z</time>
      </trkpt>
      <trkpt lat="49.64017" lon="5.65785">
        <ele>353.79998779297</ele>
        <time>2022-03-18T08:21:43.000Z</time>
      </trkpt>
      <trkpt lat="49.64021" lon="5.65782">
        <ele>354</ele>
        <time>2022-03-18T08:21:44.000Z</time>
      </trkpt>
      <trkpt lat="49.64036" lon="5.65771">
        <ele>354.39999389648</ele>
        <time>2022-03-18T08:21:48.000Z</time>
      </trkpt>
      <trkpt lat="49.6404" lon="5.65768">
        <ele>354.60000610352</ele>
        <time>2022-03-18T08:21:49.000Z</time>
      </trkpt>
      <trkpt lat="49.64069" lon="5.6575">
        <ele>356.39999389648</ele>
        <time>2022-03-18T08:21:55.000Z</time>
      </trkpt>
      <trkpt lat="49.64092" lon="5.65739">
        <ele>357</ele>
        <time>2022-03-18T08:22:00.000Z</time>
      </trkpt>
      <trkpt lat="49.64101" lon="5.65736">
        <ele>357</ele>
        <time>2022-03-18T08:22:02.000Z</time>
      </trkpt>
      <trkpt lat="49.64137" lon="5.65727">
        <ele>357.79998779297</ele>
        <time>2022-03-18T08:22:10.000Z</time>
      </trkpt>
      <trkpt lat="49.64155" lon="5.65719">
        <ele>359</ele>
        <time>2022-03-18T08:22:14.000Z</time>
      </trkpt>
      <trkpt lat="49.6416" lon="5.65716">
        <ele>359.20001220703</ele>
        <time>2022-03-18T08:22:15.000Z</time>
      </trkpt>
      <trkpt lat="49.64165" lon="5.65713">
        <ele>359.39999389648</ele>
        <time>2022-03-18T08:22:16.000Z</time>
      </trkpt>
      <trkpt lat="49.64182" lon="5.65693">
        <ele>360</ele>
        <time>2022-03-18T08:22:21.000Z</time>
      </trkpt>
      <trkpt lat="49.64192" lon="5.65681">
        <ele>360.79998779297</ele>
        <time>2022-03-18T08:22:24.000Z</time>
      </trkpt>
      <trkpt lat="49.64198" lon="5.65674">
        <ele>361</ele>
        <time>2022-03-18T08:22:26.000Z</time>
      </trkpt>
      <trkpt lat="49.64209" lon="5.65662">
        <ele>362</ele>
        <time>2022-03-18T08:22:29.000Z</time>
      </trkpt>
      <trkpt lat="49.64222" lon="5.65648">
        <ele>363.60000610352</ele>
        <time>2022-03-18T08:22:33.000Z</time>
      </trkpt>
      <trkpt lat="49.64226" lon="5.65644">
        <ele>364</ele>
        <time>2022-03-18T08:22:34.000Z</time>
      </trkpt>
      <trkpt lat="49.64252" lon="5.6561">
        <ele>366</ele>
        <time>2022-03-18T08:22:42.000Z</time>
      </trkpt>
      <trkpt lat="49.6428" lon="5.65581">
        <ele>367</ele>
        <time>2022-03-18T08:22:50.000Z</time>
      </trkpt>
      <trkpt lat="49.64307" lon="5.65556">
        <ele>365</ele>
        <time>2022-03-18T08:22:57.000Z</time>
      </trkpt>
      <trkpt lat="49.64327" lon="5.65537">
        <ele>360.20001220703</ele>
        <time>2022-03-18T08:23:02.000Z</time>
      </trkpt>
      <trkpt lat="49.64356" lon="5.65508">
        <ele>354.39999389648</ele>
        <time>2022-03-18T08:23:09.000Z</time>
      </trkpt>
      <trkpt lat="49.64361" lon="5.65503">
        <ele>354.20001220703</ele>
        <time>2022-03-18T08:23:10.000Z</time>
      </trkpt>
      <trkpt lat="49.64378" lon="5.65487">
        <ele>355</ele>
        <time>2022-03-18T08:23:13.000Z</time>
      </trkpt>
      <trkpt lat="49.64383" lon="5.65482">
        <ele>355.79998779297</ele>
        <time>2022-03-18T08:23:14.000Z</time>
      </trkpt>
      <trkpt lat="49.64389" lon="5.65476">
        <ele>356.60000610352</ele>
        <time>2022-03-18T08:23:15.000Z</time>
      </trkpt>
      <trkpt lat="49.64407" lon="5.65463">
        <ele>358.60000610352</ele>
        <time>2022-03-18T08:23:18.000Z</time>
      </trkpt>
      <trkpt lat="49.64426" lon="5.65454">
        <ele>358.60000610352</ele>
        <time>2022-03-18T08:23:21.000Z</time>
      </trkpt>
      <trkpt lat="49.64444" lon="5.65448">
        <ele>356.39999389648</ele>
        <time>2022-03-18T08:23:24.000Z</time>
      </trkpt>
      <trkpt lat="49.64454" lon="5.65444">
        <ele>354.60000610352</ele>
        <time>2022-03-18T08:23:26.000Z</time>
      </trkpt>
      <trkpt lat="49.64489" lon="5.65423">
        <ele>347.79998779297</ele>
        <time>2022-03-18T08:23:32.000Z</time>
      </trkpt>
      <trkpt lat="49.64495" lon="5.65419">
        <ele>346.20001220703</ele>
        <time>2022-03-18T08:23:33.000Z</time>
      </trkpt>
      <trkpt lat="49.64527" lon="5.65402">
        <ele>342.39999389648</ele>
        <time>2022-03-18T08:23:38.000Z</time>
      </trkpt>
      <trkpt lat="49.64534" lon="5.65401">
        <ele>342</ele>
        <time>2022-03-18T08:23:39.000Z</time>
      </trkpt>
      <trkpt lat="49.6457" lon="5.65393">
        <ele>342.39999389648</ele>
        <time>2022-03-18T08:23:45.000Z</time>
      </trkpt>
      <trkpt lat="49.64576" lon="5.6539">
        <ele>342.60000610352</ele>
        <time>2022-03-18T08:23:46.000Z</time>
      </trkpt>
      <trkpt lat="49.64581" lon="5.65387">
        <ele>342.79998779297</ele>
        <time>2022-03-18T08:23:47.000Z</time>
      </trkpt>
      <trkpt lat="49.64606" lon="5.65365">
        <ele>343</ele>
        <time>2022-03-18T08:23:52.000Z</time>
      </trkpt>
      <trkpt lat="49.64644" lon="5.65324">
        <ele>342.60000610352</ele>
        <time>2022-03-18T08:24:00.000Z</time>
      </trkpt>
      <trkpt lat="49.64681" lon="5.65285">
        <ele>342.20001220703</ele>
        <time>2022-03-18T08:24:08.000Z</time>
      </trkpt>
      <trkpt lat="49.64695" lon="5.6527">
        <ele>342.20001220703</ele>
        <time>2022-03-18T08:24:11.000Z</time>
      </trkpt>
      <trkpt lat="49.64714" lon="5.65252">
        <ele>342.79998779297</ele>
        <time>2022-03-18T08:24:15.000Z</time>
      </trkpt>
      <trkpt lat="49.64741" lon="5.65226">
        <ele>343.60000610352</ele>
        <time>2022-03-18T08:24:21.000Z</time>
      </trkpt>
      <trkpt lat="49.64746" lon="5.65222">
        <ele>344</ele>
        <time>2022-03-18T08:24:22.000Z</time>
      </trkpt>
      <trkpt lat="49.64787" lon="5.65196">
        <ele>344</ele>
        <time>2022-03-18T08:24:30.000Z</time>
      </trkpt>
      <trkpt lat="49.64826" lon="5.65188">
        <ele>343</ele>
        <time>2022-03-18T08:24:37.000Z</time>
      </trkpt>
      <trkpt lat="49.64872" lon="5.65181">
        <ele>343.79998779297</ele>
        <time>2022-03-18T08:24:45.000Z</time>
      </trkpt>
      <trkpt lat="49.64912" lon="5.65175">
        <ele>342.60000610352</ele>
        <time>2022-03-18T08:24:52.000Z</time>
      </trkpt>
      <trkpt lat="49.64923" lon="5.65173">
        <ele>341.79998779297</ele>
        <time>2022-03-18T08:24:54.000Z</time>
      </trkpt>
      <trkpt lat="49.64969" lon="5.65167">
        <ele>341.39999389648</ele>
        <time>2022-03-18T08:25:02.000Z</time>
      </trkpt>
      <trkpt lat="49.64975" lon="5.65166">
        <ele>341.39999389648</ele>
        <time>2022-03-18T08:25:03.000Z</time>
      </trkpt>
      <trkpt lat="49.65031" lon="5.65164">
        <ele>343</ele>
        <time>2022-03-18T08:25:13.000Z</time>
      </trkpt>
      <trkpt lat="49.65037" lon="5.65164">
        <ele>343.20001220703</ele>
        <time>2022-03-18T08:25:14.000Z</time>
      </trkpt>
      <trkpt lat="49.65088" lon="5.65167">
        <ele>344</ele>
        <time>2022-03-18T08:25:23.000Z</time>
      </trkpt>
      <trkpt lat="49.65099" lon="5.65168">
        <ele>344</ele>
        <time>2022-03-18T08:25:25.000Z</time>
      </trkpt>
      <trkpt lat="49.65133" lon="5.65172">
        <ele>344</ele>
        <time>2022-03-18T08:25:31.000Z</time>
      </trkpt>
      <trkpt lat="49.65166" lon="5.65174">
        <ele>343.79998779297</ele>
        <time>2022-03-18T08:25:37.000Z</time>
      </trkpt>
      <trkpt lat="49.65182" lon="5.65176">
        <ele>343.39999389648</ele>
        <time>2022-03-18T08:25:41.000Z</time>
      </trkpt>
      <trkpt lat="49.65188" lon="5.65185">
        <ele>342.79998779297</ele>
        <time>2022-03-18T08:25:44.000Z</time>
      </trkpt>
      <trkpt lat="49.65189" lon="5.65191">
        <ele>342.60000610352</ele>
        <time>2022-03-18T08:25:45.000Z</time>
      </trkpt>
      <trkpt lat="49.65186" lon="5.65214">
        <ele>342</ele>
        <time>2022-03-18T08:25:48.000Z</time>
      </trkpt>
      <trkpt lat="49.65185" lon="5.65222">
        <ele>341.60000610352</ele>
        <time>2022-03-18T08:25:49.000Z</time>
      </trkpt>
      <trkpt lat="49.65181" lon="5.65258">
        <ele>340.79998779297</ele>
        <time>2022-03-18T08:25:53.000Z</time>
      </trkpt>
      <trkpt lat="49.65177" lon="5.65285">
        <ele>340</ele>
        <time>2022-03-18T08:25:56.000Z</time>
      </trkpt>
      <trkpt lat="49.65175" lon="5.65293">
        <ele>339.60000610352</ele>
        <time>2022-03-18T08:25:57.000Z</time>
      </trkpt>
      <trkpt lat="49.65171" lon="5.65325">
        <ele>338.39999389648</ele>
        <time>2022-03-18T08:26:01.000Z</time>
      </trkpt>
      <trkpt lat="49.65175" lon="5.65341">
        <ele>338.39999389648</ele>
        <time>2022-03-18T08:26:03.000Z</time>
      </trkpt>
      <trkpt lat="49.65191" lon="5.65351">
        <ele>340</ele>
        <time>2022-03-18T08:26:06.000Z</time>
      </trkpt>
      <trkpt lat="49.65197" lon="5.65352">
        <ele>340.39999389648</ele>
        <time>2022-03-18T08:26:07.000Z</time>
      </trkpt>
      <trkpt lat="49.65226" lon="5.65356">
        <ele>340.60000610352</ele>
        <time>2022-03-18T08:26:12.000Z</time>
      </trkpt>
      <trkpt lat="49.65274" lon="5.65361">
        <ele>339.20001220703</ele>
        <time>2022-03-18T08:26:20.000Z</time>
      </trkpt>
      <trkpt lat="49.65327" lon="5.65368">
        <ele>339</ele>
        <time>2022-03-18T08:26:29.000Z</time>
      </trkpt>
      <trkpt lat="49.65367" lon="5.65375">
        <ele>339.60000610352</ele>
        <time>2022-03-18T08:26:36.000Z</time>
      </trkpt>
      <trkpt lat="49.65389" lon="5.65383">
        <ele>340.60000610352</ele>
        <time>2022-03-18T08:26:40.000Z</time>
      </trkpt>
      <trkpt lat="49.65394" lon="5.65388">
        <ele>340.79998779297</ele>
        <time>2022-03-18T08:26:41.000Z</time>
      </trkpt>
      <trkpt lat="49.65398" lon="5.65394">
        <ele>341</ele>
        <time>2022-03-18T08:26:42.000Z</time>
      </trkpt>
      <trkpt lat="49.65405" lon="5.6542">
        <ele>343</ele>
        <time>2022-03-18T08:26:46.000Z</time>
      </trkpt>
      <trkpt lat="49.65406" lon="5.65427">
        <ele>343.20001220703</ele>
        <time>2022-03-18T08:26:47.000Z</time>
      </trkpt>
      <trkpt lat="49.65412" lon="5.65481">
        <ele>344.79998779297</ele>
        <time>2022-03-18T08:26:54.000Z</time>
      </trkpt>
      <trkpt lat="49.65416" lon="5.65528">
        <ele>345.60000610352</ele>
        <time>2022-03-18T08:27:00.000Z</time>
      </trkpt>
      <trkpt lat="49.65417" lon="5.65536">
        <ele>345.79998779297</ele>
        <time>2022-03-18T08:27:01.000Z</time>
      </trkpt>
      <trkpt lat="49.6542" lon="5.65551">
        <ele>346</ele>
        <time>2022-03-18T08:27:03.000Z</time>
      </trkpt>
      <trkpt lat="49.65423" lon="5.65575">
        <ele>345.60000610352</ele>
        <time>2022-03-18T08:27:06.000Z</time>
      </trkpt>
      <trkpt lat="49.65429" lon="5.65613">
        <ele>344.60000610352</ele>
        <time>2022-03-18T08:27:11.000Z</time>
      </trkpt>
      <trkpt lat="49.65432" lon="5.65628">
        <ele>344.39999389648</ele>
        <time>2022-03-18T08:27:13.000Z</time>
      </trkpt>
      <trkpt lat="49.65447" lon="5.65686">
        <ele>344</ele>
        <time>2022-03-18T08:27:21.000Z</time>
      </trkpt>
      <trkpt lat="49.65466" lon="5.6575">
        <ele>344</ele>
        <time>2022-03-18T08:27:30.000Z</time>
      </trkpt>
      <trkpt lat="49.65482" lon="5.65803">
        <ele>343.79998779297</ele>
        <time>2022-03-18T08:27:37.000Z</time>
      </trkpt>
      <trkpt lat="49.65498" lon="5.65855">
        <ele>343</ele>
        <time>2022-03-18T08:27:43.000Z</time>
      </trkpt>
      <trkpt lat="49.65504" lon="5.65872">
        <ele>343</ele>
        <time>2022-03-18T08:27:45.000Z</time>
      </trkpt>
      <trkpt lat="49.6551" lon="5.65889">
        <ele>342.79998779297</ele>
        <time>2022-03-18T08:27:47.000Z</time>
      </trkpt>
      <trkpt lat="49.6553" lon="5.65944">
        <ele>343</ele>
        <time>2022-03-18T08:27:54.000Z</time>
      </trkpt>
      <trkpt lat="49.65548" lon="5.65998">
        <ele>344.60000610352</ele>
        <time>2022-03-18T08:28:02.000Z</time>
      </trkpt>
      <trkpt lat="49.65573" lon="5.66067">
        <ele>346</ele>
        <time>2022-03-18T08:28:13.000Z</time>
      </trkpt>
      <trkpt lat="49.65574" lon="5.66074">
        <ele>346</ele>
        <time>2022-03-18T08:28:14.000Z</time>
      </trkpt>
      <trkpt lat="49.65571" lon="5.66086">
        <ele>345.79998779297</ele>
        <time>2022-03-18T08:28:16.000Z</time>
      </trkpt>
      <trkpt lat="49.65563" lon="5.66099">
        <ele>345.60000610352</ele>
        <time>2022-03-18T08:28:19.000Z</time>
      </trkpt>
      <trkpt lat="49.6556" lon="5.66104">
        <ele>345.60000610352</ele>
        <time>2022-03-18T08:28:20.000Z</time>
      </trkpt>
      <trkpt lat="49.65556" lon="5.66108">
        <ele>345.79998779297</ele>
        <time>2022-03-18T08:28:21.000Z</time>
      </trkpt>
      <trkpt lat="49.65535" lon="5.66137">
        <ele>346.79998779297</ele>
        <time>2022-03-18T08:28:28.000Z</time>
      </trkpt>
      <trkpt lat="49.65532" lon="5.66141">
        <ele>347</ele>
        <time>2022-03-18T08:28:29.000Z</time>
      </trkpt>
      <trkpt lat="49.65512" lon="5.66169">
        <ele>350.39999389648</ele>
        <time>2022-03-18T08:28:36.000Z</time>
      </trkpt>
      <trkpt lat="49.65507" lon="5.66179">
        <ele>351</ele>
        <time>2022-03-18T08:28:38.000Z</time>
      </trkpt>
      <trkpt lat="49.65491" lon="5.662">
        <ele>352</ele>
        <time>2022-03-18T08:28:43.000Z</time>
      </trkpt>
      <trkpt lat="49.65479" lon="5.66217">
        <ele>351.79998779297</ele>
        <time>2022-03-18T08:28:47.000Z</time>
      </trkpt>
      <trkpt lat="49.65473" lon="5.66225">
        <ele>351.20001220703</ele>
        <time>2022-03-18T08:28:49.000Z</time>
      </trkpt>
      <trkpt lat="49.65457" lon="5.66243">
        <ele>352.39999389648</ele>
        <time>2022-03-18T08:28:54.000Z</time>
      </trkpt>
      <trkpt lat="49.65446" lon="5.66267">
        <ele>353.20001220703</ele>
        <time>2022-03-18T08:28:59.000Z</time>
      </trkpt>
      <trkpt lat="49.65446" lon="5.66281">
        <ele>353.20001220703</ele>
        <time>2022-03-18T08:29:01.000Z</time>
      </trkpt>
      <trkpt lat="49.65448" lon="5.663">
        <ele>353.79998779297</ele>
        <time>2022-03-18T08:29:04.000Z</time>
      </trkpt>
      <trkpt lat="49.65446" lon="5.66335">
        <ele>356.20001220703</ele>
        <time>2022-03-18T08:29:10.000Z</time>
      </trkpt>
      <trkpt lat="49.6544" lon="5.66359">
        <ele>357.79998779297</ele>
        <time>2022-03-18T08:29:15.000Z</time>
      </trkpt>
      <trkpt lat="49.65436" lon="5.6639">
        <ele>359.39999389648</ele>
        <time>2022-03-18T08:29:21.000Z</time>
      </trkpt>
      <trkpt lat="49.65436" lon="5.66412">
        <ele>360.39999389648</ele>
        <time>2022-03-18T08:29:25.000Z</time>
      </trkpt>
      <trkpt lat="49.65437" lon="5.66433">
        <ele>361.39999389648</ele>
        <time>2022-03-18T08:29:29.000Z</time>
      </trkpt>
      <trkpt lat="49.65434" lon="5.66466">
        <ele>362.60000610352</ele>
        <time>2022-03-18T08:29:35.000Z</time>
      </trkpt>
      <trkpt lat="49.65427" lon="5.66484">
        <ele>363</ele>
        <time>2022-03-18T08:29:39.000Z</time>
      </trkpt>
      <trkpt lat="49.65424" lon="5.66488">
        <ele>363</ele>
        <time>2022-03-18T08:29:40.000Z</time>
      </trkpt>
      <trkpt lat="49.6541" lon="5.66513">
        <ele>363.79998779297</ele>
        <time>2022-03-18T08:29:46.000Z</time>
      </trkpt>
      <trkpt lat="49.65394" lon="5.66542">
        <ele>365.39999389648</ele>
        <time>2022-03-18T08:29:53.000Z</time>
      </trkpt>
      <trkpt lat="49.65375" lon="5.66569">
        <ele>367</ele>
        <time>2022-03-18T08:30:00.000Z</time>
      </trkpt>
      <trkpt lat="49.65358" lon="5.66584">
        <ele>368.79998779297</ele>
        <time>2022-03-18T08:30:06.000Z</time>
      </trkpt>
      <trkpt lat="49.65346" lon="5.66597">
        <ele>369</ele>
        <time>2022-03-18T08:30:11.000Z</time>
      </trkpt>
      <trkpt lat="49.6534" lon="5.66603">
        <ele>369.39999389648</ele>
        <time>2022-03-18T08:30:13.000Z</time>
      </trkpt>
      <trkpt lat="49.65326" lon="5.66622">
        <ele>370</ele>
        <time>2022-03-18T08:30:18.000Z</time>
      </trkpt>
      <trkpt lat="49.65317" lon="5.66633">
        <ele>370</ele>
        <time>2022-03-18T08:30:21.000Z</time>
      </trkpt>
      <trkpt lat="49.65305" lon="5.66648">
        <ele>370</ele>
        <time>2022-03-18T08:30:25.000Z</time>
      </trkpt>
      <trkpt lat="49.65285" lon="5.66672">
        <ele>370</ele>
        <time>2022-03-18T08:30:32.000Z</time>
      </trkpt>
      <trkpt lat="49.65271" lon="5.66692">
        <ele>368.39999389648</ele>
        <time>2022-03-18T08:30:38.000Z</time>
      </trkpt>
      <trkpt lat="49.6527" lon="5.66697">
        <ele>367.79998779297</ele>
        <time>2022-03-18T08:30:39.000Z</time>
      </trkpt>
      <trkpt lat="49.65273" lon="5.66716">
        <ele>366.79998779297</ele>
        <time>2022-03-18T08:30:43.000Z</time>
      </trkpt>
      <trkpt lat="49.65279" lon="5.66758">
        <ele>366.60000610352</ele>
        <time>2022-03-18T08:30:51.000Z</time>
      </trkpt>
      <trkpt lat="49.65284" lon="5.66786">
        <ele>367.20001220703</ele>
        <time>2022-03-18T08:30:56.000Z</time>
      </trkpt>
      <trkpt lat="49.65287" lon="5.66813">
        <ele>365.60000610352</ele>
        <time>2022-03-18T08:31:01.000Z</time>
      </trkpt>
      <trkpt lat="49.65288" lon="5.66818">
        <ele>365.39999389648</ele>
        <time>2022-03-18T08:31:02.000Z</time>
      </trkpt>
      <trkpt lat="49.65294" lon="5.66859">
        <ele>364.39999389648</ele>
        <time>2022-03-18T08:31:09.000Z</time>
      </trkpt>
      <trkpt lat="49.653" lon="5.66902">
        <ele>365.60000610352</ele>
        <time>2022-03-18T08:31:16.000Z</time>
      </trkpt>
      <trkpt lat="49.65309" lon="5.6694">
        <ele>368.20001220703</ele>
        <time>2022-03-18T08:31:23.000Z</time>
      </trkpt>
      <trkpt lat="49.65314" lon="5.66944">
        <ele>369.20001220703</ele>
        <time>2022-03-18T08:31:25.000Z</time>
      </trkpt>
      <trkpt lat="49.65316" lon="5.66944">
        <ele>369.60000610352</ele>
        <time>2022-03-18T08:31:26.000Z</time>
      </trkpt>
      <trkpt lat="49.65325" lon="5.66939">
        <ele>370.39999389648</ele>
        <time>2022-03-18T08:31:29.000Z</time>
      </trkpt>
      <trkpt lat="49.65331" lon="5.66936">
        <ele>371.20001220703</ele>
        <time>2022-03-18T08:31:31.000Z</time>
      </trkpt>
      <trkpt lat="49.65334" lon="5.66935">
        <ele>371.39999389648</ele>
        <time>2022-03-18T08:31:32.000Z</time>
      </trkpt>
      <trkpt lat="49.65353" lon="5.66922">
        <ele>372.60000610352</ele>
        <time>2022-03-18T08:31:38.000Z</time>
      </trkpt>
      <trkpt lat="49.65375" lon="5.66909">
        <ele>373.20001220703</ele>
        <time>2022-03-18T08:31:44.000Z</time>
      </trkpt>
      <trkpt lat="49.65382" lon="5.6691">
        <ele>373</ele>
        <time>2022-03-18T08:31:47.000Z</time>
      </trkpt>
      <trkpt lat="49.65383" lon="5.66912">
        <ele>373</ele>
        <time>2022-03-18T08:31:48.000Z</time>
      </trkpt>
      <trkpt lat="49.65388" lon="5.6693">
        <ele>373.20001220703</ele>
        <time>2022-03-18T08:31:52.000Z</time>
      </trkpt>
      <trkpt lat="49.65397" lon="5.66962">
        <ele>372.79998779297</ele>
        <time>2022-03-18T08:31:58.000Z</time>
      </trkpt>
      <trkpt lat="49.65408" lon="5.67001">
        <ele>372</ele>
        <time>2022-03-18T08:32:05.000Z</time>
      </trkpt>
      <trkpt lat="49.65415" lon="5.67033">
        <ele>370.39999389648</ele>
        <time>2022-03-18T08:32:10.000Z</time>
      </trkpt>
      <trkpt lat="49.65425" lon="5.67067">
        <ele>368.60000610352</ele>
        <time>2022-03-18T08:32:16.000Z</time>
      </trkpt>
      <trkpt lat="49.65427" lon="5.67074">
        <ele>368.20001220703</ele>
        <time>2022-03-18T08:32:17.000Z</time>
      </trkpt>
      <trkpt lat="49.65434" lon="5.67099">
        <ele>366.79998779297</ele>
        <time>2022-03-18T08:32:21.000Z</time>
      </trkpt>
      <trkpt lat="49.6544" lon="5.67116">
        <ele>366</ele>
        <time>2022-03-18T08:32:24.000Z</time>
      </trkpt>
      <trkpt lat="49.65438" lon="5.67123">
        <ele>365.60000610352</ele>
        <time>2022-03-18T08:32:26.000Z</time>
      </trkpt>
      <trkpt lat="49.65422" lon="5.67132">
        <ele>367.20001220703</ele>
        <time>2022-03-18T08:32:31.000Z</time>
      </trkpt>
      <trkpt lat="49.65396" lon="5.67147">
        <ele>368.39999389648</ele>
        <time>2022-03-18T08:32:37.000Z</time>
      </trkpt>
      <trkpt lat="49.65363" lon="5.67163">
        <ele>369.39999389648</ele>
        <time>2022-03-18T08:32:44.000Z</time>
      </trkpt>
      <trkpt lat="49.65336" lon="5.67173">
        <ele>368.79998779297</ele>
        <time>2022-03-18T08:32:50.000Z</time>
      </trkpt>
      <trkpt lat="49.6532" lon="5.67184">
        <ele>368</ele>
        <time>2022-03-18T08:32:54.000Z</time>
      </trkpt>
      <trkpt lat="49.6529" lon="5.672">
        <ele>368.39999389648</ele>
        <time>2022-03-18T08:33:01.000Z</time>
      </trkpt>
      <trkpt lat="49.65286" lon="5.67202">
        <ele>368.39999389648</ele>
        <time>2022-03-18T08:33:02.000Z</time>
      </trkpt>
      <trkpt lat="49.65272" lon="5.67211">
        <ele>367.79998779297</ele>
        <time>2022-03-18T08:33:06.000Z</time>
      </trkpt>
      <trkpt lat="49.65266" lon="5.67215">
        <ele>367.79998779297</ele>
        <time>2022-03-18T08:33:08.000Z</time>
      </trkpt>
      <trkpt lat="49.65243" lon="5.67231">
        <ele>368.79998779297</ele>
        <time>2022-03-18T08:33:15.000Z</time>
      </trkpt>
      <trkpt lat="49.65221" lon="5.67244">
        <ele>369</ele>
        <time>2022-03-18T08:33:21.000Z</time>
      </trkpt>
      <trkpt lat="49.65217" lon="5.67246">
        <ele>369</ele>
        <time>2022-03-18T08:33:22.000Z</time>
      </trkpt>
      <trkpt lat="49.65191" lon="5.67257">
        <ele>369</ele>
        <time>2022-03-18T08:33:28.000Z</time>
      </trkpt>
      <trkpt lat="49.65165" lon="5.67269">
        <ele>368.60000610352</ele>
        <time>2022-03-18T08:33:34.000Z</time>
      </trkpt>
      <trkpt lat="49.65146" lon="5.67275">
        <ele>366.60000610352</ele>
        <time>2022-03-18T08:33:38.000Z</time>
      </trkpt>
      <trkpt lat="49.65141" lon="5.67275">
        <ele>366.20001220703</ele>
        <time>2022-03-18T08:33:39.000Z</time>
      </trkpt>
      <trkpt lat="49.65127" lon="5.67275">
        <ele>365.79998779297</ele>
        <time>2022-03-18T08:33:42.000Z</time>
      </trkpt>
      <trkpt lat="49.65118" lon="5.67276">
        <ele>365.39999389648</ele>
        <time>2022-03-18T08:33:44.000Z</time>
      </trkpt>
      <trkpt lat="49.65095" lon="5.67285">
        <ele>364</ele>
        <time>2022-03-18T08:33:49.000Z</time>
      </trkpt>
      <trkpt lat="49.65086" lon="5.67287">
        <ele>363.79998779297</ele>
        <time>2022-03-18T08:33:51.000Z</time>
      </trkpt>
      <trkpt lat="49.65071" lon="5.67291">
        <ele>363.60000610352</ele>
        <time>2022-03-18T08:33:54.000Z</time>
      </trkpt>
      <trkpt lat="49.65066" lon="5.67293">
        <ele>363.60000610352</ele>
        <time>2022-03-18T08:33:55.000Z</time>
      </trkpt>
      <trkpt lat="49.65049" lon="5.673">
        <ele>363.39999389648</ele>
        <time>2022-03-18T08:33:59.000Z</time>
      </trkpt>
      <trkpt lat="49.65046" lon="5.67301">
        <ele>363.60000610352</ele>
        <time>2022-03-18T08:34:00.000Z</time>
      </trkpt>
      <trkpt lat="49.65028" lon="5.67307">
        <ele>364.20001220703</ele>
        <time>2022-03-18T08:34:04.000Z</time>
      </trkpt>
      <trkpt lat="49.64999" lon="5.67315">
        <ele>366.39999389648</ele>
        <time>2022-03-18T08:34:10.000Z</time>
      </trkpt>
      <trkpt lat="49.64976" lon="5.67322">
        <ele>367.39999389648</ele>
        <time>2022-03-18T08:34:15.000Z</time>
      </trkpt>
      <trkpt lat="49.64954" lon="5.67333">
        <ele>367.79998779297</ele>
        <time>2022-03-18T08:34:20.000Z</time>
      </trkpt>
      <trkpt lat="49.64924" lon="5.67342">
        <ele>367.20001220703</ele>
        <time>2022-03-18T08:34:26.000Z</time>
      </trkpt>
      <trkpt lat="49.64895" lon="5.67351">
        <ele>365.60000610352</ele>
        <time>2022-03-18T08:34:31.000Z</time>
      </trkpt>
      <trkpt lat="49.64881" lon="5.67357">
        <ele>364</ele>
        <time>2022-03-18T08:34:33.000Z</time>
      </trkpt>
      <trkpt lat="49.64866" lon="5.6736">
        <ele>361.79998779297</ele>
        <time>2022-03-18T08:34:35.000Z</time>
      </trkpt>
      <trkpt lat="49.64851" lon="5.67362">
        <ele>360.79998779297</ele>
        <time>2022-03-18T08:34:37.000Z</time>
      </trkpt>
      <trkpt lat="49.64844" lon="5.67363">
        <ele>360.39999389648</ele>
        <time>2022-03-18T08:34:38.000Z</time>
      </trkpt>
      <trkpt lat="49.64823" lon="5.67371">
        <ele>359.60000610352</ele>
        <time>2022-03-18T08:34:41.000Z</time>
      </trkpt>
      <trkpt lat="49.64803" lon="5.67379">
        <ele>359.39999389648</ele>
        <time>2022-03-18T08:34:44.000Z</time>
      </trkpt>
      <trkpt lat="49.64791" lon="5.67383">
        <ele>359.39999389648</ele>
        <time>2022-03-18T08:34:46.000Z</time>
      </trkpt>
      <trkpt lat="49.6476" lon="5.67393">
        <ele>359.79998779297</ele>
        <time>2022-03-18T08:34:52.000Z</time>
      </trkpt>
      <trkpt lat="49.64756" lon="5.67395">
        <ele>360</ele>
        <time>2022-03-18T08:34:53.000Z</time>
      </trkpt>
      <trkpt lat="49.64725" lon="5.67405">
        <ele>359</ele>
        <time>2022-03-18T08:34:59.000Z</time>
      </trkpt>
      <trkpt lat="49.64706" lon="5.67411">
        <ele>357.79998779297</ele>
        <time>2022-03-18T08:35:03.000Z</time>
      </trkpt>
      <trkpt lat="49.64687" lon="5.67418">
        <ele>357.20001220703</ele>
        <time>2022-03-18T08:35:07.000Z</time>
      </trkpt>
      <trkpt lat="49.64665" lon="5.67427">
        <ele>355.60000610352</ele>
        <time>2022-03-18T08:35:12.000Z</time>
      </trkpt>
      <trkpt lat="49.64656" lon="5.67431">
        <ele>355</ele>
        <time>2022-03-18T08:35:14.000Z</time>
      </trkpt>
      <trkpt lat="49.64646" lon="5.67422">
        <ele>354.20001220703</ele>
        <time>2022-03-18T08:35:16.000Z</time>
      </trkpt>
      <trkpt lat="49.64644" lon="5.67416">
        <ele>353.79998779297</ele>
        <time>2022-03-18T08:35:17.000Z</time>
      </trkpt>
      <trkpt lat="49.64643" lon="5.67399">
        <ele>353.20001220703</ele>
        <time>2022-03-18T08:35:20.000Z</time>
      </trkpt>
      <trkpt lat="49.64647" lon="5.67388">
        <ele>353</ele>
        <time>2022-03-18T08:35:22.000Z</time>
      </trkpt>
      <trkpt lat="49.64654" lon="5.67366">
        <ele>352.20001220703</ele>
        <time>2022-03-18T08:35:25.000Z</time>
      </trkpt>
      <trkpt lat="49.64662" lon="5.67341">
        <ele>351.60000610352</ele>
        <time>2022-03-18T08:35:28.000Z</time>
      </trkpt>
      <trkpt lat="49.64671" lon="5.67313">
        <ele>351.20001220703</ele>
        <time>2022-03-18T08:35:31.000Z</time>
      </trkpt>
      <trkpt lat="49.64674" lon="5.67303">
        <ele>351</ele>
        <time>2022-03-18T08:35:32.000Z</time>
      </trkpt>
      <trkpt lat="49.64679" lon="5.67283">
        <ele>350.20001220703</ele>
        <time>2022-03-18T08:35:34.000Z</time>
      </trkpt>
      <trkpt lat="49.64688" lon="5.67252">
        <ele>349.20001220703</ele>
        <time>2022-03-18T08:35:37.000Z</time>
      </trkpt>
      <trkpt lat="49.64698" lon="5.6722">
        <ele>348.79998779297</ele>
        <time>2022-03-18T08:35:40.000Z</time>
      </trkpt>
      <trkpt lat="49.64709" lon="5.67188">
        <ele>349.20001220703</ele>
        <time>2022-03-18T08:35:43.000Z</time>
      </trkpt>
      <trkpt lat="49.64716" lon="5.67169">
        <ele>349</ele>
        <time>2022-03-18T08:35:45.000Z</time>
      </trkpt>
      <trkpt lat="49.64722" lon="5.6715">
        <ele>348.60000610352</ele>
        <time>2022-03-18T08:35:47.000Z</time>
      </trkpt>
      <trkpt lat="49.64737" lon="5.67108">
        <ele>348.20001220703</ele>
        <time>2022-03-18T08:35:52.000Z</time>
      </trkpt>
      <trkpt lat="49.64753" lon="5.67055">
        <ele>348.39999389648</ele>
        <time>2022-03-18T08:35:59.000Z</time>
      </trkpt>
      <trkpt lat="49.6476" lon="5.67033">
        <ele>350.20001220703</ele>
        <time>2022-03-18T08:36:02.000Z</time>
      </trkpt>
      <trkpt lat="49.64759" lon="5.67021">
        <ele>351</ele>
        <time>2022-03-18T08:36:04.000Z</time>
      </trkpt>
      <trkpt lat="49.64751" lon="5.67017">
        <ele>351</ele>
        <time>2022-03-18T08:36:06.000Z</time>
      </trkpt>
      <trkpt lat="49.64739" lon="5.67027">
        <ele>349.79998779297</ele>
        <time>2022-03-18T08:36:09.000Z</time>
      </trkpt>
      <trkpt lat="49.64735" lon="5.67031">
        <ele>349.39999389648</ele>
        <time>2022-03-18T08:36:10.000Z</time>
      </trkpt>
      <trkpt lat="49.64725" lon="5.67038">
        <ele>349</ele>
        <time>2022-03-18T08:36:12.000Z</time>
      </trkpt>
      <trkpt lat="49.64705" lon="5.67053">
        <ele>350.20001220703</ele>
        <time>2022-03-18T08:36:16.000Z</time>
      </trkpt>
      <trkpt lat="49.647" lon="5.67057">
        <ele>350.79998779297</ele>
        <time>2022-03-18T08:36:17.000Z</time>
      </trkpt>
      <trkpt lat="49.64677" lon="5.67072">
        <ele>351.39999389648</ele>
        <time>2022-03-18T08:36:21.000Z</time>
      </trkpt>
      <trkpt lat="49.64671" lon="5.67076">
        <ele>351.60000610352</ele>
        <time>2022-03-18T08:36:22.000Z</time>
      </trkpt>
      <trkpt lat="49.64658" lon="5.67085">
        <ele>350.60000610352</ele>
        <time>2022-03-18T08:36:24.000Z</time>
      </trkpt>
      <trkpt lat="49.64639" lon="5.67097">
        <ele>349.20001220703</ele>
        <time>2022-03-18T08:36:27.000Z</time>
      </trkpt>
      <trkpt lat="49.6462" lon="5.67108">
        <ele>348.39999389648</ele>
        <time>2022-03-18T08:36:30.000Z</time>
      </trkpt>
      <trkpt lat="49.64588" lon="5.6712">
        <ele>348.39999389648</ele>
        <time>2022-03-18T08:36:35.000Z</time>
      </trkpt>
      <trkpt lat="49.64582" lon="5.67123">
        <ele>348</ele>
        <time>2022-03-18T08:36:36.000Z</time>
      </trkpt>
      <trkpt lat="49.64553" lon="5.67134">
        <ele>345.60000610352</ele>
        <time>2022-03-18T08:36:41.000Z</time>
      </trkpt>
      <trkpt lat="49.64542" lon="5.67138">
        <ele>344.60000610352</ele>
        <time>2022-03-18T08:36:43.000Z</time>
      </trkpt>
      <trkpt lat="49.64513" lon="5.67145">
        <ele>342.60000610352</ele>
        <time>2022-03-18T08:36:48.000Z</time>
      </trkpt>
      <trkpt lat="49.64507" lon="5.67146">
        <ele>342.39999389648</ele>
        <time>2022-03-18T08:36:49.000Z</time>
      </trkpt>
      <trkpt lat="49.6447" lon="5.67154">
        <ele>340.20001220703</ele>
        <time>2022-03-18T08:36:55.000Z</time>
      </trkpt>
      <trkpt lat="49.64463" lon="5.67153">
        <ele>340</ele>
        <time>2022-03-18T08:36:56.000Z</time>
      </trkpt>
      <trkpt lat="49.64452" lon="5.67146">
        <ele>339.20001220703</ele>
        <time>2022-03-18T08:36:58.000Z</time>
      </trkpt>
      <trkpt lat="49.64438" lon="5.6713">
        <ele>338.60000610352</ele>
        <time>2022-03-18T08:37:01.000Z</time>
      </trkpt>
      <trkpt lat="49.64432" lon="5.67128">
        <ele>339</ele>
        <time>2022-03-18T08:37:02.000Z</time>
      </trkpt>
      <trkpt lat="49.64411" lon="5.67123">
        <ele>340</ele>
        <time>2022-03-18T08:37:06.000Z</time>
      </trkpt>
      <trkpt lat="49.64406" lon="5.67123">
        <ele>340.39999389648</ele>
        <time>2022-03-18T08:37:07.000Z</time>
      </trkpt>
      <trkpt lat="49.64395" lon="5.67123">
        <ele>341.20001220703</ele>
        <time>2022-03-18T08:37:09.000Z</time>
      </trkpt>
      <trkpt lat="49.64373" lon="5.67122">
        <ele>340.60000610352</ele>
        <time>2022-03-18T08:37:13.000Z</time>
      </trkpt>
      <trkpt lat="49.64363" lon="5.6712">
        <ele>340.20001220703</ele>
        <time>2022-03-18T08:37:15.000Z</time>
      </trkpt>
      <trkpt lat="49.64332" lon="5.67117">
        <ele>340</ele>
        <time>2022-03-18T08:37:21.000Z</time>
      </trkpt>
      <trkpt lat="49.6432" lon="5.67124">
        <ele>340</ele>
        <time>2022-03-18T08:37:25.000Z</time>
      </trkpt>
      <trkpt lat="49.64307" lon="5.67131">
        <ele>339.39999389648</ele>
        <time>2022-03-18T08:37:30.000Z</time>
      </trkpt>
      <trkpt lat="49.64303" lon="5.67128">
        <ele>339.39999389648</ele>
        <time>2022-03-18T08:37:31.000Z</time>
      </trkpt>
      <trkpt lat="49.64295" lon="5.67123">
        <ele>339.20001220703</ele>
        <time>2022-03-18T08:37:33.000Z</time>
      </trkpt>
      <trkpt lat="49.64278" lon="5.67118">
        <ele>338.79998779297</ele>
        <time>2022-03-18T08:37:37.000Z</time>
      </trkpt>
      <trkpt lat="49.64258" lon="5.67112">
        <ele>337.39999389648</ele>
        <time>2022-03-18T08:37:42.000Z</time>
      </trkpt>
      <trkpt lat="49.64247" lon="5.67106">
        <ele>337.60000610352</ele>
        <time>2022-03-18T08:37:45.000Z</time>
      </trkpt>
      <trkpt lat="49.64239" lon="5.67105">
        <ele>337.79998779297</ele>
        <time>2022-03-18T08:37:48.000Z</time>
      </trkpt>
      <trkpt lat="49.6422" lon="5.67106">
        <ele>337.79998779297</ele>
        <time>2022-03-18T08:37:54.000Z</time>
      </trkpt>
      <trkpt lat="49.64196" lon="5.67103">
        <ele>338</ele>
        <time>2022-03-18T08:38:00.000Z</time>
      </trkpt>
      <trkpt lat="49.64181" lon="5.67101">
        <ele>338.20001220703</ele>
        <time>2022-03-18T08:38:03.000Z</time>
      </trkpt>
      <trkpt lat="49.64162" lon="5.67101">
        <ele>338.79998779297</ele>
        <time>2022-03-18T08:38:07.000Z</time>
      </trkpt>
      <trkpt lat="49.6415" lon="5.67098">
        <ele>339.60000610352</ele>
        <time>2022-03-18T08:38:09.000Z</time>
      </trkpt>
      <trkpt lat="49.64125" lon="5.6709">
        <ele>340.79998779297</ele>
        <time>2022-03-18T08:38:13.000Z</time>
      </trkpt>
      <trkpt lat="49.6411" lon="5.67085">
        <ele>340.60000610352</ele>
        <time>2022-03-18T08:38:16.000Z</time>
      </trkpt>
      <trkpt lat="49.64094" lon="5.67076">
        <ele>339.39999389648</ele>
        <time>2022-03-18T08:38:19.000Z</time>
      </trkpt>
      <trkpt lat="49.64088" lon="5.67072">
        <ele>338.79998779297</ele>
        <time>2022-03-18T08:38:20.000Z</time>
      </trkpt>
      <trkpt lat="49.6408" lon="5.6706">
        <ele>337.79998779297</ele>
        <time>2022-03-18T08:38:22.000Z</time>
      </trkpt>
      <trkpt lat="49.64078" lon="5.67041">
        <ele>336</ele>
        <time>2022-03-18T08:38:25.000Z</time>
      </trkpt>
      <trkpt lat="49.64082" lon="5.67023">
        <ele>335</ele>
        <time>2022-03-18T08:38:28.000Z</time>
      </trkpt>
      <trkpt lat="49.64084" lon="5.67019">
        <ele>334.79998779297</ele>
        <time>2022-03-18T08:38:29.000Z</time>
      </trkpt>
      <trkpt lat="49.64092" lon="5.66995">
        <ele>334.60000610352</ele>
        <time>2022-03-18T08:38:34.000Z</time>
      </trkpt>
      <trkpt lat="49.64087" lon="5.66971">
        <ele>334.20001220703</ele>
        <time>2022-03-18T08:38:38.000Z</time>
      </trkpt>
      <trkpt lat="49.64082" lon="5.6696">
        <ele>333.60000610352</ele>
        <time>2022-03-18T08:38:40.000Z</time>
      </trkpt>
      <trkpt lat="49.64075" lon="5.66942">
        <ele>332.79998779297</ele>
        <time>2022-03-18T08:38:43.000Z</time>
      </trkpt>
      <trkpt lat="49.64061" lon="5.6692">
        <ele>330.39999389648</ele>
        <time>2022-03-18T08:38:48.000Z</time>
      </trkpt>
      <trkpt lat="49.64045" lon="5.66891">
        <ele>330.20001220703</ele>
        <time>2022-03-18T08:38:53.000Z</time>
      </trkpt>
      <trkpt lat="49.64043" lon="5.66884">
        <ele>330.39999389648</ele>
        <time>2022-03-18T08:38:54.000Z</time>
      </trkpt>
      <trkpt lat="49.64034" lon="5.66844">
        <ele>332.79998779297</ele>
        <time>2022-03-18T08:39:00.000Z</time>
      </trkpt>
      <trkpt lat="49.6402" lon="5.66821">
        <ele>333.39999389648</ele>
        <time>2022-03-18T08:39:04.000Z</time>
      </trkpt>
      <trkpt lat="49.63992" lon="5.66815">
        <ele>331.39999389648</ele>
        <time>2022-03-18T08:39:09.000Z</time>
      </trkpt>
      <trkpt lat="49.63964" lon="5.6681">
        <ele>330.60000610352</ele>
        <time>2022-03-18T08:39:14.000Z</time>
      </trkpt>
      <trkpt lat="49.63958" lon="5.66808">
        <ele>330.60000610352</ele>
        <time>2022-03-18T08:39:15.000Z</time>
      </trkpt>
      <trkpt lat="49.63932" lon="5.66798">
        <ele>330.79998779297</ele>
        <time>2022-03-18T08:39:19.000Z</time>
      </trkpt>
      <trkpt lat="49.63919" lon="5.66793">
        <ele>331</ele>
        <time>2022-03-18T08:39:21.000Z</time>
      </trkpt>
      <trkpt lat="49.63901" lon="5.66783">
        <ele>328.60000610352</ele>
        <time>2022-03-18T08:39:24.000Z</time>
      </trkpt>
      <trkpt lat="49.6389" lon="5.66773">
        <ele>327.20001220703</ele>
        <time>2022-03-18T08:39:26.000Z</time>
      </trkpt>
      <trkpt lat="49.63884" lon="5.66769">
        <ele>326.39999389648</ele>
        <time>2022-03-18T08:39:27.000Z</time>
      </trkpt>
      <trkpt lat="49.63865" lon="5.66762">
        <ele>323.20001220703</ele>
        <time>2022-03-18T08:39:30.000Z</time>
      </trkpt>
      <trkpt lat="49.63843" lon="5.66756">
        <ele>320</ele>
        <time>2022-03-18T08:39:33.000Z</time>
      </trkpt>
      <trkpt lat="49.6383" lon="5.66754">
        <ele>318.79998779297</ele>
        <time>2022-03-18T08:39:35.000Z</time>
      </trkpt>
      <trkpt lat="49.63823" lon="5.66754">
        <ele>318.60000610352</ele>
        <time>2022-03-18T08:39:36.000Z</time>
      </trkpt>
      <trkpt lat="49.63817" lon="5.66753">
        <ele>318.20001220703</ele>
        <time>2022-03-18T08:39:37.000Z</time>
      </trkpt>
      <trkpt lat="49.63807" lon="5.66752">
        <ele>318</ele>
        <time>2022-03-18T08:39:39.000Z</time>
      </trkpt>
      <trkpt lat="49.63804" lon="5.66753">
        <ele>318.39999389648</ele>
        <time>2022-03-18T08:39:40.000Z</time>
      </trkpt>
      <trkpt lat="49.63802" lon="5.66755">
        <ele>318.79998779297</ele>
        <time>2022-03-18T08:39:41.000Z</time>
      </trkpt>
      <trkpt lat="49.638" lon="5.6676">
        <ele>319.60000610352</ele>
        <time>2022-03-18T08:39:43.000Z</time>
      </trkpt>
      <trkpt lat="49.63802" lon="5.6677">
        <ele>320.39999389648</ele>
        <time>2022-03-18T08:39:46.000Z</time>
      </trkpt>
      <trkpt lat="49.63802" lon="5.66775">
        <ele>321</ele>
        <time>2022-03-18T08:39:47.000Z</time>
      </trkpt>
      <trkpt lat="49.63811" lon="5.66792">
        <ele>322.20001220703</ele>
        <time>2022-03-18T08:39:52.000Z</time>
      </trkpt>
      <trkpt lat="49.63814" lon="5.6681">
        <ele>324.20001220703</ele>
        <time>2022-03-18T08:39:56.000Z</time>
      </trkpt>
      <trkpt lat="49.63816" lon="5.66816">
        <ele>324.60000610352</ele>
        <time>2022-03-18T08:39:57.000Z</time>
      </trkpt>
      <trkpt lat="49.63825" lon="5.66852">
        <ele>327.20001220703</ele>
        <time>2022-03-18T08:40:03.000Z</time>
      </trkpt>
      <trkpt lat="49.6383" lon="5.66884">
        <ele>329.60000610352</ele>
        <time>2022-03-18T08:40:08.000Z</time>
      </trkpt>
      <trkpt lat="49.6383" lon="5.6689">
        <ele>330.20001220703</ele>
        <time>2022-03-18T08:40:09.000Z</time>
      </trkpt>
      <trkpt lat="49.63829" lon="5.66918">
        <ele>332.20001220703</ele>
        <time>2022-03-18T08:40:13.000Z</time>
      </trkpt>
      <trkpt lat="49.63836" lon="5.6695">
        <ele>334.20001220703</ele>
        <time>2022-03-18T08:40:18.000Z</time>
      </trkpt>
      <trkpt lat="49.63848" lon="5.66982">
        <ele>335.60000610352</ele>
        <time>2022-03-18T08:40:23.000Z</time>
      </trkpt>
      <trkpt lat="49.63855" lon="5.67014">
        <ele>336.39999389648</ele>
        <time>2022-03-18T08:40:28.000Z</time>
      </trkpt>
      <trkpt lat="49.63855" lon="5.6702">
        <ele>336.39999389648</ele>
        <time>2022-03-18T08:40:29.000Z</time>
      </trkpt>
      <trkpt lat="49.63854" lon="5.67037">
        <ele>336.39999389648</ele>
        <time>2022-03-18T08:40:32.000Z</time>
      </trkpt>
      <trkpt lat="49.63854" lon="5.67044">
        <ele>336.39999389648</ele>
        <time>2022-03-18T08:40:33.000Z</time>
      </trkpt>
      <trkpt lat="49.63858" lon="5.67064">
        <ele>336.60000610352</ele>
        <time>2022-03-18T08:40:37.000Z</time>
      </trkpt>
      <trkpt lat="49.63859" lon="5.67069">
        <ele>336.39999389648</ele>
        <time>2022-03-18T08:40:38.000Z</time>
      </trkpt>
      <trkpt lat="49.63862" lon="5.67089">
        <ele>336.20001220703</ele>
        <time>2022-03-18T08:40:41.000Z</time>
      </trkpt>
      <trkpt lat="49.63864" lon="5.671">
        <ele>335.60000610352</ele>
        <time>2022-03-18T08:40:43.000Z</time>
      </trkpt>
      <trkpt lat="49.63866" lon="5.67112">
        <ele>335</ele>
        <time>2022-03-18T08:40:45.000Z</time>
      </trkpt>
      <trkpt lat="49.63875" lon="5.6715">
        <ele>333</ele>
        <time>2022-03-18T08:40:51.000Z</time>
      </trkpt>
      <trkpt lat="49.63876" lon="5.67157">
        <ele>332.79998779297</ele>
        <time>2022-03-18T08:40:52.000Z</time>
      </trkpt>
      <trkpt lat="49.63877" lon="5.67176">
        <ele>332.60000610352</ele>
        <time>2022-03-18T08:40:55.000Z</time>
      </trkpt>
      <trkpt lat="49.63879" lon="5.67181">
        <ele>332.60000610352</ele>
        <time>2022-03-18T08:40:56.000Z</time>
      </trkpt>
      <trkpt lat="49.63892" lon="5.67204">
        <ele>331</ele>
        <time>2022-03-18T08:41:00.000Z</time>
      </trkpt>
      <trkpt lat="49.639" lon="5.67231">
        <ele>331.39999389648</ele>
        <time>2022-03-18T08:41:04.000Z</time>
      </trkpt>
      <trkpt lat="49.63902" lon="5.67257">
        <ele>331.39999389648</ele>
        <time>2022-03-18T08:41:09.000Z</time>
      </trkpt>
      <trkpt lat="49.63902" lon="5.6726">
        <ele>331.39999389648</ele>
        <time>2022-03-18T08:41:10.000Z</time>
      </trkpt>
      <trkpt lat="49.63894" lon="5.67275">
        <ele>331</ele>
        <time>2022-03-18T08:41:13.000Z</time>
      </trkpt>
      <trkpt lat="49.63875" lon="5.67298">
        <ele>330.60000610352</ele>
        <time>2022-03-18T08:41:17.000Z</time>
      </trkpt>
      <trkpt lat="49.63867" lon="5.67307">
        <ele>331</ele>
        <time>2022-03-18T08:41:19.000Z</time>
      </trkpt>
      <trkpt lat="49.63853" lon="5.67325">
        <ele>331.39999389648</ele>
        <time>2022-03-18T08:41:23.000Z</time>
      </trkpt>
      <trkpt lat="49.63845" lon="5.67331">
        <ele>331.79998779297</ele>
        <time>2022-03-18T08:41:25.000Z</time>
      </trkpt>
      <trkpt lat="49.63835" lon="5.67343">
        <ele>332.60000610352</ele>
        <time>2022-03-18T08:41:28.000Z</time>
      </trkpt>
      <trkpt lat="49.63832" lon="5.67347">
        <ele>333.20001220703</ele>
        <time>2022-03-18T08:41:29.000Z</time>
      </trkpt>
      <trkpt lat="49.6383" lon="5.67351">
        <ele>333.79998779297</ele>
        <time>2022-03-18T08:41:30.000Z</time>
      </trkpt>
      <trkpt lat="49.6382" lon="5.67376">
        <ele>336</ele>
        <time>2022-03-18T08:41:35.000Z</time>
      </trkpt>
      <trkpt lat="49.63816" lon="5.67394">
        <ele>336.79998779297</ele>
        <time>2022-03-18T08:41:38.000Z</time>
      </trkpt>
      <trkpt lat="49.63812" lon="5.67423">
        <ele>339</ele>
        <time>2022-03-18T08:41:42.000Z</time>
      </trkpt>
      <trkpt lat="49.63808" lon="5.67436">
        <ele>340.20001220703</ele>
        <time>2022-03-18T08:41:44.000Z</time>
      </trkpt>
      <trkpt lat="49.63805" lon="5.67448">
        <ele>341</ele>
        <time>2022-03-18T08:41:46.000Z</time>
      </trkpt>
      <trkpt lat="49.63803" lon="5.67456">
        <ele>341.20001220703</ele>
        <time>2022-03-18T08:41:47.000Z</time>
      </trkpt>
      <trkpt lat="49.63802" lon="5.67462">
        <ele>341.39999389648</ele>
        <time>2022-03-18T08:41:48.000Z</time>
      </trkpt>
      <trkpt lat="49.63796" lon="5.67488">
        <ele>342.39999389648</ele>
        <time>2022-03-18T08:41:52.000Z</time>
      </trkpt>
      <trkpt lat="49.63794" lon="5.67493">
        <ele>342.60000610352</ele>
        <time>2022-03-18T08:41:53.000Z</time>
      </trkpt>
      <trkpt lat="49.63787" lon="5.67508">
        <ele>342.79998779297</ele>
        <time>2022-03-18T08:41:56.000Z</time>
      </trkpt>
      <trkpt lat="49.63778" lon="5.67523">
        <ele>344.79998779297</ele>
        <time>2022-03-18T08:41:59.000Z</time>
      </trkpt>
      <trkpt lat="49.63776" lon="5.67527">
        <ele>345.39999389648</ele>
        <time>2022-03-18T08:42:00.000Z</time>
      </trkpt>
      <trkpt lat="49.63765" lon="5.67541">
        <ele>346.60000610352</ele>
        <time>2022-03-18T08:42:04.000Z</time>
      </trkpt>
      <trkpt lat="49.63761" lon="5.67544">
        <ele>346.79998779297</ele>
        <time>2022-03-18T08:42:05.000Z</time>
      </trkpt>
      <trkpt lat="49.63754" lon="5.6755">
        <ele>347.60000610352</ele>
        <time>2022-03-18T08:42:07.000Z</time>
      </trkpt>
      <trkpt lat="49.63745" lon="5.67557">
        <ele>348.39999389648</ele>
        <time>2022-03-18T08:42:10.000Z</time>
      </trkpt>
      <trkpt lat="49.6374" lon="5.67559">
        <ele>348.60000610352</ele>
        <time>2022-03-18T08:42:12.000Z</time>
      </trkpt>
      <trkpt lat="49.63731" lon="5.67564">
        <ele>349</ele>
        <time>2022-03-18T08:42:15.000Z</time>
      </trkpt>
      <trkpt lat="49.63728" lon="5.67565">
        <ele>349.20001220703</ele>
        <time>2022-03-18T08:42:16.000Z</time>
      </trkpt>
      <trkpt lat="49.63718" lon="5.67567">
        <ele>349.60000610352</ele>
        <time>2022-03-18T08:42:19.000Z</time>
      </trkpt>
      <trkpt lat="49.63707" lon="5.6757">
        <ele>350</ele>
        <time>2022-03-18T08:42:22.000Z</time>
      </trkpt>
      <trkpt lat="49.63704" lon="5.67572">
        <ele>350</ele>
        <time>2022-03-18T08:42:23.000Z</time>
      </trkpt>
      <trkpt lat="49.6369" lon="5.67576">
        <ele>349.79998779297</ele>
        <time>2022-03-18T08:42:27.000Z</time>
      </trkpt>
      <trkpt lat="49.6368" lon="5.67582">
        <ele>349.79998779297</ele>
        <time>2022-03-18T08:42:30.000Z</time>
      </trkpt>
      <trkpt lat="49.63675" lon="5.67589">
        <ele>350</ele>
        <time>2022-03-18T08:42:32.000Z</time>
      </trkpt>
      <trkpt lat="49.63656" lon="5.67603">
        <ele>351</ele>
        <time>2022-03-18T08:42:37.000Z</time>
      </trkpt>
      <trkpt lat="49.63645" lon="5.67616">
        <ele>351.20001220703</ele>
        <time>2022-03-18T08:42:41.000Z</time>
      </trkpt>
      <trkpt lat="49.63643" lon="5.67621">
        <ele>351.20001220703</ele>
        <time>2022-03-18T08:42:42.000Z</time>
      </trkpt>
      <trkpt lat="49.63642" lon="5.67639">
        <ele>351.79998779297</ele>
        <time>2022-03-18T08:42:45.000Z</time>
      </trkpt>
      <trkpt lat="49.63641" lon="5.67653">
        <ele>352.20001220703</ele>
        <time>2022-03-18T08:42:47.000Z</time>
      </trkpt>
      <trkpt lat="49.63639" lon="5.6768">
        <ele>352.79998779297</ele>
        <time>2022-03-18T08:42:51.000Z</time>
      </trkpt>
      <trkpt lat="49.63641" lon="5.67692">
        <ele>352.79998779297</ele>
        <time>2022-03-18T08:42:53.000Z</time>
      </trkpt>
      <trkpt lat="49.63645" lon="5.67716">
        <ele>353.20001220703</ele>
        <time>2022-03-18T08:42:57.000Z</time>
      </trkpt>
      <trkpt lat="49.63649" lon="5.67737">
        <ele>353.79998779297</ele>
        <time>2022-03-18T08:43:00.000Z</time>
      </trkpt>
      <trkpt lat="49.6365" lon="5.67743">
        <ele>354.20001220703</ele>
        <time>2022-03-18T08:43:01.000Z</time>
      </trkpt>
      <trkpt lat="49.63654" lon="5.67757">
        <ele>355</ele>
        <time>2022-03-18T08:43:03.000Z</time>
      </trkpt>
      <trkpt lat="49.63656" lon="5.67764">
        <ele>355.20001220703</ele>
        <time>2022-03-18T08:43:04.000Z</time>
      </trkpt>
      <trkpt lat="49.63658" lon="5.67776">
        <ele>355.79998779297</ele>
        <time>2022-03-18T08:43:06.000Z</time>
      </trkpt>
      <trkpt lat="49.63662" lon="5.67789">
        <ele>356.60000610352</ele>
        <time>2022-03-18T08:43:08.000Z</time>
      </trkpt>
      <trkpt lat="49.63665" lon="5.67806">
        <ele>357.39999389648</ele>
        <time>2022-03-18T08:43:11.000Z</time>
      </trkpt>
      <trkpt lat="49.63675" lon="5.67838">
        <ele>358.39999389648</ele>
        <time>2022-03-18T08:43:16.000Z</time>
      </trkpt>
      <trkpt lat="49.63677" lon="5.67865">
        <ele>357.39999389648</ele>
        <time>2022-03-18T08:43:20.000Z</time>
      </trkpt>
      <trkpt lat="49.63677" lon="5.67872">
        <ele>357.20001220703</ele>
        <time>2022-03-18T08:43:21.000Z</time>
      </trkpt>
      <trkpt lat="49.63678" lon="5.67909">
        <ele>355.79998779297</ele>
        <time>2022-03-18T08:43:26.000Z</time>
      </trkpt>
      <trkpt lat="49.63677" lon="5.67948">
        <ele>355.20001220703</ele>
        <time>2022-03-18T08:43:31.000Z</time>
      </trkpt>
      <trkpt lat="49.63676" lon="5.67989">
        <ele>355.20001220703</ele>
        <time>2022-03-18T08:43:36.000Z</time>
      </trkpt>
      <trkpt lat="49.63676" lon="5.67997">
        <ele>354.79998779297</ele>
        <time>2022-03-18T08:43:37.000Z</time>
      </trkpt>
      <trkpt lat="49.63676" lon="5.68015">
        <ele>354.39999389648</ele>
        <time>2022-03-18T08:43:39.000Z</time>
      </trkpt>
      <trkpt lat="49.6368" lon="5.68027">
        <ele>354.60000610352</ele>
        <time>2022-03-18T08:43:41.000Z</time>
      </trkpt>
      <trkpt lat="49.63693" lon="5.68042">
        <ele>356</ele>
        <time>2022-03-18T08:43:45.000Z</time>
      </trkpt>
      <trkpt lat="49.63697" lon="5.68046">
        <ele>356.39999389648</ele>
        <time>2022-03-18T08:43:46.000Z</time>
      </trkpt>
      <trkpt lat="49.63715" lon="5.68076">
        <ele>357</ele>
        <time>2022-03-18T08:43:51.000Z</time>
      </trkpt>
      <trkpt lat="49.63727" lon="5.68097">
        <ele>357</ele>
        <time>2022-03-18T08:43:54.000Z</time>
      </trkpt>
      <trkpt lat="49.6373" lon="5.68102">
        <ele>356.39999389648</ele>
        <time>2022-03-18T08:43:55.000Z</time>
      </trkpt>
      <trkpt lat="49.63734" lon="5.68107">
        <ele>355.79998779297</ele>
        <time>2022-03-18T08:43:56.000Z</time>
      </trkpt>
      <trkpt lat="49.63749" lon="5.6813">
        <ele>354.60000610352</ele>
        <time>2022-03-18T08:44:00.000Z</time>
      </trkpt>
      <trkpt lat="49.63755" lon="5.68143">
        <ele>354.79998779297</ele>
        <time>2022-03-18T08:44:02.000Z</time>
      </trkpt>
      <trkpt lat="49.63757" lon="5.68166">
        <ele>355.39999389648</ele>
        <time>2022-03-18T08:44:06.000Z</time>
      </trkpt>
      <trkpt lat="49.63754" lon="5.68182">
        <ele>356</ele>
        <time>2022-03-18T08:44:09.000Z</time>
      </trkpt>
      <trkpt lat="49.63749" lon="5.6819">
        <ele>356.39999389648</ele>
        <time>2022-03-18T08:44:11.000Z</time>
      </trkpt>
      <trkpt lat="49.63742" lon="5.68197">
        <ele>356.60000610352</ele>
        <time>2022-03-18T08:44:14.000Z</time>
      </trkpt>
      <trkpt lat="49.63736" lon="5.68206">
        <ele>356.79998779297</ele>
        <time>2022-03-18T08:44:16.000Z</time>
      </trkpt>
      <trkpt lat="49.63729" lon="5.68221">
        <ele>357.60000610352</ele>
        <time>2022-03-18T08:44:19.000Z</time>
      </trkpt>
      <trkpt lat="49.63724" lon="5.68232">
        <ele>357.79998779297</ele>
        <time>2022-03-18T08:44:21.000Z</time>
      </trkpt>
      <trkpt lat="49.63721" lon="5.68237">
        <ele>357.39999389648</ele>
        <time>2022-03-18T08:44:22.000Z</time>
      </trkpt>
      <trkpt lat="49.63707" lon="5.68261">
        <ele>356.20001220703</ele>
        <time>2022-03-18T08:44:26.000Z</time>
      </trkpt>
      <trkpt lat="49.63687" lon="5.68296">
        <ele>354.79998779297</ele>
        <time>2022-03-18T08:44:32.000Z</time>
      </trkpt>
      <trkpt lat="49.63685" lon="5.68301">
        <ele>354.60000610352</ele>
        <time>2022-03-18T08:44:33.000Z</time>
      </trkpt>
      <trkpt lat="49.63668" lon="5.68332">
        <ele>353</ele>
        <time>2022-03-18T08:44:38.000Z</time>
      </trkpt>
      <trkpt lat="49.63663" lon="5.68339">
        <ele>352.39999389648</ele>
        <time>2022-03-18T08:44:39.000Z</time>
      </trkpt>
      <trkpt lat="49.63657" lon="5.68346">
        <ele>351.60000610352</ele>
        <time>2022-03-18T08:44:40.000Z</time>
      </trkpt>
      <trkpt lat="49.63652" lon="5.68351">
        <ele>350.60000610352</ele>
        <time>2022-03-18T08:44:41.000Z</time>
      </trkpt>
      <trkpt lat="49.63648" lon="5.68356">
        <ele>349.79998779297</ele>
        <time>2022-03-18T08:44:42.000Z</time>
      </trkpt>
      <trkpt lat="49.63645" lon="5.68359">
        <ele>349</ele>
        <time>2022-03-18T08:44:43.000Z</time>
      </trkpt>
      <trkpt lat="49.63636" lon="5.68364">
        <ele>347.60000610352</ele>
        <time>2022-03-18T08:44:46.000Z</time>
      </trkpt>
      <trkpt lat="49.63632" lon="5.68362">
        <ele>347.60000610352</ele>
        <time>2022-03-18T08:44:47.000Z</time>
      </trkpt>
      <trkpt lat="49.63622" lon="5.68354">
        <ele>347.39999389648</ele>
        <time>2022-03-18T08:44:50.000Z</time>
      </trkpt>
      <trkpt lat="49.63618" lon="5.68351">
        <ele>347.39999389648</ele>
        <time>2022-03-18T08:44:51.000Z</time>
      </trkpt>
      <trkpt lat="49.63615" lon="5.68346">
        <ele>347.60000610352</ele>
        <time>2022-03-18T08:44:52.000Z</time>
      </trkpt>
      <trkpt lat="49.63608" lon="5.68336">
        <ele>347.79998779297</ele>
        <time>2022-03-18T08:44:54.000Z</time>
      </trkpt>
      <trkpt lat="49.63596" lon="5.68318">
        <ele>348</ele>
        <time>2022-03-18T08:44:57.000Z</time>
      </trkpt>
      <trkpt lat="49.63592" lon="5.68312">
        <ele>348.20001220703</ele>
        <time>2022-03-18T08:44:58.000Z</time>
      </trkpt>
      <trkpt lat="49.63588" lon="5.68305">
        <ele>348.20001220703</ele>
        <time>2022-03-18T08:44:59.000Z</time>
      </trkpt>
      <trkpt lat="49.63581" lon="5.68293">
        <ele>348.20001220703</ele>
        <time>2022-03-18T08:45:01.000Z</time>
      </trkpt>
      <trkpt lat="49.63574" lon="5.68282">
        <ele>348.20001220703</ele>
        <time>2022-03-18T08:45:03.000Z</time>
      </trkpt>
      <trkpt lat="49.63567" lon="5.68269">
        <ele>348</ele>
        <time>2022-03-18T08:45:05.000Z</time>
      </trkpt>
      <trkpt lat="49.63559" lon="5.68253">
        <ele>348</ele>
        <time>2022-03-18T08:45:08.000Z</time>
      </trkpt>
      <trkpt lat="49.63557" lon="5.68247">
        <ele>347.79998779297</ele>
        <time>2022-03-18T08:45:09.000Z</time>
      </trkpt>
      <trkpt lat="49.63551" lon="5.68226">
        <ele>347.20001220703</ele>
        <time>2022-03-18T08:45:12.000Z</time>
      </trkpt>
      <trkpt lat="49.63542" lon="5.68201">
        <ele>346.79998779297</ele>
        <time>2022-03-18T08:45:15.000Z</time>
      </trkpt>
      <trkpt lat="49.63538" lon="5.68195">
        <ele>346.60000610352</ele>
        <time>2022-03-18T08:45:16.000Z</time>
      </trkpt>
      <trkpt lat="49.63513" lon="5.68156">
        <ele>346.79998779297</ele>
        <time>2022-03-18T08:45:22.000Z</time>
      </trkpt>
      <trkpt lat="49.63508" lon="5.68151">
        <ele>347</ele>
        <time>2022-03-18T08:45:23.000Z</time>
      </trkpt>
      <trkpt lat="49.63496" lon="5.68136">
        <ele>346.20001220703</ele>
        <time>2022-03-18T08:45:26.000Z</time>
      </trkpt>
      <trkpt lat="49.63492" lon="5.68132">
        <ele>345.79998779297</ele>
        <time>2022-03-18T08:45:27.000Z</time>
      </trkpt>
      <trkpt lat="49.63488" lon="5.68128">
        <ele>345.39999389648</ele>
        <time>2022-03-18T08:45:28.000Z</time>
      </trkpt>
      <trkpt lat="49.63481" lon="5.68121">
        <ele>344.60000610352</ele>
        <time>2022-03-18T08:45:30.000Z</time>
      </trkpt>
      <trkpt lat="49.63474" lon="5.68113">
        <ele>343.79998779297</ele>
        <time>2022-03-18T08:45:32.000Z</time>
      </trkpt>
      <trkpt lat="49.6347" lon="5.68109">
        <ele>343.39999389648</ele>
        <time>2022-03-18T08:45:33.000Z</time>
      </trkpt>
      <trkpt lat="49.63454" lon="5.68089">
        <ele>341.39999389648</ele>
        <time>2022-03-18T08:45:37.000Z</time>
      </trkpt>
      <trkpt lat="49.63449" lon="5.68084">
        <ele>341</ele>
        <time>2022-03-18T08:45:38.000Z</time>
      </trkpt>
      <trkpt lat="49.63429" lon="5.68065">
        <ele>340.20001220703</ele>
        <time>2022-03-18T08:45:42.000Z</time>
      </trkpt>
      <trkpt lat="49.63425" lon="5.68059">
        <ele>340</ele>
        <time>2022-03-18T08:45:43.000Z</time>
      </trkpt>
      <trkpt lat="49.63416" lon="5.68046">
        <ele>340.20001220703</ele>
        <time>2022-03-18T08:45:45.000Z</time>
      </trkpt>
      <trkpt lat="49.63407" lon="5.68034">
        <ele>340.39999389648</ele>
        <time>2022-03-18T08:45:47.000Z</time>
      </trkpt>
      <trkpt lat="49.63402" lon="5.68029">
        <ele>340.79998779297</ele>
        <time>2022-03-18T08:45:48.000Z</time>
      </trkpt>
      <trkpt lat="49.63392" lon="5.68018">
        <ele>341.60000610352</ele>
        <time>2022-03-18T08:45:50.000Z</time>
      </trkpt>
      <trkpt lat="49.63368" lon="5.67997">
        <ele>340.79998779297</ele>
        <time>2022-03-18T08:45:55.000Z</time>
      </trkpt>
      <trkpt lat="49.63341" lon="5.67977">
        <ele>338.20001220703</ele>
        <time>2022-03-18T08:46:00.000Z</time>
      </trkpt>
      <trkpt lat="49.63327" lon="5.67954">
        <ele>337.20001220703</ele>
        <time>2022-03-18T08:46:04.000Z</time>
      </trkpt>
      <trkpt lat="49.63301" lon="5.6792">
        <ele>337</ele>
        <time>2022-03-18T08:46:10.000Z</time>
      </trkpt>
      <trkpt lat="49.63282" lon="5.67902">
        <ele>337</ele>
        <time>2022-03-18T08:46:14.000Z</time>
      </trkpt>
      <trkpt lat="49.63276" lon="5.67898">
        <ele>336.39999389648</ele>
        <time>2022-03-18T08:46:15.000Z</time>
      </trkpt>
      <trkpt lat="49.63265" lon="5.67894">
        <ele>335.20001220703</ele>
        <time>2022-03-18T08:46:17.000Z</time>
      </trkpt>
      <trkpt lat="49.63249" lon="5.67893">
        <ele>333.60000610352</ele>
        <time>2022-03-18T08:46:20.000Z</time>
      </trkpt>
      <trkpt lat="49.63234" lon="5.67894">
        <ele>332.60000610352</ele>
        <time>2022-03-18T08:46:24.000Z</time>
      </trkpt>
      <trkpt lat="49.63173" lon="5.67889">
        <ele>330.20001220703</ele>
        <time>2022-03-18T08:47:55.000Z</time>
      </trkpt>
      <trkpt lat="49.63172" lon="5.67885">
        <ele>330.39999389648</ele>
        <time>2022-03-18T08:47:56.000Z</time>
      </trkpt>
      <trkpt lat="49.6316" lon="5.67871">
        <ele>330.79998779297</ele>
        <time>2022-03-18T08:48:01.000Z</time>
      </trkpt>
      <trkpt lat="49.63156" lon="5.67868">
        <ele>331</ele>
        <time>2022-03-18T08:48:02.000Z</time>
      </trkpt>
      <trkpt lat="49.63137" lon="5.67859">
        <ele>331.20001220703</ele>
        <time>2022-03-18T08:48:06.000Z</time>
      </trkpt>
      <trkpt lat="49.63123" lon="5.6786">
        <ele>330.20001220703</ele>
        <time>2022-03-18T08:48:09.000Z</time>
      </trkpt>
      <trkpt lat="49.63112" lon="5.6786">
        <ele>329.60000610352</ele>
        <time>2022-03-18T08:48:11.000Z</time>
      </trkpt>
      <trkpt lat="49.63092" lon="5.67848">
        <ele>330.20001220703</ele>
        <time>2022-03-18T08:48:15.000Z</time>
      </trkpt>
      <trkpt lat="49.63081" lon="5.67833">
        <ele>331</ele>
        <time>2022-03-18T08:48:18.000Z</time>
      </trkpt>
      <trkpt lat="49.63074" lon="5.67821">
        <ele>331.20001220703</ele>
        <time>2022-03-18T08:48:20.000Z</time>
      </trkpt>
      <trkpt lat="49.63071" lon="5.67815">
        <ele>331.20001220703</ele>
        <time>2022-03-18T08:48:21.000Z</time>
      </trkpt>
      <trkpt lat="49.63051" lon="5.67785">
        <ele>331</ele>
        <time>2022-03-18T08:48:26.000Z</time>
      </trkpt>
      <trkpt lat="49.63039" lon="5.67779">
        <ele>331.20001220703</ele>
        <time>2022-03-18T08:48:28.000Z</time>
      </trkpt>
      <trkpt lat="49.63033" lon="5.67778">
        <ele>331.20001220703</ele>
        <time>2022-03-18T08:48:29.000Z</time>
      </trkpt>
      <trkpt lat="49.63027" lon="5.67779">
        <ele>330.79998779297</ele>
        <time>2022-03-18T08:48:30.000Z</time>
      </trkpt>
      <trkpt lat="49.63021" lon="5.6778">
        <ele>330.39999389648</ele>
        <time>2022-03-18T08:48:31.000Z</time>
      </trkpt>
      <trkpt lat="49.63015" lon="5.67781">
        <ele>329.79998779297</ele>
        <time>2022-03-18T08:48:32.000Z</time>
      </trkpt>
      <trkpt lat="49.6301" lon="5.67781">
        <ele>329.39999389648</ele>
        <time>2022-03-18T08:48:33.000Z</time>
      </trkpt>
      <trkpt lat="49.62999" lon="5.67784">
        <ele>328.39999389648</ele>
        <time>2022-03-18T08:48:35.000Z</time>
      </trkpt>
      <trkpt lat="49.62977" lon="5.67797">
        <ele>324.60000610352</ele>
        <time>2022-03-18T08:48:39.000Z</time>
      </trkpt>
      <trkpt lat="49.62971" lon="5.67801">
        <ele>324.20001220703</ele>
        <time>2022-03-18T08:48:40.000Z</time>
      </trkpt>
      <trkpt lat="49.62944" lon="5.67823">
        <ele>322.79998779297</ele>
        <time>2022-03-18T08:48:44.000Z</time>
      </trkpt>
      <trkpt lat="49.62931" lon="5.67832">
        <ele>323.20001220703</ele>
        <time>2022-03-18T08:48:46.000Z</time>
      </trkpt>
      <trkpt lat="49.62925" lon="5.67837">
        <ele>323.60000610352</ele>
        <time>2022-03-18T08:48:47.000Z</time>
      </trkpt>
      <trkpt lat="49.62911" lon="5.67848">
        <ele>323.20001220703</ele>
        <time>2022-03-18T08:48:49.000Z</time>
      </trkpt>
      <trkpt lat="49.62899" lon="5.67859">
        <ele>322.60000610352</ele>
        <time>2022-03-18T08:48:51.000Z</time>
      </trkpt>
      <trkpt lat="49.62873" lon="5.67881">
        <ele>319.79998779297</ele>
        <time>2022-03-18T08:48:55.000Z</time>
      </trkpt>
      <trkpt lat="49.6286" lon="5.67893">
        <ele>317.39999389648</ele>
        <time>2022-03-18T08:48:57.000Z</time>
      </trkpt>
      <trkpt lat="49.62846" lon="5.67903">
        <ele>316.39999389648</ele>
        <time>2022-03-18T08:48:59.000Z</time>
      </trkpt>
      <trkpt lat="49.62832" lon="5.67914">
        <ele>315.60000610352</ele>
        <time>2022-03-18T08:49:01.000Z</time>
      </trkpt>
      <trkpt lat="49.62819" lon="5.67924">
        <ele>314.39999389648</ele>
        <time>2022-03-18T08:49:03.000Z</time>
      </trkpt>
      <trkpt lat="49.62809" lon="5.67935">
        <ele>313.60000610352</ele>
        <time>2022-03-18T08:49:05.000Z</time>
      </trkpt>
      <trkpt lat="49.62803" lon="5.67941">
        <ele>314</ele>
        <time>2022-03-18T08:49:06.000Z</time>
      </trkpt>
      <trkpt lat="49.62789" lon="5.67963">
        <ele>312.39999389648</ele>
        <time>2022-03-18T08:49:09.000Z</time>
      </trkpt>
      <trkpt lat="49.62781" lon="5.67981">
        <ele>310.60000610352</ele>
        <time>2022-03-18T08:49:11.000Z</time>
      </trkpt>
      <trkpt lat="49.62762" lon="5.68014">
        <ele>310</ele>
        <time>2022-03-18T08:49:15.000Z</time>
      </trkpt>
      <trkpt lat="49.6275" lon="5.6804">
        <ele>307.60000610352</ele>
        <time>2022-03-18T08:49:18.000Z</time>
      </trkpt>
      <trkpt lat="49.62731" lon="5.68097">
        <ele>301.39999389648</ele>
        <time>2022-03-18T08:49:24.000Z</time>
      </trkpt>
      <trkpt lat="49.62724" lon="5.68125">
        <ele>300.39999389648</ele>
        <time>2022-03-18T08:49:27.000Z</time>
      </trkpt>
      <trkpt lat="49.62716" lon="5.68149">
        <ele>301.39999389648</ele>
        <time>2022-03-18T08:49:30.000Z</time>
      </trkpt>
      <trkpt lat="49.62699" lon="5.68168">
        <ele>303.60000610352</ele>
        <time>2022-03-18T08:49:34.000Z</time>
      </trkpt>
      <trkpt lat="49.62687" lon="5.68173">
        <ele>304.20001220703</ele>
        <time>2022-03-18T08:49:36.000Z</time>
      </trkpt>
      <trkpt lat="49.62674" lon="5.68176">
        <ele>304.79998779297</ele>
        <time>2022-03-18T08:49:38.000Z</time>
      </trkpt>
      <trkpt lat="49.62662" lon="5.68178">
        <ele>304.39999389648</ele>
        <time>2022-03-18T08:49:40.000Z</time>
      </trkpt>
      <trkpt lat="49.62636" lon="5.68176">
        <ele>303.60000610352</ele>
        <time>2022-03-18T08:49:44.000Z</time>
      </trkpt>
      <trkpt lat="49.62617" lon="5.68174">
        <ele>304</ele>
        <time>2022-03-18T08:49:47.000Z</time>
      </trkpt>
      <trkpt lat="49.62589" lon="5.68171">
        <ele>306.79998779297</ele>
        <time>2022-03-18T08:49:52.000Z</time>
      </trkpt>
      <trkpt lat="49.62554" lon="5.6817">
        <ele>308</ele>
        <time>2022-03-18T08:49:59.000Z</time>
      </trkpt>
      <trkpt lat="49.6255" lon="5.6817">
        <ele>307.60000610352</ele>
        <time>2022-03-18T08:50:00.000Z</time>
      </trkpt>
      <trkpt lat="49.62543" lon="5.68165">
        <ele>308</ele>
        <time>2022-03-18T08:50:03.000Z</time>
      </trkpt>
      <trkpt lat="49.62544" lon="5.68155">
        <ele>309.79998779297</ele>
        <time>2022-03-18T08:50:07.000Z</time>
      </trkpt>
      <trkpt lat="49.62546" lon="5.68152">
        <ele>310.60000610352</ele>
        <time>2022-03-18T08:50:08.000Z</time>
      </trkpt>
      <trkpt lat="49.62547" lon="5.68149">
        <ele>311.20001220703</ele>
        <time>2022-03-18T08:50:09.000Z</time>
      </trkpt>
      <trkpt lat="49.62554" lon="5.68139">
        <ele>313.20001220703</ele>
        <time>2022-03-18T08:50:12.000Z</time>
      </trkpt>
      <trkpt lat="49.62557" lon="5.68137">
        <ele>313.60000610352</ele>
        <time>2022-03-18T08:50:13.000Z</time>
      </trkpt>
      <trkpt lat="49.62568" lon="5.68127">
        <ele>314.60000610352</ele>
        <time>2022-03-18T08:50:16.000Z</time>
      </trkpt>
      <trkpt lat="49.62575" lon="5.6812">
        <ele>315</ele>
        <time>2022-03-18T08:50:18.000Z</time>
      </trkpt>
      <trkpt lat="49.62578" lon="5.68116">
        <ele>315.39999389648</ele>
        <time>2022-03-18T08:50:19.000Z</time>
      </trkpt>
      <trkpt lat="49.62586" lon="5.68104">
        <ele>316</ele>
        <time>2022-03-18T08:50:22.000Z</time>
      </trkpt>
      <trkpt lat="49.62589" lon="5.68096">
        <ele>316</ele>
        <time>2022-03-18T08:50:24.000Z</time>
      </trkpt>
      <trkpt lat="49.62591" lon="5.68092">
        <ele>316</ele>
        <time>2022-03-18T08:50:25.000Z</time>
      </trkpt>
      <trkpt lat="49.62595" lon="5.68082">
        <ele>316.39999389648</ele>
        <time>2022-03-18T08:50:27.000Z</time>
      </trkpt>
      <trkpt lat="49.62601" lon="5.68067">
        <ele>317.20001220703</ele>
        <time>2022-03-18T08:50:30.000Z</time>
      </trkpt>
      <trkpt lat="49.62608" lon="5.6805">
        <ele>319.20001220703</ele>
        <time>2022-03-18T08:50:33.000Z</time>
      </trkpt>
      <trkpt lat="49.62616" lon="5.68035">
        <ele>321.39999389648</ele>
        <time>2022-03-18T08:50:36.000Z</time>
      </trkpt>
      <trkpt lat="49.62623" lon="5.68015">
        <ele>323.60000610352</ele>
        <time>2022-03-18T08:50:40.000Z</time>
      </trkpt>
      <trkpt lat="49.62626" lon="5.68004">
        <ele>324.20001220703</ele>
        <time>2022-03-18T08:50:42.000Z</time>
      </trkpt>
      <trkpt lat="49.6263" lon="5.67993">
        <ele>323.79998779297</ele>
        <time>2022-03-18T08:50:44.000Z</time>
      </trkpt>
      <trkpt lat="49.6264" lon="5.67967">
        <ele>325</ele>
        <time>2022-03-18T08:50:49.000Z</time>
      </trkpt>
      <trkpt lat="49.62643" lon="5.67958">
        <ele>325</ele>
        <time>2022-03-18T08:50:51.000Z</time>
      </trkpt>
      <trkpt lat="49.62648" lon="5.67943">
        <ele>324</ele>
        <time>2022-03-18T08:50:54.000Z</time>
      </trkpt>
      <trkpt lat="49.62663" lon="5.6791">
        <ele>324.20001220703</ele>
        <time>2022-03-18T08:50:59.000Z</time>
      </trkpt>
      <trkpt lat="49.62667" lon="5.67902">
        <ele>324.60000610352</ele>
        <time>2022-03-18T08:51:00.000Z</time>
      </trkpt>
      <trkpt lat="49.62684" lon="5.67876">
        <ele>326</ele>
        <time>2022-03-18T08:51:05.000Z</time>
      </trkpt>
      <trkpt lat="49.62686" lon="5.67872">
        <ele>325.79998779297</ele>
        <time>2022-03-18T08:51:06.000Z</time>
      </trkpt>
      <trkpt lat="49.62707" lon="5.67849">
        <ele>325.39999389648</ele>
        <time>2022-03-18T08:51:12.000Z</time>
      </trkpt>
      <trkpt lat="49.62732" lon="5.67817">
        <ele>325.79998779297</ele>
        <time>2022-03-18T08:51:18.000Z</time>
      </trkpt>
      <trkpt lat="49.62752" lon="5.67796">
        <ele>326.79998779297</ele>
        <time>2022-03-18T08:51:22.000Z</time>
      </trkpt>
      <trkpt lat="49.62757" lon="5.67791">
        <ele>327.20001220703</ele>
        <time>2022-03-18T08:51:23.000Z</time>
      </trkpt>
      <trkpt lat="49.62787" lon="5.67766">
        <ele>328.79998779297</ele>
        <time>2022-03-18T08:51:29.000Z</time>
      </trkpt>
      <trkpt lat="49.62808" lon="5.67741">
        <ele>330.39999389648</ele>
        <time>2022-03-18T08:51:34.000Z</time>
      </trkpt>
      <trkpt lat="49.62817" lon="5.67729">
        <ele>330.20001220703</ele>
        <time>2022-03-18T08:51:36.000Z</time>
      </trkpt>
      <trkpt lat="49.6282" lon="5.67722">
        <ele>330.39999389648</ele>
        <time>2022-03-18T08:51:37.000Z</time>
      </trkpt>
      <trkpt lat="49.62824" lon="5.67714">
        <ele>330.60000610352</ele>
        <time>2022-03-18T08:51:38.000Z</time>
      </trkpt>
      <trkpt lat="49.6283" lon="5.677">
        <ele>331.39999389648</ele>
        <time>2022-03-18T08:51:40.000Z</time>
      </trkpt>
      <trkpt lat="49.62832" lon="5.67692">
        <ele>331.79998779297</ele>
        <time>2022-03-18T08:51:41.000Z</time>
      </trkpt>
      <trkpt lat="49.62834" lon="5.67683">
        <ele>332.20001220703</ele>
        <time>2022-03-18T08:51:42.000Z</time>
      </trkpt>
      <trkpt lat="49.62838" lon="5.67667">
        <ele>333</ele>
        <time>2022-03-18T08:51:44.000Z</time>
      </trkpt>
      <trkpt lat="49.62839" lon="5.67659">
        <ele>333</ele>
        <time>2022-03-18T08:51:45.000Z</time>
      </trkpt>
      <trkpt lat="49.62841" lon="5.6764">
        <ele>333.39999389648</ele>
        <time>2022-03-18T08:51:48.000Z</time>
      </trkpt>
      <trkpt lat="49.62842" lon="5.67633">
        <ele>333.39999389648</ele>
        <time>2022-03-18T08:51:49.000Z</time>
      </trkpt>
      <trkpt lat="49.62841" lon="5.67621">
        <ele>333.20001220703</ele>
        <time>2022-03-18T08:51:51.000Z</time>
      </trkpt>
      <trkpt lat="49.6284" lon="5.67611">
        <ele>333.39999389648</ele>
        <time>2022-03-18T08:51:53.000Z</time>
      </trkpt>
      <trkpt lat="49.62839" lon="5.67606">
        <ele>333.39999389648</ele>
        <time>2022-03-18T08:51:54.000Z</time>
      </trkpt>
      <trkpt lat="49.62836" lon="5.6759">
        <ele>333.79998779297</ele>
        <time>2022-03-18T08:51:57.000Z</time>
      </trkpt>
      <trkpt lat="49.62832" lon="5.67582">
        <ele>333.20001220703</ele>
        <time>2022-03-18T08:51:59.000Z</time>
      </trkpt>
      <trkpt lat="49.62827" lon="5.67592">
        <ele>332.39999389648</ele>
        <time>2022-03-18T08:52:02.000Z</time>
      </trkpt>
      <trkpt lat="49.62824" lon="5.67613">
        <ele>331.60000610352</ele>
        <time>2022-03-18T08:52:05.000Z</time>
      </trkpt>
      <trkpt lat="49.62822" lon="5.67621">
        <ele>331.39999389648</ele>
        <time>2022-03-18T08:52:06.000Z</time>
      </trkpt>
      <trkpt lat="49.6282" lon="5.6763">
        <ele>331.20001220703</ele>
        <time>2022-03-18T08:52:07.000Z</time>
      </trkpt>
      <trkpt lat="49.62815" lon="5.67651">
        <ele>330.60000610352</ele>
        <time>2022-03-18T08:52:09.000Z</time>
      </trkpt>
      <trkpt lat="49.62811" lon="5.67661">
        <ele>330.20001220703</ele>
        <time>2022-03-18T08:52:10.000Z</time>
      </trkpt>
      <trkpt lat="49.62807" lon="5.6767">
        <ele>329.79998779297</ele>
        <time>2022-03-18T08:52:11.000Z</time>
      </trkpt>
      <trkpt lat="49.62797" lon="5.67689">
        <ele>328.60000610352</ele>
        <time>2022-03-18T08:52:13.000Z</time>
      </trkpt>
      <trkpt lat="49.62791" lon="5.67698">
        <ele>328</ele>
        <time>2022-03-18T08:52:14.000Z</time>
      </trkpt>
      <trkpt lat="49.62787" lon="5.67707">
        <ele>327.60000610352</ele>
        <time>2022-03-18T08:52:15.000Z</time>
      </trkpt>
      <trkpt lat="49.62782" lon="5.67715">
        <ele>327</ele>
        <time>2022-03-18T08:52:16.000Z</time>
      </trkpt>
      <trkpt lat="49.62771" lon="5.6773">
        <ele>326</ele>
        <time>2022-03-18T08:52:18.000Z</time>
      </trkpt>
      <trkpt lat="49.62766" lon="5.67736">
        <ele>325.79998779297</ele>
        <time>2022-03-18T08:52:19.000Z</time>
      </trkpt>
      <trkpt lat="49.62751" lon="5.6775">
        <ele>325.60000610352</ele>
        <time>2022-03-18T08:52:23.000Z</time>
      </trkpt>
      <trkpt lat="49.62727" lon="5.67766">
        <ele>324.39999389648</ele>
        <time>2022-03-18T08:52:28.000Z</time>
      </trkpt>
      <trkpt lat="49.62722" lon="5.67767">
        <ele>324.20001220703</ele>
        <time>2022-03-18T08:52:29.000Z</time>
      </trkpt>
      <trkpt lat="49.62706" lon="5.67764">
        <ele>322.79998779297</ele>
        <time>2022-03-18T08:52:32.000Z</time>
      </trkpt>
      <trkpt lat="49.62695" lon="5.67761">
        <ele>321.79998779297</ele>
        <time>2022-03-18T08:52:34.000Z</time>
      </trkpt>
      <trkpt lat="49.62678" lon="5.67759">
        <ele>320.60000610352</ele>
        <time>2022-03-18T08:52:37.000Z</time>
      </trkpt>
      <trkpt lat="49.62674" lon="5.67757">
        <ele>320.20001220703</ele>
        <time>2022-03-18T08:52:38.000Z</time>
      </trkpt>
      <trkpt lat="49.62658" lon="5.67748">
        <ele>320</ele>
        <time>2022-03-18T08:52:41.000Z</time>
      </trkpt>
      <trkpt lat="49.62635" lon="5.6774">
        <ele>320.60000610352</ele>
        <time>2022-03-18T08:52:45.000Z</time>
      </trkpt>
      <trkpt lat="49.62624" lon="5.67735">
        <ele>321.39999389648</ele>
        <time>2022-03-18T08:52:47.000Z</time>
      </trkpt>
      <trkpt lat="49.62611" lon="5.67733">
        <ele>322</ele>
        <time>2022-03-18T08:52:49.000Z</time>
      </trkpt>
      <trkpt lat="49.62598" lon="5.67736">
        <ele>322</ele>
        <time>2022-03-18T08:52:51.000Z</time>
      </trkpt>
      <trkpt lat="49.62592" lon="5.67735">
        <ele>322</ele>
        <time>2022-03-18T08:52:52.000Z</time>
      </trkpt>
      <trkpt lat="49.62586" lon="5.67733">
        <ele>322</ele>
        <time>2022-03-18T08:52:53.000Z</time>
      </trkpt>
      <trkpt lat="49.62572" lon="5.67732">
        <ele>321.39999389648</ele>
        <time>2022-03-18T08:52:55.000Z</time>
      </trkpt>
      <trkpt lat="49.62565" lon="5.67734">
        <ele>321.20001220703</ele>
        <time>2022-03-18T08:52:56.000Z</time>
      </trkpt>
      <trkpt lat="49.62554" lon="5.67742">
        <ele>320.79998779297</ele>
        <time>2022-03-18T08:52:58.000Z</time>
      </trkpt>
      <trkpt lat="49.6255" lon="5.67748">
        <ele>320.39999389648</ele>
        <time>2022-03-18T08:52:59.000Z</time>
      </trkpt>
      <trkpt lat="49.62538" lon="5.67767">
        <ele>318.39999389648</ele>
        <time>2022-03-18T08:53:02.000Z</time>
      </trkpt>
      <trkpt lat="49.62531" lon="5.67781">
        <ele>318</ele>
        <time>2022-03-18T08:53:04.000Z</time>
      </trkpt>
      <trkpt lat="49.62522" lon="5.67799">
        <ele>316.79998779297</ele>
        <time>2022-03-18T08:53:07.000Z</time>
      </trkpt>
      <trkpt lat="49.62518" lon="5.67806">
        <ele>316.60000610352</ele>
        <time>2022-03-18T08:53:08.000Z</time>
      </trkpt>
      <trkpt lat="49.62505" lon="5.67826">
        <ele>315</ele>
        <time>2022-03-18T08:53:11.000Z</time>
      </trkpt>
      <trkpt lat="49.625" lon="5.67832">
        <ele>314</ele>
        <time>2022-03-18T08:53:12.000Z</time>
      </trkpt>
      <trkpt lat="49.62496" lon="5.67838">
        <ele>313.60000610352</ele>
        <time>2022-03-18T08:53:13.000Z</time>
      </trkpt>
      <trkpt lat="49.62487" lon="5.67851">
        <ele>312</ele>
        <time>2022-03-18T08:53:15.000Z</time>
      </trkpt>
      <trkpt lat="49.62477" lon="5.67867">
        <ele>311.20001220703</ele>
        <time>2022-03-18T08:53:17.000Z</time>
      </trkpt>
      <trkpt lat="49.62465" lon="5.67878">
        <ele>310.20001220703</ele>
        <time>2022-03-18T08:53:19.000Z</time>
      </trkpt>
      <trkpt lat="49.62454" lon="5.67885">
        <ele>309</ele>
        <time>2022-03-18T08:53:21.000Z</time>
      </trkpt>
      <trkpt lat="49.62445" lon="5.67891">
        <ele>307.60000610352</ele>
        <time>2022-03-18T08:53:23.000Z</time>
      </trkpt>
      <trkpt lat="49.62439" lon="5.67891">
        <ele>307.20001220703</ele>
        <time>2022-03-18T08:53:25.000Z</time>
      </trkpt>
      <trkpt lat="49.62437" lon="5.67887">
        <ele>307</ele>
        <time>2022-03-18T08:53:26.000Z</time>
      </trkpt>
      <trkpt lat="49.62436" lon="5.67883">
        <ele>306.79998779297</ele>
        <time>2022-03-18T08:53:27.000Z</time>
      </trkpt>
      <trkpt lat="49.62435" lon="5.67872">
        <ele>306.60000610352</ele>
        <time>2022-03-18T08:53:29.000Z</time>
      </trkpt>
      <trkpt lat="49.62436" lon="5.67866">
        <ele>306.60000610352</ele>
        <time>2022-03-18T08:53:30.000Z</time>
      </trkpt>
      <trkpt lat="49.62434" lon="5.67846">
        <ele>306</ele>
        <time>2022-03-18T08:53:33.000Z</time>
      </trkpt>
      <trkpt lat="49.62433" lon="5.67839">
        <ele>305.60000610352</ele>
        <time>2022-03-18T08:53:34.000Z</time>
      </trkpt>
      <trkpt lat="49.62432" lon="5.67832">
        <ele>305.39999389648</ele>
        <time>2022-03-18T08:53:35.000Z</time>
      </trkpt>
      <trkpt lat="49.62429" lon="5.67803">
        <ele>304.39999389648</ele>
        <time>2022-03-18T08:53:39.000Z</time>
      </trkpt>
      <trkpt lat="49.62429" lon="5.67794">
        <ele>303.79998779297</ele>
        <time>2022-03-18T08:53:40.000Z</time>
      </trkpt>
      <trkpt lat="49.62427" lon="5.67759">
        <ele>303</ele>
        <time>2022-03-18T08:53:45.000Z</time>
      </trkpt>
      <trkpt lat="49.62426" lon="5.67751">
        <ele>303</ele>
        <time>2022-03-18T08:53:46.000Z</time>
      </trkpt>
      <trkpt lat="49.62431" lon="5.67716">
        <ele>303</ele>
        <time>2022-03-18T08:53:51.000Z</time>
      </trkpt>
      <trkpt lat="49.62434" lon="5.67688">
        <ele>304</ele>
        <time>2022-03-18T08:53:54.000Z</time>
      </trkpt>
      <trkpt lat="49.62434" lon="5.6767">
        <ele>305</ele>
        <time>2022-03-18T08:53:56.000Z</time>
      </trkpt>
      <trkpt lat="49.62432" lon="5.67636">
        <ele>304.60000610352</ele>
        <time>2022-03-18T08:53:59.000Z</time>
      </trkpt>
      <trkpt lat="49.62432" lon="5.67624">
        <ele>304.20001220703</ele>
        <time>2022-03-18T08:54:00.000Z</time>
      </trkpt>
      <trkpt lat="49.62433" lon="5.67586">
        <ele>299.79998779297</ele>
        <time>2022-03-18T08:54:03.000Z</time>
      </trkpt>
      <trkpt lat="49.62433" lon="5.6756">
        <ele>298</ele>
        <time>2022-03-18T08:54:05.000Z</time>
      </trkpt>
      <trkpt lat="49.62432" lon="5.67547">
        <ele>297.60000610352</ele>
        <time>2022-03-18T08:54:06.000Z</time>
      </trkpt>
      <trkpt lat="49.62428" lon="5.67519">
        <ele>296.20001220703</ele>
        <time>2022-03-18T08:54:08.000Z</time>
      </trkpt>
      <trkpt lat="49.62426" lon="5.67503">
        <ele>296.20001220703</ele>
        <time>2022-03-18T08:54:09.000Z</time>
      </trkpt>
      <trkpt lat="49.62424" lon="5.67488">
        <ele>296.79998779297</ele>
        <time>2022-03-18T08:54:10.000Z</time>
      </trkpt>
      <trkpt lat="49.62423" lon="5.67461">
        <ele>297</ele>
        <time>2022-03-18T08:54:12.000Z</time>
      </trkpt>
      <trkpt lat="49.62424" lon="5.6745">
        <ele>297.20001220703</ele>
        <time>2022-03-18T08:54:13.000Z</time>
      </trkpt>
      <trkpt lat="49.62425" lon="5.67439">
        <ele>297.20001220703</ele>
        <time>2022-03-18T08:54:14.000Z</time>
      </trkpt>
      <trkpt lat="49.62429" lon="5.67423">
        <ele>297.39999389648</ele>
        <time>2022-03-18T08:54:16.000Z</time>
      </trkpt>
      <trkpt lat="49.62431" lon="5.67417">
        <ele>297.39999389648</ele>
        <time>2022-03-18T08:54:17.000Z</time>
      </trkpt>
      <trkpt lat="49.62438" lon="5.67389">
        <ele>297.60000610352</ele>
        <time>2022-03-18T08:54:22.000Z</time>
      </trkpt>
      <trkpt lat="49.62441" lon="5.6737">
        <ele>298.39999389648</ele>
        <time>2022-03-18T08:54:25.000Z</time>
      </trkpt>
      <trkpt lat="49.62443" lon="5.6736">
        <ele>298.39999389648</ele>
        <time>2022-03-18T08:54:27.000Z</time>
      </trkpt>
      <trkpt lat="49.62446" lon="5.67332">
        <ele>298.60000610352</ele>
        <time>2022-03-18T08:54:32.000Z</time>
      </trkpt>
      <trkpt lat="49.62451" lon="5.67306">
        <ele>298.20001220703</ele>
        <time>2022-03-18T08:54:36.000Z</time>
      </trkpt>
      <trkpt lat="49.62451" lon="5.673">
        <ele>298</ele>
        <time>2022-03-18T08:54:37.000Z</time>
      </trkpt>
      <trkpt lat="49.62454" lon="5.67286">
        <ele>297.79998779297</ele>
        <time>2022-03-18T08:54:39.000Z</time>
      </trkpt>
      <trkpt lat="49.62458" lon="5.67272">
        <ele>298.39999389648</ele>
        <time>2022-03-18T08:54:41.000Z</time>
      </trkpt>
      <trkpt lat="49.62462" lon="5.67265">
        <ele>299</ele>
        <time>2022-03-18T08:54:42.000Z</time>
      </trkpt>
      <trkpt lat="49.62469" lon="5.67244">
        <ele>300</ele>
        <time>2022-03-18T08:54:45.000Z</time>
      </trkpt>
      <trkpt lat="49.6248" lon="5.6721">
        <ele>299.39999389648</ele>
        <time>2022-03-18T08:54:49.000Z</time>
      </trkpt>
      <trkpt lat="49.62484" lon="5.67197">
        <ele>299</ele>
        <time>2022-03-18T08:54:50.000Z</time>
      </trkpt>
      <trkpt lat="49.62488" lon="5.67187">
        <ele>298.79998779297</ele>
        <time>2022-03-18T08:54:51.000Z</time>
      </trkpt>
      <trkpt lat="49.62495" lon="5.6716">
        <ele>298</ele>
        <time>2022-03-18T08:54:54.000Z</time>
      </trkpt>
      <trkpt lat="49.62509" lon="5.67108">
        <ele>297.39999389648</ele>
        <time>2022-03-18T08:55:01.000Z</time>
      </trkpt>
      <trkpt lat="49.62514" lon="5.67075">
        <ele>296.79998779297</ele>
        <time>2022-03-18T08:55:05.000Z</time>
      </trkpt>
      <trkpt lat="49.62517" lon="5.67059">
        <ele>297.60000610352</ele>
        <time>2022-03-18T08:55:07.000Z</time>
      </trkpt>
      <trkpt lat="49.62524" lon="5.67024">
        <ele>300</ele>
        <time>2022-03-18T08:55:12.000Z</time>
      </trkpt>
      <trkpt lat="49.62523" lon="5.67017">
        <ele>300.20001220703</ele>
        <time>2022-03-18T08:55:13.000Z</time>
      </trkpt>
      <trkpt lat="49.62523" lon="5.67006">
        <ele>300.39999389648</ele>
        <time>2022-03-18T08:55:15.000Z</time>
      </trkpt>
      <trkpt lat="49.62527" lon="5.66991">
        <ele>302.20001220703</ele>
        <time>2022-03-18T08:55:19.000Z</time>
      </trkpt>
      <trkpt lat="49.62527" lon="5.66989">
        <ele>302.39999389648</ele>
        <time>2022-03-18T08:55:20.000Z</time>
      </trkpt>
      <trkpt lat="49.6253" lon="5.66986">
        <ele>303</ele>
        <time>2022-03-18T08:55:22.000Z</time>
      </trkpt>
      <trkpt lat="49.62533" lon="5.6698">
        <ele>304</ele>
        <time>2022-03-18T08:55:25.000Z</time>
      </trkpt>
      <trkpt lat="49.62541" lon="5.66984">
        <ele>305</ele>
        <time>2022-03-18T08:55:28.000Z</time>
      </trkpt>
      <trkpt lat="49.62545" lon="5.66987">
        <ele>305.60000610352</ele>
        <time>2022-03-18T08:55:30.000Z</time>
      </trkpt>
      <trkpt lat="49.62558" lon="5.66992">
        <ele>307.39999389648</ele>
        <time>2022-03-18T08:55:35.000Z</time>
      </trkpt>
      <trkpt lat="49.62582" lon="5.67">
        <ele>308.79998779297</ele>
        <time>2022-03-18T08:55:41.000Z</time>
      </trkpt>
      <trkpt lat="49.62604" lon="5.67">
        <ele>309.60000610352</ele>
        <time>2022-03-18T08:55:46.000Z</time>
      </trkpt>
      <trkpt lat="49.62615" lon="5.66998">
        <ele>310</ele>
        <time>2022-03-18T08:55:49.000Z</time>
      </trkpt>
      <trkpt lat="49.62625" lon="5.66996">
        <ele>310.79998779297</ele>
        <time>2022-03-18T08:55:51.000Z</time>
      </trkpt>
      <trkpt lat="49.62642" lon="5.66994">
        <ele>312.39999389648</ele>
        <time>2022-03-18T08:55:55.000Z</time>
      </trkpt>
      <trkpt lat="49.62663" lon="5.6699">
        <ele>313</ele>
        <time>2022-03-18T08:55:58.000Z</time>
      </trkpt>
      <trkpt lat="49.62684" lon="5.66983">
        <ele>313.39999389648</ele>
        <time>2022-03-18T08:56:02.000Z</time>
      </trkpt>
      <trkpt lat="49.62705" lon="5.66975">
        <ele>314.60000610352</ele>
        <time>2022-03-18T08:56:06.000Z</time>
      </trkpt>
      <trkpt lat="49.6271" lon="5.66973">
        <ele>315</ele>
        <time>2022-03-18T08:56:07.000Z</time>
      </trkpt>
      <trkpt lat="49.62715" lon="5.66969">
        <ele>315.39999389648</ele>
        <time>2022-03-18T08:56:08.000Z</time>
      </trkpt>
      <trkpt lat="49.62723" lon="5.66967">
        <ele>316.39999389648</ele>
        <time>2022-03-18T08:56:10.000Z</time>
      </trkpt>
      <trkpt lat="49.6273" lon="5.66968">
        <ele>317</ele>
        <time>2022-03-18T08:56:12.000Z</time>
      </trkpt>
      <trkpt lat="49.62741" lon="5.66973">
        <ele>317.39999389648</ele>
        <time>2022-03-18T08:56:15.000Z</time>
      </trkpt>
      <trkpt lat="49.62748" lon="5.66977">
        <ele>317.60000610352</ele>
        <time>2022-03-18T08:56:17.000Z</time>
      </trkpt>
      <trkpt lat="49.62766" lon="5.66989">
        <ele>318</ele>
        <time>2022-03-18T08:56:22.000Z</time>
      </trkpt>
      <trkpt lat="49.62771" lon="5.6699">
        <ele>318.20001220703</ele>
        <time>2022-03-18T08:56:23.000Z</time>
      </trkpt>
      <trkpt lat="49.62787" lon="5.66995">
        <ele>318.60000610352</ele>
        <time>2022-03-18T08:56:28.000Z</time>
      </trkpt>
      <trkpt lat="49.6279" lon="5.66995">
        <ele>318.60000610352</ele>
        <time>2022-03-18T08:56:29.000Z</time>
      </trkpt>
      <trkpt lat="49.62809" lon="5.66998">
        <ele>319.60000610352</ele>
        <time>2022-03-18T08:56:35.000Z</time>
      </trkpt>
      <trkpt lat="49.62813" lon="5.66997">
        <ele>319.79998779297</ele>
        <time>2022-03-18T08:56:36.000Z</time>
      </trkpt>
      <trkpt lat="49.62823" lon="5.66999">
        <ele>320.39999389648</ele>
        <time>2022-03-18T08:56:40.000Z</time>
      </trkpt>
      <trkpt lat="49.62836" lon="5.66996">
        <ele>321.60000610352</ele>
        <time>2022-03-18T08:56:43.000Z</time>
      </trkpt>
      <trkpt lat="49.62839" lon="5.66995">
        <ele>322</ele>
        <time>2022-03-18T08:56:44.000Z</time>
      </trkpt>
      <trkpt lat="49.6285" lon="5.66992">
        <ele>323.39999389648</ele>
        <time>2022-03-18T08:56:47.000Z</time>
      </trkpt>
      <trkpt lat="49.62865" lon="5.66986">
        <ele>325.39999389648</ele>
        <time>2022-03-18T08:56:51.000Z</time>
      </trkpt>
      <trkpt lat="49.6288" lon="5.66973">
        <ele>326.79998779297</ele>
        <time>2022-03-18T08:56:56.000Z</time>
      </trkpt>
      <trkpt lat="49.62883" lon="5.6697">
        <ele>327.20001220703</ele>
        <time>2022-03-18T08:56:57.000Z</time>
      </trkpt>
      <trkpt lat="49.62892" lon="5.66956">
        <ele>327.79998779297</ele>
        <time>2022-03-18T08:57:01.000Z</time>
      </trkpt>
      <trkpt lat="49.62897" lon="5.66944">
        <ele>328.39999389648</ele>
        <time>2022-03-18T08:57:04.000Z</time>
      </trkpt>
      <trkpt lat="49.62904" lon="5.66929">
        <ele>329.60000610352</ele>
        <time>2022-03-18T08:57:08.000Z</time>
      </trkpt>
      <trkpt lat="49.62911" lon="5.6691">
        <ele>330.60000610352</ele>
        <time>2022-03-18T08:57:13.000Z</time>
      </trkpt>
      <trkpt lat="49.62916" lon="5.669">
        <ele>331.39999389648</ele>
        <time>2022-03-18T08:57:16.000Z</time>
      </trkpt>
      <trkpt lat="49.62917" lon="5.66896">
        <ele>331.79998779297</ele>
        <time>2022-03-18T08:57:17.000Z</time>
      </trkpt>
      <trkpt lat="49.62922" lon="5.66884">
        <ele>332.60000610352</ele>
        <time>2022-03-18T08:57:20.000Z</time>
      </trkpt>
      <trkpt lat="49.62925" lon="5.66876">
        <ele>333</ele>
        <time>2022-03-18T08:57:22.000Z</time>
      </trkpt>
      <trkpt lat="49.62926" lon="5.66872">
        <ele>333.20001220703</ele>
        <time>2022-03-18T08:57:23.000Z</time>
      </trkpt>
      <trkpt lat="49.62932" lon="5.66859">
        <ele>333.79998779297</ele>
        <time>2022-03-18T08:57:27.000Z</time>
      </trkpt>
      <trkpt lat="49.62935" lon="5.66853">
        <ele>334</ele>
        <time>2022-03-18T08:57:29.000Z</time>
      </trkpt>
      <trkpt lat="49.62936" lon="5.66851">
        <ele>334</ele>
        <time>2022-03-18T08:57:30.000Z</time>
      </trkpt>
      <trkpt lat="49.62941" lon="5.66834">
        <ele>334.39999389648</ele>
        <time>2022-03-18T08:57:35.000Z</time>
      </trkpt>
      <trkpt lat="49.62947" lon="5.66815">
        <ele>334</ele>
        <time>2022-03-18T08:57:40.000Z</time>
      </trkpt>
      <trkpt lat="49.62947" lon="5.66809">
        <ele>334</ele>
        <time>2022-03-18T08:57:41.000Z</time>
      </trkpt>
      <trkpt lat="49.62949" lon="5.66776">
        <ele>334.39999389648</ele>
        <time>2022-03-18T08:57:47.000Z</time>
      </trkpt>
      <trkpt lat="49.62949" lon="5.66773">
        <ele>334.39999389648</ele>
        <time>2022-03-18T08:57:48.000Z</time>
      </trkpt>
      <trkpt lat="49.62947" lon="5.66746">
        <ele>335</ele>
        <time>2022-03-18T08:57:53.000Z</time>
      </trkpt>
      <trkpt lat="49.62947" lon="5.66723">
        <ele>335.20001220703</ele>
        <time>2022-03-18T08:57:57.000Z</time>
      </trkpt>
      <trkpt lat="49.62949" lon="5.66715">
        <ele>335.60000610352</ele>
        <time>2022-03-18T08:57:59.000Z</time>
      </trkpt>
      <trkpt lat="49.62959" lon="5.66699">
        <ele>337.20001220703</ele>
        <time>2022-03-18T08:58:04.000Z</time>
      </trkpt>
      <trkpt lat="49.62963" lon="5.66689">
        <ele>338</ele>
        <time>2022-03-18T08:58:06.000Z</time>
      </trkpt>
      <trkpt lat="49.62974" lon="5.66671">
        <ele>339.79998779297</ele>
        <time>2022-03-18T08:58:10.000Z</time>
      </trkpt>
      <trkpt lat="49.6298" lon="5.66664">
        <ele>340.39999389648</ele>
        <time>2022-03-18T08:58:12.000Z</time>
      </trkpt>
      <trkpt lat="49.62994" lon="5.66641">
        <ele>341.20001220703</ele>
        <time>2022-03-18T08:58:17.000Z</time>
      </trkpt>
      <trkpt lat="49.62998" lon="5.66635">
        <ele>341</ele>
        <time>2022-03-18T08:58:18.000Z</time>
      </trkpt>
      <trkpt lat="49.63017" lon="5.66614">
        <ele>341.39999389648</ele>
        <time>2022-03-18T08:58:23.000Z</time>
      </trkpt>
      <trkpt lat="49.63029" lon="5.66603">
        <ele>341.39999389648</ele>
        <time>2022-03-18T08:58:26.000Z</time>
      </trkpt>
      <trkpt lat="49.63041" lon="5.66598">
        <ele>341</ele>
        <time>2022-03-18T08:58:29.000Z</time>
      </trkpt>
      <trkpt lat="49.63046" lon="5.66595">
        <ele>341</ele>
        <time>2022-03-18T08:58:30.000Z</time>
      </trkpt>
      <trkpt lat="49.63064" lon="5.66592">
        <ele>341</ele>
        <time>2022-03-18T08:58:35.000Z</time>
      </trkpt>
      <trkpt lat="49.63085" lon="5.66589">
        <ele>340.20001220703</ele>
        <time>2022-03-18T08:58:40.000Z</time>
      </trkpt>
      <trkpt lat="49.63088" lon="5.66588">
        <ele>340</ele>
        <time>2022-03-18T08:58:41.000Z</time>
      </trkpt>
      <trkpt lat="49.63115" lon="5.66584">
        <ele>339.79998779297</ele>
        <time>2022-03-18T08:58:47.000Z</time>
      </trkpt>
      <trkpt lat="49.63142" lon="5.66576">
        <ele>340</ele>
        <time>2022-03-18T08:58:53.000Z</time>
      </trkpt>
      <trkpt lat="49.63154" lon="5.66573">
        <ele>340</ele>
        <time>2022-03-18T08:58:55.000Z</time>
      </trkpt>
      <trkpt lat="49.63172" lon="5.66567">
        <ele>339.20001220703</ele>
        <time>2022-03-18T08:58:58.000Z</time>
      </trkpt>
      <trkpt lat="49.63187" lon="5.6656">
        <ele>339</ele>
        <time>2022-03-18T08:59:01.000Z</time>
      </trkpt>
      <trkpt lat="49.63192" lon="5.66557">
        <ele>339</ele>
        <time>2022-03-18T08:59:02.000Z</time>
      </trkpt>
      <trkpt lat="49.63194" lon="5.6655">
        <ele>338.79998779297</ele>
        <time>2022-03-18T08:59:03.000Z</time>
      </trkpt>
      <trkpt lat="49.63197" lon="5.66534">
        <ele>338</ele>
        <time>2022-03-18T08:59:05.000Z</time>
      </trkpt>
      <trkpt lat="49.63201" lon="5.66516">
        <ele>338</ele>
        <time>2022-03-18T08:59:07.000Z</time>
      </trkpt>
      <trkpt lat="49.63202" lon="5.66507">
        <ele>338</ele>
        <time>2022-03-18T08:59:08.000Z</time>
      </trkpt>
      <trkpt lat="49.63205" lon="5.66482">
        <ele>337.79998779297</ele>
        <time>2022-03-18T08:59:11.000Z</time>
      </trkpt>
      <trkpt lat="49.63204" lon="5.66475">
        <ele>337.79998779297</ele>
        <time>2022-03-18T08:59:12.000Z</time>
      </trkpt>
      <trkpt lat="49.63202" lon="5.66463">
        <ele>338.39999389648</ele>
        <time>2022-03-18T08:59:14.000Z</time>
      </trkpt>
      <trkpt lat="49.63201" lon="5.66457">
        <ele>338.60000610352</ele>
        <time>2022-03-18T08:59:15.000Z</time>
      </trkpt>
      <trkpt lat="49.63191" lon="5.6643">
        <ele>340.39999389648</ele>
        <time>2022-03-18T08:59:20.000Z</time>
      </trkpt>
      <trkpt lat="49.63187" lon="5.66419">
        <ele>341.20001220703</ele>
        <time>2022-03-18T08:59:22.000Z</time>
      </trkpt>
      <trkpt lat="49.63177" lon="5.66396">
        <ele>342.60000610352</ele>
        <time>2022-03-18T08:59:27.000Z</time>
      </trkpt>
      <trkpt lat="49.63172" lon="5.66384">
        <ele>343.20001220703</ele>
        <time>2022-03-18T08:59:30.000Z</time>
      </trkpt>
      <trkpt lat="49.63167" lon="5.66375">
        <ele>343.79998779297</ele>
        <time>2022-03-18T08:59:32.000Z</time>
      </trkpt>
      <trkpt lat="49.63164" lon="5.66367">
        <ele>344.39999389648</ele>
        <time>2022-03-18T08:59:34.000Z</time>
      </trkpt>
      <trkpt lat="49.63162" lon="5.66363">
        <ele>344.60000610352</ele>
        <time>2022-03-18T08:59:35.000Z</time>
      </trkpt>
      <trkpt lat="49.63157" lon="5.66349">
        <ele>345</ele>
        <time>2022-03-18T08:59:38.000Z</time>
      </trkpt>
      <trkpt lat="49.63151" lon="5.66335">
        <ele>345.79998779297</ele>
        <time>2022-03-18T08:59:41.000Z</time>
      </trkpt>
      <trkpt lat="49.63149" lon="5.66329">
        <ele>346</ele>
        <time>2022-03-18T08:59:42.000Z</time>
      </trkpt>
      <trkpt lat="49.6314" lon="5.66311">
        <ele>346.79998779297</ele>
        <time>2022-03-18T08:59:46.000Z</time>
      </trkpt>
      <trkpt lat="49.63137" lon="5.66304">
        <ele>346.79998779297</ele>
        <time>2022-03-18T08:59:48.000Z</time>
      </trkpt>
      <trkpt lat="49.63133" lon="5.66295">
        <ele>346.60000610352</ele>
        <time>2022-03-18T08:59:50.000Z</time>
      </trkpt>
      <trkpt lat="49.63126" lon="5.66276">
        <ele>346.39999389648</ele>
        <time>2022-03-18T08:59:54.000Z</time>
      </trkpt>
      <trkpt lat="49.63113" lon="5.66265">
        <ele>345.79998779297</ele>
        <time>2022-03-18T08:59:59.000Z</time>
      </trkpt>
      <trkpt lat="49.63099" lon="5.6627">
        <ele>345</ele>
        <time>2022-03-18T09:00:03.000Z</time>
      </trkpt>
      <trkpt lat="49.63083" lon="5.66284">
        <ele>344.79998779297</ele>
        <time>2022-03-18T09:00:08.000Z</time>
      </trkpt>
      <trkpt lat="49.63067" lon="5.663">
        <ele>344.60000610352</ele>
        <time>2022-03-18T09:00:14.000Z</time>
      </trkpt>
      <trkpt lat="49.63064" lon="5.66299">
        <ele>344.60000610352</ele>
        <time>2022-03-18T09:00:15.000Z</time>
      </trkpt>
      <trkpt lat="49.63061" lon="5.66295">
        <ele>344.39999389648</ele>
        <time>2022-03-18T09:00:17.000Z</time>
      </trkpt>
      <trkpt lat="49.6306" lon="5.66272">
        <ele>344</ele>
        <time>2022-03-18T09:00:22.000Z</time>
      </trkpt>
      <trkpt lat="49.63052" lon="5.66233">
        <ele>343.39999389648</ele>
        <time>2022-03-18T09:00:27.000Z</time>
      </trkpt>
      <trkpt lat="49.63044" lon="5.66177">
        <ele>343.79998779297</ele>
        <time>2022-03-18T09:00:34.000Z</time>
      </trkpt>
      <trkpt lat="49.6304" lon="5.66124">
        <ele>345</ele>
        <time>2022-03-18T09:00:41.000Z</time>
      </trkpt>
      <trkpt lat="49.63037" lon="5.6608">
        <ele>346.39999389648</ele>
        <time>2022-03-18T09:00:47.000Z</time>
      </trkpt>
      <trkpt lat="49.63038" lon="5.66044">
        <ele>346.79998779297</ele>
        <time>2022-03-18T09:00:52.000Z</time>
      </trkpt>
      <trkpt lat="49.63039" lon="5.66018">
        <ele>347</ele>
        <time>2022-03-18T09:00:55.000Z</time>
      </trkpt>
      <trkpt lat="49.63041" lon="5.65969">
        <ele>346.39999389648</ele>
        <time>2022-03-18T09:01:01.000Z</time>
      </trkpt>
      <trkpt lat="49.6304" lon="5.65954">
        <ele>346</ele>
        <time>2022-03-18T09:01:03.000Z</time>
      </trkpt>
      <trkpt lat="49.63039" lon="5.65946">
        <ele>346</ele>
        <time>2022-03-18T09:01:04.000Z</time>
      </trkpt>
      <trkpt lat="49.63039" lon="5.65928">
        <ele>346.20001220703</ele>
        <time>2022-03-18T09:01:06.000Z</time>
      </trkpt>
      <trkpt lat="49.63037" lon="5.65899">
        <ele>346.79998779297</ele>
        <time>2022-03-18T09:01:09.000Z</time>
      </trkpt>
      <trkpt lat="49.63033" lon="5.65867">
        <ele>346.79998779297</ele>
        <time>2022-03-18T09:01:12.000Z</time>
      </trkpt>
      <trkpt lat="49.63031" lon="5.65849">
        <ele>346.39999389648</ele>
        <time>2022-03-18T09:01:14.000Z</time>
      </trkpt>
      <trkpt lat="49.63028" lon="5.65821">
        <ele>346.20001220703</ele>
        <time>2022-03-18T09:01:17.000Z</time>
      </trkpt>
      <trkpt lat="49.63027" lon="5.65812">
        <ele>346.39999389648</ele>
        <time>2022-03-18T09:01:18.000Z</time>
      </trkpt>
      <trkpt lat="49.63027" lon="5.65802">
        <ele>346.39999389648</ele>
        <time>2022-03-18T09:01:19.000Z</time>
      </trkpt>
      <trkpt lat="49.63027" lon="5.65792">
        <ele>346.39999389648</ele>
        <time>2022-03-18T09:01:20.000Z</time>
      </trkpt>
      <trkpt lat="49.63026" lon="5.65773">
        <ele>346.39999389648</ele>
        <time>2022-03-18T09:01:22.000Z</time>
      </trkpt>
      <trkpt lat="49.63026" lon="5.65754">
        <ele>346.39999389648</ele>
        <time>2022-03-18T09:01:24.000Z</time>
      </trkpt>
      <trkpt lat="49.63024" lon="5.65736">
        <ele>345.79998779297</ele>
        <time>2022-03-18T09:01:26.000Z</time>
      </trkpt>
      <trkpt lat="49.63019" lon="5.65693">
        <ele>344.60000610352</ele>
        <time>2022-03-18T09:01:31.000Z</time>
      </trkpt>
      <trkpt lat="49.63014" lon="5.65678">
        <ele>344.60000610352</ele>
        <time>2022-03-18T09:01:33.000Z</time>
      </trkpt>
      <trkpt lat="49.63008" lon="5.65665">
        <ele>344.60000610352</ele>
        <time>2022-03-18T09:01:35.000Z</time>
      </trkpt>
      <trkpt lat="49.62998" lon="5.65648">
        <ele>344.39999389648</ele>
        <time>2022-03-18T09:01:38.000Z</time>
      </trkpt>
      <trkpt lat="49.62977" lon="5.65613">
        <ele>344</ele>
        <time>2022-03-18T09:01:44.000Z</time>
      </trkpt>
      <trkpt lat="49.62964" lon="5.65584">
        <ele>345.79998779297</ele>
        <time>2022-03-18T09:01:49.000Z</time>
      </trkpt>
      <trkpt lat="49.62957" lon="5.65571">
        <ele>346.39999389648</ele>
        <time>2022-03-18T09:01:51.000Z</time>
      </trkpt>
      <trkpt lat="49.62954" lon="5.65564">
        <ele>346.60000610352</ele>
        <time>2022-03-18T09:01:52.000Z</time>
      </trkpt>
      <trkpt lat="49.62939" lon="5.65529">
        <ele>348.39999389648</ele>
        <time>2022-03-18T09:01:57.000Z</time>
      </trkpt>
      <trkpt lat="49.62932" lon="5.65507">
        <ele>348.79998779297</ele>
        <time>2022-03-18T09:02:00.000Z</time>
      </trkpt>
      <trkpt lat="49.62925" lon="5.65482">
        <ele>348.60000610352</ele>
        <time>2022-03-18T09:02:03.000Z</time>
      </trkpt>
      <trkpt lat="49.62923" lon="5.65474">
        <ele>348.60000610352</ele>
        <time>2022-03-18T09:02:04.000Z</time>
      </trkpt>
      <trkpt lat="49.6292" lon="5.65467">
        <ele>348.39999389648</ele>
        <time>2022-03-18T09:02:05.000Z</time>
      </trkpt>
      <trkpt lat="49.62911" lon="5.65443">
        <ele>347.20001220703</ele>
        <time>2022-03-18T09:02:08.000Z</time>
      </trkpt>
      <trkpt lat="49.629" lon="5.65413">
        <ele>346.39999389648</ele>
        <time>2022-03-18T09:02:12.000Z</time>
      </trkpt>
      <trkpt lat="49.62898" lon="5.65405">
        <ele>346.20001220703</ele>
        <time>2022-03-18T09:02:13.000Z</time>
      </trkpt>
      <trkpt lat="49.62896" lon="5.6539">
        <ele>345.60000610352</ele>
        <time>2022-03-18T09:02:15.000Z</time>
      </trkpt>
      <trkpt lat="49.62894" lon="5.65383">
        <ele>345.20001220703</ele>
        <time>2022-03-18T09:02:16.000Z</time>
      </trkpt>
      <trkpt lat="49.62886" lon="5.6535">
        <ele>343</ele>
        <time>2022-03-18T09:02:20.000Z</time>
      </trkpt>
      <trkpt lat="49.62881" lon="5.65336">
        <ele>342</ele>
        <time>2022-03-18T09:02:22.000Z</time>
      </trkpt>
      <trkpt lat="49.62865" lon="5.65305">
        <ele>340.79998779297</ele>
        <time>2022-03-18T09:02:26.000Z</time>
      </trkpt>
      <trkpt lat="49.62862" lon="5.65297">
        <ele>340.60000610352</ele>
        <time>2022-03-18T09:02:27.000Z</time>
      </trkpt>
      <trkpt lat="49.62841" lon="5.65244">
        <ele>339.79998779297</ele>
        <time>2022-03-18T09:02:34.000Z</time>
      </trkpt>
      <trkpt lat="49.62835" lon="5.65228">
        <ele>340.20001220703</ele>
        <time>2022-03-18T09:02:36.000Z</time>
      </trkpt>
      <trkpt lat="49.62828" lon="5.65212">
        <ele>341.20001220703</ele>
        <time>2022-03-18T09:02:38.000Z</time>
      </trkpt>
      <trkpt lat="49.6282" lon="5.65199">
        <ele>342.20001220703</ele>
        <time>2022-03-18T09:02:40.000Z</time>
      </trkpt>
      <trkpt lat="49.62816" lon="5.65193">
        <ele>342.79998779297</ele>
        <time>2022-03-18T09:02:41.000Z</time>
      </trkpt>
      <trkpt lat="49.62797" lon="5.65159">
        <ele>343.60000610352</ele>
        <time>2022-03-18T09:02:46.000Z</time>
      </trkpt>
      <trkpt lat="49.62779" lon="5.65109">
        <ele>343.79998779297</ele>
        <time>2022-03-18T09:02:53.000Z</time>
      </trkpt>
      <trkpt lat="49.62769" lon="5.65069">
        <ele>342.39999389648</ele>
        <time>2022-03-18T09:02:59.000Z</time>
      </trkpt>
      <trkpt lat="49.62769" lon="5.65064">
        <ele>342.20001220703</ele>
        <time>2022-03-18T09:03:00.000Z</time>
      </trkpt>
      <trkpt lat="49.62772" lon="5.65056">
        <ele>342.39999389648</ele>
        <time>2022-03-18T09:03:02.000Z</time>
      </trkpt>
      <trkpt lat="49.62777" lon="5.6505">
        <ele>342.79998779297</ele>
        <time>2022-03-18T09:03:05.000Z</time>
      </trkpt>
      <trkpt lat="49.62783" lon="5.65046">
        <ele>343</ele>
        <time>2022-03-18T09:03:07.000Z</time>
      </trkpt>
      <trkpt lat="49.62791" lon="5.6504">
        <ele>343.79998779297</ele>
        <time>2022-03-18T09:03:10.000Z</time>
      </trkpt>
      <trkpt lat="49.62802" lon="5.65031">
        <ele>345.20001220703</ele>
        <time>2022-03-18T09:03:13.000Z</time>
      </trkpt>
      <trkpt lat="49.62807" lon="5.65028">
        <ele>345.79998779297</ele>
        <time>2022-03-18T09:03:14.000Z</time>
      </trkpt>
      <trkpt lat="49.62812" lon="5.65024">
        <ele>345.79998779297</ele>
        <time>2022-03-18T09:03:15.000Z</time>
      </trkpt>
      <trkpt lat="49.62827" lon="5.65017">
        <ele>344.79998779297</ele>
        <time>2022-03-18T09:03:18.000Z</time>
      </trkpt>
      <trkpt lat="49.62831" lon="5.65014">
        <ele>344.39999389648</ele>
        <time>2022-03-18T09:03:19.000Z</time>
      </trkpt>
      <trkpt lat="49.62836" lon="5.6501">
        <ele>344</ele>
        <time>2022-03-18T09:03:20.000Z</time>
      </trkpt>
      <trkpt lat="49.6284" lon="5.65006">
        <ele>343.39999389648</ele>
        <time>2022-03-18T09:03:21.000Z</time>
      </trkpt>
      <trkpt lat="49.62845" lon="5.65002">
        <ele>342.20001220703</ele>
        <time>2022-03-18T09:03:22.000Z</time>
      </trkpt>
      <trkpt lat="49.6285" lon="5.64999">
        <ele>341.20001220703</ele>
        <time>2022-03-18T09:03:23.000Z</time>
      </trkpt>
      <trkpt lat="49.62859" lon="5.64995">
        <ele>339.20001220703</ele>
        <time>2022-03-18T09:03:25.000Z</time>
      </trkpt>
      <trkpt lat="49.62873" lon="5.64998">
        <ele>336.79998779297</ele>
        <time>2022-03-18T09:03:27.000Z</time>
      </trkpt>
      <trkpt lat="49.6288" lon="5.65004">
        <ele>335.79998779297</ele>
        <time>2022-03-18T09:03:28.000Z</time>
      </trkpt>
      <trkpt lat="49.62888" lon="5.65009">
        <ele>334.79998779297</ele>
        <time>2022-03-18T09:03:29.000Z</time>
      </trkpt>
      <trkpt lat="49.62895" lon="5.65014">
        <ele>334.20001220703</ele>
        <time>2022-03-18T09:03:30.000Z</time>
      </trkpt>
      <trkpt lat="49.62912" lon="5.65017">
        <ele>332.79998779297</ele>
        <time>2022-03-18T09:03:32.000Z</time>
      </trkpt>
      <trkpt lat="49.6292" lon="5.65018">
        <ele>332</ele>
        <time>2022-03-18T09:03:33.000Z</time>
      </trkpt>
      <trkpt lat="49.62926" lon="5.65017">
        <ele>332</ele>
        <time>2022-03-18T09:03:34.000Z</time>
      </trkpt>
      <trkpt lat="49.62933" lon="5.65014">
        <ele>331.60000610352</ele>
        <time>2022-03-18T09:03:35.000Z</time>
      </trkpt>
      <trkpt lat="49.62947" lon="5.65013">
        <ele>330.39999389648</ele>
        <time>2022-03-18T09:03:37.000Z</time>
      </trkpt>
      <trkpt lat="49.62954" lon="5.65015">
        <ele>330.39999389648</ele>
        <time>2022-03-18T09:03:38.000Z</time>
      </trkpt>
      <trkpt lat="49.62975" lon="5.65036">
        <ele>332.39999389648</ele>
        <time>2022-03-18T09:03:43.000Z</time>
      </trkpt>
      <trkpt lat="49.62982" lon="5.65046">
        <ele>333</ele>
        <time>2022-03-18T09:03:45.000Z</time>
      </trkpt>
      <trkpt lat="49.6299" lon="5.65058">
        <ele>333.20001220703</ele>
        <time>2022-03-18T09:03:47.000Z</time>
      </trkpt>
      <trkpt lat="49.62999" lon="5.6507">
        <ele>333.60000610352</ele>
        <time>2022-03-18T09:03:49.000Z</time>
      </trkpt>
      <trkpt lat="49.63006" lon="5.65082">
        <ele>333.79998779297</ele>
        <time>2022-03-18T09:03:51.000Z</time>
      </trkpt>
      <trkpt lat="49.63018" lon="5.65101">
        <ele>333.39999389648</ele>
        <time>2022-03-18T09:03:54.000Z</time>
      </trkpt>
      <trkpt lat="49.63025" lon="5.65115">
        <ele>333.20001220703</ele>
        <time>2022-03-18T09:03:56.000Z</time>
      </trkpt>
      <trkpt lat="49.63042" lon="5.6514">
        <ele>329.79998779297</ele>
        <time>2022-03-18T09:03:59.000Z</time>
      </trkpt>
      <trkpt lat="49.63048" lon="5.65156">
        <ele>328.79998779297</ele>
        <time>2022-03-18T09:04:01.000Z</time>
      </trkpt>
      <trkpt lat="49.6305" lon="5.65165">
        <ele>328.79998779297</ele>
        <time>2022-03-18T09:04:02.000Z</time>
      </trkpt>
      <trkpt lat="49.63055" lon="5.65184">
        <ele>328.79998779297</ele>
        <time>2022-03-18T09:04:04.000Z</time>
      </trkpt>
      <trkpt lat="49.63056" lon="5.65193">
        <ele>329.39999389648</ele>
        <time>2022-03-18T09:04:05.000Z</time>
      </trkpt>
      <trkpt lat="49.63056" lon="5.65203">
        <ele>329.60000610352</ele>
        <time>2022-03-18T09:04:06.000Z</time>
      </trkpt>
      <trkpt lat="49.63058" lon="5.65212">
        <ele>329.60000610352</ele>
        <time>2022-03-18T09:04:07.000Z</time>
      </trkpt>
      <trkpt lat="49.63061" lon="5.65221">
        <ele>329.39999389648</ele>
        <time>2022-03-18T09:04:08.000Z</time>
      </trkpt>
      <trkpt lat="49.63066" lon="5.65241">
        <ele>328</ele>
        <time>2022-03-18T09:04:10.000Z</time>
      </trkpt>
      <trkpt lat="49.63069" lon="5.6525">
        <ele>327</ele>
        <time>2022-03-18T09:04:11.000Z</time>
      </trkpt>
      <trkpt lat="49.63076" lon="5.65267">
        <ele>324.60000610352</ele>
        <time>2022-03-18T09:04:13.000Z</time>
      </trkpt>
      <trkpt lat="49.63078" lon="5.65274">
        <ele>323.79998779297</ele>
        <time>2022-03-18T09:04:14.000Z</time>
      </trkpt>
      <trkpt lat="49.63086" lon="5.65289">
        <ele>321.79998779297</ele>
        <time>2022-03-18T09:04:16.000Z</time>
      </trkpt>
      <trkpt lat="49.63094" lon="5.65302">
        <ele>320.20001220703</ele>
        <time>2022-03-18T09:04:18.000Z</time>
      </trkpt>
      <trkpt lat="49.63099" lon="5.65309">
        <ele>319.39999389648</ele>
        <time>2022-03-18T09:04:19.000Z</time>
      </trkpt>
      <trkpt lat="49.63103" lon="5.65317">
        <ele>319.20001220703</ele>
        <time>2022-03-18T09:04:20.000Z</time>
      </trkpt>
      <trkpt lat="49.63109" lon="5.65331">
        <ele>319.60000610352</ele>
        <time>2022-03-18T09:04:22.000Z</time>
      </trkpt>
      <trkpt lat="49.6311" lon="5.65337">
        <ele>320</ele>
        <time>2022-03-18T09:04:23.000Z</time>
      </trkpt>
      <trkpt lat="49.63113" lon="5.65344">
        <ele>320.20001220703</ele>
        <time>2022-03-18T09:04:24.000Z</time>
      </trkpt>
      <trkpt lat="49.63121" lon="5.65355">
        <ele>320</ele>
        <time>2022-03-18T09:04:26.000Z</time>
      </trkpt>
      <trkpt lat="49.6313" lon="5.65363">
        <ele>318.79998779297</ele>
        <time>2022-03-18T09:04:28.000Z</time>
      </trkpt>
      <trkpt lat="49.63134" lon="5.65365">
        <ele>318.20001220703</ele>
        <time>2022-03-18T09:04:29.000Z</time>
      </trkpt>
      <trkpt lat="49.63146" lon="5.65365">
        <ele>315.60000610352</ele>
        <time>2022-03-18T09:04:31.000Z</time>
      </trkpt>
      <trkpt lat="49.63151" lon="5.65363">
        <ele>315.20001220703</ele>
        <time>2022-03-18T09:04:32.000Z</time>
      </trkpt>
      <trkpt lat="49.63158" lon="5.65363">
        <ele>314.39999389648</ele>
        <time>2022-03-18T09:04:49.000Z</time>
      </trkpt>
      <trkpt lat="49.63155" lon="5.65351">
        <ele>314.60000610352</ele>
        <time>2022-03-18T09:04:54.000Z</time>
      </trkpt>
      <trkpt lat="49.63143" lon="5.6532">
        <ele>314.79998779297</ele>
        <time>2022-03-18T09:05:00.000Z</time>
      </trkpt>
      <trkpt lat="49.63141" lon="5.65314">
        <ele>314.39999389648</ele>
        <time>2022-03-18T09:05:01.000Z</time>
      </trkpt>
      <trkpt lat="49.63135" lon="5.65291">
        <ele>312.60000610352</ele>
        <time>2022-03-18T09:05:04.000Z</time>
      </trkpt>
      <trkpt lat="49.63133" lon="5.65275">
        <ele>311.39999389648</ele>
        <time>2022-03-18T09:05:06.000Z</time>
      </trkpt>
      <trkpt lat="49.63133" lon="5.65266">
        <ele>310.79998779297</ele>
        <time>2022-03-18T09:05:07.000Z</time>
      </trkpt>
      <trkpt lat="49.63132" lon="5.65249">
        <ele>310</ele>
        <time>2022-03-18T09:05:09.000Z</time>
      </trkpt>
      <trkpt lat="49.63134" lon="5.65223">
        <ele>308</ele>
        <time>2022-03-18T09:05:12.000Z</time>
      </trkpt>
      <trkpt lat="49.63136" lon="5.6519">
        <ele>306.20001220703</ele>
        <time>2022-03-18T09:05:16.000Z</time>
      </trkpt>
      <trkpt lat="49.63137" lon="5.65174">
        <ele>304.20001220703</ele>
        <time>2022-03-18T09:05:18.000Z</time>
      </trkpt>
      <trkpt lat="49.63139" lon="5.65139">
        <ele>301.60000610352</ele>
        <time>2022-03-18T09:05:22.000Z</time>
      </trkpt>
      <trkpt lat="49.63139" lon="5.6512">
        <ele>300.20001220703</ele>
        <time>2022-03-18T09:05:24.000Z</time>
      </trkpt>
      <trkpt lat="49.63138" lon="5.65111">
        <ele>300</ele>
        <time>2022-03-18T09:05:25.000Z</time>
      </trkpt>
      <trkpt lat="49.63134" lon="5.65085">
        <ele>301.39999389648</ele>
        <time>2022-03-18T09:05:28.000Z</time>
      </trkpt>
      <trkpt lat="49.63132" lon="5.65076">
        <ele>301.60000610352</ele>
        <time>2022-03-18T09:05:29.000Z</time>
      </trkpt>
      <trkpt lat="49.63129" lon="5.65068">
        <ele>302.60000610352</ele>
        <time>2022-03-18T09:05:30.000Z</time>
      </trkpt>
      <trkpt lat="49.63116" lon="5.65039">
        <ele>305.39999389648</ele>
        <time>2022-03-18T09:05:34.000Z</time>
      </trkpt>
      <trkpt lat="49.63088" lon="5.64987">
        <ele>299.79998779297</ele>
        <time>2022-03-18T09:05:42.000Z</time>
      </trkpt>
      <trkpt lat="49.63085" lon="5.6498">
        <ele>299.60000610352</ele>
        <time>2022-03-18T09:05:43.000Z</time>
      </trkpt>
      <trkpt lat="49.63072" lon="5.64949">
        <ele>299.79998779297</ele>
        <time>2022-03-18T09:05:47.000Z</time>
      </trkpt>
      <trkpt lat="49.6306" lon="5.64914">
        <ele>299.60000610352</ele>
        <time>2022-03-18T09:05:51.000Z</time>
      </trkpt>
      <trkpt lat="49.63047" lon="5.64881">
        <ele>297.79998779297</ele>
        <time>2022-03-18T09:05:55.000Z</time>
      </trkpt>
      <trkpt lat="49.63034" lon="5.64847">
        <ele>296.79998779297</ele>
        <time>2022-03-18T09:05:59.000Z</time>
      </trkpt>
      <trkpt lat="49.6303" lon="5.64839">
        <ele>296.79998779297</ele>
        <time>2022-03-18T09:06:00.000Z</time>
      </trkpt>
      <trkpt lat="49.63006" lon="5.64796">
        <ele>299.20001220703</ele>
        <time>2022-03-18T09:06:06.000Z</time>
      </trkpt>
      <trkpt lat="49.62976" lon="5.6475">
        <ele>297.79998779297</ele>
        <time>2022-03-18T09:06:13.000Z</time>
      </trkpt>
      <trkpt lat="49.62973" lon="5.64742">
        <ele>298.39999389648</ele>
        <time>2022-03-18T09:06:14.000Z</time>
      </trkpt>
      <trkpt lat="49.62971" lon="5.64735">
        <ele>298.79998779297</ele>
        <time>2022-03-18T09:06:15.000Z</time>
      </trkpt>
      <trkpt lat="49.62968" lon="5.64708">
        <ele>299</ele>
        <time>2022-03-18T09:06:18.000Z</time>
      </trkpt>
      <trkpt lat="49.62971" lon="5.64681">
        <ele>298.60000610352</ele>
        <time>2022-03-18T09:06:21.000Z</time>
      </trkpt>
      <trkpt lat="49.62976" lon="5.64665">
        <ele>297.60000610352</ele>
        <time>2022-03-18T09:06:23.000Z</time>
      </trkpt>
      <trkpt lat="49.62996" lon="5.64615">
        <ele>295.39999389648</ele>
        <time>2022-03-18T09:06:29.000Z</time>
      </trkpt>
      <trkpt lat="49.62999" lon="5.64606">
        <ele>295.20001220703</ele>
        <time>2022-03-18T09:06:30.000Z</time>
      </trkpt>
      <trkpt lat="49.6301" lon="5.64579">
        <ele>295.79998779297</ele>
        <time>2022-03-18T09:06:33.000Z</time>
      </trkpt>
      <trkpt lat="49.63025" lon="5.64542">
        <ele>295.60000610352</ele>
        <time>2022-03-18T09:06:37.000Z</time>
      </trkpt>
      <trkpt lat="49.63039" lon="5.64504">
        <ele>294</ele>
        <time>2022-03-18T09:06:41.000Z</time>
      </trkpt>
      <trkpt lat="49.63049" lon="5.64474">
        <ele>291.79998779297</ele>
        <time>2022-03-18T09:06:44.000Z</time>
      </trkpt>
      <trkpt lat="49.6305" lon="5.64463">
        <ele>291.39999389648</ele>
        <time>2022-03-18T09:06:45.000Z</time>
      </trkpt>
      <trkpt lat="49.63052" lon="5.64434">
        <ele>289.79998779297</ele>
        <time>2022-03-18T09:06:48.000Z</time>
      </trkpt>
      <trkpt lat="49.63051" lon="5.64414">
        <ele>290.20001220703</ele>
        <time>2022-03-18T09:06:50.000Z</time>
      </trkpt>
      <trkpt lat="49.63048" lon="5.64385">
        <ele>291.60000610352</ele>
        <time>2022-03-18T09:06:53.000Z</time>
      </trkpt>
      <trkpt lat="49.63044" lon="5.6434">
        <ele>294.79998779297</ele>
        <time>2022-03-18T09:06:58.000Z</time>
      </trkpt>
      <trkpt lat="49.63041" lon="5.64314">
        <ele>296</ele>
        <time>2022-03-18T09:07:01.000Z</time>
      </trkpt>
      <trkpt lat="49.63032" lon="5.64253">
        <ele>294</ele>
        <time>2022-03-18T09:07:08.000Z</time>
      </trkpt>
      <trkpt lat="49.63017" lon="5.64204">
        <ele>290.20001220703</ele>
        <time>2022-03-18T09:07:14.000Z</time>
      </trkpt>
      <trkpt lat="49.62989" lon="5.64123">
        <ele>293.20001220703</ele>
        <time>2022-03-18T09:07:24.000Z</time>
      </trkpt>
      <trkpt lat="49.62973" lon="5.64074">
        <ele>292.60000610352</ele>
        <time>2022-03-18T09:07:30.000Z</time>
      </trkpt>
      <trkpt lat="49.6297" lon="5.64066">
        <ele>292.39999389648</ele>
        <time>2022-03-18T09:07:31.000Z</time>
      </trkpt>
      <trkpt lat="49.62947" lon="5.64003">
        <ele>290</ele>
        <time>2022-03-18T09:07:39.000Z</time>
      </trkpt>
      <trkpt lat="49.62918" lon="5.63956">
        <ele>285.60000610352</ele>
        <time>2022-03-18T09:07:46.000Z</time>
      </trkpt>
      <trkpt lat="49.62884" lon="5.63905">
        <ele>285.39999389648</ele>
        <time>2022-03-18T09:07:54.000Z</time>
      </trkpt>
      <trkpt lat="49.62868" lon="5.63885">
        <ele>284.20001220703</ele>
        <time>2022-03-18T09:07:58.000Z</time>
      </trkpt>
      <trkpt lat="49.62858" lon="5.63878">
        <ele>284.39999389648</ele>
        <time>2022-03-18T09:08:00.000Z</time>
      </trkpt>
      <trkpt lat="49.62837" lon="5.63869">
        <ele>285.79998779297</ele>
        <time>2022-03-18T09:08:04.000Z</time>
      </trkpt>
      <trkpt lat="49.62821" lon="5.63863">
        <ele>286.60000610352</ele>
        <time>2022-03-18T09:08:07.000Z</time>
      </trkpt>
      <trkpt lat="49.62806" lon="5.63859">
        <ele>287.79998779297</ele>
        <time>2022-03-18T09:08:10.000Z</time>
      </trkpt>
      <trkpt lat="49.62791" lon="5.63858">
        <ele>288.39999389648</ele>
        <time>2022-03-18T09:08:13.000Z</time>
      </trkpt>
      <trkpt lat="49.6278" lon="5.63859">
        <ele>289</ele>
        <time>2022-03-18T09:08:15.000Z</time>
      </trkpt>
      <trkpt lat="49.62775" lon="5.63859">
        <ele>289.79998779297</ele>
        <time>2022-03-18T09:08:16.000Z</time>
      </trkpt>
      <trkpt lat="49.62765" lon="5.63861">
        <ele>291.20001220703</ele>
        <time>2022-03-18T09:08:18.000Z</time>
      </trkpt>
      <trkpt lat="49.6275" lon="5.63865">
        <ele>293.39999389648</ele>
        <time>2022-03-18T09:08:21.000Z</time>
      </trkpt>
      <trkpt lat="49.62736" lon="5.63868">
        <ele>295.39999389648</ele>
        <time>2022-03-18T09:08:24.000Z</time>
      </trkpt>
      <trkpt lat="49.62716" lon="5.63875">
        <ele>297.39999389648</ele>
        <time>2022-03-18T09:08:28.000Z</time>
      </trkpt>
      <trkpt lat="49.62701" lon="5.63879">
        <ele>298</ele>
        <time>2022-03-18T09:08:31.000Z</time>
      </trkpt>
      <trkpt lat="49.62697" lon="5.63881">
        <ele>298.20001220703</ele>
        <time>2022-03-18T09:08:32.000Z</time>
      </trkpt>
      <trkpt lat="49.62682" lon="5.63885">
        <ele>298.39999389648</ele>
        <time>2022-03-18T09:08:35.000Z</time>
      </trkpt>
      <trkpt lat="49.62668" lon="5.63888">
        <ele>298.39999389648</ele>
        <time>2022-03-18T09:08:38.000Z</time>
      </trkpt>
      <trkpt lat="49.62663" lon="5.63889">
        <ele>298.79998779297</ele>
        <time>2022-03-18T09:08:39.000Z</time>
      </trkpt>
      <trkpt lat="49.62654" lon="5.63892">
        <ele>300</ele>
        <time>2022-03-18T09:08:41.000Z</time>
      </trkpt>
      <trkpt lat="49.62636" lon="5.63896">
        <ele>302.20001220703</ele>
        <time>2022-03-18T09:08:45.000Z</time>
      </trkpt>
      <trkpt lat="49.62622" lon="5.63898">
        <ele>303.60000610352</ele>
        <time>2022-03-18T09:08:48.000Z</time>
      </trkpt>
      <trkpt lat="49.62613" lon="5.63899">
        <ele>304.39999389648</ele>
        <time>2022-03-18T09:08:50.000Z</time>
      </trkpt>
      <trkpt lat="49.62608" lon="5.63899">
        <ele>304.60000610352</ele>
        <time>2022-03-18T09:08:51.000Z</time>
      </trkpt>
      <trkpt lat="49.62594" lon="5.63898">
        <ele>305</ele>
        <time>2022-03-18T09:08:54.000Z</time>
      </trkpt>
      <trkpt lat="49.6258" lon="5.63897">
        <ele>305.20001220703</ele>
        <time>2022-03-18T09:08:57.000Z</time>
      </trkpt>
      <trkpt lat="49.62576" lon="5.63897">
        <ele>305.39999389648</ele>
        <time>2022-03-18T09:08:58.000Z</time>
      </trkpt>
      <trkpt lat="49.62566" lon="5.63896">
        <ele>306.20001220703</ele>
        <time>2022-03-18T09:09:00.000Z</time>
      </trkpt>
      <trkpt lat="49.62561" lon="5.63896">
        <ele>306.39999389648</ele>
        <time>2022-03-18T09:09:01.000Z</time>
      </trkpt>
      <trkpt lat="49.62548" lon="5.63893">
        <ele>307.79998779297</ele>
        <time>2022-03-18T09:09:04.000Z</time>
      </trkpt>
      <trkpt lat="49.62539" lon="5.63891">
        <ele>308.79998779297</ele>
        <time>2022-03-18T09:09:06.000Z</time>
      </trkpt>
      <trkpt lat="49.6253" lon="5.63887">
        <ele>309.79998779297</ele>
        <time>2022-03-18T09:09:08.000Z</time>
      </trkpt>
      <trkpt lat="49.62522" lon="5.63883">
        <ele>311.39999389648</ele>
        <time>2022-03-18T09:09:10.000Z</time>
      </trkpt>
      <trkpt lat="49.62513" lon="5.63879">
        <ele>313.20001220703</ele>
        <time>2022-03-18T09:09:12.000Z</time>
      </trkpt>
      <trkpt lat="49.62504" lon="5.63874">
        <ele>315</ele>
        <time>2022-03-18T09:09:14.000Z</time>
      </trkpt>
      <trkpt lat="49.6249" lon="5.63868">
        <ele>316.60000610352</ele>
        <time>2022-03-18T09:09:17.000Z</time>
      </trkpt>
      <trkpt lat="49.62482" lon="5.63863">
        <ele>317.60000610352</ele>
        <time>2022-03-18T09:09:19.000Z</time>
      </trkpt>
      <trkpt lat="49.62477" lon="5.6386">
        <ele>318</ele>
        <time>2022-03-18T09:09:20.000Z</time>
      </trkpt>
      <trkpt lat="49.62469" lon="5.63855">
        <ele>318.79998779297</ele>
        <time>2022-03-18T09:09:22.000Z</time>
      </trkpt>
      <trkpt lat="49.62455" lon="5.63848">
        <ele>320.20001220703</ele>
        <time>2022-03-18T09:09:25.000Z</time>
      </trkpt>
      <trkpt lat="49.62439" lon="5.63836">
        <ele>320.79998779297</ele>
        <time>2022-03-18T09:09:29.000Z</time>
      </trkpt>
      <trkpt lat="49.62435" lon="5.63832">
        <ele>320.79998779297</ele>
        <time>2022-03-18T09:09:30.000Z</time>
      </trkpt>
      <trkpt lat="49.62427" lon="5.63824">
        <ele>320.79998779297</ele>
        <time>2022-03-18T09:09:32.000Z</time>
      </trkpt>
      <trkpt lat="49.62413" lon="5.63805">
        <ele>320.39999389648</ele>
        <time>2022-03-18T09:09:36.000Z</time>
      </trkpt>
      <trkpt lat="49.62402" lon="5.63783">
        <ele>320.79998779297</ele>
        <time>2022-03-18T09:09:40.000Z</time>
      </trkpt>
      <trkpt lat="49.62396" lon="5.63775">
        <ele>321.60000610352</ele>
        <time>2022-03-18T09:09:42.000Z</time>
      </trkpt>
      <trkpt lat="49.62392" lon="5.6377">
        <ele>322</ele>
        <time>2022-03-18T09:09:43.000Z</time>
      </trkpt>
      <trkpt lat="49.62385" lon="5.63762">
        <ele>323</ele>
        <time>2022-03-18T09:09:45.000Z</time>
      </trkpt>
      <trkpt lat="49.62377" lon="5.6375">
        <ele>324.20001220703</ele>
        <time>2022-03-18T09:09:48.000Z</time>
      </trkpt>
      <trkpt lat="49.62368" lon="5.63739">
        <ele>325</ele>
        <time>2022-03-18T09:09:51.000Z</time>
      </trkpt>
      <trkpt lat="49.62361" lon="5.63734">
        <ele>326</ele>
        <time>2022-03-18T09:09:53.000Z</time>
      </trkpt>
      <trkpt lat="49.62355" lon="5.63728">
        <ele>326.79998779297</ele>
        <time>2022-03-18T09:09:55.000Z</time>
      </trkpt>
      <trkpt lat="49.62351" lon="5.63726">
        <ele>327.39999389648</ele>
        <time>2022-03-18T09:09:56.000Z</time>
      </trkpt>
      <trkpt lat="49.62341" lon="5.63721">
        <ele>328.79998779297</ele>
        <time>2022-03-18T09:09:59.000Z</time>
      </trkpt>
      <trkpt lat="49.62335" lon="5.63719">
        <ele>329.79998779297</ele>
        <time>2022-03-18T09:10:01.000Z</time>
      </trkpt>
      <trkpt lat="49.62331" lon="5.63719">
        <ele>330.20001220703</ele>
        <time>2022-03-18T09:10:02.000Z</time>
      </trkpt>
      <trkpt lat="49.6232" lon="5.6372">
        <ele>331</ele>
        <time>2022-03-18T09:10:05.000Z</time>
      </trkpt>
      <trkpt lat="49.62314" lon="5.63724">
        <ele>331.60000610352</ele>
        <time>2022-03-18T09:10:07.000Z</time>
      </trkpt>
      <trkpt lat="49.62311" lon="5.63726">
        <ele>331.79998779297</ele>
        <time>2022-03-18T09:10:08.000Z</time>
      </trkpt>
      <trkpt lat="49.62299" lon="5.63735">
        <ele>332.60000610352</ele>
        <time>2022-03-18T09:10:12.000Z</time>
      </trkpt>
      <trkpt lat="49.62294" lon="5.63742">
        <ele>333</ele>
        <time>2022-03-18T09:10:14.000Z</time>
      </trkpt>
      <trkpt lat="49.62289" lon="5.6375">
        <ele>333.20001220703</ele>
        <time>2022-03-18T09:10:16.000Z</time>
      </trkpt>
      <trkpt lat="49.62283" lon="5.63766">
        <ele>333.20001220703</ele>
        <time>2022-03-18T09:10:19.000Z</time>
      </trkpt>
      <trkpt lat="49.62281" lon="5.63771">
        <ele>333</ele>
        <time>2022-03-18T09:10:20.000Z</time>
      </trkpt>
      <trkpt lat="49.62267" lon="5.63778">
        <ele>332.39999389648</ele>
        <time>2022-03-18T09:10:24.000Z</time>
      </trkpt>
      <trkpt lat="49.62252" lon="5.63766">
        <ele>332</ele>
        <time>2022-03-18T09:10:28.000Z</time>
      </trkpt>
      <trkpt lat="49.62247" lon="5.63755">
        <ele>332.20001220703</ele>
        <time>2022-03-18T09:10:30.000Z</time>
      </trkpt>
      <trkpt lat="49.62239" lon="5.63731">
        <ele>332.60000610352</ele>
        <time>2022-03-18T09:10:34.000Z</time>
      </trkpt>
      <trkpt lat="49.62228" lon="5.63702">
        <ele>333.79998779297</ele>
        <time>2022-03-18T09:11:02.000Z</time>
      </trkpt>
      <trkpt lat="49.62226" lon="5.63696">
        <ele>334</ele>
        <time>2022-03-18T09:11:04.000Z</time>
      </trkpt>
      <trkpt lat="49.62216" lon="5.63674">
        <ele>334</ele>
        <time>2022-03-18T09:11:09.000Z</time>
      </trkpt>
      <trkpt lat="49.62207" lon="5.63645">
        <ele>334</ele>
        <time>2022-03-18T09:11:14.000Z</time>
      </trkpt>
      <trkpt lat="49.62191" lon="5.63602">
        <ele>335</ele>
        <time>2022-03-18T09:11:21.000Z</time>
      </trkpt>
      <trkpt lat="49.62171" lon="5.63554">
        <ele>336</ele>
        <time>2022-03-18T09:11:29.000Z</time>
      </trkpt>
      <trkpt lat="49.62154" lon="5.63509">
        <ele>335.20001220703</ele>
        <time>2022-03-18T09:11:36.000Z</time>
      </trkpt>
      <trkpt lat="49.62141" lon="5.63481">
        <ele>335.79998779297</ele>
        <time>2022-03-18T09:11:41.000Z</time>
      </trkpt>
      <trkpt lat="49.62139" lon="5.63475">
        <ele>336</ele>
        <time>2022-03-18T09:11:42.000Z</time>
      </trkpt>
      <trkpt lat="49.62134" lon="5.63463">
        <ele>336.39999389648</ele>
        <time>2022-03-18T09:11:44.000Z</time>
      </trkpt>
      <trkpt lat="49.62132" lon="5.63457">
        <ele>336.60000610352</ele>
        <time>2022-03-18T09:11:45.000Z</time>
      </trkpt>
      <trkpt lat="49.62124" lon="5.63437">
        <ele>337.79998779297</ele>
        <time>2022-03-18T09:11:48.000Z</time>
      </trkpt>
      <trkpt lat="49.62115" lon="5.63412">
        <ele>339.60000610352</ele>
        <time>2022-03-18T09:11:52.000Z</time>
      </trkpt>
      <trkpt lat="49.62108" lon="5.63401">
        <ele>340.20001220703</ele>
        <time>2022-03-18T09:11:54.000Z</time>
      </trkpt>
      <trkpt lat="49.62105" lon="5.63395">
        <ele>340.39999389648</ele>
        <time>2022-03-18T09:11:55.000Z</time>
      </trkpt>
      <trkpt lat="49.62076" lon="5.63363">
        <ele>341.39999389648</ele>
        <time>2022-03-18T09:12:02.000Z</time>
      </trkpt>
      <trkpt lat="49.62042" lon="5.6334">
        <ele>341.20001220703</ele>
        <time>2022-03-18T09:12:09.000Z</time>
      </trkpt>
      <trkpt lat="49.62013" lon="5.63334">
        <ele>341.20001220703</ele>
        <time>2022-03-18T09:12:15.000Z</time>
      </trkpt>
      <trkpt lat="49.61996" lon="5.63346">
        <ele>341.20001220703</ele>
        <time>2022-03-18T09:12:19.000Z</time>
      </trkpt>
      <trkpt lat="49.61988" lon="5.63363">
        <ele>340.60000610352</ele>
        <time>2022-03-18T09:12:22.000Z</time>
      </trkpt>
      <trkpt lat="49.61985" lon="5.63371">
        <ele>340</ele>
        <time>2022-03-18T09:12:23.000Z</time>
      </trkpt>
      <trkpt lat="49.61983" lon="5.63378">
        <ele>339.60000610352</ele>
        <time>2022-03-18T09:12:24.000Z</time>
      </trkpt>
      <trkpt lat="49.61978" lon="5.6339">
        <ele>339</ele>
        <time>2022-03-18T09:12:26.000Z</time>
      </trkpt>
      <trkpt lat="49.6197" lon="5.63415">
        <ele>336.60000610352</ele>
        <time>2022-03-18T09:12:30.000Z</time>
      </trkpt>
      <trkpt lat="49.61955" lon="5.63469">
        <ele>336</ele>
        <time>2022-03-18T09:12:37.000Z</time>
      </trkpt>
      <trkpt lat="49.61944" lon="5.63506">
        <ele>337.20001220703</ele>
        <time>2022-03-18T09:12:41.000Z</time>
      </trkpt>
      <trkpt lat="49.61938" lon="5.63524">
        <ele>337</ele>
        <time>2022-03-18T09:12:43.000Z</time>
      </trkpt>
      <trkpt lat="49.61928" lon="5.6355">
        <ele>336.79998779297</ele>
        <time>2022-03-18T09:12:46.000Z</time>
      </trkpt>
      <trkpt lat="49.61915" lon="5.63577">
        <ele>335.39999389648</ele>
        <time>2022-03-18T09:12:49.000Z</time>
      </trkpt>
      <trkpt lat="49.61906" lon="5.63596">
        <ele>333.39999389648</ele>
        <time>2022-03-18T09:12:51.000Z</time>
      </trkpt>
      <trkpt lat="49.61895" lon="5.63616">
        <ele>332</ele>
        <time>2022-03-18T09:12:53.000Z</time>
      </trkpt>
      <trkpt lat="49.61889" lon="5.63626">
        <ele>331.20001220703</ele>
        <time>2022-03-18T09:12:54.000Z</time>
      </trkpt>
      <trkpt lat="49.6187" lon="5.63657">
        <ele>328.60000610352</ele>
        <time>2022-03-18T09:12:57.000Z</time>
      </trkpt>
      <trkpt lat="49.61856" lon="5.6368">
        <ele>327.39999389648</ele>
        <time>2022-03-18T09:12:59.000Z</time>
      </trkpt>
      <trkpt lat="49.61849" lon="5.63691">
        <ele>326.20001220703</ele>
        <time>2022-03-18T09:13:00.000Z</time>
      </trkpt>
      <trkpt lat="49.61841" lon="5.63702">
        <ele>324.60000610352</ele>
        <time>2022-03-18T09:13:01.000Z</time>
      </trkpt>
      <trkpt lat="49.61827" lon="5.63725">
        <ele>322.39999389648</ele>
        <time>2022-03-18T09:13:03.000Z</time>
      </trkpt>
      <trkpt lat="49.61813" lon="5.63748">
        <ele>320.60000610352</ele>
        <time>2022-03-18T09:13:05.000Z</time>
      </trkpt>
      <trkpt lat="49.61806" lon="5.6376">
        <ele>319.60000610352</ele>
        <time>2022-03-18T09:13:06.000Z</time>
      </trkpt>
      <trkpt lat="49.61792" lon="5.63785">
        <ele>317.60000610352</ele>
        <time>2022-03-18T09:13:08.000Z</time>
      </trkpt>
      <trkpt lat="49.61779" lon="5.63808">
        <ele>315</ele>
        <time>2022-03-18T09:13:10.000Z</time>
      </trkpt>
      <trkpt lat="49.61765" lon="5.63831">
        <ele>313.60000610352</ele>
        <time>2022-03-18T09:13:12.000Z</time>
      </trkpt>
      <trkpt lat="49.61759" lon="5.63843">
        <ele>313</ele>
        <time>2022-03-18T09:13:13.000Z</time>
      </trkpt>
      <trkpt lat="49.61747" lon="5.63867">
        <ele>311.39999389648</ele>
        <time>2022-03-18T09:13:15.000Z</time>
      </trkpt>
      <trkpt lat="49.61742" lon="5.63878">
        <ele>311.39999389648</ele>
        <time>2022-03-18T09:13:16.000Z</time>
      </trkpt>
      <trkpt lat="49.61736" lon="5.639">
        <ele>311.60000610352</ele>
        <time>2022-03-18T09:13:18.000Z</time>
      </trkpt>
      <trkpt lat="49.61725" lon="5.6394">
        <ele>310.39999389648</ele>
        <time>2022-03-18T09:13:23.000Z</time>
      </trkpt>
      <trkpt lat="49.61723" lon="5.63948">
        <ele>310.39999389648</ele>
        <time>2022-03-18T09:13:24.000Z</time>
      </trkpt>
      <trkpt lat="49.61717" lon="5.63969">
        <ele>309.79998779297</ele>
        <time>2022-03-18T09:13:27.000Z</time>
      </trkpt>
      <trkpt lat="49.61713" lon="5.63984">
        <ele>309.79998779297</ele>
        <time>2022-03-18T09:13:29.000Z</time>
      </trkpt>
      <trkpt lat="49.61709" lon="5.63998">
        <ele>309.39999389648</ele>
        <time>2022-03-18T09:13:31.000Z</time>
      </trkpt>
      <trkpt lat="49.61702" lon="5.64028">
        <ele>309.39999389648</ele>
        <time>2022-03-18T09:13:35.000Z</time>
      </trkpt>
      <trkpt lat="49.61696" lon="5.6406">
        <ele>309.39999389648</ele>
        <time>2022-03-18T09:13:39.000Z</time>
      </trkpt>
      <trkpt lat="49.61681" lon="5.64109">
        <ele>313</ele>
        <time>2022-03-18T09:13:45.000Z</time>
      </trkpt>
      <trkpt lat="49.61668" lon="5.64144">
        <ele>315</ele>
        <time>2022-03-18T09:13:49.000Z</time>
      </trkpt>
      <trkpt lat="49.61664" lon="5.64154">
        <ele>315.39999389648</ele>
        <time>2022-03-18T09:13:50.000Z</time>
      </trkpt>
      <trkpt lat="49.61653" lon="5.64172">
        <ele>315.39999389648</ele>
        <time>2022-03-18T09:13:52.000Z</time>
      </trkpt>
      <trkpt lat="49.61647" lon="5.6418">
        <ele>315.39999389648</ele>
        <time>2022-03-18T09:13:53.000Z</time>
      </trkpt>
      <trkpt lat="49.61641" lon="5.64187">
        <ele>315</ele>
        <time>2022-03-18T09:13:54.000Z</time>
      </trkpt>
      <trkpt lat="49.61627" lon="5.64199">
        <ele>313.79998779297</ele>
        <time>2022-03-18T09:13:56.000Z</time>
      </trkpt>
      <trkpt lat="49.61619" lon="5.64203">
        <ele>313.39999389648</ele>
        <time>2022-03-18T09:13:57.000Z</time>
      </trkpt>
      <trkpt lat="49.61612" lon="5.64207">
        <ele>312.60000610352</ele>
        <time>2022-03-18T09:13:58.000Z</time>
      </trkpt>
      <trkpt lat="49.61598" lon="5.64215">
        <ele>312.60000610352</ele>
        <time>2022-03-18T09:14:00.000Z</time>
      </trkpt>
      <trkpt lat="49.6158" lon="5.64229">
        <ele>313.39999389648</ele>
        <time>2022-03-18T09:14:03.000Z</time>
      </trkpt>
      <trkpt lat="49.6157" lon="5.64238">
        <ele>313.79998779297</ele>
        <time>2022-03-18T09:14:05.000Z</time>
      </trkpt>
      <trkpt lat="49.61558" lon="5.6425">
        <ele>314.20001220703</ele>
        <time>2022-03-18T09:14:08.000Z</time>
      </trkpt>
      <trkpt lat="49.61555" lon="5.64254">
        <ele>314</ele>
        <time>2022-03-18T09:14:09.000Z</time>
      </trkpt>
      <trkpt lat="49.61549" lon="5.64262">
        <ele>312.79998779297</ele>
        <time>2022-03-18T09:14:11.000Z</time>
      </trkpt>
      <trkpt lat="49.61541" lon="5.64274">
        <ele>311.39999389648</ele>
        <time>2022-03-18T09:14:14.000Z</time>
      </trkpt>
      <trkpt lat="49.61529" lon="5.64291">
        <ele>309.79998779297</ele>
        <time>2022-03-18T09:14:18.000Z</time>
      </trkpt>
      <trkpt lat="49.61524" lon="5.64298">
        <ele>309.39999389648</ele>
        <time>2022-03-18T09:14:20.000Z</time>
      </trkpt>
      <trkpt lat="49.6151" lon="5.64315">
        <ele>309.20001220703</ele>
        <time>2022-03-18T09:14:24.000Z</time>
      </trkpt>
      <trkpt lat="49.61502" lon="5.64324">
        <ele>309.60000610352</ele>
        <time>2022-03-18T09:14:26.000Z</time>
      </trkpt>
      <trkpt lat="49.61491" lon="5.64336">
        <ele>310.79998779297</ele>
        <time>2022-03-18T09:14:29.000Z</time>
      </trkpt>
      <trkpt lat="49.61472" lon="5.64351">
        <ele>312.79998779297</ele>
        <time>2022-03-18T09:14:33.000Z</time>
      </trkpt>
      <trkpt lat="49.61433" lon="5.64382">
        <ele>312</ele>
        <time>2022-03-18T09:14:40.000Z</time>
      </trkpt>
      <trkpt lat="49.61419" lon="5.64393">
        <ele>311</ele>
        <time>2022-03-18T09:14:42.000Z</time>
      </trkpt>
      <trkpt lat="49.61405" lon="5.64405">
        <ele>309.20001220703</ele>
        <time>2022-03-18T09:14:44.000Z</time>
      </trkpt>
      <trkpt lat="49.61392" lon="5.64417">
        <ele>307.39999389648</ele>
        <time>2022-03-18T09:14:46.000Z</time>
      </trkpt>
      <trkpt lat="49.61386" lon="5.64424">
        <ele>306.20001220703</ele>
        <time>2022-03-18T09:14:47.000Z</time>
      </trkpt>
      <trkpt lat="49.6138" lon="5.64433">
        <ele>304.79998779297</ele>
        <time>2022-03-18T09:14:48.000Z</time>
      </trkpt>
      <trkpt lat="49.61369" lon="5.6445">
        <ele>303.79998779297</ele>
        <time>2022-03-18T09:14:50.000Z</time>
      </trkpt>
      <trkpt lat="49.6136" lon="5.64464">
        <ele>302</ele>
        <time>2022-03-18T09:14:52.000Z</time>
      </trkpt>
      <trkpt lat="49.61352" lon="5.64476">
        <ele>301.39999389648</ele>
        <time>2022-03-18T09:14:54.000Z</time>
      </trkpt>
      <trkpt lat="49.61348" lon="5.6448">
        <ele>301</ele>
        <time>2022-03-18T09:14:55.000Z</time>
      </trkpt>
      <trkpt lat="49.61344" lon="5.64482">
        <ele>301</ele>
        <time>2022-03-18T09:14:56.000Z</time>
      </trkpt>
      <trkpt lat="49.61332" lon="5.64475">
        <ele>301.79998779297</ele>
        <time>2022-03-18T09:14:59.000Z</time>
      </trkpt>
      <trkpt lat="49.61329" lon="5.64471">
        <ele>301.79998779297</ele>
        <time>2022-03-18T09:15:00.000Z</time>
      </trkpt>
      <trkpt lat="49.61325" lon="5.64467">
        <ele>301.79998779297</ele>
        <time>2022-03-18T09:15:01.000Z</time>
      </trkpt>
      <trkpt lat="49.61311" lon="5.64445">
        <ele>301.79998779297</ele>
        <time>2022-03-18T09:15:05.000Z</time>
      </trkpt>
      <trkpt lat="49.61285" lon="5.64391">
        <ele>301</ele>
        <time>2022-03-18T09:15:13.000Z</time>
      </trkpt>
      <trkpt lat="49.61261" lon="5.64339">
        <ele>300.79998779297</ele>
        <time>2022-03-18T09:15:20.000Z</time>
      </trkpt>
      <trkpt lat="49.61248" lon="5.64311">
        <ele>301</ele>
        <time>2022-03-18T09:15:24.000Z</time>
      </trkpt>
      <trkpt lat="49.6124" lon="5.64301">
        <ele>300.60000610352</ele>
        <time>2022-03-18T09:15:26.000Z</time>
      </trkpt>
      <trkpt lat="49.61211" lon="5.64267">
        <ele>299.60000610352</ele>
        <time>2022-03-18T09:15:32.000Z</time>
      </trkpt>
      <trkpt lat="49.61183" lon="5.64235">
        <ele>298</ele>
        <time>2022-03-18T09:15:38.000Z</time>
      </trkpt>
      <trkpt lat="49.61179" lon="5.64231">
        <ele>297.60000610352</ele>
        <time>2022-03-18T09:15:39.000Z</time>
      </trkpt>
      <trkpt lat="49.61157" lon="5.64218">
        <ele>295.39999389648</ele>
        <time>2022-03-18T09:15:43.000Z</time>
      </trkpt>
      <trkpt lat="49.61148" lon="5.64209">
        <ele>294.39999389648</ele>
        <time>2022-03-18T09:15:45.000Z</time>
      </trkpt>
      <trkpt lat="49.61135" lon="5.64194">
        <ele>293.79998779297</ele>
        <time>2022-03-18T09:15:48.000Z</time>
      </trkpt>
      <trkpt lat="49.61131" lon="5.6419">
        <ele>293.79998779297</ele>
        <time>2022-03-18T09:15:49.000Z</time>
      </trkpt>
      <trkpt lat="49.61109" lon="5.64167">
        <ele>294</ele>
        <time>2022-03-18T09:15:55.000Z</time>
      </trkpt>
      <trkpt lat="49.61099" lon="5.64155">
        <ele>294</ele>
        <time>2022-03-18T09:15:58.000Z</time>
      </trkpt>
      <trkpt lat="49.61092" lon="5.64148">
        <ele>294</ele>
        <time>2022-03-18T09:16:00.000Z</time>
      </trkpt>
      <trkpt lat="49.61078" lon="5.64118">
        <ele>294.20001220703</ele>
        <time>2022-03-18T09:16:06.000Z</time>
      </trkpt>
      <trkpt lat="49.61071" lon="5.64084">
        <ele>294.20001220703</ele>
        <time>2022-03-18T09:16:12.000Z</time>
      </trkpt>
      <trkpt lat="49.61061" lon="5.64042">
        <ele>293.39999389648</ele>
        <time>2022-03-18T09:16:19.000Z</time>
      </trkpt>
      <trkpt lat="49.61052" lon="5.64011">
        <ele>291.79998779297</ele>
        <time>2022-03-18T09:16:24.000Z</time>
      </trkpt>
      <trkpt lat="49.61041" lon="5.63974">
        <ele>290.60000610352</ele>
        <time>2022-03-18T09:16:30.000Z</time>
      </trkpt>
      <trkpt lat="49.6104" lon="5.63969">
        <ele>290.60000610352</ele>
        <time>2022-03-18T09:16:31.000Z</time>
      </trkpt>
      <trkpt lat="49.61035" lon="5.63958">
        <ele>290.20001220703</ele>
        <time>2022-03-18T09:16:35.000Z</time>
      </trkpt>
      <trkpt lat="49.61033" lon="5.63956">
        <ele>290</ele>
        <time>2022-03-18T09:16:36.000Z</time>
      </trkpt>
      <trkpt lat="49.61031" lon="5.63954">
        <ele>289.79998779297</ele>
        <time>2022-03-18T09:16:37.000Z</time>
      </trkpt>
      <trkpt lat="49.61024" lon="5.63946">
        <ele>290</ele>
        <time>2022-03-18T09:16:39.000Z</time>
      </trkpt>
      <trkpt lat="49.6102" lon="5.63943">
        <ele>290.39999389648</ele>
        <time>2022-03-18T09:16:40.000Z</time>
      </trkpt>
      <trkpt lat="49.61017" lon="5.63941">
        <ele>290.60000610352</ele>
        <time>2022-03-18T09:16:41.000Z</time>
      </trkpt>
      <trkpt lat="49.61013" lon="5.63937">
        <ele>291</ele>
        <time>2022-03-18T09:16:42.000Z</time>
      </trkpt>
      <trkpt lat="49.61005" lon="5.63933">
        <ele>291.39999389648</ele>
        <time>2022-03-18T09:16:44.000Z</time>
      </trkpt>
      <trkpt lat="49.60988" lon="5.63931">
        <ele>290.39999389648</ele>
        <time>2022-03-18T09:16:48.000Z</time>
      </trkpt>
      <trkpt lat="49.60984" lon="5.63931">
        <ele>290.20001220703</ele>
        <time>2022-03-18T09:16:49.000Z</time>
      </trkpt>
      <trkpt lat="49.60956" lon="5.63927">
        <ele>288</ele>
        <time>2022-03-18T09:16:53.000Z</time>
      </trkpt>
      <trkpt lat="49.60946" lon="5.63925">
        <ele>287.20001220703</ele>
        <time>2022-03-18T09:16:55.000Z</time>
      </trkpt>
      <trkpt lat="49.60941" lon="5.6392">
        <ele>286.60000610352</ele>
        <time>2022-03-18T09:16:56.000Z</time>
      </trkpt>
      <trkpt lat="49.60938" lon="5.63915">
        <ele>286</ele>
        <time>2022-03-18T09:16:57.000Z</time>
      </trkpt>
      <trkpt lat="49.60936" lon="5.639">
        <ele>286.79998779297</ele>
        <time>2022-03-18T09:16:59.000Z</time>
      </trkpt>
      <trkpt lat="49.60936" lon="5.63892">
        <ele>287.20001220703</ele>
        <time>2022-03-18T09:17:00.000Z</time>
      </trkpt>
      <trkpt lat="49.60937" lon="5.63871">
        <ele>287.79998779297</ele>
        <time>2022-03-18T09:17:03.000Z</time>
      </trkpt>
      <trkpt lat="49.60939" lon="5.6385">
        <ele>288.20001220703</ele>
        <time>2022-03-18T09:17:06.000Z</time>
      </trkpt>
      <trkpt lat="49.60945" lon="5.638">
        <ele>288.60000610352</ele>
        <time>2022-03-18T09:17:13.000Z</time>
      </trkpt>
      <trkpt lat="49.60951" lon="5.63764">
        <ele>289</ele>
        <time>2022-03-18T09:17:20.000Z</time>
      </trkpt>
      <trkpt lat="49.60953" lon="5.63733">
        <ele>289.20001220703</ele>
        <time>2022-03-18T09:17:43.000Z</time>
      </trkpt>
      <trkpt lat="49.60953" lon="5.63721">
        <ele>289</ele>
        <time>2022-03-18T09:17:46.000Z</time>
      </trkpt>
      <trkpt lat="49.60957" lon="5.63688">
        <ele>289.39999389648</ele>
        <time>2022-03-18T09:17:54.000Z</time>
      </trkpt>
      <trkpt lat="49.60958" lon="5.63665">
        <ele>289.20001220703</ele>
        <time>2022-03-18T09:18:00.000Z</time>
      </trkpt>
      <trkpt lat="49.60959" lon="5.63643">
        <ele>288.79998779297</ele>
        <time>2022-03-18T09:18:06.000Z</time>
      </trkpt>
      <trkpt lat="49.60958" lon="5.63639">
        <ele>289</ele>
        <time>2022-03-18T09:18:07.000Z</time>
      </trkpt>
      <trkpt lat="49.60962" lon="5.63615">
        <ele>289.60000610352</ele>
        <time>2022-03-18T09:18:13.000Z</time>
      </trkpt>
      <trkpt lat="49.60972" lon="5.63602">
        <ele>290.39999389648</ele>
        <time>2022-03-18T09:18:18.000Z</time>
      </trkpt>
      <trkpt lat="49.60973" lon="5.63599">
        <ele>290.60000610352</ele>
        <time>2022-03-18T09:18:19.000Z</time>
      </trkpt>
      <trkpt lat="49.60978" lon="5.63591">
        <ele>291</ele>
        <time>2022-03-18T09:18:23.000Z</time>
      </trkpt>
      <trkpt lat="49.60984" lon="5.63582">
        <ele>292</ele>
        <time>2022-03-18T09:19:03.000Z</time>
      </trkpt>
      <trkpt lat="49.60996" lon="5.63562">
        <ele>293.20001220703</ele>
        <time>2022-03-18T09:19:09.000Z</time>
      </trkpt>
      <trkpt lat="49.6101" lon="5.63543">
        <ele>294.60000610352</ele>
        <time>2022-03-18T09:19:15.000Z</time>
      </trkpt>
      <trkpt lat="49.61012" lon="5.63541">
        <ele>295</ele>
        <time>2022-03-18T09:19:16.000Z</time>
      </trkpt>
      <trkpt lat="49.61025" lon="5.63525">
        <ele>296.20001220703</ele>
        <time>2022-03-18T09:19:21.000Z</time>
      </trkpt>
      <trkpt lat="49.61033" lon="5.63516">
        <ele>296.20001220703</ele>
        <time>2022-03-18T09:19:24.000Z</time>
      </trkpt>
      <trkpt lat="49.61045" lon="5.63503">
        <ele>296.60000610352</ele>
        <time>2022-03-18T09:19:27.000Z</time>
      </trkpt>
      <trkpt lat="49.61049" lon="5.63499">
        <ele>296.79998779297</ele>
        <time>2022-03-18T09:19:28.000Z</time>
      </trkpt>
      <trkpt lat="49.61065" lon="5.63484">
        <ele>297.39999389648</ele>
        <time>2022-03-18T09:19:33.000Z</time>
      </trkpt>
      <trkpt lat="49.61068" lon="5.63482">
        <ele>297.39999389648</ele>
        <time>2022-03-18T09:19:34.000Z</time>
      </trkpt>
      <trkpt lat="49.61083" lon="5.63468">
        <ele>297</ele>
        <time>2022-03-18T09:19:38.000Z</time>
      </trkpt>
      <trkpt lat="49.61087" lon="5.63464">
        <ele>297</ele>
        <time>2022-03-18T09:19:39.000Z</time>
      </trkpt>
      <trkpt lat="49.61094" lon="5.63458">
        <ele>297.79998779297</ele>
        <time>2022-03-18T09:19:41.000Z</time>
      </trkpt>
      <trkpt lat="49.611" lon="5.63454">
        <ele>298.20001220703</ele>
        <time>2022-03-18T09:19:43.000Z</time>
      </trkpt>
      <trkpt lat="49.61103" lon="5.63452">
        <ele>298.39999389648</ele>
        <time>2022-03-18T09:19:44.000Z</time>
      </trkpt>
      <trkpt lat="49.6111" lon="5.6345">
        <ele>298.79998779297</ele>
        <time>2022-03-18T09:19:46.000Z</time>
      </trkpt>
      <trkpt lat="49.61128" lon="5.63447">
        <ele>300.60000610352</ele>
        <time>2022-03-18T09:19:50.000Z</time>
      </trkpt>
      <trkpt lat="49.61132" lon="5.63447">
        <ele>301</ele>
        <time>2022-03-18T09:19:51.000Z</time>
      </trkpt>
      <trkpt lat="49.61142" lon="5.63452">
        <ele>302</ele>
        <time>2022-03-18T09:19:54.000Z</time>
      </trkpt>
      <trkpt lat="49.61147" lon="5.63454">
        <ele>302.39999389648</ele>
        <time>2022-03-18T09:19:55.000Z</time>
      </trkpt>
      <trkpt lat="49.61157" lon="5.6346">
        <ele>303</ele>
        <time>2022-03-18T09:19:58.000Z</time>
      </trkpt>
      <trkpt lat="49.61163" lon="5.63466">
        <ele>303.60000610352</ele>
        <time>2022-03-18T09:20:00.000Z</time>
      </trkpt>
      <trkpt lat="49.61177" lon="5.63474">
        <ele>305</ele>
        <time>2022-03-18T09:20:04.000Z</time>
      </trkpt>
      <trkpt lat="49.61181" lon="5.63476">
        <ele>305.60000610352</ele>
        <time>2022-03-18T09:20:05.000Z</time>
      </trkpt>
      <trkpt lat="49.61189" lon="5.6348">
        <ele>307</ele>
        <time>2022-03-18T09:20:08.000Z</time>
      </trkpt>
      <trkpt lat="49.61198" lon="5.63479">
        <ele>308.20001220703</ele>
        <time>2022-03-18T09:20:11.000Z</time>
      </trkpt>
      <trkpt lat="49.61201" lon="5.63478">
        <ele>309</ele>
        <time>2022-03-18T09:20:12.000Z</time>
      </trkpt>
      <trkpt lat="49.61211" lon="5.63475">
        <ele>310.79998779297</ele>
        <time>2022-03-18T09:20:15.000Z</time>
      </trkpt>
      <trkpt lat="49.61215" lon="5.63472">
        <ele>311.79998779297</ele>
        <time>2022-03-18T09:20:17.000Z</time>
      </trkpt>
      <trkpt lat="49.61218" lon="5.6347">
        <ele>312.39999389648</ele>
        <time>2022-03-18T09:20:18.000Z</time>
      </trkpt>
      <trkpt lat="49.61226" lon="5.63464">
        <ele>313.79998779297</ele>
        <time>2022-03-18T09:20:22.000Z</time>
      </trkpt>
      <trkpt lat="49.6123" lon="5.63461">
        <ele>314.39999389648</ele>
        <time>2022-03-18T09:20:24.000Z</time>
      </trkpt>
      <trkpt lat="49.61232" lon="5.6346">
        <ele>314.60000610352</ele>
        <time>2022-03-18T09:20:25.000Z</time>
      </trkpt>
      <trkpt lat="49.61238" lon="5.63454">
        <ele>315.79998779297</ele>
        <time>2022-03-18T09:20:28.000Z</time>
      </trkpt>
      <trkpt lat="49.61255" lon="5.63437">
        <ele>319.20001220703</ele>
        <time>2022-03-18T09:20:36.000Z</time>
      </trkpt>
      <trkpt lat="49.61264" lon="5.63425">
        <ele>320</ele>
        <time>2022-03-18T09:20:39.000Z</time>
      </trkpt>
      <trkpt lat="49.61273" lon="5.63415">
        <ele>321</ele>
        <time>2022-03-18T09:20:42.000Z</time>
      </trkpt>
      <trkpt lat="49.61275" lon="5.63413">
        <ele>321.20001220703</ele>
        <time>2022-03-18T09:20:43.000Z</time>
      </trkpt>
      <trkpt lat="49.61278" lon="5.6341">
        <ele>321.60000610352</ele>
        <time>2022-03-18T09:20:44.000Z</time>
      </trkpt>
      <trkpt lat="49.61288" lon="5.63402">
        <ele>322.60000610352</ele>
        <time>2022-03-18T09:20:48.000Z</time>
      </trkpt>
      <trkpt lat="49.61292" lon="5.63399">
        <ele>323</ele>
        <time>2022-03-18T09:20:50.000Z</time>
      </trkpt>
      <trkpt lat="49.613" lon="5.63394">
        <ele>324</ele>
        <time>2022-03-18T09:20:53.000Z</time>
      </trkpt>
      <trkpt lat="49.61305" lon="5.63389">
        <ele>324.60000610352</ele>
        <time>2022-03-18T09:20:55.000Z</time>
      </trkpt>
      <trkpt lat="49.61313" lon="5.63386">
        <ele>325.79998779297</ele>
        <time>2022-03-18T09:20:58.000Z</time>
      </trkpt>
      <trkpt lat="49.6132" lon="5.63382">
        <ele>326.60000610352</ele>
        <time>2022-03-18T09:21:00.000Z</time>
      </trkpt>
      <trkpt lat="49.61342" lon="5.63374">
        <ele>328</ele>
        <time>2022-03-18T09:21:06.000Z</time>
      </trkpt>
      <trkpt lat="49.61347" lon="5.6337">
        <ele>328</ele>
        <time>2022-03-18T09:21:08.000Z</time>
      </trkpt>
      <trkpt lat="49.61349" lon="5.63361">
        <ele>328</ele>
        <time>2022-03-18T09:21:10.000Z</time>
      </trkpt>
      <trkpt lat="49.6135" lon="5.63357">
        <ele>328</ele>
        <time>2022-03-18T09:21:11.000Z</time>
      </trkpt>
      <trkpt lat="49.6135" lon="5.63343">
        <ele>327.79998779297</ele>
        <time>2022-03-18T09:21:13.000Z</time>
      </trkpt>
      <trkpt lat="49.6135" lon="5.63335">
        <ele>327.39999389648</ele>
        <time>2022-03-18T09:21:14.000Z</time>
      </trkpt>
      <trkpt lat="49.61349" lon="5.6332">
        <ele>327</ele>
        <time>2022-03-18T09:21:16.000Z</time>
      </trkpt>
      <trkpt lat="49.61344" lon="5.63293">
        <ele>325.60000610352</ele>
        <time>2022-03-18T09:21:20.000Z</time>
      </trkpt>
      <trkpt lat="49.61343" lon="5.63286">
        <ele>325.20001220703</ele>
        <time>2022-03-18T09:21:21.000Z</time>
      </trkpt>
      <trkpt lat="49.61342" lon="5.63256">
        <ele>323.20001220703</ele>
        <time>2022-03-18T09:21:25.000Z</time>
      </trkpt>
      <trkpt lat="49.61342" lon="5.63238">
        <ele>322.60000610352</ele>
        <time>2022-03-18T09:21:27.000Z</time>
      </trkpt>
      <trkpt lat="49.61343" lon="5.63229">
        <ele>322.39999389648</ele>
        <time>2022-03-18T09:21:28.000Z</time>
      </trkpt>
      <trkpt lat="49.61345" lon="5.6321">
        <ele>323.20001220703</ele>
        <time>2022-03-18T09:21:30.000Z</time>
      </trkpt>
      <trkpt lat="49.61346" lon="5.632">
        <ele>323</ele>
        <time>2022-03-18T09:21:31.000Z</time>
      </trkpt>
      <trkpt lat="49.61345" lon="5.63191">
        <ele>322.79998779297</ele>
        <time>2022-03-18T09:21:32.000Z</time>
      </trkpt>
      <trkpt lat="49.61343" lon="5.6316">
        <ele>321.79998779297</ele>
        <time>2022-03-18T09:21:35.000Z</time>
      </trkpt>
      <trkpt lat="49.61343" lon="5.63149">
        <ele>321.39999389648</ele>
        <time>2022-03-18T09:21:36.000Z</time>
      </trkpt>
      <trkpt lat="49.61342" lon="5.63137">
        <ele>321</ele>
        <time>2022-03-18T09:21:37.000Z</time>
      </trkpt>
      <trkpt lat="49.61344" lon="5.63123">
        <ele>320.60000610352</ele>
        <time>2022-03-18T09:21:38.000Z</time>
      </trkpt>
      <trkpt lat="49.61344" lon="5.6311">
        <ele>320</ele>
        <time>2022-03-18T09:21:39.000Z</time>
      </trkpt>
      <trkpt lat="49.61344" lon="5.63097">
        <ele>319</ele>
        <time>2022-03-18T09:21:40.000Z</time>
      </trkpt>
      <trkpt lat="49.61343" lon="5.63083">
        <ele>318</ele>
        <time>2022-03-18T09:21:41.000Z</time>
      </trkpt>
      <trkpt lat="49.61338" lon="5.6306">
        <ele>316</ele>
        <time>2022-03-18T09:21:43.000Z</time>
      </trkpt>
      <trkpt lat="49.61334" lon="5.63048">
        <ele>316.39999389648</ele>
        <time>2022-03-18T09:21:44.000Z</time>
      </trkpt>
      <trkpt lat="49.61325" lon="5.63027">
        <ele>316.60000610352</ele>
        <time>2022-03-18T09:21:46.000Z</time>
      </trkpt>
      <trkpt lat="49.61317" lon="5.63006">
        <ele>316.39999389648</ele>
        <time>2022-03-18T09:21:48.000Z</time>
      </trkpt>
      <trkpt lat="49.61309" lon="5.62986">
        <ele>315.39999389648</ele>
        <time>2022-03-18T09:21:50.000Z</time>
      </trkpt>
      <trkpt lat="49.613" lon="5.62968">
        <ele>314.39999389648</ele>
        <time>2022-03-18T09:21:52.000Z</time>
      </trkpt>
      <trkpt lat="49.61294" lon="5.62959">
        <ele>313.79998779297</ele>
        <time>2022-03-18T09:21:53.000Z</time>
      </trkpt>
      <trkpt lat="49.61284" lon="5.62943">
        <ele>313</ele>
        <time>2022-03-18T09:21:55.000Z</time>
      </trkpt>
      <trkpt lat="49.61268" lon="5.62915">
        <ele>312.79998779297</ele>
        <time>2022-03-18T09:21:58.000Z</time>
      </trkpt>
      <trkpt lat="49.61262" lon="5.62908">
        <ele>313.20001220703</ele>
        <time>2022-03-18T09:21:59.000Z</time>
      </trkpt>
      <trkpt lat="49.61244" lon="5.62889">
        <ele>313.60000610352</ele>
        <time>2022-03-18T09:22:02.000Z</time>
      </trkpt>
      <trkpt lat="49.61232" lon="5.62879">
        <ele>313.39999389648</ele>
        <time>2022-03-18T09:22:04.000Z</time>
      </trkpt>
      <trkpt lat="49.61218" lon="5.62876">
        <ele>313</ele>
        <time>2022-03-18T09:22:06.000Z</time>
      </trkpt>
      <trkpt lat="49.61212" lon="5.62877">
        <ele>312.60000610352</ele>
        <time>2022-03-18T09:22:07.000Z</time>
      </trkpt>
      <trkpt lat="49.612" lon="5.62882">
        <ele>311.79998779297</ele>
        <time>2022-03-18T09:22:10.000Z</time>
      </trkpt>
      <trkpt lat="49.61189" lon="5.62889">
        <ele>310.60000610352</ele>
        <time>2022-03-18T09:22:12.000Z</time>
      </trkpt>
      <trkpt lat="49.61165" lon="5.62902">
        <ele>308.39999389648</ele>
        <time>2022-03-18T09:22:16.000Z</time>
      </trkpt>
      <trkpt lat="49.61159" lon="5.62904">
        <ele>307.79998779297</ele>
        <time>2022-03-18T09:22:17.000Z</time>
      </trkpt>
      <trkpt lat="49.61153" lon="5.62904">
        <ele>307.39999389648</ele>
        <time>2022-03-18T09:22:18.000Z</time>
      </trkpt>
      <trkpt lat="49.61141" lon="5.62902">
        <ele>306.60000610352</ele>
        <time>2022-03-18T09:22:20.000Z</time>
      </trkpt>
      <trkpt lat="49.61135" lon="5.629">
        <ele>306</ele>
        <time>2022-03-18T09:22:21.000Z</time>
      </trkpt>
      <trkpt lat="49.61117" lon="5.62891">
        <ele>304.39999389648</ele>
        <time>2022-03-18T09:22:24.000Z</time>
      </trkpt>
      <trkpt lat="49.61105" lon="5.62881">
        <ele>304.60000610352</ele>
        <time>2022-03-18T09:22:26.000Z</time>
      </trkpt>
      <trkpt lat="49.61097" lon="5.62874">
        <ele>304.60000610352</ele>
        <time>2022-03-18T09:22:27.000Z</time>
      </trkpt>
      <trkpt lat="49.6109" lon="5.62869">
        <ele>304.79998779297</ele>
        <time>2022-03-18T09:22:28.000Z</time>
      </trkpt>
      <trkpt lat="49.61083" lon="5.62866">
        <ele>305</ele>
        <time>2022-03-18T09:22:29.000Z</time>
      </trkpt>
      <trkpt lat="49.61069" lon="5.62858">
        <ele>305.60000610352</ele>
        <time>2022-03-18T09:22:31.000Z</time>
      </trkpt>
      <trkpt lat="49.61056" lon="5.62852">
        <ele>305.79998779297</ele>
        <time>2022-03-18T09:22:33.000Z</time>
      </trkpt>
      <trkpt lat="49.6105" lon="5.62849">
        <ele>305.39999389648</ele>
        <time>2022-03-18T09:22:34.000Z</time>
      </trkpt>
      <trkpt lat="49.61043" lon="5.62844">
        <ele>304.79998779297</ele>
        <time>2022-03-18T09:22:35.000Z</time>
      </trkpt>
      <trkpt lat="49.61032" lon="5.62831">
        <ele>304.20001220703</ele>
        <time>2022-03-18T09:22:37.000Z</time>
      </trkpt>
      <trkpt lat="49.61017" lon="5.6281">
        <ele>304.39999389648</ele>
        <time>2022-03-18T09:22:40.000Z</time>
      </trkpt>
      <trkpt lat="49.61002" lon="5.62791">
        <ele>304.60000610352</ele>
        <time>2022-03-18T09:22:43.000Z</time>
      </trkpt>
      <trkpt lat="49.60972" lon="5.62768">
        <ele>302.39999389648</ele>
        <time>2022-03-18T09:22:48.000Z</time>
      </trkpt>
      <trkpt lat="49.6095" lon="5.62756">
        <ele>300.20001220703</ele>
        <time>2022-03-18T09:22:52.000Z</time>
      </trkpt>
      <trkpt lat="49.60939" lon="5.62751">
        <ele>299.79998779297</ele>
        <time>2022-03-18T09:22:54.000Z</time>
      </trkpt>
      <trkpt lat="49.60906" lon="5.62739">
        <ele>299.39999389648</ele>
        <time>2022-03-18T09:23:00.000Z</time>
      </trkpt>
      <trkpt lat="49.6088" lon="5.62721">
        <ele>298.60000610352</ele>
        <time>2022-03-18T09:23:05.000Z</time>
      </trkpt>
      <trkpt lat="49.60867" lon="5.62708">
        <ele>298.20001220703</ele>
        <time>2022-03-18T09:23:08.000Z</time>
      </trkpt>
      <trkpt lat="49.60863" lon="5.62696">
        <ele>298</ele>
        <time>2022-03-18T09:23:10.000Z</time>
      </trkpt>
      <trkpt lat="49.60859" lon="5.62673">
        <ele>297.20001220703</ele>
        <time>2022-03-18T09:23:13.000Z</time>
      </trkpt>
      <trkpt lat="49.60856" lon="5.62657">
        <ele>297.39999389648</ele>
        <time>2022-03-18T09:23:15.000Z</time>
      </trkpt>
      <trkpt lat="49.60847" lon="5.62623">
        <ele>298</ele>
        <time>2022-03-18T09:23:19.000Z</time>
      </trkpt>
      <trkpt lat="49.60845" lon="5.62615">
        <ele>298</ele>
        <time>2022-03-18T09:23:20.000Z</time>
      </trkpt>
      <trkpt lat="49.60825" lon="5.62542">
        <ele>296</ele>
        <time>2022-03-18T09:23:28.000Z</time>
      </trkpt>
      <trkpt lat="49.60823" lon="5.62534">
        <ele>295.60000610352</ele>
        <time>2022-03-18T09:23:29.000Z</time>
      </trkpt>
      <trkpt lat="49.60813" lon="5.62505">
        <ele>294.20001220703</ele>
        <time>2022-03-18T09:23:33.000Z</time>
      </trkpt>
      <trkpt lat="49.60799" lon="5.62499">
        <ele>294.20001220703</ele>
        <time>2022-03-18T09:23:36.000Z</time>
      </trkpt>
      <trkpt lat="49.60791" lon="5.62496">
        <ele>294.39999389648</ele>
        <time>2022-03-18T09:23:38.000Z</time>
      </trkpt>
      <trkpt lat="49.60784" lon="5.6249">
        <ele>294.39999389648</ele>
        <time>2022-03-18T09:23:40.000Z</time>
      </trkpt>
      <trkpt lat="49.60774" lon="5.62477">
        <ele>294.39999389648</ele>
        <time>2022-03-18T09:23:43.000Z</time>
      </trkpt>
      <trkpt lat="49.60771" lon="5.62472">
        <ele>294.39999389648</ele>
        <time>2022-03-18T09:23:44.000Z</time>
      </trkpt>
      <trkpt lat="49.60766" lon="5.62466">
        <ele>294.39999389648</ele>
        <time>2022-03-18T09:23:45.000Z</time>
      </trkpt>
      <trkpt lat="49.60755" lon="5.6245">
        <ele>294</ele>
        <time>2022-03-18T09:23:48.000Z</time>
      </trkpt>
      <trkpt lat="49.60751" lon="5.62443">
        <ele>294</ele>
        <time>2022-03-18T09:23:49.000Z</time>
      </trkpt>
      <trkpt lat="49.60728" lon="5.6241">
        <ele>294.79998779297</ele>
        <time>2022-03-18T09:23:54.000Z</time>
      </trkpt>
      <trkpt lat="49.60723" lon="5.62406">
        <ele>295.20001220703</ele>
        <time>2022-03-18T09:23:55.000Z</time>
      </trkpt>
      <trkpt lat="49.60718" lon="5.62402">
        <ele>295.79998779297</ele>
        <time>2022-03-18T09:23:56.000Z</time>
      </trkpt>
      <trkpt lat="49.60706" lon="5.62399">
        <ele>297.20001220703</ele>
        <time>2022-03-18T09:23:58.000Z</time>
      </trkpt>
      <trkpt lat="49.60694" lon="5.62401">
        <ele>298</ele>
        <time>2022-03-18T09:24:00.000Z</time>
      </trkpt>
      <trkpt lat="49.60688" lon="5.62403">
        <ele>298.20001220703</ele>
        <time>2022-03-18T09:24:01.000Z</time>
      </trkpt>
      <trkpt lat="49.60682" lon="5.62404">
        <ele>298.60000610352</ele>
        <time>2022-03-18T09:24:02.000Z</time>
      </trkpt>
      <trkpt lat="49.60667" lon="5.62408">
        <ele>300.20001220703</ele>
        <time>2022-03-18T09:24:05.000Z</time>
      </trkpt>
      <trkpt lat="49.60663" lon="5.62412">
        <ele>300.20001220703</ele>
        <time>2022-03-18T09:24:06.000Z</time>
      </trkpt>
      <trkpt lat="49.60659" lon="5.62416">
        <ele>300.60000610352</ele>
        <time>2022-03-18T09:24:07.000Z</time>
      </trkpt>
      <trkpt lat="49.60653" lon="5.62435">
        <ele>301.79998779297</ele>
        <time>2022-03-18T09:24:11.000Z</time>
      </trkpt>
      <trkpt lat="49.60652" lon="5.62441">
        <ele>302</ele>
        <time>2022-03-18T09:24:12.000Z</time>
      </trkpt>
      <trkpt lat="49.6065" lon="5.6246">
        <ele>302.60000610352</ele>
        <time>2022-03-18T09:24:15.000Z</time>
      </trkpt>
      <trkpt lat="49.6065" lon="5.62467">
        <ele>303.20001220703</ele>
        <time>2022-03-18T09:24:16.000Z</time>
      </trkpt>
      <trkpt lat="49.6065" lon="5.62481">
        <ele>304</ele>
        <time>2022-03-18T09:24:18.000Z</time>
      </trkpt>
      <trkpt lat="49.6065" lon="5.62494">
        <ele>304.20001220703</ele>
        <time>2022-03-18T09:24:20.000Z</time>
      </trkpt>
      <trkpt lat="49.6065" lon="5.62501">
        <ele>304</ele>
        <time>2022-03-18T09:24:21.000Z</time>
      </trkpt>
      <trkpt lat="49.60652" lon="5.62519">
        <ele>304.39999389648</ele>
        <time>2022-03-18T09:24:24.000Z</time>
      </trkpt>
      <trkpt lat="49.60652" lon="5.62527">
        <ele>304.79998779297</ele>
        <time>2022-03-18T09:24:25.000Z</time>
      </trkpt>
      <trkpt lat="49.60651" lon="5.62541">
        <ele>305.39999389648</ele>
        <time>2022-03-18T09:24:27.000Z</time>
      </trkpt>
      <trkpt lat="49.60646" lon="5.62564">
        <ele>306</ele>
        <time>2022-03-18T09:24:31.000Z</time>
      </trkpt>
      <trkpt lat="49.60644" lon="5.6257">
        <ele>306.20001220703</ele>
        <time>2022-03-18T09:24:32.000Z</time>
      </trkpt>
      <trkpt lat="49.60637" lon="5.6259">
        <ele>307.60000610352</ele>
        <time>2022-03-18T09:24:35.000Z</time>
      </trkpt>
      <trkpt lat="49.6063" lon="5.62607">
        <ele>309.20001220703</ele>
        <time>2022-03-18T09:24:38.000Z</time>
      </trkpt>
      <trkpt lat="49.60627" lon="5.62613">
        <ele>309.39999389648</ele>
        <time>2022-03-18T09:24:39.000Z</time>
      </trkpt>
      <trkpt lat="49.60611" lon="5.62628">
        <ele>310.60000610352</ele>
        <time>2022-03-18T09:24:43.000Z</time>
      </trkpt>
      <trkpt lat="49.60605" lon="5.62632">
        <ele>311.39999389648</ele>
        <time>2022-03-18T09:24:45.000Z</time>
      </trkpt>
      <trkpt lat="49.60596" lon="5.62633">
        <ele>312</ele>
        <time>2022-03-18T09:24:47.000Z</time>
      </trkpt>
      <trkpt lat="49.60591" lon="5.62633">
        <ele>312.39999389648</ele>
        <time>2022-03-18T09:24:48.000Z</time>
      </trkpt>
      <trkpt lat="49.60582" lon="5.6263">
        <ele>312.79998779297</ele>
        <time>2022-03-18T09:24:50.000Z</time>
      </trkpt>
      <trkpt lat="49.60571" lon="5.62618">
        <ele>313.20001220703</ele>
        <time>2022-03-18T09:24:53.000Z</time>
      </trkpt>
      <trkpt lat="49.60558" lon="5.62597">
        <ele>313.39999389648</ele>
        <time>2022-03-18T09:24:57.000Z</time>
      </trkpt>
      <trkpt lat="49.60555" lon="5.62592">
        <ele>313.39999389648</ele>
        <time>2022-03-18T09:24:58.000Z</time>
      </trkpt>
      <trkpt lat="49.60548" lon="5.62582">
        <ele>313.60000610352</ele>
        <time>2022-03-18T09:25:00.000Z</time>
      </trkpt>
      <trkpt lat="49.60545" lon="5.62577">
        <ele>313.60000610352</ele>
        <time>2022-03-18T09:25:01.000Z</time>
      </trkpt>
      <trkpt lat="49.60529" lon="5.62562">
        <ele>314.20001220703</ele>
        <time>2022-03-18T09:25:05.000Z</time>
      </trkpt>
      <trkpt lat="49.60517" lon="5.62552">
        <ele>315.20001220703</ele>
        <time>2022-03-18T09:25:08.000Z</time>
      </trkpt>
      <trkpt lat="49.60507" lon="5.62539">
        <ele>315.79998779297</ele>
        <time>2022-03-18T09:25:11.000Z</time>
      </trkpt>
      <trkpt lat="49.60501" lon="5.62529">
        <ele>316.39999389648</ele>
        <time>2022-03-18T09:25:13.000Z</time>
      </trkpt>
      <trkpt lat="49.60497" lon="5.62524">
        <ele>317</ele>
        <time>2022-03-18T09:25:14.000Z</time>
      </trkpt>
      <trkpt lat="49.6049" lon="5.62516">
        <ele>318.39999389648</ele>
        <time>2022-03-18T09:25:16.000Z</time>
      </trkpt>
      <trkpt lat="49.60487" lon="5.62512">
        <ele>319</ele>
        <time>2022-03-18T09:25:17.000Z</time>
      </trkpt>
      <trkpt lat="49.60477" lon="5.62505">
        <ele>320.60000610352</ele>
        <time>2022-03-18T09:25:20.000Z</time>
      </trkpt>
      <trkpt lat="49.60475" lon="5.62503">
        <ele>321</ele>
        <time>2022-03-18T09:25:21.000Z</time>
      </trkpt>
      <trkpt lat="49.60471" lon="5.62502">
        <ele>321.39999389648</ele>
        <time>2022-03-18T09:25:22.000Z</time>
      </trkpt>
      <trkpt lat="49.60462" lon="5.62497">
        <ele>322</ele>
        <time>2022-03-18T09:25:24.000Z</time>
      </trkpt>
      <trkpt lat="49.60458" lon="5.62495">
        <ele>322.20001220703</ele>
        <time>2022-03-18T09:25:25.000Z</time>
      </trkpt>
      <trkpt lat="49.60451" lon="5.62488">
        <ele>322.79998779297</ele>
        <time>2022-03-18T09:25:27.000Z</time>
      </trkpt>
      <trkpt lat="49.60445" lon="5.62478">
        <ele>323</ele>
        <time>2022-03-18T09:25:29.000Z</time>
      </trkpt>
      <trkpt lat="49.60441" lon="5.62473">
        <ele>322.79998779297</ele>
        <time>2022-03-18T09:25:30.000Z</time>
      </trkpt>
      <trkpt lat="49.6043" lon="5.62458">
        <ele>322.39999389648</ele>
        <time>2022-03-18T09:25:33.000Z</time>
      </trkpt>
      <trkpt lat="49.60425" lon="5.62446">
        <ele>322</ele>
        <time>2022-03-18T09:25:35.000Z</time>
      </trkpt>
      <trkpt lat="49.60421" lon="5.62432">
        <ele>322.60000610352</ele>
        <time>2022-03-18T09:25:37.000Z</time>
      </trkpt>
      <trkpt lat="49.60416" lon="5.62411">
        <ele>323.20001220703</ele>
        <time>2022-03-18T09:25:40.000Z</time>
      </trkpt>
      <trkpt lat="49.60412" lon="5.62397">
        <ele>323.60000610352</ele>
        <time>2022-03-18T09:25:42.000Z</time>
      </trkpt>
      <trkpt lat="49.60402" lon="5.6237">
        <ele>324.60000610352</ele>
        <time>2022-03-18T09:25:46.000Z</time>
      </trkpt>
      <trkpt lat="49.60383" lon="5.62319">
        <ele>327.39999389648</ele>
        <time>2022-03-18T09:25:53.000Z</time>
      </trkpt>
      <trkpt lat="49.60379" lon="5.62303">
        <ele>327.60000610352</ele>
        <time>2022-03-18T09:25:55.000Z</time>
      </trkpt>
      <trkpt lat="49.60377" lon="5.62279">
        <ele>327.60000610352</ele>
        <time>2022-03-18T09:25:58.000Z</time>
      </trkpt>
      <trkpt lat="49.60378" lon="5.62263">
        <ele>327.79998779297</ele>
        <time>2022-03-18T09:26:00.000Z</time>
      </trkpt>
      <trkpt lat="49.6038" lon="5.62227">
        <ele>327</ele>
        <time>2022-03-18T09:26:04.000Z</time>
      </trkpt>
      <trkpt lat="49.6038" lon="5.62209">
        <ele>327</ele>
        <time>2022-03-18T09:26:06.000Z</time>
      </trkpt>
      <trkpt lat="49.60378" lon="5.62192">
        <ele>327</ele>
        <time>2022-03-18T09:26:08.000Z</time>
      </trkpt>
      <trkpt lat="49.60376" lon="5.62155">
        <ele>328</ele>
        <time>2022-03-18T09:26:12.000Z</time>
      </trkpt>
      <trkpt lat="49.60374" lon="5.62147">
        <ele>328.20001220703</ele>
        <time>2022-03-18T09:26:13.000Z</time>
      </trkpt>
      <trkpt lat="49.60371" lon="5.62131">
        <ele>327.79998779297</ele>
        <time>2022-03-18T09:26:15.000Z</time>
      </trkpt>
      <trkpt lat="49.60367" lon="5.62104">
        <ele>327.20001220703</ele>
        <time>2022-03-18T09:26:18.000Z</time>
      </trkpt>
      <trkpt lat="49.60358" lon="5.62062">
        <ele>325.39999389648</ele>
        <time>2022-03-18T09:26:23.000Z</time>
      </trkpt>
      <trkpt lat="49.60354" lon="5.62045">
        <ele>325.20001220703</ele>
        <time>2022-03-18T09:26:25.000Z</time>
      </trkpt>
      <trkpt lat="49.60347" lon="5.62014">
        <ele>324.60000610352</ele>
        <time>2022-03-18T09:26:29.000Z</time>
      </trkpt>
      <trkpt lat="49.60345" lon="5.62006">
        <ele>324.20001220703</ele>
        <time>2022-03-18T09:26:30.000Z</time>
      </trkpt>
      <trkpt lat="49.60334" lon="5.61954">
        <ele>323.60000610352</ele>
        <time>2022-03-18T09:26:36.000Z</time>
      </trkpt>
      <trkpt lat="49.60314" lon="5.6189">
        <ele>324.39999389648</ele>
        <time>2022-03-18T09:26:44.000Z</time>
      </trkpt>
      <trkpt lat="49.60307" lon="5.61867">
        <ele>325.79998779297</ele>
        <time>2022-03-18T09:26:47.000Z</time>
      </trkpt>
      <trkpt lat="49.60299" lon="5.61845">
        <ele>326.60000610352</ele>
        <time>2022-03-18T09:26:50.000Z</time>
      </trkpt>
      <trkpt lat="49.60282" lon="5.61798">
        <ele>328.39999389648</ele>
        <time>2022-03-18T09:26:56.000Z</time>
      </trkpt>
      <trkpt lat="49.60257" lon="5.61744">
        <ele>328.60000610352</ele>
        <time>2022-03-18T09:27:03.000Z</time>
      </trkpt>
      <trkpt lat="49.60248" lon="5.61731">
        <ele>328</ele>
        <time>2022-03-18T09:27:05.000Z</time>
      </trkpt>
      <trkpt lat="49.60231" lon="5.61701">
        <ele>326.79998779297</ele>
        <time>2022-03-18T09:27:09.000Z</time>
      </trkpt>
      <trkpt lat="49.60221" lon="5.61677">
        <ele>326.20001220703</ele>
        <time>2022-03-18T09:27:12.000Z</time>
      </trkpt>
      <trkpt lat="49.60213" lon="5.61654">
        <ele>326.20001220703</ele>
        <time>2022-03-18T09:27:15.000Z</time>
      </trkpt>
      <trkpt lat="49.60198" lon="5.61606">
        <ele>327.39999389648</ele>
        <time>2022-03-18T09:27:21.000Z</time>
      </trkpt>
      <trkpt lat="49.60181" lon="5.61547">
        <ele>326.79998779297</ele>
        <time>2022-03-18T09:27:28.000Z</time>
      </trkpt>
      <trkpt lat="49.60154" lon="5.61478">
        <ele>324.39999389648</ele>
        <time>2022-03-18T09:27:36.000Z</time>
      </trkpt>
      <trkpt lat="49.60147" lon="5.61461">
        <ele>324.20001220703</ele>
        <time>2022-03-18T09:27:38.000Z</time>
      </trkpt>
      <trkpt lat="49.60133" lon="5.6142">
        <ele>323.60000610352</ele>
        <time>2022-03-18T09:27:43.000Z</time>
      </trkpt>
      <trkpt lat="49.60113" lon="5.61363">
        <ele>323</ele>
        <time>2022-03-18T09:27:50.000Z</time>
      </trkpt>
      <trkpt lat="49.601" lon="5.61331">
        <ele>322.79998779297</ele>
        <time>2022-03-18T09:27:54.000Z</time>
      </trkpt>
      <trkpt lat="49.60094" lon="5.61315">
        <ele>323.39999389648</ele>
        <time>2022-03-18T09:27:56.000Z</time>
      </trkpt>
      <trkpt lat="49.60085" lon="5.61289">
        <ele>323.20001220703</ele>
        <time>2022-03-18T09:27:59.000Z</time>
      </trkpt>
      <trkpt lat="49.60072" lon="5.61254">
        <ele>321.60000610352</ele>
        <time>2022-03-18T09:28:03.000Z</time>
      </trkpt>
      <trkpt lat="49.60061" lon="5.61228">
        <ele>318.39999389648</ele>
        <time>2022-03-18T09:28:06.000Z</time>
      </trkpt>
      <trkpt lat="49.60052" lon="5.61208">
        <ele>317.20001220703</ele>
        <time>2022-03-18T09:28:08.000Z</time>
      </trkpt>
      <trkpt lat="49.60042" lon="5.61189">
        <ele>316.79998779297</ele>
        <time>2022-03-18T09:28:10.000Z</time>
      </trkpt>
      <trkpt lat="49.60032" lon="5.61169">
        <ele>317</ele>
        <time>2022-03-18T09:28:12.000Z</time>
      </trkpt>
      <trkpt lat="49.60022" lon="5.61149">
        <ele>317</ele>
        <time>2022-03-18T09:28:14.000Z</time>
      </trkpt>
      <trkpt lat="49.60017" lon="5.6114">
        <ele>317</ele>
        <time>2022-03-18T09:28:15.000Z</time>
      </trkpt>
      <trkpt lat="49.60001" lon="5.6111">
        <ele>316.79998779297</ele>
        <time>2022-03-18T09:28:18.000Z</time>
      </trkpt>
      <trkpt lat="49.59991" lon="5.61089">
        <ele>316.60000610352</ele>
        <time>2022-03-18T09:28:20.000Z</time>
      </trkpt>
      <trkpt lat="49.59985" lon="5.6108">
        <ele>316.39999389648</ele>
        <time>2022-03-18T09:28:21.000Z</time>
      </trkpt>
      <trkpt lat="49.59974" lon="5.61063">
        <ele>316</ele>
        <time>2022-03-18T09:28:23.000Z</time>
      </trkpt>
      <trkpt lat="49.59947" lon="5.61017">
        <ele>311</ele>
        <time>2022-03-18T09:28:28.000Z</time>
      </trkpt>
      <trkpt lat="49.59937" lon="5.60995">
        <ele>308</ele>
        <time>2022-03-18T09:28:30.000Z</time>
      </trkpt>
      <trkpt lat="49.59927" lon="5.6096">
        <ele>303</ele>
        <time>2022-03-18T09:28:33.000Z</time>
      </trkpt>
      <trkpt lat="49.59921" lon="5.60925">
        <ele>298.60000610352</ele>
        <time>2022-03-18T09:28:36.000Z</time>
      </trkpt>
      <trkpt lat="49.59921" lon="5.60912">
        <ele>297.79998779297</ele>
        <time>2022-03-18T09:28:37.000Z</time>
      </trkpt>
      <trkpt lat="49.5992" lon="5.60899">
        <ele>297.20001220703</ele>
        <time>2022-03-18T09:28:38.000Z</time>
      </trkpt>
      <trkpt lat="49.59917" lon="5.60873">
        <ele>296.39999389648</ele>
        <time>2022-03-18T09:28:40.000Z</time>
      </trkpt>
      <trkpt lat="49.59913" lon="5.60849">
        <ele>295.39999389648</ele>
        <time>2022-03-18T09:28:42.000Z</time>
      </trkpt>
      <trkpt lat="49.59912" lon="5.60838">
        <ele>295</ele>
        <time>2022-03-18T09:28:43.000Z</time>
      </trkpt>
      <trkpt lat="49.59911" lon="5.60827">
        <ele>294.60000610352</ele>
        <time>2022-03-18T09:28:44.000Z</time>
      </trkpt>
      <trkpt lat="49.59912" lon="5.60815">
        <ele>293.79998779297</ele>
        <time>2022-03-18T09:28:45.000Z</time>
      </trkpt>
      <trkpt lat="49.59914" lon="5.60804">
        <ele>292.60000610352</ele>
        <time>2022-03-18T09:28:46.000Z</time>
      </trkpt>
      <trkpt lat="49.59916" lon="5.60792">
        <ele>291.79998779297</ele>
        <time>2022-03-18T09:28:47.000Z</time>
      </trkpt>
      <trkpt lat="49.59919" lon="5.6078">
        <ele>291</ele>
        <time>2022-03-18T09:28:48.000Z</time>
      </trkpt>
      <trkpt lat="49.59922" lon="5.60767">
        <ele>289.60000610352</ele>
        <time>2022-03-18T09:28:49.000Z</time>
      </trkpt>
      <trkpt lat="49.59925" lon="5.60752">
        <ele>288.39999389648</ele>
        <time>2022-03-18T09:28:50.000Z</time>
      </trkpt>
      <trkpt lat="49.59927" lon="5.60736">
        <ele>286.79998779297</ele>
        <time>2022-03-18T09:28:51.000Z</time>
      </trkpt>
      <trkpt lat="49.59929" lon="5.60718">
        <ele>285.39999389648</ele>
        <time>2022-03-18T09:28:52.000Z</time>
      </trkpt>
      <trkpt lat="49.5993" lon="5.607">
        <ele>284.39999389648</ele>
        <time>2022-03-18T09:28:53.000Z</time>
      </trkpt>
      <trkpt lat="49.5993" lon="5.60684">
        <ele>283.79998779297</ele>
        <time>2022-03-18T09:28:54.000Z</time>
      </trkpt>
      <trkpt lat="49.59929" lon="5.60668">
        <ele>283.20001220703</ele>
        <time>2022-03-18T09:28:55.000Z</time>
      </trkpt>
      <trkpt lat="49.59928" lon="5.60653">
        <ele>282.20001220703</ele>
        <time>2022-03-18T09:28:56.000Z</time>
      </trkpt>
      <trkpt lat="49.59925" lon="5.60638">
        <ele>281.39999389648</ele>
        <time>2022-03-18T09:28:57.000Z</time>
      </trkpt>
      <trkpt lat="49.59922" lon="5.60623">
        <ele>280.39999389648</ele>
        <time>2022-03-18T09:28:58.000Z</time>
      </trkpt>
      <trkpt lat="49.59918" lon="5.6061">
        <ele>279.60000610352</ele>
        <time>2022-03-18T09:28:59.000Z</time>
      </trkpt>
      <trkpt lat="49.59915" lon="5.60597">
        <ele>278.20001220703</ele>
        <time>2022-03-18T09:29:00.000Z</time>
      </trkpt>
      <trkpt lat="49.59911" lon="5.60569">
        <ele>274.79998779297</ele>
        <time>2022-03-18T09:29:02.000Z</time>
      </trkpt>
      <trkpt lat="49.59905" lon="5.60541">
        <ele>271.60000610352</ele>
        <time>2022-03-18T09:29:04.000Z</time>
      </trkpt>
      <trkpt lat="49.59901" lon="5.60527">
        <ele>270.39999389648</ele>
        <time>2022-03-18T09:29:05.000Z</time>
      </trkpt>
      <trkpt lat="49.59896" lon="5.60513">
        <ele>269.60000610352</ele>
        <time>2022-03-18T09:29:06.000Z</time>
      </trkpt>
      <trkpt lat="49.59893" lon="5.605">
        <ele>268.79998779297</ele>
        <time>2022-03-18T09:29:07.000Z</time>
      </trkpt>
      <trkpt lat="49.59889" lon="5.60486">
        <ele>267.79998779297</ele>
        <time>2022-03-18T09:29:08.000Z</time>
      </trkpt>
      <trkpt lat="49.59887" lon="5.60472">
        <ele>266.79998779297</ele>
        <time>2022-03-18T09:29:09.000Z</time>
      </trkpt>
      <trkpt lat="49.59884" lon="5.60457">
        <ele>265.60000610352</ele>
        <time>2022-03-18T09:29:10.000Z</time>
      </trkpt>
      <trkpt lat="49.59881" lon="5.60441">
        <ele>264.60000610352</ele>
        <time>2022-03-18T09:29:11.000Z</time>
      </trkpt>
      <trkpt lat="49.59878" lon="5.60428">
        <ele>264</ele>
        <time>2022-03-18T09:29:12.000Z</time>
      </trkpt>
      <trkpt lat="49.59874" lon="5.60416">
        <ele>263.60000610352</ele>
        <time>2022-03-18T09:29:13.000Z</time>
      </trkpt>
      <trkpt lat="49.5987" lon="5.60405">
        <ele>262.79998779297</ele>
        <time>2022-03-18T09:29:14.000Z</time>
      </trkpt>
      <trkpt lat="49.59863" lon="5.60384">
        <ele>262</ele>
        <time>2022-03-18T09:29:16.000Z</time>
      </trkpt>
      <trkpt lat="49.59861" lon="5.60372">
        <ele>261.79998779297</ele>
        <time>2022-03-18T09:29:17.000Z</time>
      </trkpt>
      <trkpt lat="49.59859" lon="5.60361">
        <ele>261.60000610352</ele>
        <time>2022-03-18T09:29:18.000Z</time>
      </trkpt>
      <trkpt lat="49.59856" lon="5.6035">
        <ele>261</ele>
        <time>2022-03-18T09:29:19.000Z</time>
      </trkpt>
      <trkpt lat="49.59851" lon="5.60339">
        <ele>260.20001220703</ele>
        <time>2022-03-18T09:29:20.000Z</time>
      </trkpt>
      <trkpt lat="49.5984" lon="5.60317">
        <ele>259.20001220703</ele>
        <time>2022-03-18T09:29:22.000Z</time>
      </trkpt>
      <trkpt lat="49.59833" lon="5.60307">
        <ele>258.79998779297</ele>
        <time>2022-03-18T09:29:23.000Z</time>
      </trkpt>
      <trkpt lat="49.59825" lon="5.60298">
        <ele>257.79998779297</ele>
        <time>2022-03-18T09:29:24.000Z</time>
      </trkpt>
      <trkpt lat="49.59817" lon="5.60289">
        <ele>257</ele>
        <time>2022-03-18T09:29:25.000Z</time>
      </trkpt>
      <trkpt lat="49.5981" lon="5.60279">
        <ele>256.20001220703</ele>
        <time>2022-03-18T09:29:26.000Z</time>
      </trkpt>
      <trkpt lat="49.59802" lon="5.60268">
        <ele>255.60000610352</ele>
        <time>2022-03-18T09:29:27.000Z</time>
      </trkpt>
      <trkpt lat="49.59788" lon="5.60248">
        <ele>254.39999389648</ele>
        <time>2022-03-18T09:29:29.000Z</time>
      </trkpt>
      <trkpt lat="49.59781" lon="5.60238">
        <ele>253.39999389648</ele>
        <time>2022-03-18T09:29:30.000Z</time>
      </trkpt>
      <trkpt lat="49.59767" lon="5.6022">
        <ele>253.60000610352</ele>
        <time>2022-03-18T09:29:32.000Z</time>
      </trkpt>
      <trkpt lat="49.59747" lon="5.60193">
        <ele>255</ele>
        <time>2022-03-18T09:29:35.000Z</time>
      </trkpt>
      <trkpt lat="49.5974" lon="5.60184">
        <ele>255</ele>
        <time>2022-03-18T09:29:36.000Z</time>
      </trkpt>
      <trkpt lat="49.59712" lon="5.60152">
        <ele>254.60000610352</ele>
        <time>2022-03-18T09:29:40.000Z</time>
      </trkpt>
      <trkpt lat="49.59706" lon="5.60144">
        <ele>254.39999389648</ele>
        <time>2022-03-18T09:29:41.000Z</time>
      </trkpt>
      <trkpt lat="49.59669" lon="5.60107">
        <ele>252.60000610352</ele>
        <time>2022-03-18T09:29:47.000Z</time>
      </trkpt>
      <trkpt lat="49.59663" lon="5.60101">
        <ele>252.19999694824</ele>
        <time>2022-03-18T09:29:48.000Z</time>
      </trkpt>
      <trkpt lat="49.59635" lon="5.60071">
        <ele>249.80000305176</ele>
        <time>2022-03-18T09:29:53.000Z</time>
      </trkpt>
      <trkpt lat="49.59617" lon="5.6005">
        <ele>246.80000305176</ele>
        <time>2022-03-18T09:29:56.000Z</time>
      </trkpt>
      <trkpt lat="49.5961" lon="5.60044">
        <ele>245.60000610352</ele>
        <time>2022-03-18T09:29:57.000Z</time>
      </trkpt>
      <trkpt lat="49.59603" lon="5.60039">
        <ele>244.39999389648</ele>
        <time>2022-03-18T09:29:58.000Z</time>
      </trkpt>
      <trkpt lat="49.59586" lon="5.60029">
        <ele>241.80000305176</ele>
        <time>2022-03-18T09:30:00.000Z</time>
      </trkpt>
      <trkpt lat="49.5957" lon="5.60023">
        <ele>239.39999389648</ele>
        <time>2022-03-18T09:30:02.000Z</time>
      </trkpt>
      <trkpt lat="49.59553" lon="5.60021">
        <ele>237.60000610352</ele>
        <time>2022-03-18T09:30:04.000Z</time>
      </trkpt>
      <trkpt lat="49.59537" lon="5.60021">
        <ele>236.80000305176</ele>
        <time>2022-03-18T09:30:06.000Z</time>
      </trkpt>
      <trkpt lat="49.59524" lon="5.60019">
        <ele>235.60000610352</ele>
        <time>2022-03-18T09:30:08.000Z</time>
      </trkpt>
      <trkpt lat="49.59519" lon="5.60008">
        <ele>233.39999389648</ele>
        <time>2022-03-18T09:30:10.000Z</time>
      </trkpt>
      <trkpt lat="49.59518" lon="5.6">
        <ele>232.39999389648</ele>
        <time>2022-03-18T09:30:11.000Z</time>
      </trkpt>
      <trkpt lat="49.59516" lon="5.59975">
        <ele>229.39999389648</ele>
        <time>2022-03-18T09:30:14.000Z</time>
      </trkpt>
      <trkpt lat="49.59516" lon="5.59961">
        <ele>228.80000305176</ele>
        <time>2022-03-18T09:30:16.000Z</time>
      </trkpt>
      <trkpt lat="49.59515" lon="5.59935">
        <ele>228.80000305176</ele>
        <time>2022-03-18T09:30:19.000Z</time>
      </trkpt>
      <trkpt lat="49.59513" lon="5.5991">
        <ele>229.39999389648</ele>
        <time>2022-03-18T09:30:22.000Z</time>
      </trkpt>
      <trkpt lat="49.59511" lon="5.59885">
        <ele>231</ele>
        <time>2022-03-18T09:30:25.000Z</time>
      </trkpt>
      <trkpt lat="49.59505" lon="5.59842">
        <ele>233.80000305176</ele>
        <time>2022-03-18T09:30:30.000Z</time>
      </trkpt>
      <trkpt lat="49.59502" lon="5.59836">
        <ele>234</ele>
        <time>2022-03-18T09:30:31.000Z</time>
      </trkpt>
      <trkpt lat="49.59494" lon="5.59821">
        <ele>237.60000610352</ele>
        <time>2022-03-18T09:30:34.000Z</time>
      </trkpt>
      <trkpt lat="49.59495" lon="5.59815">
        <ele>238.80000305176</ele>
        <time>2022-03-18T09:30:35.000Z</time>
      </trkpt>
      <trkpt lat="49.59504" lon="5.59805">
        <ele>241</ele>
        <time>2022-03-18T09:30:38.000Z</time>
      </trkpt>
      <trkpt lat="49.59518" lon="5.59797">
        <ele>243.80000305176</ele>
        <time>2022-03-18T09:30:42.000Z</time>
      </trkpt>
      <trkpt lat="49.59526" lon="5.59793">
        <ele>244.19999694824</ele>
        <time>2022-03-18T09:30:44.000Z</time>
      </trkpt>
      <trkpt lat="49.59538" lon="5.59787">
        <ele>244.60000610352</ele>
        <time>2022-03-18T09:30:47.000Z</time>
      </trkpt>
      <trkpt lat="49.59551" lon="5.59781">
        <ele>243.19999694824</ele>
        <time>2022-03-18T09:30:50.000Z</time>
      </trkpt>
      <trkpt lat="49.59565" lon="5.59776">
        <ele>243.60000610352</ele>
        <time>2022-03-18T09:30:53.000Z</time>
      </trkpt>
      <trkpt lat="49.59579" lon="5.59768">
        <ele>245.39999389648</ele>
        <time>2022-03-18T09:30:56.000Z</time>
      </trkpt>
      <trkpt lat="49.5962" lon="5.59747">
        <ele>249.19999694824</ele>
        <time>2022-03-18T09:31:04.000Z</time>
      </trkpt>
      <trkpt lat="49.59673" lon="5.5972">
        <ele>250.60000610352</ele>
        <time>2022-03-18T09:31:14.000Z</time>
      </trkpt>
      <trkpt lat="49.59678" lon="5.59717">
        <ele>250.80000305176</ele>
        <time>2022-03-18T09:31:15.000Z</time>
      </trkpt>
      <trkpt lat="49.59721" lon="5.597">
        <ele>248</ele>
        <time>2022-03-18T09:31:23.000Z</time>
      </trkpt>
      <trkpt lat="49.59768" lon="5.5968">
        <ele>246</ele>
        <time>2022-03-18T09:31:32.000Z</time>
      </trkpt>
      <trkpt lat="49.59819" lon="5.59662">
        <ele>244.60000610352</ele>
        <time>2022-03-18T09:31:42.000Z</time>
      </trkpt>
      <trkpt lat="49.59858" lon="5.59647">
        <ele>247</ele>
        <time>2022-03-18T09:31:50.000Z</time>
      </trkpt>
      <trkpt lat="49.59908" lon="5.59628">
        <ele>247.60000610352</ele>
        <time>2022-03-18T09:32:00.000Z</time>
      </trkpt>
      <trkpt lat="49.59948" lon="5.59618">
        <ele>249.39999389648</ele>
        <time>2022-03-18T09:32:08.000Z</time>
      </trkpt>
      <trkpt lat="49.59962" lon="5.59616">
        <ele>250.60000610352</ele>
        <time>2022-03-18T09:32:11.000Z</time>
      </trkpt>
      <trkpt lat="49.59987" lon="5.59618">
        <ele>252</ele>
        <time>2022-03-18T09:32:16.000Z</time>
      </trkpt>
      <trkpt lat="49.6002" lon="5.59614">
        <ele>253.39999389648</ele>
        <time>2022-03-18T09:32:23.000Z</time>
      </trkpt>
      <trkpt lat="49.60024" lon="5.59612">
        <ele>253.60000610352</ele>
        <time>2022-03-18T09:32:24.000Z</time>
      </trkpt>
      <trkpt lat="49.60045" lon="5.59602">
        <ele>254.19999694824</ele>
        <time>2022-03-18T09:32:30.000Z</time>
      </trkpt>
      <trkpt lat="49.60051" lon="5.596">
        <ele>254</ele>
        <time>2022-03-18T09:32:32.000Z</time>
      </trkpt>
      <trkpt lat="49.6006" lon="5.59596">
        <ele>253.80000305176</ele>
        <time>2022-03-18T09:32:35.000Z</time>
      </trkpt>
      <trkpt lat="49.60065" lon="5.59592">
        <ele>254.19999694824</ele>
        <time>2022-03-18T09:32:37.000Z</time>
      </trkpt>
      <trkpt lat="49.60066" lon="5.59589">
        <ele>254.39999389648</ele>
        <time>2022-03-18T09:32:38.000Z</time>
      </trkpt>
      <trkpt lat="49.60065" lon="5.59579">
        <ele>255.39999389648</ele>
        <time>2022-03-18T09:32:41.000Z</time>
      </trkpt>
      <trkpt lat="49.60065" lon="5.59574">
        <ele>256</ele>
        <time>2022-03-18T09:32:43.000Z</time>
      </trkpt>
      <trkpt lat="49.60064" lon="5.59569">
        <ele>256.60000610352</ele>
        <time>2022-03-18T09:32:46.000Z</time>
      </trkpt>
      <trkpt lat="49.60066" lon="5.59566">
        <ele>257</ele>
        <time>2022-03-18T09:32:48.000Z</time>
      </trkpt>
      <trkpt lat="49.60067" lon="5.59563">
        <ele>257.20001220703</ele>
        <time>2022-03-18T09:32:50.000Z</time>
      </trkpt>
      <trkpt lat="49.60068" lon="5.59558">
        <ele>257.60000610352</ele>
        <time>2022-03-18T09:32:52.000Z</time>
      </trkpt>
      <trkpt lat="49.60069" lon="5.59553">
        <ele>258.20001220703</ele>
        <time>2022-03-18T09:32:54.000Z</time>
      </trkpt>
      <trkpt lat="49.6007" lon="5.59545">
        <ele>259</ele>
        <time>2022-03-18T09:32:57.000Z</time>
      </trkpt>
      <trkpt lat="49.60071" lon="5.59506">
        <ele>263.60000610352</ele>
        <time>2022-03-18T09:34:15.000Z</time>
      </trkpt>
      <trkpt lat="49.60071" lon="5.59504">
        <ele>263.79998779297</ele>
        <time>2022-03-18T09:34:16.000Z</time>
      </trkpt>
      <trkpt lat="49.6007" lon="5.59497">
        <ele>264.39999389648</ele>
        <time>2022-03-18T09:34:18.000Z</time>
      </trkpt>
      <trkpt lat="49.60068" lon="5.5949">
        <ele>265</ele>
        <time>2022-03-18T09:34:20.000Z</time>
      </trkpt>
      <trkpt lat="49.60068" lon="5.59487">
        <ele>265.20001220703</ele>
        <time>2022-03-18T09:34:21.000Z</time>
      </trkpt>
      <trkpt lat="49.60066" lon="5.59479">
        <ele>265.60000610352</ele>
        <time>2022-03-18T09:34:23.000Z</time>
      </trkpt>
      <trkpt lat="49.60068" lon="5.59466">
        <ele>266.20001220703</ele>
        <time>2022-03-18T09:34:26.000Z</time>
      </trkpt>
      <trkpt lat="49.60068" lon="5.59462">
        <ele>266.60000610352</ele>
        <time>2022-03-18T09:34:28.000Z</time>
      </trkpt>
      <trkpt lat="49.60067" lon="5.5946">
        <ele>266.79998779297</ele>
        <time>2022-03-18T09:34:29.000Z</time>
      </trkpt>
      <trkpt lat="49.60063" lon="5.59455">
        <ele>267.20001220703</ele>
        <time>2022-03-18T09:34:33.000Z</time>
      </trkpt>
      <trkpt lat="49.60061" lon="5.59452">
        <ele>267.60000610352</ele>
        <time>2022-03-18T09:34:35.000Z</time>
      </trkpt>
      <trkpt lat="49.60028" lon="5.59452">
        <ele>271</ele>
        <time>2022-03-18T09:34:52.000Z</time>
      </trkpt>
      <trkpt lat="49.60021" lon="5.59453">
        <ele>272</ele>
        <time>2022-03-18T09:34:54.000Z</time>
      </trkpt>
      <trkpt lat="49.60019" lon="5.59452">
        <ele>272.39999389648</ele>
        <time>2022-03-18T09:34:55.000Z</time>
      </trkpt>
      <trkpt lat="49.60011" lon="5.59448">
        <ele>273.79998779297</ele>
        <time>2022-03-18T09:34:58.000Z</time>
      </trkpt>
      <trkpt lat="49.60009" lon="5.59446">
        <ele>274.20001220703</ele>
        <time>2022-03-18T09:34:59.000Z</time>
      </trkpt>
      <trkpt lat="49.60007" lon="5.59442">
        <ele>274.79998779297</ele>
        <time>2022-03-18T09:35:01.000Z</time>
      </trkpt>
      <trkpt lat="49.60007" lon="5.5944">
        <ele>275</ele>
        <time>2022-03-18T09:35:02.000Z</time>
      </trkpt>
      <trkpt lat="49.60007" lon="5.5944">
        <ele>275</ele>
        <time>2022-03-18T09:35:04.000Z</time>
      </trkpt>
      <trkpt lat="49.6001" lon="5.59439">
        <ele>274.60000610352</ele>
        <time>2022-03-18T09:35:06.000Z</time>
      </trkpt>
      <trkpt lat="49.60024" lon="5.59434">
        <ele>272.60000610352</ele>
        <time>2022-03-18T09:35:13.000Z</time>
      </trkpt>
      <trkpt lat="49.60033" lon="5.59435">
        <ele>271.20001220703</ele>
        <time>2022-03-18T09:35:17.000Z</time>
      </trkpt>
      <trkpt lat="49.60036" lon="5.59435">
        <ele>270.79998779297</ele>
        <time>2022-03-18T09:35:18.000Z</time>
      </trkpt>
      <trkpt lat="49.60058" lon="5.59433">
        <ele>268.60000610352</ele>
        <time>2022-03-18T09:35:25.000Z</time>
      </trkpt>
      <trkpt lat="49.60061" lon="5.59433">
        <ele>268.39999389648</ele>
        <time>2022-03-18T09:35:26.000Z</time>
      </trkpt>
      <trkpt lat="49.60082" lon="5.59432">
        <ele>268</ele>
        <time>2022-03-18T09:35:32.000Z</time>
      </trkpt>
      <trkpt lat="49.60106" lon="5.59434">
        <ele>270</ele>
        <time>2022-03-18T09:35:39.000Z</time>
      </trkpt>
      <trkpt lat="49.60109" lon="5.59435">
        <ele>270</ele>
        <time>2022-03-18T09:35:40.000Z</time>
      </trkpt>
      <trkpt lat="49.60135" lon="5.59439">
        <ele>273.39999389648</ele>
        <time>2022-03-18T09:35:47.000Z</time>
      </trkpt>
      <trkpt lat="49.60166" lon="5.59443">
        <ele>278</ele>
        <time>2022-03-18T09:35:55.000Z</time>
      </trkpt>
      <trkpt lat="49.60187" lon="5.5945">
        <ele>280.20001220703</ele>
        <time>2022-03-18T09:36:02.000Z</time>
      </trkpt>
      <trkpt lat="49.60208" lon="5.59462">
        <ele>282</ele>
        <time>2022-03-18T09:36:09.000Z</time>
      </trkpt>
      <trkpt lat="49.60236" lon="5.59467">
        <ele>283.20001220703</ele>
        <time>2022-03-18T09:36:15.000Z</time>
      </trkpt>
      <trkpt lat="49.60246" lon="5.59469">
        <ele>282.60000610352</ele>
        <time>2022-03-18T09:36:17.000Z</time>
      </trkpt>
      <trkpt lat="49.60263" lon="5.5947">
        <ele>281.79998779297</ele>
        <time>2022-03-18T09:36:21.000Z</time>
      </trkpt>
      <trkpt lat="49.60272" lon="5.59471">
        <ele>281</ele>
        <time>2022-03-18T09:36:23.000Z</time>
      </trkpt>
      <trkpt lat="49.60306" lon="5.59465">
        <ele>279.79998779297</ele>
        <time>2022-03-18T09:36:31.000Z</time>
      </trkpt>
      <trkpt lat="49.60308" lon="5.59463">
        <ele>280.20001220703</ele>
        <time>2022-03-18T09:36:32.000Z</time>
      </trkpt>
      <trkpt lat="49.60313" lon="5.59455">
        <ele>281.20001220703</ele>
        <time>2022-03-18T09:36:34.000Z</time>
      </trkpt>
      <trkpt lat="49.60315" lon="5.59448">
        <ele>282</ele>
        <time>2022-03-18T09:36:35.000Z</time>
      </trkpt>
      <trkpt lat="49.60329" lon="5.59421">
        <ele>283.60000610352</ele>
        <time>2022-03-18T09:36:40.000Z</time>
      </trkpt>
      <trkpt lat="49.60345" lon="5.59414">
        <ele>282.20001220703</ele>
        <time>2022-03-18T09:36:44.000Z</time>
      </trkpt>
      <trkpt lat="49.60349" lon="5.59413">
        <ele>281.79998779297</ele>
        <time>2022-03-18T09:36:45.000Z</time>
      </trkpt>
      <trkpt lat="49.60357" lon="5.59412">
        <ele>280.79998779297</ele>
        <time>2022-03-18T09:36:47.000Z</time>
      </trkpt>
      <trkpt lat="49.60364" lon="5.59403">
        <ele>280.20001220703</ele>
        <time>2022-03-18T09:36:49.000Z</time>
      </trkpt>
      <trkpt lat="49.60369" lon="5.5939">
        <ele>280.79998779297</ele>
        <time>2022-03-18T09:36:51.000Z</time>
      </trkpt>
      <trkpt lat="49.60372" lon="5.59382">
        <ele>281.39999389648</ele>
        <time>2022-03-18T09:36:52.000Z</time>
      </trkpt>
      <trkpt lat="49.60374" lon="5.59375">
        <ele>282</ele>
        <time>2022-03-18T09:36:53.000Z</time>
      </trkpt>
      <trkpt lat="49.60376" lon="5.59346">
        <ele>283.39999389648</ele>
        <time>2022-03-18T09:36:56.000Z</time>
      </trkpt>
      <trkpt lat="49.60377" lon="5.59337">
        <ele>283.60000610352</ele>
        <time>2022-03-18T09:36:57.000Z</time>
      </trkpt>
      <trkpt lat="49.60377" lon="5.59297">
        <ele>285.20001220703</ele>
        <time>2022-03-18T09:37:01.000Z</time>
      </trkpt>
      <trkpt lat="49.60379" lon="5.59267">
        <ele>285</ele>
        <time>2022-03-18T09:37:04.000Z</time>
      </trkpt>
      <trkpt lat="49.6038" lon="5.59242">
        <ele>284.39999389648</ele>
        <time>2022-03-18T09:37:07.000Z</time>
      </trkpt>
      <trkpt lat="49.60381" lon="5.5922">
        <ele>284.20001220703</ele>
        <time>2022-03-18T09:37:10.000Z</time>
      </trkpt>
      <trkpt lat="49.60385" lon="5.59204">
        <ele>283.79998779297</ele>
        <time>2022-03-18T09:37:12.000Z</time>
      </trkpt>
      <trkpt lat="49.60392" lon="5.59175">
        <ele>283.79998779297</ele>
        <time>2022-03-18T09:37:15.000Z</time>
      </trkpt>
      <trkpt lat="49.60392" lon="5.59167">
        <ele>284</ele>
        <time>2022-03-18T09:37:16.000Z</time>
      </trkpt>
      <trkpt lat="49.6039" lon="5.59154">
        <ele>284.60000610352</ele>
        <time>2022-03-18T09:37:18.000Z</time>
      </trkpt>
      <trkpt lat="49.6039" lon="5.59146">
        <ele>285</ele>
        <time>2022-03-18T09:37:19.000Z</time>
      </trkpt>
      <trkpt lat="49.60389" lon="5.59139">
        <ele>285.20001220703</ele>
        <time>2022-03-18T09:37:20.000Z</time>
      </trkpt>
      <trkpt lat="49.60387" lon="5.59126">
        <ele>285.20001220703</ele>
        <time>2022-03-18T09:37:22.000Z</time>
      </trkpt>
      <trkpt lat="49.60386" lon="5.59093">
        <ele>285.20001220703</ele>
        <time>2022-03-18T09:37:27.000Z</time>
      </trkpt>
      <trkpt lat="49.60386" lon="5.59087">
        <ele>285.20001220703</ele>
        <time>2022-03-18T09:37:28.000Z</time>
      </trkpt>
      <trkpt lat="49.60386" lon="5.59079">
        <ele>285.79998779297</ele>
        <time>2022-03-18T09:37:29.000Z</time>
      </trkpt>
      <trkpt lat="49.60387" lon="5.59064">
        <ele>288</ele>
        <time>2022-03-18T09:37:31.000Z</time>
      </trkpt>
      <trkpt lat="49.60387" lon="5.59057">
        <ele>288.79998779297</ele>
        <time>2022-03-18T09:37:32.000Z</time>
      </trkpt>
      <trkpt lat="49.60388" lon="5.59044">
        <ele>291</ele>
        <time>2022-03-18T09:37:34.000Z</time>
      </trkpt>
      <trkpt lat="49.60384" lon="5.59028">
        <ele>293.20001220703</ele>
        <time>2022-03-18T09:37:37.000Z</time>
      </trkpt>
      <trkpt lat="49.60382" lon="5.59023">
        <ele>293.79998779297</ele>
        <time>2022-03-18T09:37:38.000Z</time>
      </trkpt>
      <trkpt lat="49.6038" lon="5.58998">
        <ele>297.39999389648</ele>
        <time>2022-03-18T09:37:42.000Z</time>
      </trkpt>
      <trkpt lat="49.6038" lon="5.58993">
        <ele>298</ele>
        <time>2022-03-18T09:37:43.000Z</time>
      </trkpt>
      <trkpt lat="49.60373" lon="5.58979">
        <ele>298.39999389648</ele>
        <time>2022-03-18T09:37:46.000Z</time>
      </trkpt>
      <trkpt lat="49.60369" lon="5.58967">
        <ele>298.60000610352</ele>
        <time>2022-03-18T09:37:49.000Z</time>
      </trkpt>
      <trkpt lat="49.60367" lon="5.58961">
        <ele>298.60000610352</ele>
        <time>2022-03-18T09:37:51.000Z</time>
      </trkpt>
      <trkpt lat="49.60352" lon="5.58951">
        <ele>297.39999389648</ele>
        <time>2022-03-18T09:37:56.000Z</time>
      </trkpt>
      <trkpt lat="49.60348" lon="5.58946">
        <ele>297.20001220703</ele>
        <time>2022-03-18T09:37:59.000Z</time>
      </trkpt>
      <trkpt lat="49.60345" lon="5.58939">
        <ele>297.20001220703</ele>
        <time>2022-03-18T09:38:02.000Z</time>
      </trkpt>
      <trkpt lat="49.60343" lon="5.58933">
        <ele>297.20001220703</ele>
        <time>2022-03-18T09:38:05.000Z</time>
      </trkpt>
      <trkpt lat="49.60339" lon="5.58926">
        <ele>297</ele>
        <time>2022-03-18T09:38:08.000Z</time>
      </trkpt>
      <trkpt lat="49.60337" lon="5.58919">
        <ele>297.20001220703</ele>
        <time>2022-03-18T09:38:10.000Z</time>
      </trkpt>
      <trkpt lat="49.60337" lon="5.58917">
        <ele>297.20001220703</ele>
        <time>2022-03-18T09:38:11.000Z</time>
      </trkpt>
      <trkpt lat="49.60334" lon="5.58899">
        <ele>297.60000610352</ele>
        <time>2022-03-18T09:38:14.000Z</time>
      </trkpt>
      <trkpt lat="49.60333" lon="5.58893">
        <ele>297.79998779297</ele>
        <time>2022-03-18T09:38:16.000Z</time>
      </trkpt>
      <trkpt lat="49.60332" lon="5.58888">
        <ele>298</ele>
        <time>2022-03-18T09:38:17.000Z</time>
      </trkpt>
      <trkpt lat="49.60331" lon="5.58882">
        <ele>298.39999389648</ele>
        <time>2022-03-18T09:38:19.000Z</time>
      </trkpt>
      <trkpt lat="49.60329" lon="5.58879">
        <ele>298.39999389648</ele>
        <time>2022-03-18T09:38:21.000Z</time>
      </trkpt>
      <trkpt lat="49.60328" lon="5.58877">
        <ele>298.39999389648</ele>
        <time>2022-03-18T09:38:22.000Z</time>
      </trkpt>
      <trkpt lat="49.60325" lon="5.58871">
        <ele>298.79998779297</ele>
        <time>2022-03-18T09:38:25.000Z</time>
      </trkpt>
      <trkpt lat="49.60321" lon="5.58852">
        <ele>300</ele>
        <time>2022-03-18T09:38:27.000Z</time>
      </trkpt>
      <trkpt lat="49.60319" lon="5.5885">
        <ele>300.20001220703</ele>
        <time>2022-03-18T09:38:28.000Z</time>
      </trkpt>
      <trkpt lat="49.60313" lon="5.58824">
        <ele>302.60000610352</ele>
        <time>2022-03-18T09:38:32.000Z</time>
      </trkpt>
      <trkpt lat="49.60309" lon="5.58806">
        <ele>304.20001220703</ele>
        <time>2022-03-18T09:38:34.000Z</time>
      </trkpt>
      <trkpt lat="49.60308" lon="5.588">
        <ele>304.60000610352</ele>
        <time>2022-03-18T09:38:35.000Z</time>
      </trkpt>
      <trkpt lat="49.60306" lon="5.58783">
        <ele>305.79998779297</ele>
        <time>2022-03-18T09:38:38.000Z</time>
      </trkpt>
      <trkpt lat="49.60303" lon="5.58772">
        <ele>307.20001220703</ele>
        <time>2022-03-18T09:38:40.000Z</time>
      </trkpt>
      <trkpt lat="49.603" lon="5.58764">
        <ele>308.39999389648</ele>
        <time>2022-03-18T09:38:42.000Z</time>
      </trkpt>
      <trkpt lat="49.60297" lon="5.58756">
        <ele>309.39999389648</ele>
        <time>2022-03-18T09:38:44.000Z</time>
      </trkpt>
      <trkpt lat="49.60282" lon="5.58726">
        <ele>313</ele>
        <time>2022-03-18T09:39:01.000Z</time>
      </trkpt>
      <trkpt lat="49.6028" lon="5.58722">
        <ele>313.39999389648</ele>
        <time>2022-03-18T09:39:03.000Z</time>
      </trkpt>
      <trkpt lat="49.60277" lon="5.58715">
        <ele>314.39999389648</ele>
        <time>2022-03-18T09:39:05.000Z</time>
      </trkpt>
      <trkpt lat="49.60269" lon="5.587">
        <ele>316</ele>
        <time>2022-03-18T09:39:09.000Z</time>
      </trkpt>
      <trkpt lat="49.6026" lon="5.58684">
        <ele>316.20001220703</ele>
        <time>2022-03-18T09:39:15.000Z</time>
      </trkpt>
      <trkpt lat="49.60257" lon="5.5868">
        <ele>316</ele>
        <time>2022-03-18T09:39:17.000Z</time>
      </trkpt>
      <trkpt lat="49.60252" lon="5.58678">
        <ele>315.60000610352</ele>
        <time>2022-03-18T09:39:20.000Z</time>
      </trkpt>
      <trkpt lat="49.6024" lon="5.58673">
        <ele>315.79998779297</ele>
        <time>2022-03-18T09:39:24.000Z</time>
      </trkpt>
      <trkpt lat="49.60222" lon="5.58671">
        <ele>316.20001220703</ele>
        <time>2022-03-18T09:39:26.000Z</time>
      </trkpt>
      <trkpt lat="49.60187" lon="5.58641">
        <ele>315.60000610352</ele>
        <time>2022-03-18T09:39:31.000Z</time>
      </trkpt>
      <trkpt lat="49.6018" lon="5.5862">
        <ele>314.79998779297</ele>
        <time>2022-03-18T09:39:34.000Z</time>
      </trkpt>
      <trkpt lat="49.60177" lon="5.58612">
        <ele>314.60000610352</ele>
        <time>2022-03-18T09:39:35.000Z</time>
      </trkpt>
      <trkpt lat="49.60176" lon="5.58601">
        <ele>314.39999389648</ele>
        <time>2022-03-18T09:39:36.000Z</time>
      </trkpt>
      <trkpt lat="49.60178" lon="5.58587">
        <ele>314.39999389648</ele>
        <time>2022-03-18T09:39:38.000Z</time>
      </trkpt>
      <trkpt lat="49.60179" lon="5.58582">
        <ele>314.20001220703</ele>
        <time>2022-03-18T09:39:39.000Z</time>
      </trkpt>
      <trkpt lat="49.60187" lon="5.58572">
        <ele>314.39999389648</ele>
        <time>2022-03-18T09:39:42.000Z</time>
      </trkpt>
      <trkpt lat="49.6021" lon="5.58532">
        <ele>316</ele>
        <time>2022-03-18T09:39:50.000Z</time>
      </trkpt>
      <trkpt lat="49.60231" lon="5.58507">
        <ele>317</ele>
        <time>2022-03-18T09:39:57.000Z</time>
      </trkpt>
      <trkpt lat="49.60235" lon="5.58502">
        <ele>317</ele>
        <time>2022-03-18T09:39:58.000Z</time>
      </trkpt>
      <trkpt lat="49.60245" lon="5.58484">
        <ele>317</ele>
        <time>2022-03-18T09:40:02.000Z</time>
      </trkpt>
      <trkpt lat="49.60251" lon="5.58473">
        <ele>317.79998779297</ele>
        <time>2022-03-18T09:40:04.000Z</time>
      </trkpt>
      <trkpt lat="49.6026" lon="5.58451">
        <ele>318.39999389648</ele>
        <time>2022-03-18T09:40:07.000Z</time>
      </trkpt>
      <trkpt lat="49.60269" lon="5.58434">
        <ele>319.20001220703</ele>
        <time>2022-03-18T09:40:10.000Z</time>
      </trkpt>
      <trkpt lat="49.60272" lon="5.58428">
        <ele>319.39999389648</ele>
        <time>2022-03-18T09:40:11.000Z</time>
      </trkpt>
      <trkpt lat="49.60283" lon="5.58402">
        <ele>319.60000610352</ele>
        <time>2022-03-18T09:40:17.000Z</time>
      </trkpt>
      <trkpt lat="49.60304" lon="5.58372">
        <ele>319.39999389648</ele>
        <time>2022-03-18T09:40:20.000Z</time>
      </trkpt>
      <trkpt lat="49.60315" lon="5.58358">
        <ele>319.60000610352</ele>
        <time>2022-03-18T09:40:22.000Z</time>
      </trkpt>
      <trkpt lat="49.60318" lon="5.58352">
        <ele>319.39999389648</ele>
        <time>2022-03-18T09:40:23.000Z</time>
      </trkpt>
      <trkpt lat="49.6032" lon="5.58338">
        <ele>318.79998779297</ele>
        <time>2022-03-18T09:40:25.000Z</time>
      </trkpt>
      <trkpt lat="49.6032" lon="5.58333">
        <ele>318.39999389648</ele>
        <time>2022-03-18T09:40:26.000Z</time>
      </trkpt>
      <trkpt lat="49.6032" lon="5.58318">
        <ele>317.39999389648</ele>
        <time>2022-03-18T09:40:29.000Z</time>
      </trkpt>
      <trkpt lat="49.60318" lon="5.58308">
        <ele>316.39999389648</ele>
        <time>2022-03-18T09:40:31.000Z</time>
      </trkpt>
      <trkpt lat="49.60315" lon="5.58278">
        <ele>314.39999389648</ele>
        <time>2022-03-18T09:40:37.000Z</time>
      </trkpt>
      <trkpt lat="49.60305" lon="5.58252">
        <ele>312.79998779297</ele>
        <time>2022-03-18T09:40:43.000Z</time>
      </trkpt>
      <trkpt lat="49.60298" lon="5.58243">
        <ele>313</ele>
        <time>2022-03-18T09:40:45.000Z</time>
      </trkpt>
      <trkpt lat="49.60293" lon="5.58234">
        <ele>313.20001220703</ele>
        <time>2022-03-18T09:40:47.000Z</time>
      </trkpt>
      <trkpt lat="49.6029" lon="5.58223">
        <ele>313.79998779297</ele>
        <time>2022-03-18T09:40:49.000Z</time>
      </trkpt>
      <trkpt lat="49.6029" lon="5.58217">
        <ele>314.20001220703</ele>
        <time>2022-03-18T09:40:50.000Z</time>
      </trkpt>
      <trkpt lat="49.60287" lon="5.58191">
        <ele>315.60000610352</ele>
        <time>2022-03-18T09:40:54.000Z</time>
      </trkpt>
      <trkpt lat="49.60285" lon="5.58186">
        <ele>315.79998779297</ele>
        <time>2022-03-18T09:40:55.000Z</time>
      </trkpt>
      <trkpt lat="49.60281" lon="5.58181">
        <ele>315.60000610352</ele>
        <time>2022-03-18T09:40:57.000Z</time>
      </trkpt>
      <trkpt lat="49.60273" lon="5.58167">
        <ele>315.20001220703</ele>
        <time>2022-03-18T09:41:01.000Z</time>
      </trkpt>
      <trkpt lat="49.6027" lon="5.58157">
        <ele>314.79998779297</ele>
        <time>2022-03-18T09:41:03.000Z</time>
      </trkpt>
      <trkpt lat="49.60265" lon="5.58151">
        <ele>314.20001220703</ele>
        <time>2022-03-18T09:41:05.000Z</time>
      </trkpt>
      <trkpt lat="49.60259" lon="5.58147">
        <ele>313.60000610352</ele>
        <time>2022-03-18T09:41:07.000Z</time>
      </trkpt>
      <trkpt lat="49.60253" lon="5.58139">
        <ele>313</ele>
        <time>2022-03-18T09:41:10.000Z</time>
      </trkpt>
      <trkpt lat="49.60251" lon="5.58136">
        <ele>312.79998779297</ele>
        <time>2022-03-18T09:41:11.000Z</time>
      </trkpt>
      <trkpt lat="49.60234" lon="5.58115">
        <ele>311.60000610352</ele>
        <time>2022-03-18T09:41:16.000Z</time>
      </trkpt>
      <trkpt lat="49.60225" lon="5.58099">
        <ele>311</ele>
        <time>2022-03-18T09:41:19.000Z</time>
      </trkpt>
      <trkpt lat="49.60217" lon="5.58086">
        <ele>310.20001220703</ele>
        <time>2022-03-18T09:41:21.000Z</time>
      </trkpt>
      <trkpt lat="49.60213" lon="5.5808">
        <ele>309.79998779297</ele>
        <time>2022-03-18T09:41:22.000Z</time>
      </trkpt>
      <trkpt lat="49.60209" lon="5.58074">
        <ele>309.20001220703</ele>
        <time>2022-03-18T09:41:23.000Z</time>
      </trkpt>
      <trkpt lat="49.60202" lon="5.58065">
        <ele>308.60000610352</ele>
        <time>2022-03-18T09:41:25.000Z</time>
      </trkpt>
      <trkpt lat="49.60199" lon="5.58059">
        <ele>308.20001220703</ele>
        <time>2022-03-18T09:41:26.000Z</time>
      </trkpt>
      <trkpt lat="49.60195" lon="5.58049">
        <ele>307.39999389648</ele>
        <time>2022-03-18T09:41:28.000Z</time>
      </trkpt>
      <trkpt lat="49.60192" lon="5.58034">
        <ele>306.39999389648</ele>
        <time>2022-03-18T09:41:30.000Z</time>
      </trkpt>
      <trkpt lat="49.6019" lon="5.58029">
        <ele>306</ele>
        <time>2022-03-18T09:41:31.000Z</time>
      </trkpt>
      <trkpt lat="49.60189" lon="5.58024">
        <ele>306</ele>
        <time>2022-03-18T09:41:32.000Z</time>
      </trkpt>
      <trkpt lat="49.60189" lon="5.58015">
        <ele>306</ele>
        <time>2022-03-18T09:41:34.000Z</time>
      </trkpt>
      <trkpt lat="49.60188" lon="5.5801">
        <ele>306</ele>
        <time>2022-03-18T09:41:35.000Z</time>
      </trkpt>
      <trkpt lat="49.60189" lon="5.57989">
        <ele>305.79998779297</ele>
        <time>2022-03-18T09:41:38.000Z</time>
      </trkpt>
      <trkpt lat="49.60188" lon="5.57972">
        <ele>304.60000610352</ele>
        <time>2022-03-18T09:41:40.000Z</time>
      </trkpt>
      <trkpt lat="49.60188" lon="5.57963">
        <ele>304.20001220703</ele>
        <time>2022-03-18T09:41:41.000Z</time>
      </trkpt>
      <trkpt lat="49.60186" lon="5.57936">
        <ele>302.60000610352</ele>
        <time>2022-03-18T09:41:44.000Z</time>
      </trkpt>
      <trkpt lat="49.60187" lon="5.57931">
        <ele>302.39999389648</ele>
        <time>2022-03-18T09:41:45.000Z</time>
      </trkpt>
      <trkpt lat="49.60188" lon="5.57926">
        <ele>302.20001220703</ele>
        <time>2022-03-18T09:41:46.000Z</time>
      </trkpt>
      <trkpt lat="49.60189" lon="5.57924">
        <ele>302.20001220703</ele>
        <time>2022-03-18T09:41:47.000Z</time>
      </trkpt>
      <trkpt lat="49.60191" lon="5.5792">
        <ele>302</ele>
        <time>2022-03-18T09:41:49.000Z</time>
      </trkpt>
      <trkpt lat="49.60195" lon="5.57917">
        <ele>302</ele>
        <time>2022-03-18T09:41:51.000Z</time>
      </trkpt>
      <trkpt lat="49.60201" lon="5.57913">
        <ele>301.79998779297</ele>
        <time>2022-03-18T09:41:54.000Z</time>
      </trkpt>
      <trkpt lat="49.60214" lon="5.57904">
        <ele>301.39999389648</ele>
        <time>2022-03-18T09:41:59.000Z</time>
      </trkpt>
      <trkpt lat="49.60217" lon="5.57901">
        <ele>301</ele>
        <time>2022-03-18T09:42:00.000Z</time>
      </trkpt>
      <trkpt lat="49.60219" lon="5.57896">
        <ele>300.60000610352</ele>
        <time>2022-03-18T09:42:01.000Z</time>
      </trkpt>
      <trkpt lat="49.60225" lon="5.57885">
        <ele>299.60000610352</ele>
        <time>2022-03-18T09:42:03.000Z</time>
      </trkpt>
      <trkpt lat="49.60233" lon="5.57867">
        <ele>297.20001220703</ele>
        <time>2022-03-18T09:42:06.000Z</time>
      </trkpt>
      <trkpt lat="49.60236" lon="5.57856">
        <ele>295.20001220703</ele>
        <time>2022-03-18T09:42:08.000Z</time>
      </trkpt>
      <trkpt lat="49.60236" lon="5.57844">
        <ele>293.20001220703</ele>
        <time>2022-03-18T09:42:10.000Z</time>
      </trkpt>
      <trkpt lat="49.60234" lon="5.57839">
        <ele>292.79998779297</ele>
        <time>2022-03-18T09:42:11.000Z</time>
      </trkpt>
      <trkpt lat="49.60231" lon="5.57835">
        <ele>292.39999389648</ele>
        <time>2022-03-18T09:42:12.000Z</time>
      </trkpt>
      <trkpt lat="49.60227" lon="5.57828">
        <ele>291.39999389648</ele>
        <time>2022-03-18T09:42:14.000Z</time>
      </trkpt>
      <trkpt lat="49.60221" lon="5.57825">
        <ele>290.60000610352</ele>
        <time>2022-03-18T09:42:16.000Z</time>
      </trkpt>
      <trkpt lat="49.60218" lon="5.57825">
        <ele>290.39999389648</ele>
        <time>2022-03-18T09:42:17.000Z</time>
      </trkpt>
      <trkpt lat="49.60214" lon="5.57824">
        <ele>290</ele>
        <time>2022-03-18T09:42:18.000Z</time>
      </trkpt>
      <trkpt lat="49.60209" lon="5.57822">
        <ele>289.39999389648</ele>
        <time>2022-03-18T09:42:19.000Z</time>
      </trkpt>
      <trkpt lat="49.60204" lon="5.5782">
        <ele>288.79998779297</ele>
        <time>2022-03-18T09:42:20.000Z</time>
      </trkpt>
      <trkpt lat="49.60198" lon="5.57819">
        <ele>288.20001220703</ele>
        <time>2022-03-18T09:42:21.000Z</time>
      </trkpt>
      <trkpt lat="49.60192" lon="5.57818">
        <ele>287.39999389648</ele>
        <time>2022-03-18T09:42:22.000Z</time>
      </trkpt>
      <trkpt lat="49.60175" lon="5.57815">
        <ele>285</ele>
        <time>2022-03-18T09:42:24.000Z</time>
      </trkpt>
      <trkpt lat="49.60165" lon="5.57814">
        <ele>284</ele>
        <time>2022-03-18T09:42:25.000Z</time>
      </trkpt>
      <trkpt lat="49.60153" lon="5.57812">
        <ele>282.79998779297</ele>
        <time>2022-03-18T09:42:26.000Z</time>
      </trkpt>
      <trkpt lat="49.60143" lon="5.5781">
        <ele>281.60000610352</ele>
        <time>2022-03-18T09:42:27.000Z</time>
      </trkpt>
      <trkpt lat="49.60134" lon="5.57806">
        <ele>280.20001220703</ele>
        <time>2022-03-18T09:42:28.000Z</time>
      </trkpt>
      <trkpt lat="49.60118" lon="5.57798">
        <ele>278.20001220703</ele>
        <time>2022-03-18T09:42:30.000Z</time>
      </trkpt>
      <trkpt lat="49.60104" lon="5.57789">
        <ele>276</ele>
        <time>2022-03-18T09:42:32.000Z</time>
      </trkpt>
      <trkpt lat="49.6009" lon="5.57781">
        <ele>273.60000610352</ele>
        <time>2022-03-18T09:42:34.000Z</time>
      </trkpt>
      <trkpt lat="49.60083" lon="5.57777">
        <ele>272.20001220703</ele>
        <time>2022-03-18T09:42:35.000Z</time>
      </trkpt>
      <trkpt lat="49.60077" lon="5.57771">
        <ele>270.39999389648</ele>
        <time>2022-03-18T09:42:36.000Z</time>
      </trkpt>
      <trkpt lat="49.60064" lon="5.57764">
        <ele>267.20001220703</ele>
        <time>2022-03-18T09:42:38.000Z</time>
      </trkpt>
      <trkpt lat="49.60052" lon="5.57758">
        <ele>265</ele>
        <time>2022-03-18T09:42:40.000Z</time>
      </trkpt>
      <trkpt lat="49.60043" lon="5.57753">
        <ele>263.39999389648</ele>
        <time>2022-03-18T09:42:42.000Z</time>
      </trkpt>
      <trkpt lat="49.60034" lon="5.57749">
        <ele>262.60000610352</ele>
        <time>2022-03-18T09:42:44.000Z</time>
      </trkpt>
      <trkpt lat="49.60029" lon="5.57746">
        <ele>262.20001220703</ele>
        <time>2022-03-18T09:42:46.000Z</time>
      </trkpt>
      <trkpt lat="49.60026" lon="5.57743">
        <ele>262.39999389648</ele>
        <time>2022-03-18T09:42:48.000Z</time>
      </trkpt>
      <trkpt lat="49.60013" lon="5.57729">
        <ele>263.39999389648</ele>
        <time>2022-03-18T09:42:53.000Z</time>
      </trkpt>
      <trkpt lat="49.59994" lon="5.57702">
        <ele>267.39999389648</ele>
        <time>2022-03-18T09:43:00.000Z</time>
      </trkpt>
      <trkpt lat="49.59983" lon="5.57696">
        <ele>268.79998779297</ele>
        <time>2022-03-18T09:43:05.000Z</time>
      </trkpt>
      <trkpt lat="49.59924" lon="5.57709">
        <ele>267.20001220703</ele>
        <time>2022-03-18T09:43:06.000Z</time>
      </trkpt>
      <trkpt lat="49.5992" lon="5.57705">
        <ele>267.39999389648</ele>
        <time>2022-03-18T09:43:07.000Z</time>
      </trkpt>
      <trkpt lat="49.59904" lon="5.57695">
        <ele>267.60000610352</ele>
        <time>2022-03-18T09:43:11.000Z</time>
      </trkpt>
      <trkpt lat="49.59898" lon="5.57693">
        <ele>267.79998779297</ele>
        <time>2022-03-18T09:43:12.000Z</time>
      </trkpt>
      <trkpt lat="49.59889" lon="5.57694">
        <ele>267.20001220703</ele>
        <time>2022-03-18T09:43:13.000Z</time>
      </trkpt>
      <trkpt lat="49.59883" lon="5.5769">
        <ele>267.39999389648</ele>
        <time>2022-03-18T09:43:14.000Z</time>
      </trkpt>
      <trkpt lat="49.59878" lon="5.57688">
        <ele>267.39999389648</ele>
        <time>2022-03-18T09:43:15.000Z</time>
      </trkpt>
      <trkpt lat="49.59867" lon="5.57684">
        <ele>267.60000610352</ele>
        <time>2022-03-18T09:43:17.000Z</time>
      </trkpt>
      <trkpt lat="49.59849" lon="5.5767">
        <ele>266.20001220703</ele>
        <time>2022-03-18T09:43:20.000Z</time>
      </trkpt>
      <trkpt lat="49.59832" lon="5.57653">
        <ele>264.60000610352</ele>
        <time>2022-03-18T09:43:23.000Z</time>
      </trkpt>
      <trkpt lat="49.59822" lon="5.57642">
        <ele>264.39999389648</ele>
        <time>2022-03-18T09:43:25.000Z</time>
      </trkpt>
      <trkpt lat="49.59818" lon="5.57636">
        <ele>264.20001220703</ele>
        <time>2022-03-18T09:43:26.000Z</time>
      </trkpt>
      <trkpt lat="49.598" lon="5.57609">
        <ele>263.39999389648</ele>
        <time>2022-03-18T09:43:30.000Z</time>
      </trkpt>
      <trkpt lat="49.59796" lon="5.57603">
        <ele>263.20001220703</ele>
        <time>2022-03-18T09:43:31.000Z</time>
      </trkpt>
      <trkpt lat="49.59787" lon="5.57588">
        <ele>262.60000610352</ele>
        <time>2022-03-18T09:43:33.000Z</time>
      </trkpt>
      <trkpt lat="49.59774" lon="5.57569">
        <ele>262.79998779297</ele>
        <time>2022-03-18T09:43:36.000Z</time>
      </trkpt>
      <trkpt lat="49.5977" lon="5.57563">
        <ele>262.79998779297</ele>
        <time>2022-03-18T09:43:37.000Z</time>
      </trkpt>
      <trkpt lat="49.59756" lon="5.57546">
        <ele>263.79998779297</ele>
        <time>2022-03-18T09:43:40.000Z</time>
      </trkpt>
      <trkpt lat="49.59733" lon="5.57521">
        <ele>267</ele>
        <time>2022-03-18T09:43:45.000Z</time>
      </trkpt>
      <trkpt lat="49.59705" lon="5.57498">
        <ele>269.20001220703</ele>
        <time>2022-03-18T09:43:51.000Z</time>
      </trkpt>
      <trkpt lat="49.59627" lon="5.5752">
        <ele>260.20001220703</ele>
        <time>2022-03-18T09:43:55.000Z</time>
      </trkpt>
      <trkpt lat="49.59624" lon="5.57516">
        <ele>259.79998779297</ele>
        <time>2022-03-18T09:43:56.000Z</time>
      </trkpt>
      <trkpt lat="49.59617" lon="5.57505">
        <ele>259.20001220703</ele>
        <time>2022-03-18T09:43:58.000Z</time>
      </trkpt>
      <trkpt lat="49.59598" lon="5.57482">
        <ele>260.79998779297</ele>
        <time>2022-03-18T09:44:02.000Z</time>
      </trkpt>
      <trkpt lat="49.59574" lon="5.57443">
        <ele>260.20001220703</ele>
        <time>2022-03-18T09:44:07.000Z</time>
      </trkpt>
      <trkpt lat="49.5957" lon="5.57438">
        <ele>260</ele>
        <time>2022-03-18T09:44:08.000Z</time>
      </trkpt>
      <trkpt lat="49.59575" lon="5.57432">
        <ele>259.60000610352</ele>
        <time>2022-03-18T09:44:10.000Z</time>
      </trkpt>
      <trkpt lat="49.59584" lon="5.57428">
        <ele>260</ele>
        <time>2022-03-18T09:44:13.000Z</time>
      </trkpt>
      <trkpt lat="49.59587" lon="5.57427">
        <ele>260</ele>
        <time>2022-03-18T09:44:14.000Z</time>
      </trkpt>
      <trkpt lat="49.59596" lon="5.5742">
        <ele>260.20001220703</ele>
        <time>2022-03-18T09:44:18.000Z</time>
      </trkpt>
      <trkpt lat="49.59606" lon="5.57416">
        <ele>261</ele>
        <time>2022-03-18T09:44:22.000Z</time>
      </trkpt>
      <trkpt lat="49.59613" lon="5.57413">
        <ele>261.39999389648</ele>
        <time>2022-03-18T09:44:25.000Z</time>
      </trkpt>
      <trkpt lat="49.59618" lon="5.57408">
        <ele>262.20001220703</ele>
        <time>2022-03-18T09:44:27.000Z</time>
      </trkpt>
      <trkpt lat="49.59628" lon="5.57398">
        <ele>263.79998779297</ele>
        <time>2022-03-18T09:44:31.000Z</time>
      </trkpt>
      <trkpt lat="49.59639" lon="5.57384">
        <ele>265</ele>
        <time>2022-03-18T09:44:36.000Z</time>
      </trkpt>
      <trkpt lat="49.59642" lon="5.57382">
        <ele>265</ele>
        <time>2022-03-18T09:44:37.000Z</time>
      </trkpt>
      <trkpt lat="49.59646" lon="5.57381">
        <ele>265.20001220703</ele>
        <time>2022-03-18T09:44:40.000Z</time>
      </trkpt>
      <trkpt lat="49.59657" lon="5.57378">
        <ele>265.60000610352</ele>
        <time>2022-03-18T09:44:46.000Z</time>
      </trkpt>
      <trkpt lat="49.59661" lon="5.57375">
        <ele>265.39999389648</ele>
        <time>2022-03-18T09:44:48.000Z</time>
      </trkpt>
      <trkpt lat="49.59666" lon="5.57374">
        <ele>265.39999389648</ele>
        <time>2022-03-18T09:44:50.000Z</time>
      </trkpt>
      <trkpt lat="49.5967" lon="5.57369">
        <ele>265.39999389648</ele>
        <time>2022-03-18T09:44:52.000Z</time>
      </trkpt>
      <trkpt lat="49.59679" lon="5.57363">
        <ele>266.39999389648</ele>
        <time>2022-03-18T09:44:55.000Z</time>
      </trkpt>
      <trkpt lat="49.59685" lon="5.57358">
        <ele>267</ele>
        <time>2022-03-18T09:44:57.000Z</time>
      </trkpt>
      <trkpt lat="49.5969" lon="5.57354">
        <ele>267.60000610352</ele>
        <time>2022-03-18T09:44:59.000Z</time>
      </trkpt>
      <trkpt lat="49.59695" lon="5.57349">
        <ele>267.79998779297</ele>
        <time>2022-03-18T09:45:01.000Z</time>
      </trkpt>
      <trkpt lat="49.59712" lon="5.57343">
        <ele>271.39999389648</ele>
        <time>2022-03-18T09:45:07.000Z</time>
      </trkpt>
      <trkpt lat="49.59722" lon="5.57341">
        <ele>273.60000610352</ele>
        <time>2022-03-18T09:45:09.000Z</time>
      </trkpt>
      <trkpt lat="49.59725" lon="5.57341">
        <ele>274.60000610352</ele>
        <time>2022-03-18T09:45:10.000Z</time>
      </trkpt>
      <trkpt lat="49.59728" lon="5.57342">
        <ele>275.20001220703</ele>
        <time>2022-03-18T09:45:11.000Z</time>
      </trkpt>
      <trkpt lat="49.59731" lon="5.57343">
        <ele>275.79998779297</ele>
        <time>2022-03-18T09:45:12.000Z</time>
      </trkpt>
      <trkpt lat="49.59735" lon="5.57344">
        <ele>276.79998779297</ele>
        <time>2022-03-18T09:45:14.000Z</time>
      </trkpt>
      <trkpt lat="49.59742" lon="5.57346">
        <ele>278.20001220703</ele>
        <time>2022-03-18T09:45:16.000Z</time>
      </trkpt>
      <trkpt lat="49.59749" lon="5.5735">
        <ele>280</ele>
        <time>2022-03-18T09:45:19.000Z</time>
      </trkpt>
      <trkpt lat="49.59754" lon="5.57354">
        <ele>281</ele>
        <time>2022-03-18T09:45:22.000Z</time>
      </trkpt>
      <trkpt lat="49.59759" lon="5.57357">
        <ele>281.79998779297</ele>
        <time>2022-03-18T09:45:25.000Z</time>
      </trkpt>
      <trkpt lat="49.59761" lon="5.57358">
        <ele>282</ele>
        <time>2022-03-18T09:45:26.000Z</time>
      </trkpt>
      <trkpt lat="49.59768" lon="5.57363">
        <ele>283</ele>
        <time>2022-03-18T09:45:29.000Z</time>
      </trkpt>
      <trkpt lat="49.59777" lon="5.57373">
        <ele>284.20001220703</ele>
        <time>2022-03-18T09:45:33.000Z</time>
      </trkpt>
      <trkpt lat="49.59782" lon="5.5738">
        <ele>284.79998779297</ele>
        <time>2022-03-18T09:45:36.000Z</time>
      </trkpt>
      <trkpt lat="49.59787" lon="5.5739">
        <ele>285.39999389648</ele>
        <time>2022-03-18T09:45:40.000Z</time>
      </trkpt>
      <trkpt lat="49.59795" lon="5.57397">
        <ele>286</ele>
        <time>2022-03-18T09:45:44.000Z</time>
      </trkpt>
      <trkpt lat="49.59798" lon="5.574">
        <ele>286.20001220703</ele>
        <time>2022-03-18T09:45:46.000Z</time>
      </trkpt>
      <trkpt lat="49.59802" lon="5.57403">
        <ele>286.60000610352</ele>
        <time>2022-03-18T09:45:48.000Z</time>
      </trkpt>
      <trkpt lat="49.59812" lon="5.57409">
        <ele>287.60000610352</ele>
        <time>2022-03-18T09:45:53.000Z</time>
      </trkpt>
      <trkpt lat="49.59813" lon="5.57411">
        <ele>287.79998779297</ele>
        <time>2022-03-18T09:45:54.000Z</time>
      </trkpt>
      <trkpt lat="49.59823" lon="5.57415">
        <ele>289.60000610352</ele>
        <time>2022-03-18T09:45:57.000Z</time>
      </trkpt>
      <trkpt lat="49.59829" lon="5.57418">
        <ele>290.79998779297</ele>
        <time>2022-03-18T09:45:59.000Z</time>
      </trkpt>
      <trkpt lat="49.59837" lon="5.57424">
        <ele>292.20001220703</ele>
        <time>2022-03-18T09:46:03.000Z</time>
      </trkpt>
      <trkpt lat="49.59847" lon="5.57429">
        <ele>293.20001220703</ele>
        <time>2022-03-18T09:46:07.000Z</time>
      </trkpt>
      <trkpt lat="49.59853" lon="5.57432">
        <ele>294</ele>
        <time>2022-03-18T09:46:09.000Z</time>
      </trkpt>
      <trkpt lat="49.59864" lon="5.57437">
        <ele>295.39999389648</ele>
        <time>2022-03-18T09:46:13.000Z</time>
      </trkpt>
      <trkpt lat="49.59881" lon="5.57439">
        <ele>296.60000610352</ele>
        <time>2022-03-18T09:46:18.000Z</time>
      </trkpt>
      <trkpt lat="49.59884" lon="5.57439">
        <ele>296.79998779297</ele>
        <time>2022-03-18T09:46:19.000Z</time>
      </trkpt>
      <trkpt lat="49.59894" lon="5.57437">
        <ele>297.60000610352</ele>
        <time>2022-03-18T09:46:22.000Z</time>
      </trkpt>
      <trkpt lat="49.59901" lon="5.57436">
        <ele>298</ele>
        <time>2022-03-18T09:46:24.000Z</time>
      </trkpt>
      <trkpt lat="49.5991" lon="5.57436">
        <ele>298.79998779297</ele>
        <time>2022-03-18T09:46:27.000Z</time>
      </trkpt>
      <trkpt lat="49.59919" lon="5.57434">
        <ele>299.39999389648</ele>
        <time>2022-03-18T09:46:30.000Z</time>
      </trkpt>
      <trkpt lat="49.59921" lon="5.57433">
        <ele>299.60000610352</ele>
        <time>2022-03-18T09:46:31.000Z</time>
      </trkpt>
      <trkpt lat="49.59934" lon="5.57431">
        <ele>300.60000610352</ele>
        <time>2022-03-18T09:46:35.000Z</time>
      </trkpt>
      <trkpt lat="49.59944" lon="5.57428">
        <ele>301.39999389648</ele>
        <time>2022-03-18T09:46:38.000Z</time>
      </trkpt>
      <trkpt lat="49.59948" lon="5.57425">
        <ele>301.79998779297</ele>
        <time>2022-03-18T09:46:39.000Z</time>
      </trkpt>
      <trkpt lat="49.59963" lon="5.57415">
        <ele>303.79998779297</ele>
        <time>2022-03-18T09:46:43.000Z</time>
      </trkpt>
      <trkpt lat="49.59967" lon="5.57412">
        <ele>304.20001220703</ele>
        <time>2022-03-18T09:46:44.000Z</time>
      </trkpt>
      <trkpt lat="49.59974" lon="5.57409">
        <ele>304.79998779297</ele>
        <time>2022-03-18T09:46:46.000Z</time>
      </trkpt>
      <trkpt lat="49.59984" lon="5.57399">
        <ele>305.39999389648</ele>
        <time>2022-03-18T09:46:49.000Z</time>
      </trkpt>
      <trkpt lat="49.5999" lon="5.5739">
        <ele>305.39999389648</ele>
        <time>2022-03-18T09:46:51.000Z</time>
      </trkpt>
      <trkpt lat="49.59994" lon="5.57384">
        <ele>305.20001220703</ele>
        <time>2022-03-18T09:46:52.000Z</time>
      </trkpt>
      <trkpt lat="49.60006" lon="5.57371">
        <ele>305.39999389648</ele>
        <time>2022-03-18T09:46:55.000Z</time>
      </trkpt>
      <trkpt lat="49.60012" lon="5.57363">
        <ele>305.60000610352</ele>
        <time>2022-03-18T09:46:57.000Z</time>
      </trkpt>
      <trkpt lat="49.6002" lon="5.57356">
        <ele>306</ele>
        <time>2022-03-18T09:46:59.000Z</time>
      </trkpt>
      <trkpt lat="49.6003" lon="5.57349">
        <ele>306.39999389648</ele>
        <time>2022-03-18T09:47:02.000Z</time>
      </trkpt>
      <trkpt lat="49.60033" lon="5.57345">
        <ele>306.60000610352</ele>
        <time>2022-03-18T09:47:03.000Z</time>
      </trkpt>
      <trkpt lat="49.60041" lon="5.57332">
        <ele>307.60000610352</ele>
        <time>2022-03-18T09:47:06.000Z</time>
      </trkpt>
      <trkpt lat="49.60043" lon="5.57327">
        <ele>308.20001220703</ele>
        <time>2022-03-18T09:47:07.000Z</time>
      </trkpt>
      <trkpt lat="49.60048" lon="5.57315">
        <ele>309.20001220703</ele>
        <time>2022-03-18T09:47:09.000Z</time>
      </trkpt>
      <trkpt lat="49.60052" lon="5.57305">
        <ele>310.20001220703</ele>
        <time>2022-03-18T09:47:11.000Z</time>
      </trkpt>
      <trkpt lat="49.60057" lon="5.57291">
        <ele>311.20001220703</ele>
        <time>2022-03-18T09:47:14.000Z</time>
      </trkpt>
      <trkpt lat="49.60058" lon="5.57287">
        <ele>311.79998779297</ele>
        <time>2022-03-18T09:47:15.000Z</time>
      </trkpt>
      <trkpt lat="49.60067" lon="5.57269">
        <ele>313.79998779297</ele>
        <time>2022-03-18T09:47:19.000Z</time>
      </trkpt>
      <trkpt lat="49.60067" lon="5.57267">
        <ele>314.20001220703</ele>
        <time>2022-03-18T09:47:20.000Z</time>
      </trkpt>
      <trkpt lat="49.60071" lon="5.57257">
        <ele>314.79998779297</ele>
        <time>2022-03-18T09:47:23.000Z</time>
      </trkpt>
      <trkpt lat="49.60074" lon="5.57247">
        <ele>315.20001220703</ele>
        <time>2022-03-18T09:47:26.000Z</time>
      </trkpt>
      <trkpt lat="49.60076" lon="5.57243">
        <ele>315.60000610352</ele>
        <time>2022-03-18T09:47:27.000Z</time>
      </trkpt>
      <trkpt lat="49.60081" lon="5.57229">
        <ele>316.20001220703</ele>
        <time>2022-03-18T09:47:30.000Z</time>
      </trkpt>
      <trkpt lat="49.60085" lon="5.57214">
        <ele>316.39999389648</ele>
        <time>2022-03-18T09:47:32.000Z</time>
      </trkpt>
      <trkpt lat="49.60088" lon="5.57203">
        <ele>316.39999389648</ele>
        <time>2022-03-18T09:47:34.000Z</time>
      </trkpt>
      <trkpt lat="49.60097" lon="5.57185">
        <ele>316.39999389648</ele>
        <time>2022-03-18T09:47:37.000Z</time>
      </trkpt>
      <trkpt lat="49.60099" lon="5.5718">
        <ele>316.39999389648</ele>
        <time>2022-03-18T09:47:38.000Z</time>
      </trkpt>
      <trkpt lat="49.60103" lon="5.57172">
        <ele>316.79998779297</ele>
        <time>2022-03-18T09:47:39.000Z</time>
      </trkpt>
      <trkpt lat="49.60116" lon="5.57151">
        <ele>318.20001220703</ele>
        <time>2022-03-18T09:47:42.000Z</time>
      </trkpt>
      <trkpt lat="49.60119" lon="5.57146">
        <ele>318.39999389648</ele>
        <time>2022-03-18T09:47:43.000Z</time>
      </trkpt>
      <trkpt lat="49.60132" lon="5.57117">
        <ele>319.60000610352</ele>
        <time>2022-03-18T09:47:48.000Z</time>
      </trkpt>
      <trkpt lat="49.60135" lon="5.57105">
        <ele>320</ele>
        <time>2022-03-18T09:47:50.000Z</time>
      </trkpt>
      <trkpt lat="49.60138" lon="5.57093">
        <ele>320.39999389648</ele>
        <time>2022-03-18T09:47:52.000Z</time>
      </trkpt>
      <trkpt lat="49.60141" lon="5.57085">
        <ele>321</ele>
        <time>2022-03-18T09:47:53.000Z</time>
      </trkpt>
      <trkpt lat="49.60144" lon="5.57073">
        <ele>320.79998779297</ele>
        <time>2022-03-18T09:47:55.000Z</time>
      </trkpt>
      <trkpt lat="49.60148" lon="5.57065">
        <ele>321</ele>
        <time>2022-03-18T09:47:57.000Z</time>
      </trkpt>
      <trkpt lat="49.60153" lon="5.57032">
        <ele>320.79998779297</ele>
        <time>2022-03-18T09:48:03.000Z</time>
      </trkpt>
      <trkpt lat="49.60152" lon="5.56993">
        <ele>320.39999389648</ele>
        <time>2022-03-18T09:48:09.000Z</time>
      </trkpt>
      <trkpt lat="49.60155" lon="5.56962">
        <ele>320</ele>
        <time>2022-03-18T09:48:14.000Z</time>
      </trkpt>
      <trkpt lat="49.60155" lon="5.56956">
        <ele>319.79998779297</ele>
        <time>2022-03-18T09:48:15.000Z</time>
      </trkpt>
      <trkpt lat="49.60156" lon="5.56929">
        <ele>319</ele>
        <time>2022-03-18T09:48:18.000Z</time>
      </trkpt>
      <trkpt lat="49.60157" lon="5.56919">
        <ele>318.60000610352</ele>
        <time>2022-03-18T09:48:19.000Z</time>
      </trkpt>
      <trkpt lat="49.60158" lon="5.56909">
        <ele>318.79998779297</ele>
        <time>2022-03-18T09:48:20.000Z</time>
      </trkpt>
      <trkpt lat="49.6016" lon="5.56901">
        <ele>319</ele>
        <time>2022-03-18T09:48:21.000Z</time>
      </trkpt>
      <trkpt lat="49.60162" lon="5.56895">
        <ele>319.20001220703</ele>
        <time>2022-03-18T09:48:22.000Z</time>
      </trkpt>
      <trkpt lat="49.60164" lon="5.56891">
        <ele>319.39999389648</ele>
        <time>2022-03-18T09:48:23.000Z</time>
      </trkpt>
      <trkpt lat="49.60167" lon="5.56889">
        <ele>319.60000610352</ele>
        <time>2022-03-18T09:48:24.000Z</time>
      </trkpt>
      <trkpt lat="49.60182" lon="5.56892">
        <ele>321.39999389648</ele>
        <time>2022-03-18T09:48:29.000Z</time>
      </trkpt>
      <trkpt lat="49.60204" lon="5.56898">
        <ele>323.79998779297</ele>
        <time>2022-03-18T09:48:35.000Z</time>
      </trkpt>
      <trkpt lat="49.60217" lon="5.56896">
        <ele>325.60000610352</ele>
        <time>2022-03-18T09:48:38.000Z</time>
      </trkpt>
      <trkpt lat="49.60224" lon="5.56895">
        <ele>326.79998779297</ele>
        <time>2022-03-18T09:48:40.000Z</time>
      </trkpt>
      <trkpt lat="49.60235" lon="5.56892">
        <ele>327.39999389648</ele>
        <time>2022-03-18T09:48:43.000Z</time>
      </trkpt>
      <trkpt lat="49.60248" lon="5.56887">
        <ele>327.79998779297</ele>
        <time>2022-03-18T09:48:46.000Z</time>
      </trkpt>
      <trkpt lat="49.60252" lon="5.56886">
        <ele>328</ele>
        <time>2022-03-18T09:48:47.000Z</time>
      </trkpt>
      <trkpt lat="49.60273" lon="5.56877">
        <ele>329</ele>
        <time>2022-03-18T09:48:52.000Z</time>
      </trkpt>
      <trkpt lat="49.60278" lon="5.56874">
        <ele>329</ele>
        <time>2022-03-18T09:48:53.000Z</time>
      </trkpt>
      <trkpt lat="49.60297" lon="5.56865">
        <ele>329.60000610352</ele>
        <time>2022-03-18T09:48:57.000Z</time>
      </trkpt>
      <trkpt lat="49.60313" lon="5.56858">
        <ele>330.39999389648</ele>
        <time>2022-03-18T09:49:00.000Z</time>
      </trkpt>
      <trkpt lat="49.60351" lon="5.56856">
        <ele>332.20001220703</ele>
        <time>2022-03-18T09:49:06.000Z</time>
      </trkpt>
      <trkpt lat="49.60382" lon="5.56864">
        <ele>333</ele>
        <time>2022-03-18T09:49:11.000Z</time>
      </trkpt>
      <trkpt lat="49.60387" lon="5.56866">
        <ele>333.20001220703</ele>
        <time>2022-03-18T09:49:12.000Z</time>
      </trkpt>
      <trkpt lat="49.60403" lon="5.56872">
        <ele>333.60000610352</ele>
        <time>2022-03-18T09:49:15.000Z</time>
      </trkpt>
      <trkpt lat="49.60413" lon="5.56878">
        <ele>334</ele>
        <time>2022-03-18T09:49:17.000Z</time>
      </trkpt>
      <trkpt lat="49.60437" lon="5.56893">
        <ele>333.79998779297</ele>
        <time>2022-03-18T09:49:22.000Z</time>
      </trkpt>
      <trkpt lat="49.60441" lon="5.56897">
        <ele>333.60000610352</ele>
        <time>2022-03-18T09:49:23.000Z</time>
      </trkpt>
      <trkpt lat="49.60459" lon="5.56902">
        <ele>332</ele>
        <time>2022-03-18T09:49:27.000Z</time>
      </trkpt>
      <trkpt lat="49.60475" lon="5.56903">
        <ele>329.20001220703</ele>
        <time>2022-03-18T09:49:30.000Z</time>
      </trkpt>
      <trkpt lat="49.60485" lon="5.56906">
        <ele>329.60000610352</ele>
        <time>2022-03-18T09:49:32.000Z</time>
      </trkpt>
      <trkpt lat="49.60499" lon="5.5691">
        <ele>330</ele>
        <time>2022-03-18T09:49:35.000Z</time>
      </trkpt>
      <trkpt lat="49.60505" lon="5.56911">
        <ele>330</ele>
        <time>2022-03-18T09:49:36.000Z</time>
      </trkpt>
      <trkpt lat="49.60516" lon="5.56911">
        <ele>330.39999389648</ele>
        <time>2022-03-18T09:49:38.000Z</time>
      </trkpt>
      <trkpt lat="49.6053" lon="5.56911">
        <ele>331</ele>
        <time>2022-03-18T09:49:41.000Z</time>
      </trkpt>
      <trkpt lat="49.60548" lon="5.56909">
        <ele>331.20001220703</ele>
        <time>2022-03-18T09:49:45.000Z</time>
      </trkpt>
      <trkpt lat="49.60551" lon="5.56909">
        <ele>331.39999389648</ele>
        <time>2022-03-18T09:49:46.000Z</time>
      </trkpt>
      <trkpt lat="49.60568" lon="5.56907">
        <ele>332.39999389648</ele>
        <time>2022-03-18T09:49:50.000Z</time>
      </trkpt>
      <trkpt lat="49.60573" lon="5.56906">
        <ele>332.79998779297</ele>
        <time>2022-03-18T09:49:51.000Z</time>
      </trkpt>
      <trkpt lat="49.60589" lon="5.56905">
        <ele>334.39999389648</ele>
        <time>2022-03-18T09:49:54.000Z</time>
      </trkpt>
      <trkpt lat="49.60606" lon="5.56904">
        <ele>337.20001220703</ele>
        <time>2022-03-18T09:49:57.000Z</time>
      </trkpt>
      <trkpt lat="49.60615" lon="5.56903">
        <ele>339</ele>
        <time>2022-03-18T09:49:59.000Z</time>
      </trkpt>
      <trkpt lat="49.60621" lon="5.569">
        <ele>339.39999389648</ele>
        <time>2022-03-18T09:50:00.000Z</time>
      </trkpt>
      <trkpt lat="49.60629" lon="5.56892">
        <ele>340.60000610352</ele>
        <time>2022-03-18T09:50:02.000Z</time>
      </trkpt>
      <trkpt lat="49.60634" lon="5.56887">
        <ele>341.20001220703</ele>
        <time>2022-03-18T09:50:03.000Z</time>
      </trkpt>
      <trkpt lat="49.60638" lon="5.56883">
        <ele>341.79998779297</ele>
        <time>2022-03-18T09:50:04.000Z</time>
      </trkpt>
      <trkpt lat="49.60646" lon="5.56877">
        <ele>342.79998779297</ele>
        <time>2022-03-18T09:50:06.000Z</time>
      </trkpt>
      <trkpt lat="49.60653" lon="5.56871">
        <ele>343.39999389648</ele>
        <time>2022-03-18T09:50:08.000Z</time>
      </trkpt>
      <trkpt lat="49.60657" lon="5.56868">
        <ele>343.60000610352</ele>
        <time>2022-03-18T09:50:09.000Z</time>
      </trkpt>
      <trkpt lat="49.60665" lon="5.5686">
        <ele>343.79998779297</ele>
        <time>2022-03-18T09:50:11.000Z</time>
      </trkpt>
      <trkpt lat="49.60679" lon="5.56846">
        <ele>343</ele>
        <time>2022-03-18T09:50:14.000Z</time>
      </trkpt>
      <trkpt lat="49.60692" lon="5.56834">
        <ele>343</ele>
        <time>2022-03-18T09:50:17.000Z</time>
      </trkpt>
      <trkpt lat="49.60696" lon="5.5683">
        <ele>343</ele>
        <time>2022-03-18T09:50:18.000Z</time>
      </trkpt>
      <trkpt lat="49.60703" lon="5.56821">
        <ele>342.79998779297</ele>
        <time>2022-03-18T09:50:20.000Z</time>
      </trkpt>
      <trkpt lat="49.60716" lon="5.56807">
        <ele>343</ele>
        <time>2022-03-18T09:50:23.000Z</time>
      </trkpt>
      <trkpt lat="49.60721" lon="5.56803">
        <ele>343</ele>
        <time>2022-03-18T09:50:24.000Z</time>
      </trkpt>
      <trkpt lat="49.60726" lon="5.568">
        <ele>343.20001220703</ele>
        <time>2022-03-18T09:50:25.000Z</time>
      </trkpt>
      <trkpt lat="49.60742" lon="5.56794">
        <ele>343.39999389648</ele>
        <time>2022-03-18T09:50:28.000Z</time>
      </trkpt>
      <trkpt lat="49.60753" lon="5.56791">
        <ele>343.60000610352</ele>
        <time>2022-03-18T09:50:30.000Z</time>
      </trkpt>
      <trkpt lat="49.60765" lon="5.56788">
        <ele>343.60000610352</ele>
        <time>2022-03-18T09:50:32.000Z</time>
      </trkpt>
      <trkpt lat="49.60784" lon="5.56788">
        <ele>343.79998779297</ele>
        <time>2022-03-18T09:50:35.000Z</time>
      </trkpt>
      <trkpt lat="49.6079" lon="5.56788">
        <ele>343.60000610352</ele>
        <time>2022-03-18T09:50:36.000Z</time>
      </trkpt>
      <trkpt lat="49.6081" lon="5.56787">
        <ele>343</ele>
        <time>2022-03-18T09:50:39.000Z</time>
      </trkpt>
      <trkpt lat="49.60824" lon="5.56786">
        <ele>342.20001220703</ele>
        <time>2022-03-18T09:50:41.000Z</time>
      </trkpt>
      <trkpt lat="49.60845" lon="5.56785">
        <ele>340.79998779297</ele>
        <time>2022-03-18T09:50:44.000Z</time>
      </trkpt>
      <trkpt lat="49.60859" lon="5.56785">
        <ele>340.39999389648</ele>
        <time>2022-03-18T09:50:46.000Z</time>
      </trkpt>
      <trkpt lat="49.60866" lon="5.56784">
        <ele>340.20001220703</ele>
        <time>2022-03-18T09:50:47.000Z</time>
      </trkpt>
      <trkpt lat="49.60873" lon="5.56784">
        <ele>340</ele>
        <time>2022-03-18T09:50:48.000Z</time>
      </trkpt>
      <trkpt lat="49.60913" lon="5.56777">
        <ele>338</ele>
        <time>2022-03-18T09:50:54.000Z</time>
      </trkpt>
      <trkpt lat="49.60919" lon="5.56776">
        <ele>337.60000610352</ele>
        <time>2022-03-18T09:50:55.000Z</time>
      </trkpt>
      <trkpt lat="49.6094" lon="5.5677">
        <ele>336.60000610352</ele>
        <time>2022-03-18T09:50:59.000Z</time>
      </trkpt>
      <trkpt lat="49.60961" lon="5.56767">
        <ele>337.60000610352</ele>
        <time>2022-03-18T09:51:04.000Z</time>
      </trkpt>
      <trkpt lat="49.60968" lon="5.56766">
        <ele>338.20001220703</ele>
        <time>2022-03-18T09:51:06.000Z</time>
      </trkpt>
      <trkpt lat="49.60971" lon="5.56766">
        <ele>338.60000610352</ele>
        <time>2022-03-18T09:51:07.000Z</time>
      </trkpt>
      <trkpt lat="49.6098" lon="5.56765">
        <ele>339.39999389648</ele>
        <time>2022-03-18T09:51:10.000Z</time>
      </trkpt>
      <trkpt lat="49.60982" lon="5.56764">
        <ele>339.60000610352</ele>
        <time>2022-03-18T09:51:11.000Z</time>
      </trkpt>
      <trkpt lat="49.60988" lon="5.56763">
        <ele>340.20001220703</ele>
        <time>2022-03-18T09:51:13.000Z</time>
      </trkpt>
      <trkpt lat="49.60993" lon="5.56762">
        <ele>341</ele>
        <time>2022-03-18T09:51:15.000Z</time>
      </trkpt>
      <trkpt lat="49.61" lon="5.56762">
        <ele>342</ele>
        <time>2022-03-18T09:51:17.000Z</time>
      </trkpt>
      <trkpt lat="49.61006" lon="5.56763">
        <ele>342.79998779297</ele>
        <time>2022-03-18T09:51:19.000Z</time>
      </trkpt>
      <trkpt lat="49.61009" lon="5.56764">
        <ele>343.20001220703</ele>
        <time>2022-03-18T09:51:20.000Z</time>
      </trkpt>
      <trkpt lat="49.61012" lon="5.56765">
        <ele>343.79998779297</ele>
        <time>2022-03-18T09:51:21.000Z</time>
      </trkpt>
      <trkpt lat="49.61019" lon="5.56767">
        <ele>344.79998779297</ele>
        <time>2022-03-18T09:51:23.000Z</time>
      </trkpt>
      <trkpt lat="49.61026" lon="5.5677">
        <ele>346</ele>
        <time>2022-03-18T09:51:25.000Z</time>
      </trkpt>
      <trkpt lat="49.61033" lon="5.56773">
        <ele>347.20001220703</ele>
        <time>2022-03-18T09:51:27.000Z</time>
      </trkpt>
      <trkpt lat="49.61037" lon="5.56774">
        <ele>348</ele>
        <time>2022-03-18T09:51:28.000Z</time>
      </trkpt>
      <trkpt lat="49.61044" lon="5.56778">
        <ele>349.39999389648</ele>
        <time>2022-03-18T09:51:30.000Z</time>
      </trkpt>
      <trkpt lat="49.61056" lon="5.56784">
        <ele>351.60000610352</ele>
        <time>2022-03-18T09:51:33.000Z</time>
      </trkpt>
      <trkpt lat="49.61068" lon="5.56786">
        <ele>353</ele>
        <time>2022-03-18T09:51:35.000Z</time>
      </trkpt>
      <trkpt lat="49.6109" lon="5.56782">
        <ele>354.20001220703</ele>
        <time>2022-03-18T09:51:38.000Z</time>
      </trkpt>
      <trkpt lat="49.61096" lon="5.56783">
        <ele>354.60000610352</ele>
        <time>2022-03-18T09:51:39.000Z</time>
      </trkpt>
      <trkpt lat="49.6111" lon="5.56786">
        <ele>355.60000610352</ele>
        <time>2022-03-18T09:51:42.000Z</time>
      </trkpt>
      <trkpt lat="49.61129" lon="5.56792">
        <ele>357</ele>
        <time>2022-03-18T09:51:46.000Z</time>
      </trkpt>
      <trkpt lat="49.61134" lon="5.56795">
        <ele>357.39999389648</ele>
        <time>2022-03-18T09:51:47.000Z</time>
      </trkpt>
      <trkpt lat="49.61153" lon="5.56809">
        <ele>358</ele>
        <time>2022-03-18T09:51:52.000Z</time>
      </trkpt>
      <trkpt lat="49.6116" lon="5.56813">
        <ele>358</ele>
        <time>2022-03-18T09:51:54.000Z</time>
      </trkpt>
      <trkpt lat="49.61164" lon="5.56815">
        <ele>358</ele>
        <time>2022-03-18T09:51:55.000Z</time>
      </trkpt>
      <trkpt lat="49.61183" lon="5.5683">
        <ele>358</ele>
        <time>2022-03-18T09:52:00.000Z</time>
      </trkpt>
      <trkpt lat="49.61212" lon="5.56852">
        <ele>358</ele>
        <time>2022-03-18T09:52:08.000Z</time>
      </trkpt>
      <trkpt lat="49.61239" lon="5.56874">
        <ele>358.79998779297</ele>
        <time>2022-03-18T09:52:15.000Z</time>
      </trkpt>
      <trkpt lat="49.61263" lon="5.56904">
        <ele>360.39999389648</ele>
        <time>2022-03-18T09:52:22.000Z</time>
      </trkpt>
      <trkpt lat="49.61283" lon="5.5693">
        <ele>361.39999389648</ele>
        <time>2022-03-18T09:52:28.000Z</time>
      </trkpt>
      <trkpt lat="49.61299" lon="5.5695">
        <ele>362</ele>
        <time>2022-03-18T09:52:33.000Z</time>
      </trkpt>
      <trkpt lat="49.61303" lon="5.56954">
        <ele>362</ele>
        <time>2022-03-18T09:52:34.000Z</time>
      </trkpt>
      <trkpt lat="49.61311" lon="5.56965">
        <ele>362</ele>
        <time>2022-03-18T09:52:36.000Z</time>
      </trkpt>
      <trkpt lat="49.61332" lon="5.56986">
        <ele>361.20001220703</ele>
        <time>2022-03-18T09:52:40.000Z</time>
      </trkpt>
      <trkpt lat="49.61374" lon="5.57024">
        <ele>361.20001220703</ele>
        <time>2022-03-18T09:52:48.000Z</time>
      </trkpt>
      <trkpt lat="49.61411" lon="5.57051">
        <ele>363.60000610352</ele>
        <time>2022-03-18T09:52:55.000Z</time>
      </trkpt>
      <trkpt lat="49.61443" lon="5.57071">
        <ele>364</ele>
        <time>2022-03-18T09:53:01.000Z</time>
      </trkpt>
      <trkpt lat="49.61479" lon="5.57088">
        <ele>364</ele>
        <time>2022-03-18T09:53:07.000Z</time>
      </trkpt>
      <trkpt lat="49.61517" lon="5.57109">
        <ele>364.39999389648</ele>
        <time>2022-03-18T09:53:14.000Z</time>
      </trkpt>
      <trkpt lat="49.61538" lon="5.5712">
        <ele>365.79998779297</ele>
        <time>2022-03-18T09:53:18.000Z</time>
      </trkpt>
      <trkpt lat="49.61549" lon="5.57125">
        <ele>366.39999389648</ele>
        <time>2022-03-18T09:53:20.000Z</time>
      </trkpt>
      <trkpt lat="49.61563" lon="5.57131">
        <ele>367</ele>
        <time>2022-03-18T09:53:23.000Z</time>
      </trkpt>
      <trkpt lat="49.61579" lon="5.57139">
        <ele>367.79998779297</ele>
        <time>2022-03-18T09:53:26.000Z</time>
      </trkpt>
      <trkpt lat="49.61593" lon="5.57145">
        <ele>368.60000610352</ele>
        <time>2022-03-18T09:53:29.000Z</time>
      </trkpt>
      <trkpt lat="49.61601" lon="5.5715">
        <ele>369.20001220703</ele>
        <time>2022-03-18T09:53:31.000Z</time>
      </trkpt>
      <trkpt lat="49.61609" lon="5.57155">
        <ele>369.79998779297</ele>
        <time>2022-03-18T09:53:33.000Z</time>
      </trkpt>
      <trkpt lat="49.61616" lon="5.57164">
        <ele>370.60000610352</ele>
        <time>2022-03-18T09:53:35.000Z</time>
      </trkpt>
      <trkpt lat="49.6162" lon="5.5717">
        <ele>371.20001220703</ele>
        <time>2022-03-18T09:53:36.000Z</time>
      </trkpt>
      <trkpt lat="49.61624" lon="5.57177">
        <ele>371.60000610352</ele>
        <time>2022-03-18T09:53:37.000Z</time>
      </trkpt>
      <trkpt lat="49.61632" lon="5.5719">
        <ele>372.39999389648</ele>
        <time>2022-03-18T09:53:39.000Z</time>
      </trkpt>
      <trkpt lat="49.61643" lon="5.57208">
        <ele>372.60000610352</ele>
        <time>2022-03-18T09:53:42.000Z</time>
      </trkpt>
      <trkpt lat="49.61658" lon="5.57232">
        <ele>371.39999389648</ele>
        <time>2022-03-18T09:53:46.000Z</time>
      </trkpt>
      <trkpt lat="49.61668" lon="5.57247">
        <ele>370.39999389648</ele>
        <time>2022-03-18T09:53:49.000Z</time>
      </trkpt>
      <trkpt lat="49.61691" lon="5.5728">
        <ele>369.20001220703</ele>
        <time>2022-03-18T09:53:55.000Z</time>
      </trkpt>
      <trkpt lat="49.6171" lon="5.57299">
        <ele>368</ele>
        <time>2022-03-18T09:53:58.000Z</time>
      </trkpt>
      <trkpt lat="49.61718" lon="5.57305">
        <ele>367.79998779297</ele>
        <time>2022-03-18T09:53:59.000Z</time>
      </trkpt>
      <trkpt lat="49.61727" lon="5.57309">
        <ele>367.79998779297</ele>
        <time>2022-03-18T09:54:00.000Z</time>
      </trkpt>
      <trkpt lat="49.61735" lon="5.57313">
        <ele>368.20001220703</ele>
        <time>2022-03-18T09:54:01.000Z</time>
      </trkpt>
      <trkpt lat="49.61743" lon="5.57316">
        <ele>368.39999389648</ele>
        <time>2022-03-18T09:54:02.000Z</time>
      </trkpt>
      <trkpt lat="49.6176" lon="5.57321">
        <ele>368.60000610352</ele>
        <time>2022-03-18T09:54:04.000Z</time>
      </trkpt>
      <trkpt lat="49.61769" lon="5.57323">
        <ele>368.20001220703</ele>
        <time>2022-03-18T09:54:05.000Z</time>
      </trkpt>
      <trkpt lat="49.61777" lon="5.57324">
        <ele>367.79998779297</ele>
        <time>2022-03-18T09:54:06.000Z</time>
      </trkpt>
      <trkpt lat="49.61794" lon="5.5733">
        <ele>366.79998779297</ele>
        <time>2022-03-18T09:54:08.000Z</time>
      </trkpt>
      <trkpt lat="49.61811" lon="5.5734">
        <ele>365.20001220703</ele>
        <time>2022-03-18T09:54:10.000Z</time>
      </trkpt>
      <trkpt lat="49.61819" lon="5.57347">
        <ele>364</ele>
        <time>2022-03-18T09:54:11.000Z</time>
      </trkpt>
      <trkpt lat="49.61827" lon="5.57356">
        <ele>363</ele>
        <time>2022-03-18T09:54:12.000Z</time>
      </trkpt>
      <trkpt lat="49.61835" lon="5.57364">
        <ele>361.60000610352</ele>
        <time>2022-03-18T09:54:13.000Z</time>
      </trkpt>
      <trkpt lat="49.61843" lon="5.57373">
        <ele>361</ele>
        <time>2022-03-18T09:54:14.000Z</time>
      </trkpt>
      <trkpt lat="49.61851" lon="5.57382">
        <ele>360.60000610352</ele>
        <time>2022-03-18T09:54:15.000Z</time>
      </trkpt>
      <trkpt lat="49.6186" lon="5.57392">
        <ele>360.20001220703</ele>
        <time>2022-03-18T09:54:16.000Z</time>
      </trkpt>
      <trkpt lat="49.61869" lon="5.57402">
        <ele>360.20001220703</ele>
        <time>2022-03-18T09:54:17.000Z</time>
      </trkpt>
      <trkpt lat="49.61877" lon="5.57412">
        <ele>360.79998779297</ele>
        <time>2022-03-18T09:54:18.000Z</time>
      </trkpt>
      <trkpt lat="49.61886" lon="5.57421">
        <ele>361.39999389648</ele>
        <time>2022-03-18T09:54:19.000Z</time>
      </trkpt>
      <trkpt lat="49.61895" lon="5.5743">
        <ele>361.20001220703</ele>
        <time>2022-03-18T09:54:20.000Z</time>
      </trkpt>
      <trkpt lat="49.61904" lon="5.57439">
        <ele>360.60000610352</ele>
        <time>2022-03-18T09:54:21.000Z</time>
      </trkpt>
      <trkpt lat="49.61913" lon="5.57448">
        <ele>360</ele>
        <time>2022-03-18T09:54:22.000Z</time>
      </trkpt>
      <trkpt lat="49.61922" lon="5.57456">
        <ele>359</ele>
        <time>2022-03-18T09:54:23.000Z</time>
      </trkpt>
      <trkpt lat="49.61944" lon="5.5748">
        <ele>354.60000610352</ele>
        <time>2022-03-18T09:54:26.000Z</time>
      </trkpt>
      <trkpt lat="49.6195" lon="5.57488">
        <ele>352.79998779297</ele>
        <time>2022-03-18T09:54:27.000Z</time>
      </trkpt>
      <trkpt lat="49.61961" lon="5.57516">
        <ele>347</ele>
        <time>2022-03-18T09:54:30.000Z</time>
      </trkpt>
      <trkpt lat="49.61964" lon="5.57537">
        <ele>344.20001220703</ele>
        <time>2022-03-18T09:54:32.000Z</time>
      </trkpt>
      <trkpt lat="49.61966" lon="5.57552">
        <ele>342.79998779297</ele>
        <time>2022-03-18T09:54:34.000Z</time>
      </trkpt>
      <trkpt lat="49.61965" lon="5.57563">
        <ele>341.79998779297</ele>
        <time>2022-03-18T09:54:43.000Z</time>
      </trkpt>
      <trkpt lat="49.61967" lon="5.57589">
        <ele>341.20001220703</ele>
        <time>2022-03-18T09:54:48.000Z</time>
      </trkpt>
      <trkpt lat="49.61969" lon="5.57593">
        <ele>341.20001220703</ele>
        <time>2022-03-18T09:54:50.000Z</time>
      </trkpt>
      <trkpt lat="49.61974" lon="5.57594">
        <ele>341.39999389648</ele>
        <time>2022-03-18T09:54:53.000Z</time>
      </trkpt>
      <trkpt lat="49.61975" lon="5.57594">
        <ele>341.20001220703</ele>
        <time>2022-03-18T09:54:54.000Z</time>
      </trkpt>
      <trkpt lat="49.61976" lon="5.57593">
        <ele>341.20001220703</ele>
        <time>2022-03-18T09:54:55.000Z</time>
      </trkpt>
      <trkpt lat="49.61983" lon="5.57584">
        <ele>341.60000610352</ele>
        <time>2022-03-18T09:55:00.000Z</time>
      </trkpt>
      <trkpt lat="49.61994" lon="5.57573">
        <ele>342.60000610352</ele>
        <time>2022-03-18T09:55:04.000Z</time>
      </trkpt>
      <trkpt lat="49.62015" lon="5.57558">
        <ele>343.79998779297</ele>
        <time>2022-03-18T09:55:10.000Z</time>
      </trkpt>
      <trkpt lat="49.62031" lon="5.57551">
        <ele>345</ele>
        <time>2022-03-18T09:55:15.000Z</time>
      </trkpt>
      <trkpt lat="49.62037" lon="5.57545">
        <ele>345.20001220703</ele>
        <time>2022-03-18T09:55:17.000Z</time>
      </trkpt>
      <trkpt lat="49.62041" lon="5.57539">
        <ele>345.39999389648</ele>
        <time>2022-03-18T09:55:19.000Z</time>
      </trkpt>
      <trkpt lat="49.62051" lon="5.5753">
        <ele>345.79998779297</ele>
        <time>2022-03-18T09:55:24.000Z</time>
      </trkpt>
      <trkpt lat="49.62062" lon="5.57518">
        <ele>345.79998779297</ele>
        <time>2022-03-18T09:55:30.000Z</time>
      </trkpt>
      <trkpt lat="49.62076" lon="5.57502">
        <ele>345.39999389648</ele>
        <time>2022-03-18T09:55:35.000Z</time>
      </trkpt>
      <trkpt lat="49.62082" lon="5.57492">
        <ele>345.60000610352</ele>
        <time>2022-03-18T09:55:37.000Z</time>
      </trkpt>
      <trkpt lat="49.62095" lon="5.57476">
        <ele>345.39999389648</ele>
        <time>2022-03-18T09:55:40.000Z</time>
      </trkpt>
      <trkpt lat="49.62099" lon="5.57471">
        <ele>345.20001220703</ele>
        <time>2022-03-18T09:55:41.000Z</time>
      </trkpt>
      <trkpt lat="49.62104" lon="5.57466">
        <ele>345</ele>
        <time>2022-03-18T09:55:42.000Z</time>
      </trkpt>
      <trkpt lat="49.62116" lon="5.57456">
        <ele>344.60000610352</ele>
        <time>2022-03-18T09:55:44.000Z</time>
      </trkpt>
      <trkpt lat="49.62129" lon="5.57447">
        <ele>342.79998779297</ele>
        <time>2022-03-18T09:55:46.000Z</time>
      </trkpt>
      <trkpt lat="49.62137" lon="5.57444">
        <ele>341.79998779297</ele>
        <time>2022-03-18T09:55:47.000Z</time>
      </trkpt>
      <trkpt lat="49.62145" lon="5.57441">
        <ele>340.79998779297</ele>
        <time>2022-03-18T09:55:48.000Z</time>
      </trkpt>
      <trkpt lat="49.62158" lon="5.57435">
        <ele>339.39999389648</ele>
        <time>2022-03-18T09:55:50.000Z</time>
      </trkpt>
      <trkpt lat="49.62164" lon="5.57431">
        <ele>338.60000610352</ele>
        <time>2022-03-18T09:55:51.000Z</time>
      </trkpt>
      <trkpt lat="49.62175" lon="5.57418">
        <ele>337.60000610352</ele>
        <time>2022-03-18T09:55:53.000Z</time>
      </trkpt>
      <trkpt lat="49.62179" lon="5.57412">
        <ele>337.39999389648</ele>
        <time>2022-03-18T09:55:54.000Z</time>
      </trkpt>
      <trkpt lat="49.62188" lon="5.57392">
        <ele>337.39999389648</ele>
        <time>2022-03-18T09:55:58.000Z</time>
      </trkpt>
      <trkpt lat="49.62191" lon="5.57379">
        <ele>337.20001220703</ele>
        <time>2022-03-18T09:56:00.000Z</time>
      </trkpt>
      <trkpt lat="49.62192" lon="5.57373">
        <ele>337.20001220703</ele>
        <time>2022-03-18T09:56:01.000Z</time>
      </trkpt>
      <trkpt lat="49.62195" lon="5.57352">
        <ele>337.60000610352</ele>
        <time>2022-03-18T09:56:04.000Z</time>
      </trkpt>
      <trkpt lat="49.62202" lon="5.57305">
        <ele>339</ele>
        <time>2022-03-18T09:56:11.000Z</time>
      </trkpt>
      <trkpt lat="49.62207" lon="5.57262">
        <ele>340.20001220703</ele>
        <time>2022-03-18T09:56:18.000Z</time>
      </trkpt>
      <trkpt lat="49.62208" lon="5.57254">
        <ele>340.20001220703</ele>
        <time>2022-03-18T09:56:19.000Z</time>
      </trkpt>
      <trkpt lat="49.62211" lon="5.57216">
        <ele>341</ele>
        <time>2022-03-18T09:56:24.000Z</time>
      </trkpt>
      <trkpt lat="49.62214" lon="5.57178">
        <ele>340.60000610352</ele>
        <time>2022-03-18T09:56:30.000Z</time>
      </trkpt>
      <trkpt lat="49.62217" lon="5.57159">
        <ele>340.60000610352</ele>
        <time>2022-03-18T09:56:33.000Z</time>
      </trkpt>
      <trkpt lat="49.6222" lon="5.57147">
        <ele>340.20001220703</ele>
        <time>2022-03-18T09:56:35.000Z</time>
      </trkpt>
      <trkpt lat="49.62227" lon="5.57118">
        <ele>339.20001220703</ele>
        <time>2022-03-18T09:56:40.000Z</time>
      </trkpt>
      <trkpt lat="49.62229" lon="5.57107">
        <ele>338.79998779297</ele>
        <time>2022-03-18T09:56:42.000Z</time>
      </trkpt>
      <trkpt lat="49.62233" lon="5.57091">
        <ele>338.60000610352</ele>
        <time>2022-03-18T09:56:45.000Z</time>
      </trkpt>
      <trkpt lat="49.62234" lon="5.57086">
        <ele>338.60000610352</ele>
        <time>2022-03-18T09:56:46.000Z</time>
      </trkpt>
      <trkpt lat="49.62237" lon="5.57074">
        <ele>338.79998779297</ele>
        <time>2022-03-18T09:56:48.000Z</time>
      </trkpt>
      <trkpt lat="49.62242" lon="5.57055">
        <ele>339.79998779297</ele>
        <time>2022-03-18T09:56:51.000Z</time>
      </trkpt>
      <trkpt lat="49.62249" lon="5.57035">
        <ele>340.60000610352</ele>
        <time>2022-03-18T09:56:54.000Z</time>
      </trkpt>
      <trkpt lat="49.62252" lon="5.57028">
        <ele>340.79998779297</ele>
        <time>2022-03-18T09:56:55.000Z</time>
      </trkpt>
      <trkpt lat="49.62256" lon="5.57017">
        <ele>341.20001220703</ele>
        <time>2022-03-18T09:56:57.000Z</time>
      </trkpt>
      <trkpt lat="49.62271" lon="5.56974">
        <ele>343</ele>
        <time>2022-03-18T09:57:04.000Z</time>
      </trkpt>
      <trkpt lat="49.6228" lon="5.56938">
        <ele>342.79998779297</ele>
        <time>2022-03-18T09:57:10.000Z</time>
      </trkpt>
      <trkpt lat="49.62281" lon="5.56932">
        <ele>343</ele>
        <time>2022-03-18T09:57:11.000Z</time>
      </trkpt>
      <trkpt lat="49.62283" lon="5.56899">
        <ele>343.20001220703</ele>
        <time>2022-03-18T09:57:16.000Z</time>
      </trkpt>
      <trkpt lat="49.62287" lon="5.56851">
        <ele>343.20001220703</ele>
        <time>2022-03-18T09:57:22.000Z</time>
      </trkpt>
      <trkpt lat="49.62293" lon="5.56814">
        <ele>343.79998779297</ele>
        <time>2022-03-18T09:57:27.000Z</time>
      </trkpt>
      <trkpt lat="49.62295" lon="5.568">
        <ele>344.39999389648</ele>
        <time>2022-03-18T09:57:29.000Z</time>
      </trkpt>
      <trkpt lat="49.62296" lon="5.56793">
        <ele>344.60000610352</ele>
        <time>2022-03-18T09:57:30.000Z</time>
      </trkpt>
      <trkpt lat="49.62297" lon="5.56778">
        <ele>345.20001220703</ele>
        <time>2022-03-18T09:57:32.000Z</time>
      </trkpt>
      <trkpt lat="49.62303" lon="5.5674">
        <ele>347.20001220703</ele>
        <time>2022-03-18T09:57:37.000Z</time>
      </trkpt>
      <trkpt lat="49.62307" lon="5.56725">
        <ele>347.79998779297</ele>
        <time>2022-03-18T09:57:39.000Z</time>
      </trkpt>
      <trkpt lat="49.62311" lon="5.5671">
        <ele>348</ele>
        <time>2022-03-18T09:57:41.000Z</time>
      </trkpt>
      <trkpt lat="49.62321" lon="5.56693">
        <ele>348.60000610352</ele>
        <time>2022-03-18T09:57:45.000Z</time>
      </trkpt>
      <trkpt lat="49.62325" lon="5.56691">
        <ele>348.79998779297</ele>
        <time>2022-03-18T09:57:46.000Z</time>
      </trkpt>
      <trkpt lat="49.62332" lon="5.5669">
        <ele>349</ele>
        <time>2022-03-18T09:57:48.000Z</time>
      </trkpt>
      <trkpt lat="49.62335" lon="5.56691">
        <ele>349</ele>
        <time>2022-03-18T09:57:49.000Z</time>
      </trkpt>
      <trkpt lat="49.62344" lon="5.56695">
        <ele>349</ele>
        <time>2022-03-18T09:57:52.000Z</time>
      </trkpt>
      <trkpt lat="49.62348" lon="5.56698">
        <ele>349</ele>
        <time>2022-03-18T09:57:53.000Z</time>
      </trkpt>
      <trkpt lat="49.62352" lon="5.56701">
        <ele>349</ele>
        <time>2022-03-18T09:57:54.000Z</time>
      </trkpt>
      <trkpt lat="49.62361" lon="5.56706">
        <ele>349</ele>
        <time>2022-03-18T09:57:56.000Z</time>
      </trkpt>
      <trkpt lat="49.62375" lon="5.56709">
        <ele>348.20001220703</ele>
        <time>2022-03-18T09:57:59.000Z</time>
      </trkpt>
      <trkpt lat="49.62381" lon="5.56709">
        <ele>348</ele>
        <time>2022-03-18T09:58:00.000Z</time>
      </trkpt>
      <trkpt lat="49.62399" lon="5.56711">
        <ele>347.39999389648</ele>
        <time>2022-03-18T09:58:03.000Z</time>
      </trkpt>
      <trkpt lat="49.62417" lon="5.56713">
        <ele>347.39999389648</ele>
        <time>2022-03-18T09:58:06.000Z</time>
      </trkpt>
      <trkpt lat="49.62423" lon="5.56713">
        <ele>347.39999389648</ele>
        <time>2022-03-18T09:58:07.000Z</time>
      </trkpt>
      <trkpt lat="49.62451" lon="5.56719">
        <ele>347.79998779297</ele>
        <time>2022-03-18T09:58:12.000Z</time>
      </trkpt>
      <trkpt lat="49.62484" lon="5.56731">
        <ele>346.60000610352</ele>
        <time>2022-03-18T09:58:18.000Z</time>
      </trkpt>
      <trkpt lat="49.62499" lon="5.56738">
        <ele>346.20001220703</ele>
        <time>2022-03-18T09:58:21.000Z</time>
      </trkpt>
      <trkpt lat="49.62514" lon="5.56746">
        <ele>345.60000610352</ele>
        <time>2022-03-18T09:58:24.000Z</time>
      </trkpt>
      <trkpt lat="49.62523" lon="5.56753">
        <ele>345.39999389648</ele>
        <time>2022-03-18T09:58:26.000Z</time>
      </trkpt>
      <trkpt lat="49.62532" lon="5.56761">
        <ele>345.20001220703</ele>
        <time>2022-03-18T09:58:28.000Z</time>
      </trkpt>
      <trkpt lat="49.62537" lon="5.56765">
        <ele>345</ele>
        <time>2022-03-18T09:58:29.000Z</time>
      </trkpt>
      <trkpt lat="49.62541" lon="5.56768">
        <ele>344.79998779297</ele>
        <time>2022-03-18T09:58:30.000Z</time>
      </trkpt>
      <trkpt lat="49.62546" lon="5.56772">
        <ele>344.60000610352</ele>
        <time>2022-03-18T09:58:31.000Z</time>
      </trkpt>
      <trkpt lat="49.62564" lon="5.56789">
        <ele>344</ele>
        <time>2022-03-18T09:58:35.000Z</time>
      </trkpt>
      <trkpt lat="49.62598" lon="5.56814">
        <ele>342.20001220703</ele>
        <time>2022-03-18T09:58:41.000Z</time>
      </trkpt>
      <trkpt lat="49.62604" lon="5.56819">
        <ele>341.79998779297</ele>
        <time>2022-03-18T09:58:42.000Z</time>
      </trkpt>
      <trkpt lat="49.62615" lon="5.56826">
        <ele>341</ele>
        <time>2022-03-18T09:58:44.000Z</time>
      </trkpt>
      <trkpt lat="49.62633" lon="5.56834">
        <ele>339.60000610352</ele>
        <time>2022-03-18T09:58:47.000Z</time>
      </trkpt>
      <trkpt lat="49.62639" lon="5.56837">
        <ele>339.20001220703</ele>
        <time>2022-03-18T09:58:48.000Z</time>
      </trkpt>
      <trkpt lat="49.6265" lon="5.56846">
        <ele>338.39999389648</ele>
        <time>2022-03-18T09:58:50.000Z</time>
      </trkpt>
      <trkpt lat="49.62655" lon="5.56851">
        <ele>338</ele>
        <time>2022-03-18T09:58:51.000Z</time>
      </trkpt>
      <trkpt lat="49.6266" lon="5.56857">
        <ele>337.79998779297</ele>
        <time>2022-03-18T09:58:52.000Z</time>
      </trkpt>
      <trkpt lat="49.62665" lon="5.56862">
        <ele>337.39999389648</ele>
        <time>2022-03-18T09:58:53.000Z</time>
      </trkpt>
      <trkpt lat="49.6268" lon="5.56877">
        <ele>336.39999389648</ele>
        <time>2022-03-18T09:58:56.000Z</time>
      </trkpt>
      <trkpt lat="49.62684" lon="5.56883">
        <ele>336</ele>
        <time>2022-03-18T09:58:57.000Z</time>
      </trkpt>
      <trkpt lat="49.62703" lon="5.56902">
        <ele>335</ele>
        <time>2022-03-18T09:59:01.000Z</time>
      </trkpt>
      <trkpt lat="49.62707" lon="5.56905">
        <ele>335</ele>
        <time>2022-03-18T09:59:02.000Z</time>
      </trkpt>
      <trkpt lat="49.62727" lon="5.56924">
        <ele>335</ele>
        <time>2022-03-18T09:59:07.000Z</time>
      </trkpt>
      <trkpt lat="49.62738" lon="5.56934">
        <ele>335</ele>
        <time>2022-03-18T09:59:10.000Z</time>
      </trkpt>
      <trkpt lat="49.6275" lon="5.5694">
        <ele>335</ele>
        <time>2022-03-18T09:59:13.000Z</time>
      </trkpt>
      <trkpt lat="49.62769" lon="5.56946">
        <ele>335</ele>
        <time>2022-03-18T09:59:18.000Z</time>
      </trkpt>
      <trkpt lat="49.62788" lon="5.56952">
        <ele>335</ele>
        <time>2022-03-18T09:59:23.000Z</time>
      </trkpt>
      <trkpt lat="49.62817" lon="5.56951">
        <ele>335.20001220703</ele>
        <time>2022-03-18T09:59:29.000Z</time>
      </trkpt>
      <trkpt lat="49.62829" lon="5.56948">
        <ele>335.79998779297</ele>
        <time>2022-03-18T09:59:32.000Z</time>
      </trkpt>
      <trkpt lat="49.62832" lon="5.5695">
        <ele>335.79998779297</ele>
        <time>2022-03-18T09:59:33.000Z</time>
      </trkpt>
      <trkpt lat="49.6284" lon="5.56969">
        <ele>336</ele>
        <time>2022-03-18T09:59:38.000Z</time>
      </trkpt>
      <trkpt lat="49.62842" lon="5.56974">
        <ele>336</ele>
        <time>2022-03-18T09:59:39.000Z</time>
      </trkpt>
      <trkpt lat="49.6285" lon="5.57007">
        <ele>336</ele>
        <time>2022-03-18T09:59:46.000Z</time>
      </trkpt>
      <trkpt lat="49.62856" lon="5.57029">
        <ele>336</ele>
        <time>2022-03-18T09:59:50.000Z</time>
      </trkpt>
      <trkpt lat="49.62857" lon="5.57035">
        <ele>336</ele>
        <time>2022-03-18T09:59:51.000Z</time>
      </trkpt>
      <trkpt lat="49.62862" lon="5.57076">
        <ele>336</ele>
        <time>2022-03-18T09:59:58.000Z</time>
      </trkpt>
      <trkpt lat="49.62863" lon="5.57083">
        <ele>336</ele>
        <time>2022-03-18T09:59:59.000Z</time>
      </trkpt>
      <trkpt lat="49.62868" lon="5.57113">
        <ele>336.79998779297</ele>
        <time>2022-03-18T10:00:04.000Z</time>
      </trkpt>
      <trkpt lat="49.6287" lon="5.57118">
        <ele>336.79998779297</ele>
        <time>2022-03-18T10:00:05.000Z</time>
      </trkpt>
      <trkpt lat="49.62873" lon="5.5714">
        <ele>337.39999389648</ele>
        <time>2022-03-18T10:00:10.000Z</time>
      </trkpt>
      <trkpt lat="49.62879" lon="5.57178">
        <ele>337.39999389648</ele>
        <time>2022-03-18T10:00:17.000Z</time>
      </trkpt>
      <trkpt lat="49.62887" lon="5.57211">
        <ele>337.20001220703</ele>
        <time>2022-03-18T10:00:24.000Z</time>
      </trkpt>
      <trkpt lat="49.62892" lon="5.57215">
        <ele>337</ele>
        <time>2022-03-18T10:00:27.000Z</time>
      </trkpt>
      <trkpt lat="49.62894" lon="5.57215">
        <ele>336.79998779297</ele>
        <time>2022-03-18T10:00:28.000Z</time>
      </trkpt>
      <trkpt lat="49.62908" lon="5.57216">
        <ele>335.39999389648</ele>
        <time>2022-03-18T10:00:33.000Z</time>
      </trkpt>
      <trkpt lat="49.62912" lon="5.57216">
        <ele>335</ele>
        <time>2022-03-18T10:00:34.000Z</time>
      </trkpt>
      <trkpt lat="49.62925" lon="5.57209">
        <ele>334</ele>
        <time>2022-03-18T10:00:38.000Z</time>
      </trkpt>
      <trkpt lat="49.62933" lon="5.57203">
        <ele>334</ele>
        <time>2022-03-18T10:00:40.000Z</time>
      </trkpt>
      <trkpt lat="49.62944" lon="5.572">
        <ele>334</ele>
        <time>2022-03-18T10:00:43.000Z</time>
      </trkpt>
      <trkpt lat="49.62961" lon="5.57196">
        <ele>335</ele>
        <time>2022-03-18T10:00:48.000Z</time>
      </trkpt>
      <trkpt lat="49.62969" lon="5.57193">
        <ele>335.60000610352</ele>
        <time>2022-03-18T10:00:50.000Z</time>
      </trkpt>
      <trkpt lat="49.62992" lon="5.57179">
        <ele>337.39999389648</ele>
        <time>2022-03-18T10:00:56.000Z</time>
      </trkpt>
      <trkpt lat="49.63015" lon="5.57164">
        <ele>337</ele>
        <time>2022-03-18T10:01:03.000Z</time>
      </trkpt>
      <trkpt lat="49.6303" lon="5.57153">
        <ele>336.79998779297</ele>
        <time>2022-03-18T10:01:09.000Z</time>
      </trkpt>
      <trkpt lat="49.63038" lon="5.57148">
        <ele>336.60000610352</ele>
        <time>2022-03-18T10:01:12.000Z</time>
      </trkpt>
      <trkpt lat="49.63046" lon="5.57143">
        <ele>336.20001220703</ele>
        <time>2022-03-18T10:01:15.000Z</time>
      </trkpt>
      <trkpt lat="49.6306" lon="5.57134">
        <ele>336</ele>
        <time>2022-03-18T10:01:21.000Z</time>
      </trkpt>
      <trkpt lat="49.63078" lon="5.57118">
        <ele>336</ele>
        <time>2022-03-18T10:01:27.000Z</time>
      </trkpt>
      <trkpt lat="49.63082" lon="5.57114">
        <ele>336</ele>
        <time>2022-03-18T10:01:28.000Z</time>
      </trkpt>
      <trkpt lat="49.63098" lon="5.57103">
        <ele>336</ele>
        <time>2022-03-18T10:01:33.000Z</time>
      </trkpt>
      <trkpt lat="49.63101" lon="5.57101">
        <ele>336</ele>
        <time>2022-03-18T10:01:34.000Z</time>
      </trkpt>
      <trkpt lat="49.63118" lon="5.57084">
        <ele>337.20001220703</ele>
        <time>2022-03-18T10:01:39.000Z</time>
      </trkpt>
      <trkpt lat="49.63123" lon="5.5708">
        <ele>337.39999389648</ele>
        <time>2022-03-18T10:01:41.000Z</time>
      </trkpt>
      <trkpt lat="49.63132" lon="5.57074">
        <ele>338</ele>
        <time>2022-03-18T10:01:45.000Z</time>
      </trkpt>
      <trkpt lat="49.63134" lon="5.57074">
        <ele>338</ele>
        <time>2022-03-18T10:01:46.000Z</time>
      </trkpt>
      <trkpt lat="49.63147" lon="5.57066">
        <ele>338.20001220703</ele>
        <time>2022-03-18T10:01:51.000Z</time>
      </trkpt>
      <trkpt lat="49.63149" lon="5.57065">
        <ele>338.20001220703</ele>
        <time>2022-03-18T10:01:52.000Z</time>
      </trkpt>
      <trkpt lat="49.63166" lon="5.57047">
        <ele>338.79998779297</ele>
        <time>2022-03-18T10:01:57.000Z</time>
      </trkpt>
      <trkpt lat="49.63187" lon="5.57033">
        <ele>338.60000610352</ele>
        <time>2022-03-18T10:02:03.000Z</time>
      </trkpt>
      <trkpt lat="49.63201" lon="5.57023">
        <ele>338.79998779297</ele>
        <time>2022-03-18T10:02:07.000Z</time>
      </trkpt>
      <trkpt lat="49.63208" lon="5.57017">
        <ele>338.60000610352</ele>
        <time>2022-03-18T10:02:09.000Z</time>
      </trkpt>
      <trkpt lat="49.63224" lon="5.57008">
        <ele>339</ele>
        <time>2022-03-18T10:02:15.000Z</time>
      </trkpt>
      <trkpt lat="49.63232" lon="5.57006">
        <ele>339.39999389648</ele>
        <time>2022-03-18T10:02:33.000Z</time>
      </trkpt>
      <trkpt lat="49.63233" lon="5.57009">
        <ele>339.60000610352</ele>
        <time>2022-03-18T10:02:34.000Z</time>
      </trkpt>
      <trkpt lat="49.63237" lon="5.57023">
        <ele>339.79998779297</ele>
        <time>2022-03-18T10:02:40.000Z</time>
      </trkpt>
      <trkpt lat="49.63239" lon="5.57026">
        <ele>340</ele>
        <time>2022-03-18T10:02:41.000Z</time>
      </trkpt>
      <trkpt lat="49.63245" lon="5.57053">
        <ele>340.60000610352</ele>
        <time>2022-03-18T10:02:48.000Z</time>
      </trkpt>
      <trkpt lat="49.63247" lon="5.57094">
        <ele>341</ele>
        <time>2022-03-18T10:02:55.000Z</time>
      </trkpt>
      <trkpt lat="49.63248" lon="5.57102">
        <ele>341</ele>
        <time>2022-03-18T10:02:56.000Z</time>
      </trkpt>
      <trkpt lat="49.63248" lon="5.57137">
        <ele>341</ele>
        <time>2022-03-18T10:03:01.000Z</time>
      </trkpt>
      <trkpt lat="49.63249" lon="5.57153">
        <ele>340.60000610352</ele>
        <time>2022-03-18T10:03:03.000Z</time>
      </trkpt>
      <trkpt lat="49.63251" lon="5.57188">
        <ele>339.39999389648</ele>
        <time>2022-03-18T10:03:07.000Z</time>
      </trkpt>
      <trkpt lat="49.63253" lon="5.57203">
        <ele>338.79998779297</ele>
        <time>2022-03-18T10:03:09.000Z</time>
      </trkpt>
      <trkpt lat="49.63255" lon="5.57207">
        <ele>338.60000610352</ele>
        <time>2022-03-18T10:03:10.000Z</time>
      </trkpt>
      <trkpt lat="49.63265" lon="5.57212">
        <ele>338</ele>
        <time>2022-03-18T10:03:13.000Z</time>
      </trkpt>
      <trkpt lat="49.63269" lon="5.57212">
        <ele>337.79998779297</ele>
        <time>2022-03-18T10:03:14.000Z</time>
      </trkpt>
      <trkpt lat="49.63273" lon="5.57212">
        <ele>337.79998779297</ele>
        <time>2022-03-18T10:03:15.000Z</time>
      </trkpt>
      <trkpt lat="49.63288" lon="5.57209">
        <ele>337</ele>
        <time>2022-03-18T10:03:19.000Z</time>
      </trkpt>
      <trkpt lat="49.63299" lon="5.57204">
        <ele>336.39999389648</ele>
        <time>2022-03-18T10:03:22.000Z</time>
      </trkpt>
      <trkpt lat="49.63309" lon="5.57202">
        <ele>335.79998779297</ele>
        <time>2022-03-18T10:03:24.000Z</time>
      </trkpt>
      <trkpt lat="49.63318" lon="5.57202">
        <ele>335.60000610352</ele>
        <time>2022-03-18T10:03:26.000Z</time>
      </trkpt>
      <trkpt lat="49.6333" lon="5.57203">
        <ele>335.60000610352</ele>
        <time>2022-03-18T10:03:29.000Z</time>
      </trkpt>
      <trkpt lat="49.63334" lon="5.57203">
        <ele>335.39999389648</ele>
        <time>2022-03-18T10:03:30.000Z</time>
      </trkpt>
      <trkpt lat="49.63361" lon="5.57208">
        <ele>336.39999389648</ele>
        <time>2022-03-18T10:03:36.000Z</time>
      </trkpt>
      <trkpt lat="49.63389" lon="5.57212">
        <ele>337.60000610352</ele>
        <time>2022-03-18T10:03:42.000Z</time>
      </trkpt>
      <trkpt lat="49.63393" lon="5.57213">
        <ele>337.79998779297</ele>
        <time>2022-03-18T10:03:43.000Z</time>
      </trkpt>
      <trkpt lat="49.63415" lon="5.57217">
        <ele>338.20001220703</ele>
        <time>2022-03-18T10:03:48.000Z</time>
      </trkpt>
      <trkpt lat="49.63447" lon="5.57218">
        <ele>339.60000610352</ele>
        <time>2022-03-18T10:03:55.000Z</time>
      </trkpt>
      <trkpt lat="49.63474" lon="5.57217">
        <ele>340.60000610352</ele>
        <time>2022-03-18T10:04:01.000Z</time>
      </trkpt>
      <trkpt lat="49.63479" lon="5.57216">
        <ele>340.39999389648</ele>
        <time>2022-03-18T10:04:02.000Z</time>
      </trkpt>
      <trkpt lat="49.635" lon="5.57216">
        <ele>339.79998779297</ele>
        <time>2022-03-18T10:04:06.000Z</time>
      </trkpt>
      <trkpt lat="49.63505" lon="5.57217">
        <ele>339.60000610352</ele>
        <time>2022-03-18T10:04:07.000Z</time>
      </trkpt>
      <trkpt lat="49.63526" lon="5.57224">
        <ele>339.79998779297</ele>
        <time>2022-03-18T10:04:12.000Z</time>
      </trkpt>
      <trkpt lat="49.63543" lon="5.57226">
        <ele>340.79998779297</ele>
        <time>2022-03-18T10:04:16.000Z</time>
      </trkpt>
      <trkpt lat="49.63547" lon="5.57227">
        <ele>341</ele>
        <time>2022-03-18T10:04:17.000Z</time>
      </trkpt>
      <trkpt lat="49.63565" lon="5.57228">
        <ele>342</ele>
        <time>2022-03-18T10:04:22.000Z</time>
      </trkpt>
      <trkpt lat="49.63569" lon="5.57229">
        <ele>342</ele>
        <time>2022-03-18T10:04:23.000Z</time>
      </trkpt>
      <trkpt lat="49.63594" lon="5.57234">
        <ele>342.20001220703</ele>
        <time>2022-03-18T10:04:29.000Z</time>
      </trkpt>
      <trkpt lat="49.63611" lon="5.57226">
        <ele>343</ele>
        <time>2022-03-18T10:04:34.000Z</time>
      </trkpt>
      <trkpt lat="49.63613" lon="5.57221">
        <ele>343</ele>
        <time>2022-03-18T10:04:35.000Z</time>
      </trkpt>
      <trkpt lat="49.63613" lon="5.57205">
        <ele>343</ele>
        <time>2022-03-18T10:04:38.000Z</time>
      </trkpt>
      <trkpt lat="49.63605" lon="5.57169">
        <ele>344.39999389648</ele>
        <time>2022-03-18T10:04:44.000Z</time>
      </trkpt>
      <trkpt lat="49.63598" lon="5.57136">
        <ele>345.20001220703</ele>
        <time>2022-03-18T10:04:49.000Z</time>
      </trkpt>
      <trkpt lat="49.63596" lon="5.57129">
        <ele>345.39999389648</ele>
        <time>2022-03-18T10:04:50.000Z</time>
      </trkpt>
      <trkpt lat="49.63584" lon="5.57092">
        <ele>346.60000610352</ele>
        <time>2022-03-18T10:04:55.000Z</time>
      </trkpt>
      <trkpt lat="49.63577" lon="5.5707">
        <ele>346.20001220703</ele>
        <time>2022-03-18T10:04:58.000Z</time>
      </trkpt>
      <trkpt lat="49.63563" lon="5.57022">
        <ele>344</ele>
        <time>2022-03-18T10:05:05.000Z</time>
      </trkpt>
      <trkpt lat="49.63567" lon="5.57014">
        <ele>344</ele>
        <time>2022-03-18T10:05:07.000Z</time>
      </trkpt>
      <trkpt lat="49.6357" lon="5.57012">
        <ele>344.20001220703</ele>
        <time>2022-03-18T10:05:08.000Z</time>
      </trkpt>
      <trkpt lat="49.63573" lon="5.57009">
        <ele>344.60000610352</ele>
        <time>2022-03-18T10:05:09.000Z</time>
      </trkpt>
      <trkpt lat="49.63589" lon="5.56998">
        <ele>346.20001220703</ele>
        <time>2022-03-18T10:05:13.000Z</time>
      </trkpt>
      <trkpt lat="49.63614" lon="5.56978">
        <ele>348.79998779297</ele>
        <time>2022-03-18T10:05:19.000Z</time>
      </trkpt>
      <trkpt lat="49.63635" lon="5.56962">
        <ele>350</ele>
        <time>2022-03-18T10:05:25.000Z</time>
      </trkpt>
      <trkpt lat="49.63638" lon="5.5696">
        <ele>350</ele>
        <time>2022-03-18T10:05:26.000Z</time>
      </trkpt>
      <trkpt lat="49.63656" lon="5.56947">
        <ele>350</ele>
        <time>2022-03-18T10:05:32.000Z</time>
      </trkpt>
      <trkpt lat="49.63671" lon="5.56935">
        <ele>349.60000610352</ele>
        <time>2022-03-18T10:05:37.000Z</time>
      </trkpt>
      <trkpt lat="49.63689" lon="5.56928">
        <ele>349</ele>
        <time>2022-03-18T10:05:43.000Z</time>
      </trkpt>
      <trkpt lat="49.63708" lon="5.56913">
        <ele>348.79998779297</ele>
        <time>2022-03-18T10:05:49.000Z</time>
      </trkpt>
      <trkpt lat="49.63727" lon="5.56898">
        <ele>349</ele>
        <time>2022-03-18T10:05:55.000Z</time>
      </trkpt>
      <trkpt lat="49.6375" lon="5.56886">
        <ele>347.20001220703</ele>
        <time>2022-03-18T10:06:01.000Z</time>
      </trkpt>
      <trkpt lat="49.63761" lon="5.56894">
        <ele>346.60000610352</ele>
        <time>2022-03-18T10:06:05.000Z</time>
      </trkpt>
      <trkpt lat="49.63768" lon="5.56911">
        <ele>346.79998779297</ele>
        <time>2022-03-18T10:06:09.000Z</time>
      </trkpt>
      <trkpt lat="49.63781" lon="5.56939">
        <ele>347.60000610352</ele>
        <time>2022-03-18T10:06:15.000Z</time>
      </trkpt>
      <trkpt lat="49.63783" lon="5.56945">
        <ele>347.79998779297</ele>
        <time>2022-03-18T10:06:16.000Z</time>
      </trkpt>
      <trkpt lat="49.63789" lon="5.56967">
        <ele>348.39999389648</ele>
        <time>2022-03-18T10:06:20.000Z</time>
      </trkpt>
      <trkpt lat="49.638" lon="5.56998">
        <ele>349.39999389648</ele>
        <time>2022-03-18T10:06:26.000Z</time>
      </trkpt>
      <trkpt lat="49.63807" lon="5.57023">
        <ele>350</ele>
        <time>2022-03-18T10:06:31.000Z</time>
      </trkpt>
      <trkpt lat="49.63809" lon="5.57029">
        <ele>350</ele>
        <time>2022-03-18T10:06:32.000Z</time>
      </trkpt>
      <trkpt lat="49.63817" lon="5.5705">
        <ele>350.60000610352</ele>
        <time>2022-03-18T10:06:36.000Z</time>
      </trkpt>
      <trkpt lat="49.63835" lon="5.57085">
        <ele>351.20001220703</ele>
        <time>2022-03-18T10:06:42.000Z</time>
      </trkpt>
      <trkpt lat="49.63844" lon="5.57116">
        <ele>351.60000610352</ele>
        <time>2022-03-18T10:06:47.000Z</time>
      </trkpt>
      <trkpt lat="49.63847" lon="5.57148">
        <ele>351.60000610352</ele>
        <time>2022-03-18T10:06:52.000Z</time>
      </trkpt>
      <trkpt lat="49.63848" lon="5.57154">
        <ele>351.60000610352</ele>
        <time>2022-03-18T10:06:53.000Z</time>
      </trkpt>
      <trkpt lat="49.63852" lon="5.57179">
        <ele>351.39999389648</ele>
        <time>2022-03-18T10:06:58.000Z</time>
      </trkpt>
      <trkpt lat="49.63852" lon="5.57208">
        <ele>352</ele>
        <time>2022-03-18T10:07:03.000Z</time>
      </trkpt>
      <trkpt lat="49.63854" lon="5.5724">
        <ele>352.60000610352</ele>
        <time>2022-03-18T10:07:09.000Z</time>
      </trkpt>
      <trkpt lat="49.63857" lon="5.57262">
        <ele>353</ele>
        <time>2022-03-18T10:07:14.000Z</time>
      </trkpt>
      <trkpt lat="49.63864" lon="5.57282">
        <ele>353</ele>
        <time>2022-03-18T10:07:17.000Z</time>
      </trkpt>
      <trkpt lat="49.63866" lon="5.57287">
        <ele>352.60000610352</ele>
        <time>2022-03-18T10:07:18.000Z</time>
      </trkpt>
      <trkpt lat="49.63873" lon="5.57293">
        <ele>351.39999389648</ele>
        <time>2022-03-18T10:07:20.000Z</time>
      </trkpt>
      <trkpt lat="49.6388" lon="5.57295">
        <ele>350.20001220703</ele>
        <time>2022-03-18T10:07:22.000Z</time>
      </trkpt>
      <trkpt lat="49.63885" lon="5.57294">
        <ele>349.79998779297</ele>
        <time>2022-03-18T10:07:23.000Z</time>
      </trkpt>
      <trkpt lat="49.63888" lon="5.57293">
        <ele>349.39999389648</ele>
        <time>2022-03-18T10:07:24.000Z</time>
      </trkpt>
      <trkpt lat="49.63893" lon="5.57292">
        <ele>349.20001220703</ele>
        <time>2022-03-18T10:07:25.000Z</time>
      </trkpt>
      <trkpt lat="49.63897" lon="5.5729">
        <ele>348.39999389648</ele>
        <time>2022-03-18T10:07:26.000Z</time>
      </trkpt>
      <trkpt lat="49.63901" lon="5.57289">
        <ele>347.60000610352</ele>
        <time>2022-03-18T10:07:27.000Z</time>
      </trkpt>
      <trkpt lat="49.63906" lon="5.57287">
        <ele>346.60000610352</ele>
        <time>2022-03-18T10:07:28.000Z</time>
      </trkpt>
      <trkpt lat="49.63912" lon="5.57284">
        <ele>345.60000610352</ele>
        <time>2022-03-18T10:07:29.000Z</time>
      </trkpt>
      <trkpt lat="49.63917" lon="5.57281">
        <ele>344.60000610352</ele>
        <time>2022-03-18T10:07:30.000Z</time>
      </trkpt>
      <trkpt lat="49.63923" lon="5.57279">
        <ele>343.60000610352</ele>
        <time>2022-03-18T10:07:31.000Z</time>
      </trkpt>
      <trkpt lat="49.63928" lon="5.57277">
        <ele>342.39999389648</ele>
        <time>2022-03-18T10:07:32.000Z</time>
      </trkpt>
      <trkpt lat="49.63934" lon="5.57276">
        <ele>341.20001220703</ele>
        <time>2022-03-18T10:07:33.000Z</time>
      </trkpt>
      <trkpt lat="49.63951" lon="5.57275">
        <ele>337.39999389648</ele>
        <time>2022-03-18T10:07:36.000Z</time>
      </trkpt>
      <trkpt lat="49.63965" lon="5.57276">
        <ele>334.60000610352</ele>
        <time>2022-03-18T10:07:38.000Z</time>
      </trkpt>
      <trkpt lat="49.63972" lon="5.57276">
        <ele>333</ele>
        <time>2022-03-18T10:07:39.000Z</time>
      </trkpt>
      <trkpt lat="49.6398" lon="5.57277">
        <ele>331.60000610352</ele>
        <time>2022-03-18T10:07:40.000Z</time>
      </trkpt>
      <trkpt lat="49.63988" lon="5.57277">
        <ele>330.20001220703</ele>
        <time>2022-03-18T10:07:41.000Z</time>
      </trkpt>
      <trkpt lat="49.63995" lon="5.57277">
        <ele>328.79998779297</ele>
        <time>2022-03-18T10:07:42.000Z</time>
      </trkpt>
      <trkpt lat="49.64002" lon="5.57276">
        <ele>327.60000610352</ele>
        <time>2022-03-18T10:07:43.000Z</time>
      </trkpt>
      <trkpt lat="49.64009" lon="5.57274">
        <ele>326.20001220703</ele>
        <time>2022-03-18T10:07:44.000Z</time>
      </trkpt>
      <trkpt lat="49.64015" lon="5.57272">
        <ele>324.60000610352</ele>
        <time>2022-03-18T10:07:45.000Z</time>
      </trkpt>
      <trkpt lat="49.64021" lon="5.57268">
        <ele>323.60000610352</ele>
        <time>2022-03-18T10:07:46.000Z</time>
      </trkpt>
      <trkpt lat="49.64033" lon="5.57259">
        <ele>322</ele>
        <time>2022-03-18T10:07:48.000Z</time>
      </trkpt>
      <trkpt lat="49.64039" lon="5.57253">
        <ele>321.39999389648</ele>
        <time>2022-03-18T10:07:49.000Z</time>
      </trkpt>
      <trkpt lat="49.64045" lon="5.57245">
        <ele>320.39999389648</ele>
        <time>2022-03-18T10:07:50.000Z</time>
      </trkpt>
      <trkpt lat="49.64049" lon="5.57238">
        <ele>319.60000610352</ele>
        <time>2022-03-18T10:07:51.000Z</time>
      </trkpt>
      <trkpt lat="49.64058" lon="5.57222">
        <ele>317.39999389648</ele>
        <time>2022-03-18T10:07:53.000Z</time>
      </trkpt>
      <trkpt lat="49.64061" lon="5.57216">
        <ele>315.79998779297</ele>
        <time>2022-03-18T10:07:54.000Z</time>
      </trkpt>
      <trkpt lat="49.64065" lon="5.57209">
        <ele>314.20001220703</ele>
        <time>2022-03-18T10:07:55.000Z</time>
      </trkpt>
      <trkpt lat="49.6407" lon="5.572">
        <ele>312.60000610352</ele>
        <time>2022-03-18T10:07:57.000Z</time>
      </trkpt>
      <trkpt lat="49.64072" lon="5.57198">
        <ele>311.79998779297</ele>
        <time>2022-03-18T10:07:58.000Z</time>
      </trkpt>
      <trkpt lat="49.64074" lon="5.57197">
        <ele>311.39999389648</ele>
        <time>2022-03-18T10:07:59.000Z</time>
      </trkpt>
      <trkpt lat="49.64076" lon="5.57196">
        <ele>311</ele>
        <time>2022-03-18T10:08:00.000Z</time>
      </trkpt>
      <trkpt lat="49.64085" lon="5.57191">
        <ele>308.79998779297</ele>
        <time>2022-03-18T10:08:02.000Z</time>
      </trkpt>
      <trkpt lat="49.64085" lon="5.57192">
        <ele>308.79998779297</ele>
        <time>2022-03-18T10:08:03.000Z</time>
      </trkpt>
      <trkpt lat="49.64084" lon="5.57195">
        <ele>309.39999389648</ele>
        <time>2022-03-18T10:08:05.000Z</time>
      </trkpt>
      <trkpt lat="49.64085" lon="5.57204">
        <ele>310.39999389648</ele>
        <time>2022-03-18T10:08:08.000Z</time>
      </trkpt>
      <trkpt lat="49.64086" lon="5.57225">
        <ele>312.20001220703</ele>
        <time>2022-03-18T10:08:12.000Z</time>
      </trkpt>
      <trkpt lat="49.64088" lon="5.57262">
        <ele>311.39999389648</ele>
        <time>2022-03-18T10:08:18.000Z</time>
      </trkpt>
      <trkpt lat="49.64087" lon="5.57285">
        <ele>309.60000610352</ele>
        <time>2022-03-18T10:08:21.000Z</time>
      </trkpt>
      <trkpt lat="49.64085" lon="5.57292">
        <ele>309.60000610352</ele>
        <time>2022-03-18T10:08:22.000Z</time>
      </trkpt>
      <trkpt lat="49.64082" lon="5.57299">
        <ele>309.60000610352</ele>
        <time>2022-03-18T10:08:23.000Z</time>
      </trkpt>
      <trkpt lat="49.6407" lon="5.57326">
        <ele>309.20001220703</ele>
        <time>2022-03-18T10:08:27.000Z</time>
      </trkpt>
      <trkpt lat="49.64063" lon="5.57338">
        <ele>309.20001220703</ele>
        <time>2022-03-18T10:08:29.000Z</time>
      </trkpt>
      <trkpt lat="49.64059" lon="5.57345">
        <ele>308.79998779297</ele>
        <time>2022-03-18T10:08:30.000Z</time>
      </trkpt>
      <trkpt lat="49.64032" lon="5.57387">
        <ele>308.79998779297</ele>
        <time>2022-03-18T10:08:36.000Z</time>
      </trkpt>
      <trkpt lat="49.64018" lon="5.5741">
        <ele>307.39999389648</ele>
        <time>2022-03-18T10:08:39.000Z</time>
      </trkpt>
      <trkpt lat="49.64009" lon="5.57426">
        <ele>306.60000610352</ele>
        <time>2022-03-18T10:08:41.000Z</time>
      </trkpt>
      <trkpt lat="49.63996" lon="5.57446">
        <ele>305.39999389648</ele>
        <time>2022-03-18T10:08:44.000Z</time>
      </trkpt>
      <trkpt lat="49.63983" lon="5.57473">
        <ele>303</ele>
        <time>2022-03-18T10:08:48.000Z</time>
      </trkpt>
      <trkpt lat="49.63974" lon="5.57496">
        <ele>300.60000610352</ele>
        <time>2022-03-18T10:08:51.000Z</time>
      </trkpt>
      <trkpt lat="49.63971" lon="5.57511">
        <ele>300</ele>
        <time>2022-03-18T10:08:53.000Z</time>
      </trkpt>
      <trkpt lat="49.6397" lon="5.57518">
        <ele>300</ele>
        <time>2022-03-18T10:08:54.000Z</time>
      </trkpt>
      <trkpt lat="49.63968" lon="5.57544">
        <ele>299.39999389648</ele>
        <time>2022-03-18T10:08:57.000Z</time>
      </trkpt>
      <trkpt lat="49.63967" lon="5.57566">
        <ele>299.79998779297</ele>
        <time>2022-03-18T10:08:59.000Z</time>
      </trkpt>
      <trkpt lat="49.63973" lon="5.57581">
        <ele>299.39999389648</ele>
        <time>2022-03-18T10:09:01.000Z</time>
      </trkpt>
      <trkpt lat="49.63984" lon="5.57603">
        <ele>299</ele>
        <time>2022-03-18T10:09:04.000Z</time>
      </trkpt>
      <trkpt lat="49.63988" lon="5.57609">
        <ele>299</ele>
        <time>2022-03-18T10:09:05.000Z</time>
      </trkpt>
      <trkpt lat="49.63997" lon="5.57615">
        <ele>298.39999389648</ele>
        <time>2022-03-18T10:09:07.000Z</time>
      </trkpt>
      <trkpt lat="49.6401" lon="5.57625">
        <ele>297.79998779297</ele>
        <time>2022-03-18T10:09:10.000Z</time>
      </trkpt>
      <trkpt lat="49.64012" lon="5.57631">
        <ele>297.79998779297</ele>
        <time>2022-03-18T10:09:11.000Z</time>
      </trkpt>
      <trkpt lat="49.64015" lon="5.57643">
        <ele>297.79998779297</ele>
        <time>2022-03-18T10:09:13.000Z</time>
      </trkpt>
      <trkpt lat="49.64016" lon="5.57648">
        <ele>298</ele>
        <time>2022-03-18T10:09:14.000Z</time>
      </trkpt>
      <trkpt lat="49.64012" lon="5.57668">
        <ele>299</ele>
        <time>2022-03-18T10:09:18.000Z</time>
      </trkpt>
      <trkpt lat="49.64001" lon="5.57695">
        <ele>302.79998779297</ele>
        <time>2022-03-18T10:09:23.000Z</time>
      </trkpt>
      <trkpt lat="49.64" lon="5.57698">
        <ele>303</ele>
        <time>2022-03-18T10:09:24.000Z</time>
      </trkpt>
      <trkpt lat="49.63996" lon="5.57709">
        <ele>304.20001220703</ele>
        <time>2022-03-18T10:09:27.000Z</time>
      </trkpt>
      <trkpt lat="49.6399" lon="5.57732">
        <ele>304.39999389648</ele>
        <time>2022-03-18T10:09:32.000Z</time>
      </trkpt>
      <trkpt lat="49.6398" lon="5.57759">
        <ele>303.39999389648</ele>
        <time>2022-03-18T10:09:37.000Z</time>
      </trkpt>
      <trkpt lat="49.63974" lon="5.57772">
        <ele>303.20001220703</ele>
        <time>2022-03-18T10:09:40.000Z</time>
      </trkpt>
      <trkpt lat="49.63966" lon="5.57783">
        <ele>302.60000610352</ele>
        <time>2022-03-18T10:09:43.000Z</time>
      </trkpt>
      <trkpt lat="49.63951" lon="5.57801">
        <ele>301.20001220703</ele>
        <time>2022-03-18T10:09:47.000Z</time>
      </trkpt>
      <trkpt lat="49.63947" lon="5.57805">
        <ele>300.60000610352</ele>
        <time>2022-03-18T10:09:48.000Z</time>
      </trkpt>
      <trkpt lat="49.63925" lon="5.57814">
        <ele>300.79998779297</ele>
        <time>2022-03-18T10:09:53.000Z</time>
      </trkpt>
      <trkpt lat="49.63904" lon="5.57818">
        <ele>299.79998779297</ele>
        <time>2022-03-18T10:09:59.000Z</time>
      </trkpt>
      <trkpt lat="49.63889" lon="5.57826">
        <ele>299.39999389648</ele>
        <time>2022-03-18T10:10:02.000Z</time>
      </trkpt>
      <trkpt lat="49.63884" lon="5.57828">
        <ele>299.60000610352</ele>
        <time>2022-03-18T10:10:03.000Z</time>
      </trkpt>
      <trkpt lat="49.63865" lon="5.57843">
        <ele>298.20001220703</ele>
        <time>2022-03-18T10:10:08.000Z</time>
      </trkpt>
      <trkpt lat="49.63864" lon="5.57848">
        <ele>298.60000610352</ele>
        <time>2022-03-18T10:10:09.000Z</time>
      </trkpt>
      <trkpt lat="49.63862" lon="5.57859">
        <ele>300</ele>
        <time>2022-03-18T10:10:11.000Z</time>
      </trkpt>
      <trkpt lat="49.63861" lon="5.57883">
        <ele>302.20001220703</ele>
        <time>2022-03-18T10:10:16.000Z</time>
      </trkpt>
      <trkpt lat="49.63861" lon="5.57895">
        <ele>303.20001220703</ele>
        <time>2022-03-18T10:10:18.000Z</time>
      </trkpt>
      <trkpt lat="49.63863" lon="5.57912">
        <ele>304.20001220703</ele>
        <time>2022-03-18T10:10:20.000Z</time>
      </trkpt>
      <trkpt lat="49.63863" lon="5.5792">
        <ele>304.39999389648</ele>
        <time>2022-03-18T10:10:21.000Z</time>
      </trkpt>
      <trkpt lat="49.63863" lon="5.57952">
        <ele>305.79998779297</ele>
        <time>2022-03-18T10:10:25.000Z</time>
      </trkpt>
      <trkpt lat="49.63864" lon="5.5796">
        <ele>306</ele>
        <time>2022-03-18T10:10:26.000Z</time>
      </trkpt>
      <trkpt lat="49.63865" lon="5.57998">
        <ele>307.20001220703</ele>
        <time>2022-03-18T10:10:31.000Z</time>
      </trkpt>
      <trkpt lat="49.63868" lon="5.58017">
        <ele>308.20001220703</ele>
        <time>2022-03-18T10:10:33.000Z</time>
      </trkpt>
      <trkpt lat="49.63874" lon="5.58048">
        <ele>310.39999389648</ele>
        <time>2022-03-18T10:10:36.000Z</time>
      </trkpt>
      <trkpt lat="49.63881" lon="5.58089">
        <ele>313</ele>
        <time>2022-03-18T10:10:40.000Z</time>
      </trkpt>
      <trkpt lat="49.63887" lon="5.58119">
        <ele>315.39999389648</ele>
        <time>2022-03-18T10:10:43.000Z</time>
      </trkpt>
      <trkpt lat="49.63888" lon="5.58128">
        <ele>316.39999389648</ele>
        <time>2022-03-18T10:10:44.000Z</time>
      </trkpt>
      <trkpt lat="49.63889" lon="5.58139">
        <ele>317.39999389648</ele>
        <time>2022-03-18T10:10:45.000Z</time>
      </trkpt>
      <trkpt lat="49.63889" lon="5.5816">
        <ele>319.20001220703</ele>
        <time>2022-03-18T10:10:47.000Z</time>
      </trkpt>
      <trkpt lat="49.63889" lon="5.58179">
        <ele>318.60000610352</ele>
        <time>2022-03-18T10:10:49.000Z</time>
      </trkpt>
      <trkpt lat="49.63885" lon="5.58205">
        <ele>315</ele>
        <time>2022-03-18T10:10:53.000Z</time>
      </trkpt>
      <trkpt lat="49.63878" lon="5.58243">
        <ele>307.79998779297</ele>
        <time>2022-03-18T10:10:58.000Z</time>
      </trkpt>
      <trkpt lat="49.63875" lon="5.58276">
        <ele>305</ele>
        <time>2022-03-18T10:11:02.000Z</time>
      </trkpt>
      <trkpt lat="49.63879" lon="5.58294">
        <ele>303</ele>
        <time>2022-03-18T10:11:04.000Z</time>
      </trkpt>
      <trkpt lat="49.6388" lon="5.58304">
        <ele>301.79998779297</ele>
        <time>2022-03-18T10:11:05.000Z</time>
      </trkpt>
      <trkpt lat="49.63882" lon="5.58335">
        <ele>298.60000610352</ele>
        <time>2022-03-18T10:11:09.000Z</time>
      </trkpt>
      <trkpt lat="49.63881" lon="5.58378">
        <ele>296.39999389648</ele>
        <time>2022-03-18T10:11:14.000Z</time>
      </trkpt>
      <trkpt lat="49.63883" lon="5.58397">
        <ele>296.20001220703</ele>
        <time>2022-03-18T10:11:16.000Z</time>
      </trkpt>
      <trkpt lat="49.63889" lon="5.58426">
        <ele>298.60000610352</ele>
        <time>2022-03-18T10:11:19.000Z</time>
      </trkpt>
      <trkpt lat="49.63913" lon="5.58494">
        <ele>299.39999389648</ele>
        <time>2022-03-18T10:11:26.000Z</time>
      </trkpt>
      <trkpt lat="49.63928" lon="5.58528">
        <ele>296.79998779297</ele>
        <time>2022-03-18T10:11:30.000Z</time>
      </trkpt>
      <trkpt lat="49.63933" lon="5.58541">
        <ele>295.20001220703</ele>
        <time>2022-03-18T10:11:32.000Z</time>
      </trkpt>
      <trkpt lat="49.63938" lon="5.58564">
        <ele>293.79998779297</ele>
        <time>2022-03-18T10:11:35.000Z</time>
      </trkpt>
      <trkpt lat="49.63938" lon="5.5858">
        <ele>293.60000610352</ele>
        <time>2022-03-18T10:11:37.000Z</time>
      </trkpt>
      <trkpt lat="49.63929" lon="5.58603">
        <ele>293.39999389648</ele>
        <time>2022-03-18T10:11:41.000Z</time>
      </trkpt>
      <trkpt lat="49.63909" lon="5.58619">
        <ele>292.60000610352</ele>
        <time>2022-03-18T10:11:43.000Z</time>
      </trkpt>
      <trkpt lat="49.639" lon="5.58626">
        <ele>292.20001220703</ele>
        <time>2022-03-18T10:11:44.000Z</time>
      </trkpt>
      <trkpt lat="49.63891" lon="5.58632">
        <ele>290.60000610352</ele>
        <time>2022-03-18T10:11:45.000Z</time>
      </trkpt>
      <trkpt lat="49.63857" lon="5.58662">
        <ele>293</ele>
        <time>2022-03-18T10:11:50.000Z</time>
      </trkpt>
      <trkpt lat="49.63838" lon="5.58679">
        <ele>291.60000610352</ele>
        <time>2022-03-18T10:11:53.000Z</time>
      </trkpt>
      <trkpt lat="49.63826" lon="5.58689">
        <ele>291.39999389648</ele>
        <time>2022-03-18T10:11:55.000Z</time>
      </trkpt>
      <trkpt lat="49.63787" lon="5.58725">
        <ele>288.20001220703</ele>
        <time>2022-03-18T10:12:02.000Z</time>
      </trkpt>
      <trkpt lat="49.63745" lon="5.58769">
        <ele>291.60000610352</ele>
        <time>2022-03-18T10:12:10.000Z</time>
      </trkpt>
      <trkpt lat="49.63714" lon="5.58804">
        <ele>291</ele>
        <time>2022-03-18T10:12:16.000Z</time>
      </trkpt>
      <trkpt lat="49.63705" lon="5.58816">
        <ele>290.20001220703</ele>
        <time>2022-03-18T10:12:18.000Z</time>
      </trkpt>
      <trkpt lat="49.6368" lon="5.58859">
        <ele>289.60000610352</ele>
        <time>2022-03-18T10:12:24.000Z</time>
      </trkpt>
      <trkpt lat="49.63661" lon="5.58916">
        <ele>289.79998779297</ele>
        <time>2022-03-18T10:12:31.000Z</time>
      </trkpt>
      <trkpt lat="49.63647" lon="5.58988">
        <ele>292</ele>
        <time>2022-03-18T10:12:39.000Z</time>
      </trkpt>
      <trkpt lat="49.63622" lon="5.59064">
        <ele>287.39999389648</ele>
        <time>2022-03-18T10:12:47.000Z</time>
      </trkpt>
      <trkpt lat="49.63618" lon="5.59073">
        <ele>287</ele>
        <time>2022-03-18T10:12:48.000Z</time>
      </trkpt>
      <trkpt lat="49.636" lon="5.59127">
        <ele>289.60000610352</ele>
        <time>2022-03-18T10:12:55.000Z</time>
      </trkpt>
      <trkpt lat="49.63573" lon="5.59188">
        <ele>289.60000610352</ele>
        <time>2022-03-18T10:13:03.000Z</time>
      </trkpt>
      <trkpt lat="49.63569" lon="5.59195">
        <ele>289.60000610352</ele>
        <time>2022-03-18T10:13:04.000Z</time>
      </trkpt>
      <trkpt lat="49.63566" lon="5.59201">
        <ele>289.79998779297</ele>
        <time>2022-03-18T10:13:05.000Z</time>
      </trkpt>
      <trkpt lat="49.63543" lon="5.59252">
        <ele>291.79998779297</ele>
        <time>2022-03-18T10:13:12.000Z</time>
      </trkpt>
      <trkpt lat="49.63536" lon="5.59265">
        <ele>292.39999389648</ele>
        <time>2022-03-18T10:13:14.000Z</time>
      </trkpt>
      <trkpt lat="49.63527" lon="5.59274">
        <ele>292.60000610352</ele>
        <time>2022-03-18T10:13:16.000Z</time>
      </trkpt>
      <trkpt lat="49.63508" lon="5.59273">
        <ele>291.60000610352</ele>
        <time>2022-03-18T10:13:19.000Z</time>
      </trkpt>
      <trkpt lat="49.63501" lon="5.59271">
        <ele>291.20001220703</ele>
        <time>2022-03-18T10:13:20.000Z</time>
      </trkpt>
      <trkpt lat="49.63467" lon="5.59261">
        <ele>292.60000610352</ele>
        <time>2022-03-18T10:13:25.000Z</time>
      </trkpt>
      <trkpt lat="49.63448" lon="5.59254">
        <ele>294.39999389648</ele>
        <time>2022-03-18T10:13:28.000Z</time>
      </trkpt>
      <trkpt lat="49.63425" lon="5.59242">
        <ele>292.60000610352</ele>
        <time>2022-03-18T10:13:32.000Z</time>
      </trkpt>
      <trkpt lat="49.63387" lon="5.59228">
        <ele>289.20001220703</ele>
        <time>2022-03-18T10:13:39.000Z</time>
      </trkpt>
      <trkpt lat="49.63382" lon="5.59228">
        <ele>289</ele>
        <time>2022-03-18T10:13:40.000Z</time>
      </trkpt>
      <trkpt lat="49.63359" lon="5.59229">
        <ele>289.39999389648</ele>
        <time>2022-03-18T10:13:44.000Z</time>
      </trkpt>
      <trkpt lat="49.63338" lon="5.59235">
        <ele>290.20001220703</ele>
        <time>2022-03-18T10:13:48.000Z</time>
      </trkpt>
      <trkpt lat="49.63333" lon="5.59237">
        <ele>290.60000610352</ele>
        <time>2022-03-18T10:13:49.000Z</time>
      </trkpt>
      <trkpt lat="49.6332" lon="5.59243">
        <ele>291.79998779297</ele>
        <time>2022-03-18T10:13:52.000Z</time>
      </trkpt>
      <trkpt lat="49.63313" lon="5.5925">
        <ele>293.39999389648</ele>
        <time>2022-03-18T10:13:54.000Z</time>
      </trkpt>
      <trkpt lat="49.63302" lon="5.59266">
        <ele>297.39999389648</ele>
        <time>2022-03-18T10:13:59.000Z</time>
      </trkpt>
      <trkpt lat="49.63294" lon="5.59274">
        <ele>298.39999389648</ele>
        <time>2022-03-18T10:14:04.000Z</time>
      </trkpt>
      <trkpt lat="49.63293" lon="5.59274">
        <ele>298.39999389648</ele>
        <time>2022-03-18T10:14:05.000Z</time>
      </trkpt>
      <trkpt lat="49.63287" lon="5.59277">
        <ele>298.20001220703</ele>
        <time>2022-03-18T10:14:11.000Z</time>
      </trkpt>
      <trkpt lat="49.63281" lon="5.59281">
        <ele>298</ele>
        <time>2022-03-18T10:14:14.000Z</time>
      </trkpt>
      <trkpt lat="49.63274" lon="5.59284">
        <ele>298.79998779297</ele>
        <time>2022-03-18T10:14:17.000Z</time>
      </trkpt>
      <trkpt lat="49.63273" lon="5.59285">
        <ele>299</ele>
        <time>2022-03-18T10:14:18.000Z</time>
      </trkpt>
      <trkpt lat="49.63261" lon="5.5929">
        <ele>300.20001220703</ele>
        <time>2022-03-18T10:14:23.000Z</time>
      </trkpt>
      <trkpt lat="49.63255" lon="5.59294">
        <ele>301</ele>
        <time>2022-03-18T10:14:26.000Z</time>
      </trkpt>
      <trkpt lat="49.63248" lon="5.59296">
        <ele>302.20001220703</ele>
        <time>2022-03-18T10:14:29.000Z</time>
      </trkpt>
      <trkpt lat="49.63245" lon="5.59296">
        <ele>302.60000610352</ele>
        <time>2022-03-18T10:14:30.000Z</time>
      </trkpt>
      <trkpt lat="49.63234" lon="5.59298">
        <ele>304.39999389648</ele>
        <time>2022-03-18T10:14:34.000Z</time>
      </trkpt>
      <trkpt lat="49.63232" lon="5.59298">
        <ele>305</ele>
        <time>2022-03-18T10:14:35.000Z</time>
      </trkpt>
      <trkpt lat="49.63228" lon="5.59299">
        <ele>305.79998779297</ele>
        <time>2022-03-18T10:14:37.000Z</time>
      </trkpt>
      <trkpt lat="49.6322" lon="5.593">
        <ele>307.20001220703</ele>
        <time>2022-03-18T10:14:40.000Z</time>
      </trkpt>
      <trkpt lat="49.63215" lon="5.59301">
        <ele>308.20001220703</ele>
        <time>2022-03-18T10:14:42.000Z</time>
      </trkpt>
      <trkpt lat="49.63213" lon="5.59301">
        <ele>308.79998779297</ele>
        <time>2022-03-18T10:14:43.000Z</time>
      </trkpt>
      <trkpt lat="49.63208" lon="5.59302">
        <ele>310.20001220703</ele>
        <time>2022-03-18T10:14:45.000Z</time>
      </trkpt>
      <trkpt lat="49.63202" lon="5.59302">
        <ele>311.20001220703</ele>
        <time>2022-03-18T10:14:47.000Z</time>
      </trkpt>
      <trkpt lat="49.63189" lon="5.593">
        <ele>313.39999389648</ele>
        <time>2022-03-18T10:14:50.000Z</time>
      </trkpt>
      <trkpt lat="49.63181" lon="5.593">
        <ele>314.39999389648</ele>
        <time>2022-03-18T10:14:52.000Z</time>
      </trkpt>
      <trkpt lat="49.63177" lon="5.59298">
        <ele>314.60000610352</ele>
        <time>2022-03-18T10:14:53.000Z</time>
      </trkpt>
      <trkpt lat="49.63167" lon="5.59295">
        <ele>315.20001220703</ele>
        <time>2022-03-18T10:14:56.000Z</time>
      </trkpt>
      <trkpt lat="49.63163" lon="5.59295">
        <ele>315.60000610352</ele>
        <time>2022-03-18T10:14:57.000Z</time>
      </trkpt>
      <trkpt lat="49.63158" lon="5.59293">
        <ele>316</ele>
        <time>2022-03-18T10:14:59.000Z</time>
      </trkpt>
      <trkpt lat="49.63151" lon="5.5929">
        <ele>316.39999389648</ele>
        <time>2022-03-18T10:15:02.000Z</time>
      </trkpt>
      <trkpt lat="49.63148" lon="5.59288">
        <ele>316.39999389648</ele>
        <time>2022-03-18T10:15:03.000Z</time>
      </trkpt>
      <trkpt lat="49.63144" lon="5.59285">
        <ele>316</ele>
        <time>2022-03-18T10:15:05.000Z</time>
      </trkpt>
      <trkpt lat="49.63139" lon="5.59283">
        <ele>316.39999389648</ele>
        <time>2022-03-18T10:15:07.000Z</time>
      </trkpt>
      <trkpt lat="49.63133" lon="5.59281">
        <ele>317.39999389648</ele>
        <time>2022-03-18T10:15:09.000Z</time>
      </trkpt>
      <trkpt lat="49.63126" lon="5.59277">
        <ele>318.39999389648</ele>
        <time>2022-03-18T10:15:12.000Z</time>
      </trkpt>
      <trkpt lat="49.63121" lon="5.59275">
        <ele>319</ele>
        <time>2022-03-18T10:15:14.000Z</time>
      </trkpt>
      <trkpt lat="49.63113" lon="5.59272">
        <ele>320.20001220703</ele>
        <time>2022-03-18T10:15:17.000Z</time>
      </trkpt>
      <trkpt lat="49.63108" lon="5.59269">
        <ele>320.60000610352</ele>
        <time>2022-03-18T10:15:19.000Z</time>
      </trkpt>
      <trkpt lat="49.63103" lon="5.59266">
        <ele>320.79998779297</ele>
        <time>2022-03-18T10:15:21.000Z</time>
      </trkpt>
      <trkpt lat="49.63094" lon="5.5926">
        <ele>321.39999389648</ele>
        <time>2022-03-18T10:15:24.000Z</time>
      </trkpt>
      <trkpt lat="49.63078" lon="5.59259">
        <ele>324</ele>
        <time>2022-03-18T10:15:29.000Z</time>
      </trkpt>
      <trkpt lat="49.63069" lon="5.59265">
        <ele>326.39999389648</ele>
        <time>2022-03-18T10:15:32.000Z</time>
      </trkpt>
      <trkpt lat="49.63066" lon="5.59267">
        <ele>326.79998779297</ele>
        <time>2022-03-18T10:15:33.000Z</time>
      </trkpt>
      <trkpt lat="49.63057" lon="5.59274">
        <ele>328</ele>
        <time>2022-03-18T10:15:36.000Z</time>
      </trkpt>
      <trkpt lat="49.6305" lon="5.5928">
        <ele>327.79998779297</ele>
        <time>2022-03-18T10:15:39.000Z</time>
      </trkpt>
      <trkpt lat="49.63047" lon="5.59281">
        <ele>327.60000610352</ele>
        <time>2022-03-18T10:15:40.000Z</time>
      </trkpt>
      <trkpt lat="49.63041" lon="5.59286">
        <ele>327</ele>
        <time>2022-03-18T10:15:42.000Z</time>
      </trkpt>
      <trkpt lat="49.63034" lon="5.59296">
        <ele>327.60000610352</ele>
        <time>2022-03-18T10:15:45.000Z</time>
      </trkpt>
      <trkpt lat="49.63031" lon="5.593">
        <ele>328</ele>
        <time>2022-03-18T10:15:46.000Z</time>
      </trkpt>
      <trkpt lat="49.63025" lon="5.59309">
        <ele>329.20001220703</ele>
        <time>2022-03-18T10:15:48.000Z</time>
      </trkpt>
      <trkpt lat="49.63016" lon="5.59326">
        <ele>330.20001220703</ele>
        <time>2022-03-18T10:15:52.000Z</time>
      </trkpt>
      <trkpt lat="49.63013" lon="5.59329">
        <ele>330.39999389648</ele>
        <time>2022-03-18T10:15:53.000Z</time>
      </trkpt>
      <trkpt lat="49.63007" lon="5.59341">
        <ele>331.20001220703</ele>
        <time>2022-03-18T10:15:56.000Z</time>
      </trkpt>
      <trkpt lat="49.63007" lon="5.5935">
        <ele>332.39999389648</ele>
        <time>2022-03-18T10:15:58.000Z</time>
      </trkpt>
      <trkpt lat="49.63008" lon="5.59359">
        <ele>333.79998779297</ele>
        <time>2022-03-18T10:16:00.000Z</time>
      </trkpt>
      <trkpt lat="49.6301" lon="5.59361">
        <ele>334.39999389648</ele>
        <time>2022-03-18T10:16:01.000Z</time>
      </trkpt>
      <trkpt lat="49.63011" lon="5.59363">
        <ele>334.60000610352</ele>
        <time>2022-03-18T10:16:02.000Z</time>
      </trkpt>
      <trkpt lat="49.6302" lon="5.59368">
        <ele>336.20001220703</ele>
        <time>2022-03-18T10:16:26.000Z</time>
      </trkpt>
      <trkpt lat="49.63025" lon="5.59365">
        <ele>336.39999389648</ele>
        <time>2022-03-18T10:16:29.000Z</time>
      </trkpt>
      <trkpt lat="49.63036" lon="5.59357">
        <ele>336.79998779297</ele>
        <time>2022-03-18T10:16:33.000Z</time>
      </trkpt>
      <trkpt lat="49.63042" lon="5.59354">
        <ele>337</ele>
        <time>2022-03-18T10:16:35.000Z</time>
      </trkpt>
      <trkpt lat="49.6306" lon="5.59351">
        <ele>339</ele>
        <time>2022-03-18T10:16:39.000Z</time>
      </trkpt>
      <trkpt lat="49.63078" lon="5.5936">
        <ele>339.79998779297</ele>
        <time>2022-03-18T10:16:43.000Z</time>
      </trkpt>
      <trkpt lat="49.63083" lon="5.59367">
        <ele>340.39999389648</ele>
        <time>2022-03-18T10:16:45.000Z</time>
      </trkpt>
      <trkpt lat="49.63087" lon="5.59374">
        <ele>341.20001220703</ele>
        <time>2022-03-18T10:16:47.000Z</time>
      </trkpt>
      <trkpt lat="49.63098" lon="5.59384">
        <ele>340.20001220703</ele>
        <time>2022-03-18T10:16:50.000Z</time>
      </trkpt>
      <trkpt lat="49.63102" lon="5.59388">
        <ele>340</ele>
        <time>2022-03-18T10:16:51.000Z</time>
      </trkpt>
      <trkpt lat="49.63112" lon="5.59401">
        <ele>338.79998779297</ele>
        <time>2022-03-18T10:16:54.000Z</time>
      </trkpt>
      <trkpt lat="49.63119" lon="5.5941">
        <ele>338.39999389648</ele>
        <time>2022-03-18T10:16:56.000Z</time>
      </trkpt>
      <trkpt lat="49.63127" lon="5.59426">
        <ele>338.60000610352</ele>
        <time>2022-03-18T10:16:59.000Z</time>
      </trkpt>
      <trkpt lat="49.63131" lon="5.59432">
        <ele>338.79998779297</ele>
        <time>2022-03-18T10:17:00.000Z</time>
      </trkpt>
      <trkpt lat="49.63134" lon="5.59437">
        <ele>338.79998779297</ele>
        <time>2022-03-18T10:17:01.000Z</time>
      </trkpt>
      <trkpt lat="49.6314" lon="5.59445">
        <ele>339</ele>
        <time>2022-03-18T10:17:03.000Z</time>
      </trkpt>
      <trkpt lat="49.63143" lon="5.59448">
        <ele>339</ele>
        <time>2022-03-18T10:17:04.000Z</time>
      </trkpt>
      <trkpt lat="49.63154" lon="5.59457">
        <ele>338.79998779297</ele>
        <time>2022-03-18T10:17:07.000Z</time>
      </trkpt>
      <trkpt lat="49.6317" lon="5.59477">
        <ele>339.20001220703</ele>
        <time>2022-03-18T10:17:11.000Z</time>
      </trkpt>
      <trkpt lat="49.63173" lon="5.59482">
        <ele>339.20001220703</ele>
        <time>2022-03-18T10:17:12.000Z</time>
      </trkpt>
      <trkpt lat="49.63184" lon="5.59497">
        <ele>339.20001220703</ele>
        <time>2022-03-18T10:17:15.000Z</time>
      </trkpt>
      <trkpt lat="49.63199" lon="5.59517">
        <ele>339.60000610352</ele>
        <time>2022-03-18T10:17:18.000Z</time>
      </trkpt>
      <trkpt lat="49.63209" lon="5.59542">
        <ele>340.79998779297</ele>
        <time>2022-03-18T10:17:22.000Z</time>
      </trkpt>
      <trkpt lat="49.63211" lon="5.59554">
        <ele>341.60000610352</ele>
        <time>2022-03-18T10:17:24.000Z</time>
      </trkpt>
      <trkpt lat="49.63218" lon="5.59569">
        <ele>342.39999389648</ele>
        <time>2022-03-18T10:17:26.000Z</time>
      </trkpt>
      <trkpt lat="49.63226" lon="5.59581">
        <ele>342.79998779297</ele>
        <time>2022-03-18T10:17:28.000Z</time>
      </trkpt>
      <trkpt lat="49.6323" lon="5.59587">
        <ele>343.20001220703</ele>
        <time>2022-03-18T10:17:29.000Z</time>
      </trkpt>
      <trkpt lat="49.63237" lon="5.59596">
        <ele>343.79998779297</ele>
        <time>2022-03-18T10:17:31.000Z</time>
      </trkpt>
      <trkpt lat="49.63249" lon="5.5961">
        <ele>344.60000610352</ele>
        <time>2022-03-18T10:17:34.000Z</time>
      </trkpt>
      <trkpt lat="49.63268" lon="5.59634">
        <ele>346.20001220703</ele>
        <time>2022-03-18T10:17:39.000Z</time>
      </trkpt>
      <trkpt lat="49.63274" lon="5.59642">
        <ele>346.79998779297</ele>
        <time>2022-03-18T10:17:41.000Z</time>
      </trkpt>
      <trkpt lat="49.6329" lon="5.59659">
        <ele>347.39999389648</ele>
        <time>2022-03-18T10:17:45.000Z</time>
      </trkpt>
      <trkpt lat="49.63301" lon="5.59671">
        <ele>347.79998779297</ele>
        <time>2022-03-18T10:17:48.000Z</time>
      </trkpt>
      <trkpt lat="49.6331" lon="5.59693">
        <ele>348.79998779297</ele>
        <time>2022-03-18T10:17:52.000Z</time>
      </trkpt>
      <trkpt lat="49.6331" lon="5.59705">
        <ele>349.39999389648</ele>
        <time>2022-03-18T10:17:54.000Z</time>
      </trkpt>
      <trkpt lat="49.63312" lon="5.59724">
        <ele>350</ele>
        <time>2022-03-18T10:17:57.000Z</time>
      </trkpt>
      <trkpt lat="49.63328" lon="5.59755">
        <ele>351</ele>
        <time>2022-03-18T10:18:02.000Z</time>
      </trkpt>
      <trkpt lat="49.63333" lon="5.59761">
        <ele>351</ele>
        <time>2022-03-18T10:18:03.000Z</time>
      </trkpt>
      <trkpt lat="49.63341" lon="5.59773">
        <ele>351</ele>
        <time>2022-03-18T10:18:05.000Z</time>
      </trkpt>
      <trkpt lat="49.63344" lon="5.59779">
        <ele>351</ele>
        <time>2022-03-18T10:18:06.000Z</time>
      </trkpt>
      <trkpt lat="49.63352" lon="5.5979">
        <ele>351.39999389648</ele>
        <time>2022-03-18T10:18:08.000Z</time>
      </trkpt>
      <trkpt lat="49.63372" lon="5.5982">
        <ele>352.39999389648</ele>
        <time>2022-03-18T10:18:14.000Z</time>
      </trkpt>
      <trkpt lat="49.63386" lon="5.59843">
        <ele>353</ele>
        <time>2022-03-18T10:18:18.000Z</time>
      </trkpt>
      <trkpt lat="49.63407" lon="5.5986">
        <ele>353</ele>
        <time>2022-03-18T10:18:23.000Z</time>
      </trkpt>
      <trkpt lat="49.63416" lon="5.59861">
        <ele>353</ele>
        <time>2022-03-18T10:18:24.000Z</time>
      </trkpt>
      <trkpt lat="49.63436" lon="5.59866">
        <ele>352.79998779297</ele>
        <time>2022-03-18T10:18:27.000Z</time>
      </trkpt>
      <trkpt lat="49.63446" lon="5.5987">
        <ele>352.60000610352</ele>
        <time>2022-03-18T10:18:29.000Z</time>
      </trkpt>
      <trkpt lat="49.63468" lon="5.59875">
        <ele>351.60000610352</ele>
        <time>2022-03-18T10:18:33.000Z</time>
      </trkpt>
      <trkpt lat="49.63481" lon="5.59881">
        <ele>351</ele>
        <time>2022-03-18T10:18:35.000Z</time>
      </trkpt>
      <trkpt lat="49.63489" lon="5.59884">
        <ele>351</ele>
        <time>2022-03-18T10:18:36.000Z</time>
      </trkpt>
      <trkpt lat="49.63519" lon="5.59892">
        <ele>351.60000610352</ele>
        <time>2022-03-18T10:18:41.000Z</time>
      </trkpt>
      <trkpt lat="49.63557" lon="5.59895">
        <ele>353</ele>
        <time>2022-03-18T10:18:48.000Z</time>
      </trkpt>
      <trkpt lat="49.63563" lon="5.59895">
        <ele>353.20001220703</ele>
        <time>2022-03-18T10:18:49.000Z</time>
      </trkpt>
      <trkpt lat="49.63604" lon="5.59895">
        <ele>351.79998779297</ele>
        <time>2022-03-18T10:18:55.000Z</time>
      </trkpt>
      <trkpt lat="49.63646" lon="5.59891">
        <ele>351</ele>
        <time>2022-03-18T10:19:00.000Z</time>
      </trkpt>
      <trkpt lat="49.63669" lon="5.59889">
        <ele>351.79998779297</ele>
        <time>2022-03-18T10:19:03.000Z</time>
      </trkpt>
      <trkpt lat="49.63682" lon="5.59891">
        <ele>352</ele>
        <time>2022-03-18T10:19:05.000Z</time>
      </trkpt>
      <trkpt lat="49.63694" lon="5.59894">
        <ele>352</ele>
        <time>2022-03-18T10:19:07.000Z</time>
      </trkpt>
      <trkpt lat="49.63712" lon="5.59904">
        <ele>352.79998779297</ele>
        <time>2022-03-18T10:19:10.000Z</time>
      </trkpt>
      <trkpt lat="49.63717" lon="5.59908">
        <ele>353.20001220703</ele>
        <time>2022-03-18T10:19:11.000Z</time>
      </trkpt>
      <trkpt lat="49.63726" lon="5.59916">
        <ele>353.79998779297</ele>
        <time>2022-03-18T10:19:13.000Z</time>
      </trkpt>
      <trkpt lat="49.63741" lon="5.5993">
        <ele>356</ele>
        <time>2022-03-18T10:19:16.000Z</time>
      </trkpt>
      <trkpt lat="49.63745" lon="5.59935">
        <ele>356.60000610352</ele>
        <time>2022-03-18T10:19:17.000Z</time>
      </trkpt>
      <trkpt lat="49.63763" lon="5.59953">
        <ele>358.60000610352</ele>
        <time>2022-03-18T10:19:21.000Z</time>
      </trkpt>
      <trkpt lat="49.63768" lon="5.59957">
        <ele>359</ele>
        <time>2022-03-18T10:19:22.000Z</time>
      </trkpt>
      <trkpt lat="49.63789" lon="5.59979">
        <ele>359.79998779297</ele>
        <time>2022-03-18T10:19:27.000Z</time>
      </trkpt>
      <trkpt lat="49.63793" lon="5.59983">
        <ele>359.79998779297</ele>
        <time>2022-03-18T10:19:28.000Z</time>
      </trkpt>
      <trkpt lat="49.63803" lon="5.59994">
        <ele>359.39999389648</ele>
        <time>2022-03-18T10:19:31.000Z</time>
      </trkpt>
      <trkpt lat="49.63811" lon="5.60002">
        <ele>359.20001220703</ele>
        <time>2022-03-18T10:19:33.000Z</time>
      </trkpt>
      <trkpt lat="49.6382" lon="5.6001">
        <ele>359.79998779297</ele>
        <time>2022-03-18T10:19:35.000Z</time>
      </trkpt>
      <trkpt lat="49.63829" lon="5.6002">
        <ele>360.39999389648</ele>
        <time>2022-03-18T10:19:37.000Z</time>
      </trkpt>
      <trkpt lat="49.63838" lon="5.60031">
        <ele>361</ele>
        <time>2022-03-18T10:19:39.000Z</time>
      </trkpt>
      <trkpt lat="49.63842" lon="5.60036">
        <ele>361.39999389648</ele>
        <time>2022-03-18T10:19:40.000Z</time>
      </trkpt>
      <trkpt lat="49.6386" lon="5.60059">
        <ele>362.79998779297</ele>
        <time>2022-03-18T10:19:45.000Z</time>
      </trkpt>
      <trkpt lat="49.63876" lon="5.60081">
        <ele>362.60000610352</ele>
        <time>2022-03-18T10:19:50.000Z</time>
      </trkpt>
      <trkpt lat="49.63884" lon="5.60089">
        <ele>362.39999389648</ele>
        <time>2022-03-18T10:19:52.000Z</time>
      </trkpt>
      <trkpt lat="49.63897" lon="5.60103">
        <ele>362.39999389648</ele>
        <time>2022-03-18T10:19:55.000Z</time>
      </trkpt>
      <trkpt lat="49.63907" lon="5.60116">
        <ele>362</ele>
        <time>2022-03-18T10:19:58.000Z</time>
      </trkpt>
      <trkpt lat="49.63911" lon="5.60121">
        <ele>362</ele>
        <time>2022-03-18T10:19:59.000Z</time>
      </trkpt>
      <trkpt lat="49.63932" lon="5.60145">
        <ele>361.79998779297</ele>
        <time>2022-03-18T10:20:04.000Z</time>
      </trkpt>
      <trkpt lat="49.6394" lon="5.60153">
        <ele>361.79998779297</ele>
        <time>2022-03-18T10:20:06.000Z</time>
      </trkpt>
      <trkpt lat="49.6396" lon="5.60171">
        <ele>362.20001220703</ele>
        <time>2022-03-18T10:20:10.000Z</time>
      </trkpt>
      <trkpt lat="49.63964" lon="5.60177">
        <ele>362.60000610352</ele>
        <time>2022-03-18T10:20:11.000Z</time>
      </trkpt>
      <trkpt lat="49.63968" lon="5.60181">
        <ele>362.79998779297</ele>
        <time>2022-03-18T10:20:12.000Z</time>
      </trkpt>
      <trkpt lat="49.63976" lon="5.60187">
        <ele>363.20001220703</ele>
        <time>2022-03-18T10:20:14.000Z</time>
      </trkpt>
      <trkpt lat="49.6399" lon="5.60201">
        <ele>365</ele>
        <time>2022-03-18T10:20:18.000Z</time>
      </trkpt>
      <trkpt lat="49.63995" lon="5.60207">
        <ele>365.79998779297</ele>
        <time>2022-03-18T10:20:20.000Z</time>
      </trkpt>
      <trkpt lat="49.63999" lon="5.60208">
        <ele>366</ele>
        <time>2022-03-18T10:20:21.000Z</time>
      </trkpt>
      <trkpt lat="49.64004" lon="5.60209">
        <ele>366.39999389648</ele>
        <time>2022-03-18T10:20:22.000Z</time>
      </trkpt>
      <trkpt lat="49.64032" lon="5.60218">
        <ele>369</ele>
        <time>2022-03-18T10:20:27.000Z</time>
      </trkpt>
      <trkpt lat="49.64051" lon="5.60224">
        <ele>370.39999389648</ele>
        <time>2022-03-18T10:20:31.000Z</time>
      </trkpt>
      <trkpt lat="49.64062" lon="5.60227">
        <ele>371</ele>
        <time>2022-03-18T10:20:33.000Z</time>
      </trkpt>
      <trkpt lat="49.64079" lon="5.60232">
        <ele>370.60000610352</ele>
        <time>2022-03-18T10:20:36.000Z</time>
      </trkpt>
      <trkpt lat="49.64083" lon="5.60234">
        <ele>370.39999389648</ele>
        <time>2022-03-18T10:20:37.000Z</time>
      </trkpt>
      <trkpt lat="49.64094" lon="5.60242">
        <ele>370.39999389648</ele>
        <time>2022-03-18T10:20:39.000Z</time>
      </trkpt>
      <trkpt lat="49.64107" lon="5.6025">
        <ele>370.20001220703</ele>
        <time>2022-03-18T10:20:41.000Z</time>
      </trkpt>
      <trkpt lat="49.6413" lon="5.60261">
        <ele>370</ele>
        <time>2022-03-18T10:20:45.000Z</time>
      </trkpt>
      <trkpt lat="49.64149" lon="5.60273">
        <ele>370.20001220703</ele>
        <time>2022-03-18T10:20:49.000Z</time>
      </trkpt>
      <trkpt lat="49.64154" lon="5.60276">
        <ele>370.39999389648</ele>
        <time>2022-03-18T10:20:50.000Z</time>
      </trkpt>
      <trkpt lat="49.64164" lon="5.60283">
        <ele>371</ele>
        <time>2022-03-18T10:20:52.000Z</time>
      </trkpt>
      <trkpt lat="49.6417" lon="5.60289">
        <ele>371.60000610352</ele>
        <time>2022-03-18T10:20:53.000Z</time>
      </trkpt>
      <trkpt lat="49.6418" lon="5.60296">
        <ele>372</ele>
        <time>2022-03-18T10:20:55.000Z</time>
      </trkpt>
      <trkpt lat="49.64207" lon="5.6031">
        <ele>372.79998779297</ele>
        <time>2022-03-18T10:21:00.000Z</time>
      </trkpt>
      <trkpt lat="49.64219" lon="5.60313">
        <ele>372.60000610352</ele>
        <time>2022-03-18T10:21:02.000Z</time>
      </trkpt>
      <trkpt lat="49.64226" lon="5.60315">
        <ele>372.60000610352</ele>
        <time>2022-03-18T10:21:03.000Z</time>
      </trkpt>
      <trkpt lat="49.64232" lon="5.60318">
        <ele>372</ele>
        <time>2022-03-18T10:21:04.000Z</time>
      </trkpt>
      <trkpt lat="49.64258" lon="5.60329">
        <ele>370</ele>
        <time>2022-03-18T10:21:08.000Z</time>
      </trkpt>
      <trkpt lat="49.64265" lon="5.60328">
        <ele>369</ele>
        <time>2022-03-18T10:21:09.000Z</time>
      </trkpt>
      <trkpt lat="49.64288" lon="5.60328">
        <ele>366.60000610352</ele>
        <time>2022-03-18T10:21:12.000Z</time>
      </trkpt>
      <trkpt lat="49.64303" lon="5.60332">
        <ele>365.39999389648</ele>
        <time>2022-03-18T10:21:14.000Z</time>
      </trkpt>
      <trkpt lat="49.64311" lon="5.60334">
        <ele>365</ele>
        <time>2022-03-18T10:21:15.000Z</time>
      </trkpt>
      <trkpt lat="49.64328" lon="5.60342">
        <ele>365</ele>
        <time>2022-03-18T10:21:17.000Z</time>
      </trkpt>
      <trkpt lat="49.64345" lon="5.60351">
        <ele>365</ele>
        <time>2022-03-18T10:21:19.000Z</time>
      </trkpt>
      <trkpt lat="49.64361" lon="5.60359">
        <ele>365</ele>
        <time>2022-03-18T10:21:21.000Z</time>
      </trkpt>
      <trkpt lat="49.64376" lon="5.60369">
        <ele>365</ele>
        <time>2022-03-18T10:21:23.000Z</time>
      </trkpt>
      <trkpt lat="49.64391" lon="5.60378">
        <ele>365</ele>
        <time>2022-03-18T10:21:25.000Z</time>
      </trkpt>
      <trkpt lat="49.64399" lon="5.60382">
        <ele>365</ele>
        <time>2022-03-18T10:21:26.000Z</time>
      </trkpt>
      <trkpt lat="49.64407" lon="5.60384">
        <ele>365</ele>
        <time>2022-03-18T10:21:27.000Z</time>
      </trkpt>
      <trkpt lat="49.64422" lon="5.60387">
        <ele>365</ele>
        <time>2022-03-18T10:21:29.000Z</time>
      </trkpt>
      <trkpt lat="49.64436" lon="5.60392">
        <ele>364.39999389648</ele>
        <time>2022-03-18T10:21:31.000Z</time>
      </trkpt>
      <trkpt lat="49.64463" lon="5.60401">
        <ele>362.39999389648</ele>
        <time>2022-03-18T10:21:35.000Z</time>
      </trkpt>
      <trkpt lat="49.64469" lon="5.60407">
        <ele>361.79998779297</ele>
        <time>2022-03-18T10:21:36.000Z</time>
      </trkpt>
      <trkpt lat="49.64474" lon="5.60413">
        <ele>361.20001220703</ele>
        <time>2022-03-18T10:21:37.000Z</time>
      </trkpt>
      <trkpt lat="49.64482" lon="5.60427">
        <ele>360.39999389648</ele>
        <time>2022-03-18T10:21:39.000Z</time>
      </trkpt>
      <trkpt lat="49.64489" lon="5.60434">
        <ele>359.60000610352</ele>
        <time>2022-03-18T10:21:41.000Z</time>
      </trkpt>
      <trkpt lat="49.64493" lon="5.60432">
        <ele>359.20001220703</ele>
        <time>2022-03-18T10:21:42.000Z</time>
      </trkpt>
      <trkpt lat="49.64497" lon="5.60423">
        <ele>358.79998779297</ele>
        <time>2022-03-18T10:21:44.000Z</time>
      </trkpt>
      <trkpt lat="49.64499" lon="5.60418">
        <ele>358.60000610352</ele>
        <time>2022-03-18T10:21:45.000Z</time>
      </trkpt>
      <trkpt lat="49.64509" lon="5.60411">
        <ele>358.20001220703</ele>
        <time>2022-03-18T10:21:49.000Z</time>
      </trkpt>
      <trkpt lat="49.64525" lon="5.60416">
        <ele>358.79998779297</ele>
        <time>2022-03-18T10:21:54.000Z</time>
      </trkpt>
      <trkpt lat="49.64537" lon="5.60423">
        <ele>359.39999389648</ele>
        <time>2022-03-18T10:21:58.000Z</time>
      </trkpt>
      <trkpt lat="49.64544" lon="5.60424">
        <ele>359.79998779297</ele>
        <time>2022-03-18T10:22:00.000Z</time>
      </trkpt>
      <trkpt lat="49.64548" lon="5.60426">
        <ele>360.20001220703</ele>
        <time>2022-03-18T10:22:01.000Z</time>
      </trkpt>
      <trkpt lat="49.64555" lon="5.6043">
        <ele>360.60000610352</ele>
        <time>2022-03-18T10:22:03.000Z</time>
      </trkpt>
      <trkpt lat="49.64565" lon="5.60436">
        <ele>360.79998779297</ele>
        <time>2022-03-18T10:22:06.000Z</time>
      </trkpt>
      <trkpt lat="49.64586" lon="5.6045">
        <ele>360.20001220703</ele>
        <time>2022-03-18T10:22:11.000Z</time>
      </trkpt>
      <trkpt lat="49.64591" lon="5.60453">
        <ele>359.79998779297</ele>
        <time>2022-03-18T10:22:12.000Z</time>
      </trkpt>
      <trkpt lat="49.64606" lon="5.60464">
        <ele>358.60000610352</ele>
        <time>2022-03-18T10:22:16.000Z</time>
      </trkpt>
      <trkpt lat="49.64614" lon="5.60467">
        <ele>357.79998779297</ele>
        <time>2022-03-18T10:22:18.000Z</time>
      </trkpt>
      <trkpt lat="49.64623" lon="5.6047">
        <ele>357.20001220703</ele>
        <time>2022-03-18T10:22:20.000Z</time>
      </trkpt>
      <trkpt lat="49.64646" lon="5.60477">
        <ele>356.39999389648</ele>
        <time>2022-03-18T10:22:25.000Z</time>
      </trkpt>
      <trkpt lat="49.64685" lon="5.60485">
        <ele>358.60000610352</ele>
        <time>2022-03-18T10:22:32.000Z</time>
      </trkpt>
      <trkpt lat="49.6469" lon="5.60486">
        <ele>359</ele>
        <time>2022-03-18T10:22:33.000Z</time>
      </trkpt>
      <trkpt lat="49.64713" lon="5.60488">
        <ele>358.39999389648</ele>
        <time>2022-03-18T10:22:37.000Z</time>
      </trkpt>
      <trkpt lat="49.64725" lon="5.60488">
        <ele>357.39999389648</ele>
        <time>2022-03-18T10:22:39.000Z</time>
      </trkpt>
      <trkpt lat="49.64748" lon="5.60487">
        <ele>357.39999389648</ele>
        <time>2022-03-18T10:22:43.000Z</time>
      </trkpt>
      <trkpt lat="49.64766" lon="5.60487">
        <ele>359</ele>
        <time>2022-03-18T10:22:46.000Z</time>
      </trkpt>
      <trkpt lat="49.64802" lon="5.60474">
        <ele>361.60000610352</ele>
        <time>2022-03-18T10:22:52.000Z</time>
      </trkpt>
      <trkpt lat="49.64845" lon="5.60452">
        <ele>360.20001220703</ele>
        <time>2022-03-18T10:22:59.000Z</time>
      </trkpt>
      <trkpt lat="49.64872" lon="5.6044">
        <ele>358</ele>
        <time>2022-03-18T10:23:03.000Z</time>
      </trkpt>
      <trkpt lat="49.64903" lon="5.60426">
        <ele>356.60000610352</ele>
        <time>2022-03-18T10:23:08.000Z</time>
      </trkpt>
      <trkpt lat="49.64939" lon="5.60417">
        <ele>357.20001220703</ele>
        <time>2022-03-18T10:23:14.000Z</time>
      </trkpt>
      <trkpt lat="49.64968" lon="5.6042">
        <ele>358</ele>
        <time>2022-03-18T10:23:19.000Z</time>
      </trkpt>
      <trkpt lat="49.65003" lon="5.60419">
        <ele>358</ele>
        <time>2022-03-18T10:23:25.000Z</time>
      </trkpt>
      <trkpt lat="49.65026" lon="5.60409">
        <ele>357.39999389648</ele>
        <time>2022-03-18T10:23:29.000Z</time>
      </trkpt>
      <trkpt lat="49.65037" lon="5.60403">
        <ele>357.79998779297</ele>
        <time>2022-03-18T10:23:31.000Z</time>
      </trkpt>
      <trkpt lat="49.65047" lon="5.60395">
        <ele>358.20001220703</ele>
        <time>2022-03-18T10:23:33.000Z</time>
      </trkpt>
      <trkpt lat="49.65061" lon="5.6038">
        <ele>358.20001220703</ele>
        <time>2022-03-18T10:23:36.000Z</time>
      </trkpt>
      <trkpt lat="49.6507" lon="5.60368">
        <ele>357.39999389648</ele>
        <time>2022-03-18T10:23:38.000Z</time>
      </trkpt>
      <trkpt lat="49.65085" lon="5.60343">
        <ele>356.60000610352</ele>
        <time>2022-03-18T10:23:42.000Z</time>
      </trkpt>
      <trkpt lat="49.65089" lon="5.60338">
        <ele>356.20001220703</ele>
        <time>2022-03-18T10:23:43.000Z</time>
      </trkpt>
      <trkpt lat="49.65118" lon="5.60303">
        <ele>357</ele>
        <time>2022-03-18T10:23:49.000Z</time>
      </trkpt>
      <trkpt lat="49.65124" lon="5.60297">
        <ele>356.79998779297</ele>
        <time>2022-03-18T10:23:50.000Z</time>
      </trkpt>
      <trkpt lat="49.65144" lon="5.60276">
        <ele>357</ele>
        <time>2022-03-18T10:23:54.000Z</time>
      </trkpt>
      <trkpt lat="49.65154" lon="5.60264">
        <ele>357.79998779297</ele>
        <time>2022-03-18T10:23:56.000Z</time>
      </trkpt>
      <trkpt lat="49.65185" lon="5.60218">
        <ele>358.20001220703</ele>
        <time>2022-03-18T10:24:03.000Z</time>
      </trkpt>
      <trkpt lat="49.65211" lon="5.60192">
        <ele>360</ele>
        <time>2022-03-18T10:24:08.000Z</time>
      </trkpt>
      <trkpt lat="49.65254" lon="5.60158">
        <ele>363.60000610352</ele>
        <time>2022-03-18T10:24:16.000Z</time>
      </trkpt>
      <trkpt lat="49.65285" lon="5.60133">
        <ele>364.39999389648</ele>
        <time>2022-03-18T10:24:22.000Z</time>
      </trkpt>
      <trkpt lat="49.65294" lon="5.60124">
        <ele>364.20001220703</ele>
        <time>2022-03-18T10:24:24.000Z</time>
      </trkpt>
      <trkpt lat="49.6531" lon="5.6011">
        <ele>364.60000610352</ele>
        <time>2022-03-18T10:24:27.000Z</time>
      </trkpt>
      <trkpt lat="49.65334" lon="5.60084">
        <ele>363.60000610352</ele>
        <time>2022-03-18T10:24:32.000Z</time>
      </trkpt>
      <trkpt lat="49.65339" lon="5.60078">
        <ele>363.20001220703</ele>
        <time>2022-03-18T10:24:33.000Z</time>
      </trkpt>
      <trkpt lat="49.65363" lon="5.60055">
        <ele>362.79998779297</ele>
        <time>2022-03-18T10:24:38.000Z</time>
      </trkpt>
      <trkpt lat="49.65385" lon="5.60033">
        <ele>364</ele>
        <time>2022-03-18T10:24:43.000Z</time>
      </trkpt>
      <trkpt lat="49.65394" lon="5.60024">
        <ele>365.20001220703</ele>
        <time>2022-03-18T10:24:45.000Z</time>
      </trkpt>
      <trkpt lat="49.65404" lon="5.60015">
        <ele>365.20001220703</ele>
        <time>2022-03-18T10:24:47.000Z</time>
      </trkpt>
      <trkpt lat="49.65409" lon="5.60011">
        <ele>365.79998779297</ele>
        <time>2022-03-18T10:24:48.000Z</time>
      </trkpt>
      <trkpt lat="49.65423" lon="5.59998">
        <ele>367</ele>
        <time>2022-03-18T10:24:51.000Z</time>
      </trkpt>
      <trkpt lat="49.65434" lon="5.59988">
        <ele>366.20001220703</ele>
        <time>2022-03-18T10:24:53.000Z</time>
      </trkpt>
      <trkpt lat="49.65466" lon="5.59953">
        <ele>362.39999389648</ele>
        <time>2022-03-18T10:24:59.000Z</time>
      </trkpt>
      <trkpt lat="49.65472" lon="5.59947">
        <ele>361</ele>
        <time>2022-03-18T10:25:00.000Z</time>
      </trkpt>
      <trkpt lat="49.65487" lon="5.59926">
        <ele>360.39999389648</ele>
        <time>2022-03-18T10:25:03.000Z</time>
      </trkpt>
      <trkpt lat="49.65506" lon="5.599">
        <ele>357.39999389648</ele>
        <time>2022-03-18T10:25:07.000Z</time>
      </trkpt>
      <trkpt lat="49.65519" lon="5.59882">
        <ele>357.79998779297</ele>
        <time>2022-03-18T10:25:10.000Z</time>
      </trkpt>
      <trkpt lat="49.65523" lon="5.59875">
        <ele>358</ele>
        <time>2022-03-18T10:25:11.000Z</time>
      </trkpt>
      <trkpt lat="49.65531" lon="5.5986">
        <ele>358</ele>
        <time>2022-03-18T10:25:13.000Z</time>
      </trkpt>
      <trkpt lat="49.65558" lon="5.59803">
        <ele>358.79998779297</ele>
        <time>2022-03-18T10:25:20.000Z</time>
      </trkpt>
      <trkpt lat="49.65574" lon="5.59764">
        <ele>358</ele>
        <time>2022-03-18T10:25:25.000Z</time>
      </trkpt>
      <trkpt lat="49.65577" lon="5.59758">
        <ele>358.20001220703</ele>
        <time>2022-03-18T10:25:26.000Z</time>
      </trkpt>
      <trkpt lat="49.65584" lon="5.59746">
        <ele>358.60000610352</ele>
        <time>2022-03-18T10:25:28.000Z</time>
      </trkpt>
      <trkpt lat="49.65599" lon="5.5972">
        <ele>357.79998779297</ele>
        <time>2022-03-18T10:25:32.000Z</time>
      </trkpt>
      <trkpt lat="49.65616" lon="5.59698">
        <ele>357</ele>
        <time>2022-03-18T10:25:36.000Z</time>
      </trkpt>
      <trkpt lat="49.65624" lon="5.59688">
        <ele>357.39999389648</ele>
        <time>2022-03-18T10:25:38.000Z</time>
      </trkpt>
      <trkpt lat="49.65629" lon="5.59682">
        <ele>357.79998779297</ele>
        <time>2022-03-18T10:25:39.000Z</time>
      </trkpt>
      <trkpt lat="49.65647" lon="5.59665">
        <ele>358.20001220703</ele>
        <time>2022-03-18T10:25:43.000Z</time>
      </trkpt>
      <trkpt lat="49.65667" lon="5.59652">
        <ele>358.20001220703</ele>
        <time>2022-03-18T10:25:47.000Z</time>
      </trkpt>
      <trkpt lat="49.65678" lon="5.59648">
        <ele>358</ele>
        <time>2022-03-18T10:25:49.000Z</time>
      </trkpt>
      <trkpt lat="49.65695" lon="5.5964">
        <ele>358.39999389648</ele>
        <time>2022-03-18T10:25:53.000Z</time>
      </trkpt>
      <trkpt lat="49.65707" lon="5.5963">
        <ele>358.60000610352</ele>
        <time>2022-03-18T10:25:55.000Z</time>
      </trkpt>
      <trkpt lat="49.65722" lon="5.59616">
        <ele>359</ele>
        <time>2022-03-18T10:25:58.000Z</time>
      </trkpt>
      <trkpt lat="49.65742" lon="5.59591">
        <ele>359.39999389648</ele>
        <time>2022-03-18T10:26:02.000Z</time>
      </trkpt>
      <trkpt lat="49.65776" lon="5.59551">
        <ele>355</ele>
        <time>2022-03-18T10:26:08.000Z</time>
      </trkpt>
      <trkpt lat="49.65794" lon="5.5953">
        <ele>353.20001220703</ele>
        <time>2022-03-18T10:26:11.000Z</time>
      </trkpt>
      <trkpt lat="49.65812" lon="5.59514">
        <ele>352.39999389648</ele>
        <time>2022-03-18T10:26:14.000Z</time>
      </trkpt>
      <trkpt lat="49.65818" lon="5.59511">
        <ele>352.20001220703</ele>
        <time>2022-03-18T10:26:15.000Z</time>
      </trkpt>
      <trkpt lat="49.6583" lon="5.59517">
        <ele>350.79998779297</ele>
        <time>2022-03-18T10:26:17.000Z</time>
      </trkpt>
      <trkpt lat="49.65836" lon="5.59521">
        <ele>350.20001220703</ele>
        <time>2022-03-18T10:26:18.000Z</time>
      </trkpt>
      <trkpt lat="49.65848" lon="5.59529">
        <ele>349.60000610352</ele>
        <time>2022-03-18T10:26:20.000Z</time>
      </trkpt>
      <trkpt lat="49.65862" lon="5.59541">
        <ele>349.20001220703</ele>
        <time>2022-03-18T10:26:23.000Z</time>
      </trkpt>
      <trkpt lat="49.65882" lon="5.59561">
        <ele>349.79998779297</ele>
        <time>2022-03-18T10:26:28.000Z</time>
      </trkpt>
      <trkpt lat="49.65895" lon="5.59573">
        <ele>350.60000610352</ele>
        <time>2022-03-18T10:26:31.000Z</time>
      </trkpt>
      <trkpt lat="49.65926" lon="5.59596">
        <ele>351.20001220703</ele>
        <time>2022-03-18T10:26:37.000Z</time>
      </trkpt>
      <trkpt lat="49.65963" lon="5.5961">
        <ele>353.60000610352</ele>
        <time>2022-03-18T10:26:44.000Z</time>
      </trkpt>
      <trkpt lat="49.65975" lon="5.59614">
        <ele>354.79998779297</ele>
        <time>2022-03-18T10:26:46.000Z</time>
      </trkpt>
      <trkpt lat="49.66006" lon="5.59625">
        <ele>357.39999389648</ele>
        <time>2022-03-18T10:26:51.000Z</time>
      </trkpt>
      <trkpt lat="49.66012" lon="5.59627">
        <ele>357</ele>
        <time>2022-03-18T10:26:52.000Z</time>
      </trkpt>
      <trkpt lat="49.66049" lon="5.59637">
        <ele>351.60000610352</ele>
        <time>2022-03-18T10:26:58.000Z</time>
      </trkpt>
      <trkpt lat="49.66094" lon="5.59651">
        <ele>346.20001220703</ele>
        <time>2022-03-18T10:27:05.000Z</time>
      </trkpt>
      <trkpt lat="49.66101" lon="5.59653">
        <ele>346.39999389648</ele>
        <time>2022-03-18T10:27:06.000Z</time>
      </trkpt>
      <trkpt lat="49.66133" lon="5.59664">
        <ele>348.20001220703</ele>
        <time>2022-03-18T10:27:11.000Z</time>
      </trkpt>
      <trkpt lat="49.66146" lon="5.59666">
        <ele>348.79998779297</ele>
        <time>2022-03-18T10:27:13.000Z</time>
      </trkpt>
      <trkpt lat="49.66152" lon="5.59667">
        <ele>348.20001220703</ele>
        <time>2022-03-18T10:27:14.000Z</time>
      </trkpt>
      <trkpt lat="49.66177" lon="5.59668">
        <ele>346.39999389648</ele>
        <time>2022-03-18T10:27:18.000Z</time>
      </trkpt>
      <trkpt lat="49.66198" lon="5.59668">
        <ele>344</ele>
        <time>2022-03-18T10:27:21.000Z</time>
      </trkpt>
      <trkpt lat="49.66224" lon="5.59672">
        <ele>342.20001220703</ele>
        <time>2022-03-18T10:27:25.000Z</time>
      </trkpt>
      <trkpt lat="49.66237" lon="5.59674">
        <ele>341.79998779297</ele>
        <time>2022-03-18T10:27:27.000Z</time>
      </trkpt>
      <trkpt lat="49.66293" lon="5.59681">
        <ele>341.60000610352</ele>
        <time>2022-03-18T10:27:35.000Z</time>
      </trkpt>
      <trkpt lat="49.66306" lon="5.59682">
        <ele>341.20001220703</ele>
        <time>2022-03-18T10:27:37.000Z</time>
      </trkpt>
      <trkpt lat="49.6632" lon="5.59682">
        <ele>340.60000610352</ele>
        <time>2022-03-18T10:27:39.000Z</time>
      </trkpt>
      <trkpt lat="49.66374" lon="5.59682">
        <ele>338.20001220703</ele>
        <time>2022-03-18T10:27:47.000Z</time>
      </trkpt>
      <trkpt lat="49.66386" lon="5.59685">
        <ele>338.79998779297</ele>
        <time>2022-03-18T10:27:49.000Z</time>
      </trkpt>
      <trkpt lat="49.66397" lon="5.59691">
        <ele>339.20001220703</ele>
        <time>2022-03-18T10:27:51.000Z</time>
      </trkpt>
      <trkpt lat="49.66408" lon="5.59698">
        <ele>340</ele>
        <time>2022-03-18T10:27:53.000Z</time>
      </trkpt>
      <trkpt lat="49.66414" lon="5.597">
        <ele>340.39999389648</ele>
        <time>2022-03-18T10:27:54.000Z</time>
      </trkpt>
      <trkpt lat="49.66432" lon="5.59709">
        <ele>341.79998779297</ele>
        <time>2022-03-18T10:27:57.000Z</time>
      </trkpt>
      <trkpt lat="49.66466" lon="5.59728">
        <ele>343.20001220703</ele>
        <time>2022-03-18T10:28:03.000Z</time>
      </trkpt>
      <trkpt lat="49.66514" lon="5.59746">
        <ele>341.39999389648</ele>
        <time>2022-03-18T10:28:11.000Z</time>
      </trkpt>
      <trkpt lat="49.6652" lon="5.59748">
        <ele>341.20001220703</ele>
        <time>2022-03-18T10:28:12.000Z</time>
      </trkpt>
      <trkpt lat="49.66567" lon="5.59765">
        <ele>342.20001220703</ele>
        <time>2022-03-18T10:28:20.000Z</time>
      </trkpt>
      <trkpt lat="49.66585" lon="5.59772">
        <ele>343</ele>
        <time>2022-03-18T10:28:23.000Z</time>
      </trkpt>
      <trkpt lat="49.66609" lon="5.5978">
        <ele>343</ele>
        <time>2022-03-18T10:28:27.000Z</time>
      </trkpt>
      <trkpt lat="49.66633" lon="5.59789">
        <ele>341.79998779297</ele>
        <time>2022-03-18T10:28:31.000Z</time>
      </trkpt>
      <trkpt lat="49.66651" lon="5.59796">
        <ele>341</ele>
        <time>2022-03-18T10:28:34.000Z</time>
      </trkpt>
      <trkpt lat="49.66657" lon="5.59798">
        <ele>341</ele>
        <time>2022-03-18T10:28:35.000Z</time>
      </trkpt>
      <trkpt lat="49.66686" lon="5.59809">
        <ele>341</ele>
        <time>2022-03-18T10:28:40.000Z</time>
      </trkpt>
      <trkpt lat="49.66698" lon="5.59813">
        <ele>341.20001220703</ele>
        <time>2022-03-18T10:28:42.000Z</time>
      </trkpt>
      <trkpt lat="49.66737" lon="5.59827">
        <ele>342.60000610352</ele>
        <time>2022-03-18T10:28:49.000Z</time>
      </trkpt>
      <trkpt lat="49.66762" lon="5.59837">
        <ele>342.39999389648</ele>
        <time>2022-03-18T10:28:54.000Z</time>
      </trkpt>
      <trkpt lat="49.66764" lon="5.59841">
        <ele>342.20001220703</ele>
        <time>2022-03-18T10:28:55.000Z</time>
      </trkpt>
      <trkpt lat="49.66764" lon="5.5986">
        <ele>341.39999389648</ele>
        <time>2022-03-18T10:28:58.000Z</time>
      </trkpt>
      <trkpt lat="49.66763" lon="5.59867">
        <ele>341.39999389648</ele>
        <time>2022-03-18T10:28:59.000Z</time>
      </trkpt>
      <trkpt lat="49.66763" lon="5.59884">
        <ele>341.39999389648</ele>
        <time>2022-03-18T10:29:01.000Z</time>
      </trkpt>
      <trkpt lat="49.66763" lon="5.59903">
        <ele>341.60000610352</ele>
        <time>2022-03-18T10:29:03.000Z</time>
      </trkpt>
      <trkpt lat="49.66765" lon="5.59931">
        <ele>341.60000610352</ele>
        <time>2022-03-18T10:29:06.000Z</time>
      </trkpt>
      <trkpt lat="49.66765" lon="5.5994">
        <ele>341.60000610352</ele>
        <time>2022-03-18T10:29:07.000Z</time>
      </trkpt>
      <trkpt lat="49.66766" lon="5.59959">
        <ele>341.60000610352</ele>
        <time>2022-03-18T10:29:09.000Z</time>
      </trkpt>
      <trkpt lat="49.66768" lon="5.60013">
        <ele>341</ele>
        <time>2022-03-18T10:29:15.000Z</time>
      </trkpt>
      <trkpt lat="49.66771" lon="5.60017">
        <ele>341</ele>
        <time>2022-03-18T10:29:16.000Z</time>
      </trkpt>
      <trkpt lat="49.66778" lon="5.60019">
        <ele>341</ele>
        <time>2022-03-18T10:29:18.000Z</time>
      </trkpt>
      <trkpt lat="49.66783" lon="5.60017">
        <ele>341</ele>
        <time>2022-03-18T10:29:19.000Z</time>
      </trkpt>
      <trkpt lat="49.66793" lon="5.60013">
        <ele>341.39999389648</ele>
        <time>2022-03-18T10:29:21.000Z</time>
      </trkpt>
      <trkpt lat="49.6681" lon="5.60005">
        <ele>341</ele>
        <time>2022-03-18T10:29:24.000Z</time>
      </trkpt>
      <trkpt lat="49.66839" lon="5.59999">
        <ele>340.79998779297</ele>
        <time>2022-03-18T10:29:29.000Z</time>
      </trkpt>
      <trkpt lat="49.66882" lon="5.60001">
        <ele>340.60000610352</ele>
        <time>2022-03-18T10:29:36.000Z</time>
      </trkpt>
      <trkpt lat="49.66926" lon="5.60007">
        <ele>342</ele>
        <time>2022-03-18T10:29:43.000Z</time>
      </trkpt>
      <trkpt lat="49.66962" lon="5.60009">
        <ele>342.20001220703</ele>
        <time>2022-03-18T10:29:49.000Z</time>
      </trkpt>
      <trkpt lat="49.66975" lon="5.60009">
        <ele>342.60000610352</ele>
        <time>2022-03-18T10:29:51.000Z</time>
      </trkpt>
      <trkpt lat="49.67024" lon="5.60012">
        <ele>342.39999389648</ele>
        <time>2022-03-18T10:29:59.000Z</time>
      </trkpt>
      <trkpt lat="49.67057" lon="5.60016">
        <ele>342.60000610352</ele>
        <time>2022-03-18T10:30:05.000Z</time>
      </trkpt>
      <trkpt lat="49.67059" lon="5.60031">
        <ele>342</ele>
        <time>2022-03-18T10:30:07.000Z</time>
      </trkpt>
      <trkpt lat="49.67059" lon="5.6005">
        <ele>341.20001220703</ele>
        <time>2022-03-18T10:30:09.000Z</time>
      </trkpt>
      <trkpt lat="49.67059" lon="5.60069">
        <ele>340.60000610352</ele>
        <time>2022-03-18T10:30:11.000Z</time>
      </trkpt>
      <trkpt lat="49.67063" lon="5.60088">
        <ele>340</ele>
        <time>2022-03-18T10:30:13.000Z</time>
      </trkpt>
      <trkpt lat="49.67067" lon="5.60095">
        <ele>340.20001220703</ele>
        <time>2022-03-18T10:30:14.000Z</time>
      </trkpt>
      <trkpt lat="49.67072" lon="5.60101">
        <ele>340.39999389648</ele>
        <time>2022-03-18T10:30:15.000Z</time>
      </trkpt>
      <trkpt lat="49.67083" lon="5.60114">
        <ele>340.60000610352</ele>
        <time>2022-03-18T10:30:17.000Z</time>
      </trkpt>
      <trkpt lat="49.67103" lon="5.60139">
        <ele>339.60000610352</ele>
        <time>2022-03-18T10:30:21.000Z</time>
      </trkpt>
      <trkpt lat="49.6711" lon="5.60169">
        <ele>338.20001220703</ele>
        <time>2022-03-18T10:30:24.000Z</time>
      </trkpt>
      <trkpt lat="49.67112" lon="5.6018">
        <ele>338.20001220703</ele>
        <time>2022-03-18T10:30:25.000Z</time>
      </trkpt>
      <trkpt lat="49.67113" lon="5.60191">
        <ele>338.20001220703</ele>
        <time>2022-03-18T10:30:26.000Z</time>
      </trkpt>
      <trkpt lat="49.67115" lon="5.60212">
        <ele>337.39999389648</ele>
        <time>2022-03-18T10:30:28.000Z</time>
      </trkpt>
      <trkpt lat="49.67119" lon="5.60254">
        <ele>336</ele>
        <time>2022-03-18T10:30:32.000Z</time>
      </trkpt>
      <trkpt lat="49.67125" lon="5.60303">
        <ele>336</ele>
        <time>2022-03-18T10:30:37.000Z</time>
      </trkpt>
      <trkpt lat="49.67124" lon="5.60313">
        <ele>335.79998779297</ele>
        <time>2022-03-18T10:30:38.000Z</time>
      </trkpt>
      <trkpt lat="49.67123" lon="5.60323">
        <ele>335.79998779297</ele>
        <time>2022-03-18T10:30:39.000Z</time>
      </trkpt>
      <trkpt lat="49.67122" lon="5.60343">
        <ele>335.60000610352</ele>
        <time>2022-03-18T10:30:41.000Z</time>
      </trkpt>
      <trkpt lat="49.67124" lon="5.60372">
        <ele>334.39999389648</ele>
        <time>2022-03-18T10:30:44.000Z</time>
      </trkpt>
      <trkpt lat="49.67128" lon="5.60398">
        <ele>333.39999389648</ele>
        <time>2022-03-18T10:30:47.000Z</time>
      </trkpt>
      <trkpt lat="49.67137" lon="5.60401">
        <ele>332.79998779297</ele>
        <time>2022-03-18T10:30:49.000Z</time>
      </trkpt>
      <trkpt lat="49.67146" lon="5.60391">
        <ele>333</ele>
        <time>2022-03-18T10:30:51.000Z</time>
      </trkpt>
      <trkpt lat="49.67151" lon="5.60385">
        <ele>333.20001220703</ele>
        <time>2022-03-18T10:30:52.000Z</time>
      </trkpt>
      <trkpt lat="49.67174" lon="5.60354">
        <ele>334.39999389648</ele>
        <time>2022-03-18T10:30:57.000Z</time>
      </trkpt>
      <trkpt lat="49.67187" lon="5.60334">
        <ele>335</ele>
        <time>2022-03-18T10:31:00.000Z</time>
      </trkpt>
      <trkpt lat="49.67195" lon="5.60324">
        <ele>335.39999389648</ele>
        <time>2022-03-18T10:31:02.000Z</time>
      </trkpt>
      <trkpt lat="49.672" lon="5.60322">
        <ele>335.60000610352</ele>
        <time>2022-03-18T10:31:03.000Z</time>
      </trkpt>
      <trkpt lat="49.67215" lon="5.60328">
        <ele>335.39999389648</ele>
        <time>2022-03-18T10:31:06.000Z</time>
      </trkpt>
      <trkpt lat="49.67221" lon="5.60329">
        <ele>335.20001220703</ele>
        <time>2022-03-18T10:31:07.000Z</time>
      </trkpt>
      <trkpt lat="49.67237" lon="5.6034">
        <ele>334.60000610352</ele>
        <time>2022-03-18T10:31:11.000Z</time>
      </trkpt>
      <trkpt lat="49.67239" lon="5.60361">
        <ele>334.60000610352</ele>
        <time>2022-03-18T10:31:14.000Z</time>
      </trkpt>
      <trkpt lat="49.67241" lon="5.60366">
        <ele>334.39999389648</ele>
        <time>2022-03-18T10:31:15.000Z</time>
      </trkpt>
      <trkpt lat="49.67243" lon="5.60372">
        <ele>334.39999389648</ele>
        <time>2022-03-18T10:31:16.000Z</time>
      </trkpt>
      <trkpt lat="49.67254" lon="5.60378">
        <ele>334</ele>
        <time>2022-03-18T10:31:18.000Z</time>
      </trkpt>
      <trkpt lat="49.67265" lon="5.60382">
        <ele>333.60000610352</ele>
        <time>2022-03-18T10:31:20.000Z</time>
      </trkpt>
      <trkpt lat="49.67274" lon="5.60387">
        <ele>333.39999389648</ele>
        <time>2022-03-18T10:31:23.000Z</time>
      </trkpt>
    </trkseg>
  </trk>
</gpx>